<?xml version="1.0" encoding="UTF-8" standalone="no" ?>
<gpx xmlns="http://www.topografix.com/GPX/1/1" xmlns:xsi="http://www.w3.org/2001/XMLSchema-instance" xsi:schemaLocation="http://www.topografix.com/GPX/1/1 http://www.topografix.com/GPX/1/1/gpx.xsd" version="1.1" creator="VisuGPX - https://www.visugpx.com">
  <metadata>
    <name>lundi 2015 12</name>
    <desc><![CDATA[cumul décembre 2015]]></desc>
  </metadata>
  <trk>
    <name><![CDATA[lundi 2015 12 28]]></name>
    <extensions>
      <line xmlns="http://www.topografix.com/GPX/gpx_style/0/2">
        <color>000000</color>
      </line>
    </extensions>
    <trkseg>
      <trkpt lat="48.85739" lon="2.34731">
        <ele>40.400001525879</ele>
        <time>2015-12-28T19:20:28Z</time>
      </trkpt>
      <trkpt lat="48.85742" lon="2.3474">
        <ele>40.400001525879</ele>
        <time>2015-12-28T19:20:44Z</time>
      </trkpt>
      <trkpt lat="48.85759" lon="2.34752">
        <ele>40</ele>
        <time>2015-12-28T19:20:55Z</time>
      </trkpt>
      <trkpt lat="48.85774" lon="2.34768">
        <ele>39.599998474121</ele>
        <time>2015-12-28T19:21:06Z</time>
      </trkpt>
      <trkpt lat="48.85787" lon="2.34786">
        <ele>40.79999923706</ele>
        <time>2015-12-28T19:21:14Z</time>
      </trkpt>
      <trkpt lat="48.85804" lon="2.34797">
        <ele>42.599998474121</ele>
        <time>2015-12-28T19:21:18Z</time>
      </trkpt>
      <trkpt lat="48.85821" lon="2.34806">
        <ele>44.400001525879</ele>
        <time>2015-12-28T19:21:23Z</time>
      </trkpt>
      <trkpt lat="48.85838" lon="2.34816">
        <ele>46.20000076294</ele>
        <time>2015-12-28T19:21:30Z</time>
      </trkpt>
      <trkpt lat="48.85838" lon="2.34827">
        <ele>46</ele>
        <time>2015-12-28T19:21:48Z</time>
      </trkpt>
      <trkpt lat="48.85859" lon="2.34834">
        <ele>48</ele>
        <time>2015-12-28T19:22:08Z</time>
      </trkpt>
      <trkpt lat="48.8588" lon="2.34843">
        <ele>48</ele>
        <time>2015-12-28T19:22:14Z</time>
      </trkpt>
      <trkpt lat="48.859" lon="2.3485">
        <ele>48</ele>
        <time>2015-12-28T19:22:19Z</time>
      </trkpt>
      <trkpt lat="48.85921" lon="2.34859">
        <ele>48</ele>
        <time>2015-12-28T19:22:24Z</time>
      </trkpt>
      <trkpt lat="48.85938" lon="2.34867">
        <ele>48</ele>
        <time>2015-12-28T19:22:29Z</time>
      </trkpt>
      <trkpt lat="48.8596" lon="2.34877">
        <ele>48.20000076294</ele>
        <time>2015-12-28T19:22:34Z</time>
      </trkpt>
      <trkpt lat="48.85978" lon="2.34888">
        <ele>48.400001525879</ele>
        <time>2015-12-28T19:22:38Z</time>
      </trkpt>
      <trkpt lat="48.85998" lon="2.34901">
        <ele>48.79999923706</ele>
        <time>2015-12-28T19:22:43Z</time>
      </trkpt>
      <trkpt lat="48.86016" lon="2.34911">
        <ele>49</ele>
        <time>2015-12-28T19:22:47Z</time>
      </trkpt>
      <trkpt lat="48.86034" lon="2.34918">
        <ele>48.599998474121</ele>
        <time>2015-12-28T19:22:51Z</time>
      </trkpt>
      <trkpt lat="48.86039" lon="2.3492">
        <ele>48.599998474121</ele>
        <time>2015-12-28T19:22:52Z</time>
      </trkpt>
      <trkpt lat="48.86056" lon="2.3493">
        <ele>48</ele>
        <time>2015-12-28T19:22:56Z</time>
      </trkpt>
      <trkpt lat="48.86075" lon="2.3494">
        <ele>47.400001525879</ele>
        <time>2015-12-28T19:23:00Z</time>
      </trkpt>
      <trkpt lat="48.86096" lon="2.3495">
        <ele>46.79999923706</ele>
        <time>2015-12-28T19:23:04Z</time>
      </trkpt>
      <trkpt lat="48.86117" lon="2.34959">
        <ele>46.599998474121</ele>
        <time>2015-12-28T19:23:08Z</time>
      </trkpt>
      <trkpt lat="48.86137" lon="2.34972">
        <ele>46.599998474121</ele>
        <time>2015-12-28T19:23:12Z</time>
      </trkpt>
      <trkpt lat="48.86157" lon="2.34984">
        <ele>46.79999923706</ele>
        <time>2015-12-28T19:23:16Z</time>
      </trkpt>
      <trkpt lat="48.86176" lon="2.34994">
        <ele>46.79999923706</ele>
        <time>2015-12-28T19:23:20Z</time>
      </trkpt>
      <trkpt lat="48.86184" lon="2.34997">
        <ele>47</ele>
        <time>2015-12-28T19:23:22Z</time>
      </trkpt>
      <trkpt lat="48.86202" lon="2.35008">
        <ele>47.20000076294</ele>
        <time>2015-12-28T19:23:26Z</time>
      </trkpt>
      <trkpt lat="48.86221" lon="2.35017">
        <ele>47.599998474121</ele>
        <time>2015-12-28T19:23:30Z</time>
      </trkpt>
      <trkpt lat="48.86241" lon="2.35024">
        <ele>48</ele>
        <time>2015-12-28T19:23:35Z</time>
      </trkpt>
      <trkpt lat="48.86245" lon="2.35025">
        <ele>48</ele>
        <time>2015-12-28T19:23:36Z</time>
      </trkpt>
      <trkpt lat="48.86263" lon="2.35033">
        <ele>48.400001525879</ele>
        <time>2015-12-28T19:23:41Z</time>
      </trkpt>
      <trkpt lat="48.86269" lon="2.35036">
        <ele>48.400001525879</ele>
        <time>2015-12-28T19:23:43Z</time>
      </trkpt>
      <trkpt lat="48.86277" lon="2.3504">
        <ele>48.400001525879</ele>
        <time>2015-12-28T19:23:45Z</time>
      </trkpt>
      <trkpt lat="48.86295" lon="2.35056">
        <ele>48.400001525879</ele>
        <time>2015-12-28T19:23:50Z</time>
      </trkpt>
      <trkpt lat="48.86314" lon="2.35066">
        <ele>48.400001525879</ele>
        <time>2015-12-28T19:23:55Z</time>
      </trkpt>
      <trkpt lat="48.86321" lon="2.35068">
        <ele>48.20000076294</ele>
        <time>2015-12-28T19:23:57Z</time>
      </trkpt>
      <trkpt lat="48.86338" lon="2.35083">
        <ele>48.20000076294</ele>
        <time>2015-12-28T19:24:02Z</time>
      </trkpt>
      <trkpt lat="48.86356" lon="2.35092">
        <ele>47.79999923706</ele>
        <time>2015-12-28T19:24:06Z</time>
      </trkpt>
      <trkpt lat="48.86375" lon="2.35103">
        <ele>47.79999923706</ele>
        <time>2015-12-28T19:24:10Z</time>
      </trkpt>
      <trkpt lat="48.86394" lon="2.35114">
        <ele>47.400001525879</ele>
        <time>2015-12-28T19:24:14Z</time>
      </trkpt>
      <trkpt lat="48.86406" lon="2.35119">
        <ele>47.20000076294</ele>
        <time>2015-12-28T19:24:17Z</time>
      </trkpt>
      <trkpt lat="48.86426" lon="2.35134">
        <ele>47</ele>
        <time>2015-12-28T19:24:22Z</time>
      </trkpt>
      <trkpt lat="48.86428" lon="2.35136">
        <ele>47</ele>
        <time>2015-12-28T19:24:23Z</time>
      </trkpt>
      <trkpt lat="48.86432" lon="2.3514">
        <ele>46.79999923706</ele>
        <time>2015-12-28T19:24:25Z</time>
      </trkpt>
      <trkpt lat="48.86443" lon="2.35152">
        <ele>46.79999923706</ele>
        <time>2015-12-28T19:24:30Z</time>
      </trkpt>
      <trkpt lat="48.86446" lon="2.35154">
        <ele>46.79999923706</ele>
        <time>2015-12-28T19:24:31Z</time>
      </trkpt>
      <trkpt lat="48.86465" lon="2.35168">
        <ele>46.599998474121</ele>
        <time>2015-12-28T19:24:36Z</time>
      </trkpt>
      <trkpt lat="48.86482" lon="2.35178">
        <ele>46.400001525879</ele>
        <time>2015-12-28T19:24:41Z</time>
      </trkpt>
      <trkpt lat="48.86503" lon="2.35187">
        <ele>46.20000076294</ele>
        <time>2015-12-28T19:24:46Z</time>
      </trkpt>
      <trkpt lat="48.8652" lon="2.35199">
        <ele>46.400001525879</ele>
        <time>2015-12-28T19:24:50Z</time>
      </trkpt>
      <trkpt lat="48.86537" lon="2.35209">
        <ele>46.79999923706</ele>
        <time>2015-12-28T19:24:54Z</time>
      </trkpt>
      <trkpt lat="48.86557" lon="2.35218">
        <ele>47.400001525879</ele>
        <time>2015-12-28T19:24:58Z</time>
      </trkpt>
      <trkpt lat="48.86576" lon="2.35229">
        <ele>48</ele>
        <time>2015-12-28T19:25:02Z</time>
      </trkpt>
      <trkpt lat="48.86594" lon="2.35239">
        <ele>48.599998474121</ele>
        <time>2015-12-28T19:25:06Z</time>
      </trkpt>
      <trkpt lat="48.86598" lon="2.35242">
        <ele>48.79999923706</ele>
        <time>2015-12-28T19:25:07Z</time>
      </trkpt>
      <trkpt lat="48.86603" lon="2.3527">
        <ele>48.599998474121</ele>
        <time>2015-12-28T19:25:12Z</time>
      </trkpt>
      <trkpt lat="48.86602" lon="2.35277">
        <ele>48.599998474121</ele>
        <time>2015-12-28T19:25:13Z</time>
      </trkpt>
      <trkpt lat="48.86599" lon="2.35298">
        <ele>48.400001525879</ele>
        <time>2015-12-28T19:25:16Z</time>
      </trkpt>
      <trkpt lat="48.86592" lon="2.35327">
        <ele>47.599998474121</ele>
        <time>2015-12-28T19:25:20Z</time>
      </trkpt>
      <trkpt lat="48.86595" lon="2.35359">
        <ele>47.599998474121</ele>
        <time>2015-12-28T19:25:24Z</time>
      </trkpt>
      <trkpt lat="48.86597" lon="2.35364">
        <ele>47.599998474121</ele>
        <time>2015-12-28T19:25:25Z</time>
      </trkpt>
      <trkpt lat="48.86598" lon="2.35371">
        <ele>47.79999923706</ele>
        <time>2015-12-28T19:25:27Z</time>
      </trkpt>
      <trkpt lat="48.86593" lon="2.35399">
        <ele>47.599998474121</ele>
        <time>2015-12-28T19:25:33Z</time>
      </trkpt>
      <trkpt lat="48.86588" lon="2.35418">
        <ele>48.20000076294</ele>
        <time>2015-12-28T19:25:36Z</time>
      </trkpt>
      <trkpt lat="48.86584" lon="2.35446">
        <ele>47.400001525879</ele>
        <time>2015-12-28T19:25:40Z</time>
      </trkpt>
      <trkpt lat="48.86581" lon="2.35461">
        <ele>47.20000076294</ele>
        <time>2015-12-28T19:25:42Z</time>
      </trkpt>
      <trkpt lat="48.86577" lon="2.35492">
        <ele>47</ele>
        <time>2015-12-28T19:25:46Z</time>
      </trkpt>
      <trkpt lat="48.86571" lon="2.35524">
        <ele>45.599998474121</ele>
        <time>2015-12-28T19:25:50Z</time>
      </trkpt>
      <trkpt lat="48.86566" lon="2.35556">
        <ele>44.400001525879</ele>
        <time>2015-12-28T19:25:54Z</time>
      </trkpt>
      <trkpt lat="48.86564" lon="2.35564">
        <ele>44.20000076294</ele>
        <time>2015-12-28T19:25:55Z</time>
      </trkpt>
      <trkpt lat="48.86559" lon="2.35587">
        <ele>44</ele>
        <time>2015-12-28T19:25:58Z</time>
      </trkpt>
      <trkpt lat="48.8655" lon="2.35619">
        <ele>45</ele>
        <time>2015-12-28T19:26:02Z</time>
      </trkpt>
      <trkpt lat="48.86549" lon="2.35627">
        <ele>45</ele>
        <time>2015-12-28T19:26:03Z</time>
      </trkpt>
      <trkpt lat="48.86542" lon="2.3566">
        <ele>45.400001525879</ele>
        <time>2015-12-28T19:26:07Z</time>
      </trkpt>
      <trkpt lat="48.86536" lon="2.35686">
        <ele>45.79999923706</ele>
        <time>2015-12-28T19:26:10Z</time>
      </trkpt>
      <trkpt lat="48.86529" lon="2.3572">
        <ele>45.400001525879</ele>
        <time>2015-12-28T19:26:14Z</time>
      </trkpt>
      <trkpt lat="48.86523" lon="2.35746">
        <ele>45</ele>
        <time>2015-12-28T19:26:17Z</time>
      </trkpt>
      <trkpt lat="48.86517" lon="2.35775">
        <ele>45.400001525879</ele>
        <time>2015-12-28T19:26:20Z</time>
      </trkpt>
      <trkpt lat="48.8651" lon="2.35803">
        <ele>45.599998474121</ele>
        <time>2015-12-28T19:26:23Z</time>
      </trkpt>
      <trkpt lat="48.86502" lon="2.35831">
        <ele>46</ele>
        <time>2015-12-28T19:26:26Z</time>
      </trkpt>
      <trkpt lat="48.86497" lon="2.3586">
        <ele>45.400001525879</ele>
        <time>2015-12-28T19:26:29Z</time>
      </trkpt>
      <trkpt lat="48.8649" lon="2.35888">
        <ele>44.79999923706</ele>
        <time>2015-12-28T19:26:32Z</time>
      </trkpt>
      <trkpt lat="48.86483" lon="2.35914">
        <ele>45</ele>
        <time>2015-12-28T19:26:35Z</time>
      </trkpt>
      <trkpt lat="48.86478" lon="2.35936">
        <ele>45.400001525879</ele>
        <time>2015-12-28T19:26:38Z</time>
      </trkpt>
      <trkpt lat="48.86474" lon="2.35962">
        <ele>45.20000076294</ele>
        <time>2015-12-28T19:26:42Z</time>
      </trkpt>
      <trkpt lat="48.86473" lon="2.35975">
        <ele>45</ele>
        <time>2015-12-28T19:26:45Z</time>
      </trkpt>
      <trkpt lat="48.86477" lon="2.35982">
        <ele>44.79999923706</ele>
        <time>2015-12-28T19:27:05Z</time>
      </trkpt>
      <trkpt lat="48.86494" lon="2.35997">
        <ele>44.599998474121</ele>
        <time>2015-12-28T19:27:15Z</time>
      </trkpt>
      <trkpt lat="48.86512" lon="2.36015">
        <ele>44.599998474121</ele>
        <time>2015-12-28T19:27:19Z</time>
      </trkpt>
      <trkpt lat="48.86529" lon="2.36029">
        <ele>44.599998474121</ele>
        <time>2015-12-28T19:27:22Z</time>
      </trkpt>
      <trkpt lat="48.86548" lon="2.36047">
        <ele>44.20000076294</ele>
        <time>2015-12-28T19:27:26Z</time>
      </trkpt>
      <trkpt lat="48.86567" lon="2.36067">
        <ele>43.599998474121</ele>
        <time>2015-12-28T19:27:30Z</time>
      </trkpt>
      <trkpt lat="48.86586" lon="2.36085">
        <ele>43.20000076294</ele>
        <time>2015-12-28T19:27:34Z</time>
      </trkpt>
      <trkpt lat="48.86602" lon="2.36099">
        <ele>43.20000076294</ele>
        <time>2015-12-28T19:27:37Z</time>
      </trkpt>
      <trkpt lat="48.86617" lon="2.36114">
        <ele>43.599998474121</ele>
        <time>2015-12-28T19:27:40Z</time>
      </trkpt>
      <trkpt lat="48.86636" lon="2.36134">
        <ele>44.400001525879</ele>
        <time>2015-12-28T19:27:44Z</time>
      </trkpt>
      <trkpt lat="48.86653" lon="2.36155">
        <ele>45</ele>
        <time>2015-12-28T19:27:48Z</time>
      </trkpt>
      <trkpt lat="48.86664" lon="2.36177">
        <ele>45.599998474121</ele>
        <time>2015-12-28T19:27:51Z</time>
      </trkpt>
      <trkpt lat="48.86673" lon="2.36201">
        <ele>46</ele>
        <time>2015-12-28T19:27:54Z</time>
      </trkpt>
      <trkpt lat="48.86681" lon="2.3623">
        <ele>46.599998474121</ele>
        <time>2015-12-28T19:27:58Z</time>
      </trkpt>
      <trkpt lat="48.86684" lon="2.36237">
        <ele>46.79999923706</ele>
        <time>2015-12-28T19:27:59Z</time>
      </trkpt>
      <trkpt lat="48.86692" lon="2.36257">
        <ele>47</ele>
        <time>2015-12-28T19:28:02Z</time>
      </trkpt>
      <trkpt lat="48.867" lon="2.36282">
        <ele>46.79999923706</ele>
        <time>2015-12-28T19:28:06Z</time>
      </trkpt>
      <trkpt lat="48.86702" lon="2.36287">
        <ele>46.79999923706</ele>
        <time>2015-12-28T19:28:07Z</time>
      </trkpt>
      <trkpt lat="48.86712" lon="2.3631">
        <ele>46.400001525879</ele>
        <time>2015-12-28T19:28:13Z</time>
      </trkpt>
      <trkpt lat="48.86715" lon="2.36315">
        <ele>46.20000076294</ele>
        <time>2015-12-28T19:28:15Z</time>
      </trkpt>
      <trkpt lat="48.86717" lon="2.36324">
        <ele>46.20000076294</ele>
        <time>2015-12-28T19:28:19Z</time>
      </trkpt>
      <trkpt lat="48.86719" lon="2.36349">
        <ele>45.79999923706</ele>
        <time>2015-12-28T19:28:55Z</time>
      </trkpt>
      <trkpt lat="48.86708" lon="2.36371">
        <ele>45.20000076294</ele>
        <time>2015-12-28T19:29:00Z</time>
      </trkpt>
      <trkpt lat="48.86696" lon="2.36394">
        <ele>44.20000076294</ele>
        <time>2015-12-28T19:29:04Z</time>
      </trkpt>
      <trkpt lat="48.86684" lon="2.36417">
        <ele>43.400001525879</ele>
        <time>2015-12-28T19:29:08Z</time>
      </trkpt>
      <trkpt lat="48.86671" lon="2.36441">
        <ele>43.599998474121</ele>
        <time>2015-12-28T19:29:12Z</time>
      </trkpt>
      <trkpt lat="48.86657" lon="2.36467">
        <ele>43.79999923706</ele>
        <time>2015-12-28T19:29:16Z</time>
      </trkpt>
      <trkpt lat="48.86653" lon="2.36481">
        <ele>44</ele>
        <time>2015-12-28T19:29:18Z</time>
      </trkpt>
      <trkpt lat="48.86654" lon="2.3651">
        <ele>44</ele>
        <time>2015-12-28T19:29:22Z</time>
      </trkpt>
      <trkpt lat="48.86656" lon="2.36525">
        <ele>44.599998474121</ele>
        <time>2015-12-28T19:29:24Z</time>
      </trkpt>
      <trkpt lat="48.86648" lon="2.36554">
        <ele>45.79999923706</ele>
        <time>2015-12-28T19:29:28Z</time>
      </trkpt>
      <trkpt lat="48.86634" lon="2.36579">
        <ele>46</ele>
        <time>2015-12-28T19:29:33Z</time>
      </trkpt>
      <trkpt lat="48.86619" lon="2.36603">
        <ele>46.599998474121</ele>
        <time>2015-12-28T19:29:38Z</time>
      </trkpt>
      <trkpt lat="48.86605" lon="2.36626">
        <ele>46.400001525879</ele>
        <time>2015-12-28T19:29:43Z</time>
      </trkpt>
      <trkpt lat="48.86598" lon="2.36644">
        <ele>46.20000076294</ele>
        <time>2015-12-28T19:29:46Z</time>
      </trkpt>
      <trkpt lat="48.86585" lon="2.36664">
        <ele>45.79999923706</ele>
        <time>2015-12-28T19:29:50Z</time>
      </trkpt>
      <trkpt lat="48.86571" lon="2.36685">
        <ele>45.79999923706</ele>
        <time>2015-12-28T19:29:54Z</time>
      </trkpt>
      <trkpt lat="48.86561" lon="2.3671">
        <ele>46</ele>
        <time>2015-12-28T19:29:58Z</time>
      </trkpt>
      <trkpt lat="48.86549" lon="2.36731">
        <ele>46.20000076294</ele>
        <time>2015-12-28T19:30:02Z</time>
      </trkpt>
      <trkpt lat="48.86535" lon="2.36756">
        <ele>46.20000076294</ele>
        <time>2015-12-28T19:30:07Z</time>
      </trkpt>
      <trkpt lat="48.86529" lon="2.36767">
        <ele>46.400001525879</ele>
        <time>2015-12-28T19:30:10Z</time>
      </trkpt>
      <trkpt lat="48.86515" lon="2.3679">
        <ele>47</ele>
        <time>2015-12-28T19:30:16Z</time>
      </trkpt>
      <trkpt lat="48.86501" lon="2.36815">
        <ele>47.400001525879</ele>
        <time>2015-12-28T19:30:21Z</time>
      </trkpt>
      <trkpt lat="48.86486" lon="2.3684">
        <ele>47</ele>
        <time>2015-12-28T19:30:26Z</time>
      </trkpt>
      <trkpt lat="48.8647" lon="2.36864">
        <ele>46.400001525879</ele>
        <time>2015-12-28T19:30:31Z</time>
      </trkpt>
      <trkpt lat="48.86464" lon="2.36875">
        <ele>46.20000076294</ele>
        <time>2015-12-28T19:30:33Z</time>
      </trkpt>
      <trkpt lat="48.8645" lon="2.36896">
        <ele>46.20000076294</ele>
        <time>2015-12-28T19:30:37Z</time>
      </trkpt>
      <trkpt lat="48.86436" lon="2.36921">
        <ele>45.79999923706</ele>
        <time>2015-12-28T19:30:41Z</time>
      </trkpt>
      <trkpt lat="48.86425" lon="2.36939">
        <ele>45.20000076294</ele>
        <time>2015-12-28T19:30:44Z</time>
      </trkpt>
      <trkpt lat="48.86411" lon="2.36962">
        <ele>44.599998474121</ele>
        <time>2015-12-28T19:30:48Z</time>
      </trkpt>
      <trkpt lat="48.864" lon="2.36984">
        <ele>44.79999923706</ele>
        <time>2015-12-28T19:30:52Z</time>
      </trkpt>
      <trkpt lat="48.86389" lon="2.36999">
        <ele>45.20000076294</ele>
        <time>2015-12-28T19:30:56Z</time>
      </trkpt>
      <trkpt lat="48.86383" lon="2.37004">
        <ele>45.20000076294</ele>
        <time>2015-12-28T19:30:59Z</time>
      </trkpt>
      <trkpt lat="48.86369" lon="2.37026">
        <ele>44.79999923706</ele>
        <time>2015-12-28T19:31:05Z</time>
      </trkpt>
      <trkpt lat="48.86366" lon="2.3703">
        <ele>44.79999923706</ele>
        <time>2015-12-28T19:31:06Z</time>
      </trkpt>
      <trkpt lat="48.86356" lon="2.37048">
        <ele>44.79999923706</ele>
        <time>2015-12-28T19:31:10Z</time>
      </trkpt>
      <trkpt lat="48.8635" lon="2.37062">
        <ele>44.20000076294</ele>
        <time>2015-12-28T19:31:14Z</time>
      </trkpt>
      <trkpt lat="48.86338" lon="2.37084">
        <ele>43.79999923706</ele>
        <time>2015-12-28T19:31:19Z</time>
      </trkpt>
      <trkpt lat="48.86324" lon="2.37113">
        <ele>43.599998474121</ele>
        <time>2015-12-28T19:31:24Z</time>
      </trkpt>
      <trkpt lat="48.86317" lon="2.37124">
        <ele>43.599998474121</ele>
        <time>2015-12-28T19:31:26Z</time>
      </trkpt>
      <trkpt lat="48.8631" lon="2.37135">
        <ele>43.599998474121</ele>
        <time>2015-12-28T19:31:28Z</time>
      </trkpt>
      <trkpt lat="48.86294" lon="2.37159">
        <ele>44</ele>
        <time>2015-12-28T19:31:32Z</time>
      </trkpt>
      <trkpt lat="48.86279" lon="2.37182">
        <ele>44.20000076294</ele>
        <time>2015-12-28T19:31:36Z</time>
      </trkpt>
      <trkpt lat="48.86263" lon="2.37207">
        <ele>44.599998474121</ele>
        <time>2015-12-28T19:31:40Z</time>
      </trkpt>
      <trkpt lat="48.86246" lon="2.37231">
        <ele>44.79999923706</ele>
        <time>2015-12-28T19:31:44Z</time>
      </trkpt>
      <trkpt lat="48.86238" lon="2.37242">
        <ele>45</ele>
        <time>2015-12-28T19:31:46Z</time>
      </trkpt>
      <trkpt lat="48.86229" lon="2.37266">
        <ele>45.20000076294</ele>
        <time>2015-12-28T19:31:50Z</time>
      </trkpt>
      <trkpt lat="48.86224" lon="2.37276">
        <ele>45.400001525879</ele>
        <time>2015-12-28T19:31:52Z</time>
      </trkpt>
      <trkpt lat="48.86211" lon="2.37301">
        <ele>46</ele>
        <time>2015-12-28T19:31:57Z</time>
      </trkpt>
      <trkpt lat="48.86208" lon="2.37306">
        <ele>46.20000076294</ele>
        <time>2015-12-28T19:31:58Z</time>
      </trkpt>
      <trkpt lat="48.86198" lon="2.37322">
        <ele>46.599998474121</ele>
        <time>2015-12-28T19:32:01Z</time>
      </trkpt>
      <trkpt lat="48.86192" lon="2.37333">
        <ele>47</ele>
        <time>2015-12-28T19:32:03Z</time>
      </trkpt>
      <trkpt lat="48.86178" lon="2.37358">
        <ele>46</ele>
        <time>2015-12-28T19:32:08Z</time>
      </trkpt>
      <trkpt lat="48.86166" lon="2.37381">
        <ele>45.20000076294</ele>
        <time>2015-12-28T19:32:12Z</time>
      </trkpt>
      <trkpt lat="48.86157" lon="2.37397">
        <ele>44.79999923706</ele>
        <time>2015-12-28T19:32:15Z</time>
      </trkpt>
      <trkpt lat="48.86144" lon="2.37419">
        <ele>44.400001525879</ele>
        <time>2015-12-28T19:32:19Z</time>
      </trkpt>
      <trkpt lat="48.8613" lon="2.37441">
        <ele>44.20000076294</ele>
        <time>2015-12-28T19:32:23Z</time>
      </trkpt>
      <trkpt lat="48.86115" lon="2.37462">
        <ele>43.20000076294</ele>
        <time>2015-12-28T19:32:27Z</time>
      </trkpt>
      <trkpt lat="48.86101" lon="2.37478">
        <ele>42.400001525879</ele>
        <time>2015-12-28T19:32:31Z</time>
      </trkpt>
      <trkpt lat="48.86086" lon="2.37498">
        <ele>42.400001525879</ele>
        <time>2015-12-28T19:32:35Z</time>
      </trkpt>
      <trkpt lat="48.86073" lon="2.37519">
        <ele>43</ele>
        <time>2015-12-28T19:32:39Z</time>
      </trkpt>
      <trkpt lat="48.86058" lon="2.37538">
        <ele>43.79999923706</ele>
        <time>2015-12-28T19:32:43Z</time>
      </trkpt>
      <trkpt lat="48.86046" lon="2.37553">
        <ele>44.79999923706</ele>
        <time>2015-12-28T19:32:46Z</time>
      </trkpt>
      <trkpt lat="48.86032" lon="2.37575">
        <ele>46.400001525879</ele>
        <time>2015-12-28T19:32:50Z</time>
      </trkpt>
      <trkpt lat="48.86018" lon="2.37599">
        <ele>47</ele>
        <time>2015-12-28T19:32:54Z</time>
      </trkpt>
      <trkpt lat="48.86004" lon="2.37621">
        <ele>46.400001525879</ele>
        <time>2015-12-28T19:32:58Z</time>
      </trkpt>
      <trkpt lat="48.85992" lon="2.37646">
        <ele>46</ele>
        <time>2015-12-28T19:33:02Z</time>
      </trkpt>
      <trkpt lat="48.85983" lon="2.37671">
        <ele>46.20000076294</ele>
        <time>2015-12-28T19:33:06Z</time>
      </trkpt>
      <trkpt lat="48.85969" lon="2.37693">
        <ele>46</ele>
        <time>2015-12-28T19:33:10Z</time>
      </trkpt>
      <trkpt lat="48.85957" lon="2.37719">
        <ele>46.599998474121</ele>
        <time>2015-12-28T19:33:14Z</time>
      </trkpt>
      <trkpt lat="48.85945" lon="2.37746">
        <ele>47.20000076294</ele>
        <time>2015-12-28T19:33:18Z</time>
      </trkpt>
      <trkpt lat="48.85943" lon="2.37754">
        <ele>47.20000076294</ele>
        <time>2015-12-28T19:33:19Z</time>
      </trkpt>
      <trkpt lat="48.85929" lon="2.3778">
        <ele>46.79999923706</ele>
        <time>2015-12-28T19:33:23Z</time>
      </trkpt>
      <trkpt lat="48.85916" lon="2.37805">
        <ele>46.400001525879</ele>
        <time>2015-12-28T19:33:27Z</time>
      </trkpt>
      <trkpt lat="48.85903" lon="2.37826">
        <ele>46.599998474121</ele>
        <time>2015-12-28T19:33:31Z</time>
      </trkpt>
      <trkpt lat="48.85889" lon="2.37845">
        <ele>46.599998474121</ele>
        <time>2015-12-28T19:33:35Z</time>
      </trkpt>
      <trkpt lat="48.85874" lon="2.37863">
        <ele>46.400001525879</ele>
        <time>2015-12-28T19:33:39Z</time>
      </trkpt>
      <trkpt lat="48.85859" lon="2.37887">
        <ele>46</ele>
        <time>2015-12-28T19:33:44Z</time>
      </trkpt>
      <trkpt lat="48.85851" lon="2.37902">
        <ele>45.79999923706</ele>
        <time>2015-12-28T19:33:47Z</time>
      </trkpt>
      <trkpt lat="48.85839" lon="2.37923">
        <ele>45.20000076294</ele>
        <time>2015-12-28T19:33:51Z</time>
      </trkpt>
      <trkpt lat="48.85826" lon="2.37943">
        <ele>44.20000076294</ele>
        <time>2015-12-28T19:33:56Z</time>
      </trkpt>
      <trkpt lat="48.85814" lon="2.37967">
        <ele>43.599998474121</ele>
        <time>2015-12-28T19:34:03Z</time>
      </trkpt>
      <trkpt lat="48.85801" lon="2.37991">
        <ele>44</ele>
        <time>2015-12-28T19:34:09Z</time>
      </trkpt>
      <trkpt lat="48.85799" lon="2.37996">
        <ele>44</ele>
        <time>2015-12-28T19:34:10Z</time>
      </trkpt>
      <trkpt lat="48.85781" lon="2.38012">
        <ele>44.400001525879</ele>
        <time>2015-12-28T19:34:15Z</time>
      </trkpt>
      <trkpt lat="48.85771" lon="2.38017">
        <ele>44.79999923706</ele>
        <time>2015-12-28T19:34:22Z</time>
      </trkpt>
      <trkpt lat="48.85771" lon="2.38017">
        <ele>44.599998474121</ele>
        <time>2015-12-28T19:34:23Z</time>
      </trkpt>
      <trkpt lat="48.85761" lon="2.38039">
        <ele>45.599998474121</ele>
        <time>2015-12-28T19:34:36Z</time>
      </trkpt>
      <trkpt lat="48.85747" lon="2.38064">
        <ele>46.400001525879</ele>
        <time>2015-12-28T19:34:42Z</time>
      </trkpt>
      <trkpt lat="48.85732" lon="2.38085">
        <ele>46.599998474121</ele>
        <time>2015-12-28T19:34:47Z</time>
      </trkpt>
      <trkpt lat="48.85715" lon="2.38105">
        <ele>46.599998474121</ele>
        <time>2015-12-28T19:34:51Z</time>
      </trkpt>
      <trkpt lat="48.85699" lon="2.38128">
        <ele>47.20000076294</ele>
        <time>2015-12-28T19:34:55Z</time>
      </trkpt>
      <trkpt lat="48.85685" lon="2.38152">
        <ele>47.599998474121</ele>
        <time>2015-12-28T19:34:59Z</time>
      </trkpt>
      <trkpt lat="48.85671" lon="2.38174">
        <ele>48</ele>
        <time>2015-12-28T19:35:03Z</time>
      </trkpt>
      <trkpt lat="48.85656" lon="2.38199">
        <ele>48</ele>
        <time>2015-12-28T19:35:07Z</time>
      </trkpt>
      <trkpt lat="48.8565" lon="2.38213">
        <ele>47.79999923706</ele>
        <time>2015-12-28T19:35:09Z</time>
      </trkpt>
      <trkpt lat="48.85635" lon="2.38238">
        <ele>47</ele>
        <time>2015-12-28T19:35:13Z</time>
      </trkpt>
      <trkpt lat="48.8562" lon="2.38262">
        <ele>46.400001525879</ele>
        <time>2015-12-28T19:35:17Z</time>
      </trkpt>
      <trkpt lat="48.8561" lon="2.38283">
        <ele>45.400001525879</ele>
        <time>2015-12-28T19:35:20Z</time>
      </trkpt>
      <trkpt lat="48.856" lon="2.38304">
        <ele>44.599998474121</ele>
        <time>2015-12-28T19:35:23Z</time>
      </trkpt>
      <trkpt lat="48.85587" lon="2.38333">
        <ele>45</ele>
        <time>2015-12-28T19:35:27Z</time>
      </trkpt>
      <trkpt lat="48.85572" lon="2.38361">
        <ele>45.599998474121</ele>
        <time>2015-12-28T19:35:31Z</time>
      </trkpt>
      <trkpt lat="48.85558" lon="2.38383">
        <ele>46.20000076294</ele>
        <time>2015-12-28T19:35:34Z</time>
      </trkpt>
      <trkpt lat="48.85545" lon="2.38403">
        <ele>47</ele>
        <time>2015-12-28T19:35:37Z</time>
      </trkpt>
      <trkpt lat="48.85528" lon="2.38428">
        <ele>48</ele>
        <time>2015-12-28T19:35:41Z</time>
      </trkpt>
      <trkpt lat="48.8552" lon="2.3844">
        <ele>48.20000076294</ele>
        <time>2015-12-28T19:35:43Z</time>
      </trkpt>
      <trkpt lat="48.85507" lon="2.38465">
        <ele>48.20000076294</ele>
        <time>2015-12-28T19:35:47Z</time>
      </trkpt>
      <trkpt lat="48.85491" lon="2.38487">
        <ele>47.79999923706</ele>
        <time>2015-12-28T19:35:52Z</time>
      </trkpt>
      <trkpt lat="48.85476" lon="2.38506">
        <ele>47.400001525879</ele>
        <time>2015-12-28T19:35:57Z</time>
      </trkpt>
      <trkpt lat="48.85472" lon="2.38512">
        <ele>47.20000076294</ele>
        <time>2015-12-28T19:35:59Z</time>
      </trkpt>
      <trkpt lat="48.85472" lon="2.38529">
        <ele>47.20000076294</ele>
        <time>2015-12-28T19:36:03Z</time>
      </trkpt>
      <trkpt lat="48.85471" lon="2.38532">
        <ele>47.20000076294</ele>
        <time>2015-12-28T19:36:04Z</time>
      </trkpt>
      <trkpt lat="48.85472" lon="2.38536">
        <ele>47.20000076294</ele>
        <time>2015-12-28T19:36:06Z</time>
      </trkpt>
      <trkpt lat="48.85476" lon="2.38544">
        <ele>47.400001525879</ele>
        <time>2015-12-28T19:36:10Z</time>
      </trkpt>
      <trkpt lat="48.85476" lon="2.38546">
        <ele>47.400001525879</ele>
        <time>2015-12-28T19:36:11Z</time>
      </trkpt>
      <trkpt lat="48.85483" lon="2.38566">
        <ele>47.79999923706</ele>
        <time>2015-12-28T19:36:15Z</time>
      </trkpt>
      <trkpt lat="48.85489" lon="2.3859">
        <ele>48.20000076294</ele>
        <time>2015-12-28T19:36:19Z</time>
      </trkpt>
      <trkpt lat="48.85494" lon="2.38616">
        <ele>48.400001525879</ele>
        <time>2015-12-28T19:36:23Z</time>
      </trkpt>
      <trkpt lat="48.855" lon="2.38642">
        <ele>48.400001525879</ele>
        <time>2015-12-28T19:36:27Z</time>
      </trkpt>
      <trkpt lat="48.85505" lon="2.38673">
        <ele>48.599998474121</ele>
        <time>2015-12-28T19:36:32Z</time>
      </trkpt>
      <trkpt lat="48.85512" lon="2.38705">
        <ele>49.20000076294</ele>
        <time>2015-12-28T19:36:37Z</time>
      </trkpt>
      <trkpt lat="48.85513" lon="2.38737">
        <ele>49.599998474121</ele>
        <time>2015-12-28T19:36:42Z</time>
      </trkpt>
      <trkpt lat="48.85514" lon="2.38763">
        <ele>50</ele>
        <time>2015-12-28T19:36:46Z</time>
      </trkpt>
      <trkpt lat="48.85518" lon="2.38787">
        <ele>51.20000076294</ele>
        <time>2015-12-28T19:36:50Z</time>
      </trkpt>
      <trkpt lat="48.8552" lon="2.38798">
        <ele>51.599998474121</ele>
        <time>2015-12-28T19:36:52Z</time>
      </trkpt>
      <trkpt lat="48.85526" lon="2.38828">
        <ele>52.79999923706</ele>
        <time>2015-12-28T19:36:57Z</time>
      </trkpt>
      <trkpt lat="48.8553" lon="2.3886">
        <ele>53.400001525879</ele>
        <time>2015-12-28T19:37:02Z</time>
      </trkpt>
      <trkpt lat="48.85533" lon="2.38871">
        <ele>53.400001525879</ele>
        <time>2015-12-28T19:37:04Z</time>
      </trkpt>
      <trkpt lat="48.8554" lon="2.38898">
        <ele>53.79999923706</ele>
        <time>2015-12-28T19:37:09Z</time>
      </trkpt>
      <trkpt lat="48.85541" lon="2.38904">
        <ele>53.79999923706</ele>
        <time>2015-12-28T19:37:10Z</time>
      </trkpt>
      <trkpt lat="48.85548" lon="2.38932">
        <ele>54</ele>
        <time>2015-12-28T19:37:15Z</time>
      </trkpt>
      <trkpt lat="48.85555" lon="2.38959">
        <ele>54.599998474121</ele>
        <time>2015-12-28T19:37:20Z</time>
      </trkpt>
      <trkpt lat="48.85559" lon="2.38988">
        <ele>55.79999923706</ele>
        <time>2015-12-28T19:37:25Z</time>
      </trkpt>
      <trkpt lat="48.85564" lon="2.39015">
        <ele>56.20000076294</ele>
        <time>2015-12-28T19:37:30Z</time>
      </trkpt>
      <trkpt lat="48.85569" lon="2.39043">
        <ele>56.400001525879</ele>
        <time>2015-12-28T19:37:35Z</time>
      </trkpt>
      <trkpt lat="48.85576" lon="2.39074">
        <ele>55.79999923706</ele>
        <time>2015-12-28T19:37:41Z</time>
      </trkpt>
      <trkpt lat="48.8558" lon="2.39102">
        <ele>56.400001525879</ele>
        <time>2015-12-28T19:37:49Z</time>
      </trkpt>
      <trkpt lat="48.85582" lon="2.3911">
        <ele>56.599998474121</ele>
        <time>2015-12-28T19:37:53Z</time>
      </trkpt>
      <trkpt lat="48.85573" lon="2.39134">
        <ele>57.599998474121</ele>
        <time>2015-12-28T19:38:34Z</time>
      </trkpt>
      <trkpt lat="48.85559" lon="2.39154">
        <ele>58.400001525879</ele>
        <time>2015-12-28T19:38:43Z</time>
      </trkpt>
      <trkpt lat="48.85541" lon="2.3917">
        <ele>58.79999923706</ele>
        <time>2015-12-28T19:38:50Z</time>
      </trkpt>
      <trkpt lat="48.85524" lon="2.39187">
        <ele>60</ele>
        <time>2015-12-28T19:38:56Z</time>
      </trkpt>
      <trkpt lat="48.85507" lon="2.39202">
        <ele>60.400001525879</ele>
        <time>2015-12-28T19:39:01Z</time>
      </trkpt>
      <trkpt lat="48.85489" lon="2.39213">
        <ele>60.400001525879</ele>
        <time>2015-12-28T19:39:05Z</time>
      </trkpt>
      <trkpt lat="48.85469" lon="2.39219">
        <ele>60.79999923706</ele>
        <time>2015-12-28T19:39:09Z</time>
      </trkpt>
      <trkpt lat="48.8545" lon="2.39229">
        <ele>61.599998474121</ele>
        <time>2015-12-28T19:39:13Z</time>
      </trkpt>
      <trkpt lat="48.85432" lon="2.39238">
        <ele>62.400001525879</ele>
        <time>2015-12-28T19:39:16Z</time>
      </trkpt>
      <trkpt lat="48.85407" lon="2.39239">
        <ele>61</ele>
        <time>2015-12-28T19:39:19Z</time>
      </trkpt>
      <trkpt lat="48.85389" lon="2.39251">
        <ele>59.79999923706</ele>
        <time>2015-12-28T19:39:22Z</time>
      </trkpt>
      <trkpt lat="48.85369" lon="2.39261">
        <ele>58.400001525879</ele>
        <time>2015-12-28T19:39:25Z</time>
      </trkpt>
      <trkpt lat="48.85357" lon="2.3927">
        <ele>57.20000076294</ele>
        <time>2015-12-28T19:39:27Z</time>
      </trkpt>
      <trkpt lat="48.85339" lon="2.39282">
        <ele>56.400001525879</ele>
        <time>2015-12-28T19:39:30Z</time>
      </trkpt>
      <trkpt lat="48.85321" lon="2.39295">
        <ele>55.400001525879</ele>
        <time>2015-12-28T19:39:33Z</time>
      </trkpt>
      <trkpt lat="48.85303" lon="2.39307">
        <ele>56</ele>
        <time>2015-12-28T19:39:36Z</time>
      </trkpt>
      <trkpt lat="48.85297" lon="2.39311">
        <ele>56.20000076294</ele>
        <time>2015-12-28T19:39:37Z</time>
      </trkpt>
      <trkpt lat="48.8528" lon="2.39324">
        <ele>56.79999923706</ele>
        <time>2015-12-28T19:39:40Z</time>
      </trkpt>
      <trkpt lat="48.85262" lon="2.39337">
        <ele>56.79999923706</ele>
        <time>2015-12-28T19:39:43Z</time>
      </trkpt>
      <trkpt lat="48.85245" lon="2.39352">
        <ele>56.79999923706</ele>
        <time>2015-12-28T19:39:46Z</time>
      </trkpt>
      <trkpt lat="48.8523" lon="2.3937">
        <ele>56.79999923706</ele>
        <time>2015-12-28T19:39:49Z</time>
      </trkpt>
      <trkpt lat="48.8522" lon="2.39381">
        <ele>57</ele>
        <time>2015-12-28T19:39:51Z</time>
      </trkpt>
      <trkpt lat="48.85205" lon="2.394">
        <ele>57</ele>
        <time>2015-12-28T19:39:54Z</time>
      </trkpt>
      <trkpt lat="48.852" lon="2.39407">
        <ele>57</ele>
        <time>2015-12-28T19:39:55Z</time>
      </trkpt>
      <trkpt lat="48.85187" lon="2.39419">
        <ele>57</ele>
        <time>2015-12-28T19:39:57Z</time>
      </trkpt>
      <trkpt lat="48.8517" lon="2.39434">
        <ele>56.599998474121</ele>
        <time>2015-12-28T19:40:00Z</time>
      </trkpt>
      <trkpt lat="48.8515" lon="2.39443">
        <ele>56</ele>
        <time>2015-12-28T19:40:03Z</time>
      </trkpt>
      <trkpt lat="48.85131" lon="2.39453">
        <ele>55.79999923706</ele>
        <time>2015-12-28T19:40:06Z</time>
      </trkpt>
      <trkpt lat="48.85115" lon="2.39453">
        <ele>55.79999923706</ele>
        <time>2015-12-28T19:40:08Z</time>
      </trkpt>
      <trkpt lat="48.85096" lon="2.3946">
        <ele>56.20000076294</ele>
        <time>2015-12-28T19:40:11Z</time>
      </trkpt>
      <trkpt lat="48.85076" lon="2.39474">
        <ele>56.79999923706</ele>
        <time>2015-12-28T19:40:15Z</time>
      </trkpt>
      <trkpt lat="48.85067" lon="2.3948">
        <ele>56.79999923706</ele>
        <time>2015-12-28T19:40:17Z</time>
      </trkpt>
      <trkpt lat="48.85049" lon="2.39492">
        <ele>57</ele>
        <time>2015-12-28T19:40:22Z</time>
      </trkpt>
      <trkpt lat="48.8503" lon="2.39503">
        <ele>57</ele>
        <time>2015-12-28T19:40:28Z</time>
      </trkpt>
      <trkpt lat="48.85011" lon="2.39517">
        <ele>56</ele>
        <time>2015-12-28T19:40:34Z</time>
      </trkpt>
      <trkpt lat="48.84992" lon="2.39528">
        <ele>54.79999923706</ele>
        <time>2015-12-28T19:40:39Z</time>
      </trkpt>
      <trkpt lat="48.84976" lon="2.39536">
        <ele>54</ele>
        <time>2015-12-28T19:40:43Z</time>
      </trkpt>
      <trkpt lat="48.8497" lon="2.39541">
        <ele>53.79999923706</ele>
        <time>2015-12-28T19:40:45Z</time>
      </trkpt>
      <trkpt lat="48.84964" lon="2.39546">
        <ele>53.79999923706</ele>
        <time>2015-12-28T19:40:47Z</time>
      </trkpt>
      <trkpt lat="48.84945" lon="2.39547">
        <ele>53.599998474121</ele>
        <time>2015-12-28T19:40:53Z</time>
      </trkpt>
      <trkpt lat="48.84943" lon="2.39546">
        <ele>53.599998474121</ele>
        <time>2015-12-28T19:40:57Z</time>
      </trkpt>
      <trkpt lat="48.8493" lon="2.39536">
        <ele>53.20000076294</ele>
        <time>2015-12-28T19:42:31Z</time>
      </trkpt>
      <trkpt lat="48.84918" lon="2.39554">
        <ele>53.20000076294</ele>
        <time>2015-12-28T19:43:14Z</time>
      </trkpt>
      <trkpt lat="48.849" lon="2.39561">
        <ele>52.599998474121</ele>
        <time>2015-12-28T19:43:26Z</time>
      </trkpt>
      <trkpt lat="48.84899" lon="2.39561">
        <ele>52.599998474121</ele>
        <time>2015-12-28T19:43:27Z</time>
      </trkpt>
      <trkpt lat="48.84886" lon="2.39543">
        <ele>52</ele>
        <time>2015-12-28T19:43:36Z</time>
      </trkpt>
      <trkpt lat="48.8487" lon="2.39527">
        <ele>51.400001525879</ele>
        <time>2015-12-28T19:43:43Z</time>
      </trkpt>
      <trkpt lat="48.84848" lon="2.39525">
        <ele>51.599998474121</ele>
        <time>2015-12-28T19:43:49Z</time>
      </trkpt>
      <trkpt lat="48.84828" lon="2.39528">
        <ele>53.400001525879</ele>
        <time>2015-12-28T19:43:54Z</time>
      </trkpt>
      <trkpt lat="48.8481" lon="2.3954">
        <ele>54.79999923706</ele>
        <time>2015-12-28T19:43:59Z</time>
      </trkpt>
      <trkpt lat="48.84796" lon="2.39563">
        <ele>55.599998474121</ele>
        <time>2015-12-28T19:44:04Z</time>
      </trkpt>
      <trkpt lat="48.84791" lon="2.39594">
        <ele>55.79999923706</ele>
        <time>2015-12-28T19:44:09Z</time>
      </trkpt>
      <trkpt lat="48.84795" lon="2.39626">
        <ele>55.400001525879</ele>
        <time>2015-12-28T19:44:14Z</time>
      </trkpt>
      <trkpt lat="48.84805" lon="2.39649">
        <ele>54.599998474121</ele>
        <time>2015-12-28T19:44:18Z</time>
      </trkpt>
      <trkpt lat="48.84821" lon="2.39663">
        <ele>53.599998474121</ele>
        <time>2015-12-28T19:44:22Z</time>
      </trkpt>
      <trkpt lat="48.84831" lon="2.39666">
        <ele>53.20000076294</ele>
        <time>2015-12-28T19:44:24Z</time>
      </trkpt>
      <trkpt lat="48.84852" lon="2.39661">
        <ele>52.20000076294</ele>
        <time>2015-12-28T19:44:28Z</time>
      </trkpt>
      <trkpt lat="48.84857" lon="2.39658">
        <ele>52</ele>
        <time>2015-12-28T19:44:29Z</time>
      </trkpt>
      <trkpt lat="48.84862" lon="2.39654">
        <ele>52.400001525879</ele>
        <time>2015-12-28T19:44:30Z</time>
      </trkpt>
      <trkpt lat="48.84875" lon="2.39631">
        <ele>53</ele>
        <time>2015-12-28T19:44:34Z</time>
      </trkpt>
      <trkpt lat="48.8488" lon="2.39617">
        <ele>53.20000076294</ele>
        <time>2015-12-28T19:44:36Z</time>
      </trkpt>
      <trkpt lat="48.84883" lon="2.39589">
        <ele>52.20000076294</ele>
        <time>2015-12-28T19:44:40Z</time>
      </trkpt>
      <trkpt lat="48.84881" lon="2.39575">
        <ele>52</ele>
        <time>2015-12-28T19:44:42Z</time>
      </trkpt>
      <trkpt lat="48.8488" lon="2.39569">
        <ele>51.79999923706</ele>
        <time>2015-12-28T19:44:43Z</time>
      </trkpt>
      <trkpt lat="48.84872" lon="2.39551">
        <ele>51.599998474121</ele>
        <time>2015-12-28T19:44:47Z</time>
      </trkpt>
      <trkpt lat="48.8487" lon="2.39547">
        <ele>51.599998474121</ele>
        <time>2015-12-28T19:44:48Z</time>
      </trkpt>
      <trkpt lat="48.84854" lon="2.39532">
        <ele>51.20000076294</ele>
        <time>2015-12-28T19:44:52Z</time>
      </trkpt>
      <trkpt lat="48.84837" lon="2.39528">
        <ele>52.599998474121</ele>
        <time>2015-12-28T19:44:56Z</time>
      </trkpt>
      <trkpt lat="48.84817" lon="2.39535">
        <ele>54.20000076294</ele>
        <time>2015-12-28T19:45:00Z</time>
      </trkpt>
      <trkpt lat="48.84804" lon="2.39554">
        <ele>55</ele>
        <time>2015-12-28T19:45:04Z</time>
      </trkpt>
      <trkpt lat="48.84801" lon="2.3956">
        <ele>55.20000076294</ele>
        <time>2015-12-28T19:45:05Z</time>
      </trkpt>
      <trkpt lat="48.848" lon="2.39566">
        <ele>55.20000076294</ele>
        <time>2015-12-28T19:45:06Z</time>
      </trkpt>
      <trkpt lat="48.84797" lon="2.39595">
        <ele>55.400001525879</ele>
        <time>2015-12-28T19:45:10Z</time>
      </trkpt>
      <trkpt lat="48.84797" lon="2.39603">
        <ele>55.599998474121</ele>
        <time>2015-12-28T19:45:11Z</time>
      </trkpt>
      <trkpt lat="48.84802" lon="2.39633">
        <ele>55</ele>
        <time>2015-12-28T19:45:15Z</time>
      </trkpt>
      <trkpt lat="48.8481" lon="2.39661">
        <ele>54.20000076294</ele>
        <time>2015-12-28T19:45:19Z</time>
      </trkpt>
      <trkpt lat="48.84812" lon="2.39668">
        <ele>54.20000076294</ele>
        <time>2015-12-28T19:45:20Z</time>
      </trkpt>
      <trkpt lat="48.84816" lon="2.39701">
        <ele>55.599998474121</ele>
        <time>2015-12-28T19:45:24Z</time>
      </trkpt>
      <trkpt lat="48.84816" lon="2.39733">
        <ele>56.599998474121</ele>
        <time>2015-12-28T19:45:28Z</time>
      </trkpt>
      <trkpt lat="48.84815" lon="2.39763">
        <ele>57.400001525879</ele>
        <time>2015-12-28T19:45:32Z</time>
      </trkpt>
      <trkpt lat="48.84813" lon="2.39794">
        <ele>58.20000076294</ele>
        <time>2015-12-28T19:45:36Z</time>
      </trkpt>
      <trkpt lat="48.84812" lon="2.39825">
        <ele>59</ele>
        <time>2015-12-28T19:45:40Z</time>
      </trkpt>
      <trkpt lat="48.8481" lon="2.39853">
        <ele>58</ele>
        <time>2015-12-28T19:45:44Z</time>
      </trkpt>
      <trkpt lat="48.84809" lon="2.39885">
        <ele>56</ele>
        <time>2015-12-28T19:45:49Z</time>
      </trkpt>
      <trkpt lat="48.84809" lon="2.39897">
        <ele>55</ele>
        <time>2015-12-28T19:45:51Z</time>
      </trkpt>
      <trkpt lat="48.84807" lon="2.39927">
        <ele>53.599998474121</ele>
        <time>2015-12-28T19:45:56Z</time>
      </trkpt>
      <trkpt lat="48.84804" lon="2.39955">
        <ele>54</ele>
        <time>2015-12-28T19:46:00Z</time>
      </trkpt>
      <trkpt lat="48.84802" lon="2.39986">
        <ele>54.599998474121</ele>
        <time>2015-12-28T19:46:04Z</time>
      </trkpt>
      <trkpt lat="48.84799" lon="2.40018">
        <ele>55.400001525879</ele>
        <time>2015-12-28T19:46:08Z</time>
      </trkpt>
      <trkpt lat="48.84797" lon="2.40052">
        <ele>57</ele>
        <time>2015-12-28T19:46:12Z</time>
      </trkpt>
      <trkpt lat="48.84794" lon="2.40086">
        <ele>58.400001525879</ele>
        <time>2015-12-28T19:46:16Z</time>
      </trkpt>
      <trkpt lat="48.84793" lon="2.4012">
        <ele>58.20000076294</ele>
        <time>2015-12-28T19:46:20Z</time>
      </trkpt>
      <trkpt lat="48.8479" lon="2.40154">
        <ele>58</ele>
        <time>2015-12-28T19:46:24Z</time>
      </trkpt>
      <trkpt lat="48.84788" lon="2.40189">
        <ele>57.400001525879</ele>
        <time>2015-12-28T19:46:28Z</time>
      </trkpt>
      <trkpt lat="48.84785" lon="2.40225">
        <ele>57.599998474121</ele>
        <time>2015-12-28T19:46:32Z</time>
      </trkpt>
      <trkpt lat="48.84782" lon="2.4026">
        <ele>58</ele>
        <time>2015-12-28T19:46:36Z</time>
      </trkpt>
      <trkpt lat="48.84779" lon="2.40295">
        <ele>59.400001525879</ele>
        <time>2015-12-28T19:46:40Z</time>
      </trkpt>
      <trkpt lat="48.84776" lon="2.40329">
        <ele>60.79999923706</ele>
        <time>2015-12-28T19:46:44Z</time>
      </trkpt>
      <trkpt lat="48.84775" lon="2.40356">
        <ele>60</ele>
        <time>2015-12-28T19:46:47Z</time>
      </trkpt>
      <trkpt lat="48.84772" lon="2.40385">
        <ele>59</ele>
        <time>2015-12-28T19:46:50Z</time>
      </trkpt>
      <trkpt lat="48.84769" lon="2.40414">
        <ele>58</ele>
        <time>2015-12-28T19:46:53Z</time>
      </trkpt>
      <trkpt lat="48.84766" lon="2.40443">
        <ele>56.400001525879</ele>
        <time>2015-12-28T19:46:56Z</time>
      </trkpt>
      <trkpt lat="48.84762" lon="2.40473">
        <ele>54.599998474121</ele>
        <time>2015-12-28T19:46:59Z</time>
      </trkpt>
      <trkpt lat="48.84758" lon="2.40502">
        <ele>53.79999923706</ele>
        <time>2015-12-28T19:47:02Z</time>
      </trkpt>
      <trkpt lat="48.84754" lon="2.40535">
        <ele>54.400001525879</ele>
        <time>2015-12-28T19:47:06Z</time>
      </trkpt>
      <trkpt lat="48.84751" lon="2.40563">
        <ele>54.79999923706</ele>
        <time>2015-12-28T19:47:10Z</time>
      </trkpt>
      <trkpt lat="48.84744" lon="2.40587">
        <ele>54.599998474121</ele>
        <time>2015-12-28T19:47:14Z</time>
      </trkpt>
      <trkpt lat="48.84742" lon="2.40599">
        <ele>54.400001525879</ele>
        <time>2015-12-28T19:47:16Z</time>
      </trkpt>
      <trkpt lat="48.84738" lon="2.40633">
        <ele>53.599998474121</ele>
        <time>2015-12-28T19:47:21Z</time>
      </trkpt>
      <trkpt lat="48.84733" lon="2.40665">
        <ele>53.400001525879</ele>
        <time>2015-12-28T19:47:26Z</time>
      </trkpt>
      <trkpt lat="48.84733" lon="2.40671">
        <ele>53.599998474121</ele>
        <time>2015-12-28T19:47:27Z</time>
      </trkpt>
      <trkpt lat="48.84731" lon="2.40692">
        <ele>53.79999923706</ele>
        <time>2015-12-28T19:47:30Z</time>
      </trkpt>
      <trkpt lat="48.8473" lon="2.40707">
        <ele>54</ele>
        <time>2015-12-28T19:47:32Z</time>
      </trkpt>
      <trkpt lat="48.84727" lon="2.40739">
        <ele>53.20000076294</ele>
        <time>2015-12-28T19:47:36Z</time>
      </trkpt>
      <trkpt lat="48.84725" lon="2.40772">
        <ele>53</ele>
        <time>2015-12-28T19:47:40Z</time>
      </trkpt>
      <trkpt lat="48.84721" lon="2.40806">
        <ele>52.599998474121</ele>
        <time>2015-12-28T19:47:44Z</time>
      </trkpt>
      <trkpt lat="48.84719" lon="2.40841">
        <ele>52.599998474121</ele>
        <time>2015-12-28T19:47:48Z</time>
      </trkpt>
      <trkpt lat="48.84716" lon="2.40875">
        <ele>54.20000076294</ele>
        <time>2015-12-28T19:47:52Z</time>
      </trkpt>
      <trkpt lat="48.84713" lon="2.40909">
        <ele>56.400001525879</ele>
        <time>2015-12-28T19:47:56Z</time>
      </trkpt>
      <trkpt lat="48.84709" lon="2.40942">
        <ele>55.79999923706</ele>
        <time>2015-12-28T19:48:00Z</time>
      </trkpt>
      <trkpt lat="48.84708" lon="2.40975">
        <ele>55.20000076294</ele>
        <time>2015-12-28T19:48:04Z</time>
      </trkpt>
      <trkpt lat="48.84705" lon="2.41009">
        <ele>54.79999923706</ele>
        <time>2015-12-28T19:48:08Z</time>
      </trkpt>
      <trkpt lat="48.84703" lon="2.41041">
        <ele>54.599998474121</ele>
        <time>2015-12-28T19:48:12Z</time>
      </trkpt>
      <trkpt lat="48.84704" lon="2.41069">
        <ele>54.400001525879</ele>
        <time>2015-12-28T19:48:16Z</time>
      </trkpt>
      <trkpt lat="48.84704" lon="2.41075">
        <ele>54.20000076294</ele>
        <time>2015-12-28T19:48:17Z</time>
      </trkpt>
      <trkpt lat="48.84704" lon="2.41088">
        <ele>54.400001525879</ele>
        <time>2015-12-28T19:48:20Z</time>
      </trkpt>
      <trkpt lat="48.84698" lon="2.41112">
        <ele>54.400001525879</ele>
        <time>2015-12-28T19:48:26Z</time>
      </trkpt>
      <trkpt lat="48.84697" lon="2.41116">
        <ele>54.20000076294</ele>
        <time>2015-12-28T19:48:27Z</time>
      </trkpt>
      <trkpt lat="48.84695" lon="2.41126">
        <ele>54.20000076294</ele>
        <time>2015-12-28T19:48:29Z</time>
      </trkpt>
      <trkpt lat="48.84706" lon="2.41141">
        <ele>54.599998474121</ele>
        <time>2015-12-28T19:48:35Z</time>
      </trkpt>
      <trkpt lat="48.84709" lon="2.4114">
        <ele>54.79999923706</ele>
        <time>2015-12-28T19:48:36Z</time>
      </trkpt>
      <trkpt lat="48.84729" lon="2.41137">
        <ele>55.400001525879</ele>
        <time>2015-12-28T19:48:41Z</time>
      </trkpt>
      <trkpt lat="48.8475" lon="2.41135">
        <ele>56</ele>
        <time>2015-12-28T19:48:46Z</time>
      </trkpt>
      <trkpt lat="48.84768" lon="2.41136">
        <ele>56.20000076294</ele>
        <time>2015-12-28T19:48:50Z</time>
      </trkpt>
      <trkpt lat="48.84783" lon="2.41135">
        <ele>56.400001525879</ele>
        <time>2015-12-28T19:48:53Z</time>
      </trkpt>
      <trkpt lat="48.84803" lon="2.41134">
        <ele>56.599998474121</ele>
        <time>2015-12-28T19:48:57Z</time>
      </trkpt>
      <trkpt lat="48.84825" lon="2.41136">
        <ele>57</ele>
        <time>2015-12-28T19:49:01Z</time>
      </trkpt>
      <trkpt lat="48.84845" lon="2.41134">
        <ele>57.599998474121</ele>
        <time>2015-12-28T19:49:05Z</time>
      </trkpt>
      <trkpt lat="48.84866" lon="2.4113">
        <ele>57.79999923706</ele>
        <time>2015-12-28T19:49:10Z</time>
      </trkpt>
      <trkpt lat="48.8487" lon="2.4113">
        <ele>57.599998474121</ele>
        <time>2015-12-28T19:49:11Z</time>
      </trkpt>
      <trkpt lat="48.84885" lon="2.41125">
        <ele>57.400001525879</ele>
        <time>2015-12-28T19:49:15Z</time>
      </trkpt>
      <trkpt lat="48.84891" lon="2.41123">
        <ele>57.20000076294</ele>
        <time>2015-12-28T19:49:17Z</time>
      </trkpt>
      <trkpt lat="48.84897" lon="2.41121">
        <ele>57.20000076294</ele>
        <time>2015-12-28T19:49:19Z</time>
      </trkpt>
      <trkpt lat="48.84907" lon="2.41103">
        <ele>58.20000076294</ele>
        <time>2015-12-28T19:49:28Z</time>
      </trkpt>
      <trkpt lat="48.84906" lon="2.41098">
        <ele>58.400001525879</ele>
        <time>2015-12-28T19:49:30Z</time>
      </trkpt>
      <trkpt lat="48.84908" lon="2.41071">
        <ele>59.20000076294</ele>
        <time>2015-12-28T19:49:49Z</time>
      </trkpt>
      <trkpt lat="48.84907" lon="2.41048">
        <ele>58.79999923706</ele>
        <time>2015-12-28T19:50:15Z</time>
      </trkpt>
      <trkpt lat="48.84905" lon="2.41018">
        <ele>59.20000076294</ele>
        <time>2015-12-28T19:50:21Z</time>
      </trkpt>
      <trkpt lat="48.849" lon="2.40991">
        <ele>58.79999923706</ele>
        <time>2015-12-28T19:50:26Z</time>
      </trkpt>
      <trkpt lat="48.84898" lon="2.4096">
        <ele>57.20000076294</ele>
        <time>2015-12-28T19:50:31Z</time>
      </trkpt>
      <trkpt lat="48.84898" lon="2.40945">
        <ele>56.400001525879</ele>
        <time>2015-12-28T19:50:36Z</time>
      </trkpt>
      <trkpt lat="48.849" lon="2.40937">
        <ele>56</ele>
        <time>2015-12-28T19:50:40Z</time>
      </trkpt>
      <trkpt lat="48.84891" lon="2.40931">
        <ele>55.20000076294</ele>
        <time>2015-12-28T19:52:04Z</time>
      </trkpt>
      <trkpt lat="48.84888" lon="2.4093">
        <ele>55</ele>
        <time>2015-12-28T19:52:06Z</time>
      </trkpt>
      <trkpt lat="48.84869" lon="2.40927">
        <ele>54.20000076294</ele>
        <time>2015-12-28T19:52:17Z</time>
      </trkpt>
      <trkpt lat="48.84851" lon="2.40925">
        <ele>53.599998474121</ele>
        <time>2015-12-28T19:52:24Z</time>
      </trkpt>
      <trkpt lat="48.84831" lon="2.40927">
        <ele>54.400001525879</ele>
        <time>2015-12-28T19:52:32Z</time>
      </trkpt>
      <trkpt lat="48.84811" lon="2.40927">
        <ele>55.20000076294</ele>
        <time>2015-12-28T19:52:38Z</time>
      </trkpt>
      <trkpt lat="48.84793" lon="2.40924">
        <ele>55.79999923706</ele>
        <time>2015-12-28T19:52:43Z</time>
      </trkpt>
      <trkpt lat="48.84774" lon="2.40924">
        <ele>55.79999923706</ele>
        <time>2015-12-28T19:52:49Z</time>
      </trkpt>
      <trkpt lat="48.84761" lon="2.40925">
        <ele>55.79999923706</ele>
        <time>2015-12-28T19:52:55Z</time>
      </trkpt>
      <trkpt lat="48.84745" lon="2.40914">
        <ele>56.20000076294</ele>
        <time>2015-12-28T19:53:03Z</time>
      </trkpt>
      <trkpt lat="48.84736" lon="2.40899">
        <ele>55.400001525879</ele>
        <time>2015-12-28T19:53:21Z</time>
      </trkpt>
      <trkpt lat="48.84723" lon="2.40896">
        <ele>55.400001525879</ele>
        <time>2015-12-28T19:53:39Z</time>
      </trkpt>
      <trkpt lat="48.84717" lon="2.40921">
        <ele>56.400001525879</ele>
        <time>2015-12-28T19:53:45Z</time>
      </trkpt>
      <trkpt lat="48.84717" lon="2.40927">
        <ele>56.20000076294</ele>
        <time>2015-12-28T19:53:46Z</time>
      </trkpt>
      <trkpt lat="48.84714" lon="2.40958">
        <ele>55.400001525879</ele>
        <time>2015-12-28T19:53:51Z</time>
      </trkpt>
      <trkpt lat="48.84712" lon="2.40992">
        <ele>54.599998474121</ele>
        <time>2015-12-28T19:53:56Z</time>
      </trkpt>
      <trkpt lat="48.8471" lon="2.41024">
        <ele>55</ele>
        <time>2015-12-28T19:54:01Z</time>
      </trkpt>
      <trkpt lat="48.84708" lon="2.41055">
        <ele>54.599998474121</ele>
        <time>2015-12-28T19:54:06Z</time>
      </trkpt>
      <trkpt lat="48.84706" lon="2.41086">
        <ele>54.400001525879</ele>
        <time>2015-12-28T19:54:12Z</time>
      </trkpt>
      <trkpt lat="48.84699" lon="2.41114">
        <ele>54.400001525879</ele>
        <time>2015-12-28T19:54:21Z</time>
      </trkpt>
      <trkpt lat="48.84697" lon="2.41142">
        <ele>54.20000076294</ele>
        <time>2015-12-28T19:54:28Z</time>
      </trkpt>
      <trkpt lat="48.84695" lon="2.41171">
        <ele>54</ele>
        <time>2015-12-28T19:54:34Z</time>
      </trkpt>
      <trkpt lat="48.84693" lon="2.41202">
        <ele>54</ele>
        <time>2015-12-28T19:54:39Z</time>
      </trkpt>
      <trkpt lat="48.84692" lon="2.41229">
        <ele>54</ele>
        <time>2015-12-28T19:54:43Z</time>
      </trkpt>
      <trkpt lat="48.84691" lon="2.41258">
        <ele>53.79999923706</ele>
        <time>2015-12-28T19:54:47Z</time>
      </trkpt>
      <trkpt lat="48.84687" lon="2.41286">
        <ele>53.20000076294</ele>
        <time>2015-12-28T19:54:51Z</time>
      </trkpt>
      <trkpt lat="48.84684" lon="2.41314">
        <ele>52.599998474121</ele>
        <time>2015-12-28T19:54:55Z</time>
      </trkpt>
      <trkpt lat="48.8468" lon="2.41346">
        <ele>51</ele>
        <time>2015-12-28T19:55:00Z</time>
      </trkpt>
      <trkpt lat="48.84679" lon="2.41352">
        <ele>50.599998474121</ele>
        <time>2015-12-28T19:55:01Z</time>
      </trkpt>
      <trkpt lat="48.84676" lon="2.41363">
        <ele>50</ele>
        <time>2015-12-28T19:55:03Z</time>
      </trkpt>
      <trkpt lat="48.84665" lon="2.41391">
        <ele>48.20000076294</ele>
        <time>2015-12-28T19:55:08Z</time>
      </trkpt>
      <trkpt lat="48.84663" lon="2.41396">
        <ele>48.20000076294</ele>
        <time>2015-12-28T19:55:09Z</time>
      </trkpt>
      <trkpt lat="48.84652" lon="2.41419">
        <ele>48.400001525879</ele>
        <time>2015-12-28T19:55:13Z</time>
      </trkpt>
      <trkpt lat="48.8465" lon="2.41425">
        <ele>48.79999923706</ele>
        <time>2015-12-28T19:55:14Z</time>
      </trkpt>
      <trkpt lat="48.84646" lon="2.41437">
        <ele>49.400001525879</ele>
        <time>2015-12-28T19:55:16Z</time>
      </trkpt>
      <trkpt lat="48.84644" lon="2.41449">
        <ele>49.79999923706</ele>
        <time>2015-12-28T19:55:18Z</time>
      </trkpt>
      <trkpt lat="48.84643" lon="2.4148">
        <ele>51.599998474121</ele>
        <time>2015-12-28T19:55:24Z</time>
      </trkpt>
      <trkpt lat="48.84648" lon="2.41504">
        <ele>52.599998474121</ele>
        <time>2015-12-28T19:55:48Z</time>
      </trkpt>
      <trkpt lat="48.84657" lon="2.4153">
        <ele>53</ele>
        <time>2015-12-28T19:55:54Z</time>
      </trkpt>
      <trkpt lat="48.84659" lon="2.41549">
        <ele>53.599998474121</ele>
        <time>2015-12-28T19:55:57Z</time>
      </trkpt>
      <trkpt lat="48.84658" lon="2.41577">
        <ele>56.400001525879</ele>
        <time>2015-12-28T19:56:01Z</time>
      </trkpt>
      <trkpt lat="48.84656" lon="2.41607">
        <ele>56</ele>
        <time>2015-12-28T19:56:05Z</time>
      </trkpt>
      <trkpt lat="48.84655" lon="2.41639">
        <ele>55.400001525879</ele>
        <time>2015-12-28T19:56:09Z</time>
      </trkpt>
      <trkpt lat="48.84652" lon="2.41668">
        <ele>55.79999923706</ele>
        <time>2015-12-28T19:56:13Z</time>
      </trkpt>
      <trkpt lat="48.8465" lon="2.41699">
        <ele>57.599998474121</ele>
        <time>2015-12-28T19:56:18Z</time>
      </trkpt>
      <trkpt lat="48.8465" lon="2.41711">
        <ele>58.20000076294</ele>
        <time>2015-12-28T19:56:20Z</time>
      </trkpt>
      <trkpt lat="48.84647" lon="2.41727">
        <ele>57.400001525879</ele>
        <time>2015-12-28T19:56:24Z</time>
      </trkpt>
      <trkpt lat="48.84647" lon="2.4173">
        <ele>57.20000076294</ele>
        <time>2015-12-28T19:56:25Z</time>
      </trkpt>
      <trkpt lat="48.84638" lon="2.41752">
        <ele>56.599998474121</ele>
        <time>2015-12-28T19:56:34Z</time>
      </trkpt>
      <trkpt lat="48.84631" lon="2.41751">
        <ele>57</ele>
        <time>2015-12-28T19:56:39Z</time>
      </trkpt>
      <trkpt lat="48.84626" lon="2.4175">
        <ele>57</ele>
        <time>2015-12-28T19:58:20Z</time>
      </trkpt>
      <trkpt lat="48.84607" lon="2.41755">
        <ele>58</ele>
        <time>2015-12-28T19:58:36Z</time>
      </trkpt>
      <trkpt lat="48.84586" lon="2.41757">
        <ele>58</ele>
        <time>2015-12-28T19:58:42Z</time>
      </trkpt>
      <trkpt lat="48.84568" lon="2.41758">
        <ele>58.20000076294</ele>
        <time>2015-12-28T19:58:47Z</time>
      </trkpt>
      <trkpt lat="48.84547" lon="2.4176">
        <ele>58.20000076294</ele>
        <time>2015-12-28T19:58:52Z</time>
      </trkpt>
      <trkpt lat="48.84525" lon="2.41763">
        <ele>58.400001525879</ele>
        <time>2015-12-28T19:58:57Z</time>
      </trkpt>
      <trkpt lat="48.84505" lon="2.41764">
        <ele>57.599998474121</ele>
        <time>2015-12-28T19:59:01Z</time>
      </trkpt>
      <trkpt lat="48.84483" lon="2.41768">
        <ele>56.599998474121</ele>
        <time>2015-12-28T19:59:06Z</time>
      </trkpt>
      <trkpt lat="48.84463" lon="2.41769">
        <ele>55.599998474121</ele>
        <time>2015-12-28T19:59:10Z</time>
      </trkpt>
      <trkpt lat="48.84443" lon="2.41771">
        <ele>54.79999923706</ele>
        <time>2015-12-28T19:59:14Z</time>
      </trkpt>
      <trkpt lat="48.84432" lon="2.41772">
        <ele>54.20000076294</ele>
        <time>2015-12-28T19:59:16Z</time>
      </trkpt>
      <trkpt lat="48.84412" lon="2.41772">
        <ele>53.599998474121</ele>
        <time>2015-12-28T19:59:20Z</time>
      </trkpt>
      <trkpt lat="48.84393" lon="2.41779">
        <ele>53</ele>
        <time>2015-12-28T19:59:24Z</time>
      </trkpt>
      <trkpt lat="48.84379" lon="2.41785">
        <ele>52.79999923706</ele>
        <time>2015-12-28T19:59:27Z</time>
      </trkpt>
      <trkpt lat="48.84358" lon="2.41788">
        <ele>52</ele>
        <time>2015-12-28T19:59:32Z</time>
      </trkpt>
      <trkpt lat="48.84345" lon="2.4179">
        <ele>52.20000076294</ele>
        <time>2015-12-28T19:59:35Z</time>
      </trkpt>
      <trkpt lat="48.84325" lon="2.41789">
        <ele>52.400001525879</ele>
        <time>2015-12-28T19:59:39Z</time>
      </trkpt>
      <trkpt lat="48.84308" lon="2.41783">
        <ele>52.400001525879</ele>
        <time>2015-12-28T19:59:43Z</time>
      </trkpt>
      <trkpt lat="48.84287" lon="2.4178">
        <ele>52.400001525879</ele>
        <time>2015-12-28T19:59:47Z</time>
      </trkpt>
      <trkpt lat="48.84264" lon="2.41779">
        <ele>52.20000076294</ele>
        <time>2015-12-28T19:59:51Z</time>
      </trkpt>
      <trkpt lat="48.84246" lon="2.41779">
        <ele>51.79999923706</ele>
        <time>2015-12-28T19:59:54Z</time>
      </trkpt>
      <trkpt lat="48.84227" lon="2.41779">
        <ele>51.20000076294</ele>
        <time>2015-12-28T19:59:57Z</time>
      </trkpt>
      <trkpt lat="48.84208" lon="2.41779">
        <ele>50.599998474121</ele>
        <time>2015-12-28T20:00:00Z</time>
      </trkpt>
      <trkpt lat="48.84185" lon="2.41782">
        <ele>50.20000076294</ele>
        <time>2015-12-28T20:00:04Z</time>
      </trkpt>
      <trkpt lat="48.84164" lon="2.41783">
        <ele>51.20000076294</ele>
        <time>2015-12-28T20:00:08Z</time>
      </trkpt>
      <trkpt lat="48.84141" lon="2.41781">
        <ele>52.400001525879</ele>
        <time>2015-12-28T20:00:12Z</time>
      </trkpt>
      <trkpt lat="48.8412" lon="2.41776">
        <ele>53.20000076294</ele>
        <time>2015-12-28T20:00:16Z</time>
      </trkpt>
      <trkpt lat="48.84101" lon="2.41774">
        <ele>53.599998474121</ele>
        <time>2015-12-28T20:00:19Z</time>
      </trkpt>
      <trkpt lat="48.84085" lon="2.41777">
        <ele>53.599998474121</ele>
        <time>2015-12-28T20:00:22Z</time>
      </trkpt>
      <trkpt lat="48.84062" lon="2.41778">
        <ele>53.599998474121</ele>
        <time>2015-12-28T20:00:26Z</time>
      </trkpt>
      <trkpt lat="48.8404" lon="2.41783">
        <ele>54</ele>
        <time>2015-12-28T20:00:30Z</time>
      </trkpt>
      <trkpt lat="48.84021" lon="2.41779">
        <ele>54.400001525879</ele>
        <time>2015-12-28T20:00:33Z</time>
      </trkpt>
      <trkpt lat="48.84002" lon="2.41776">
        <ele>54.599998474121</ele>
        <time>2015-12-28T20:00:36Z</time>
      </trkpt>
      <trkpt lat="48.83996" lon="2.41775">
        <ele>54.599998474121</ele>
        <time>2015-12-28T20:00:37Z</time>
      </trkpt>
      <trkpt lat="48.83978" lon="2.4177">
        <ele>54.79999923706</ele>
        <time>2015-12-28T20:00:40Z</time>
      </trkpt>
      <trkpt lat="48.83957" lon="2.41768">
        <ele>55</ele>
        <time>2015-12-28T20:00:44Z</time>
      </trkpt>
      <trkpt lat="48.83942" lon="2.41763">
        <ele>55</ele>
        <time>2015-12-28T20:00:47Z</time>
      </trkpt>
      <trkpt lat="48.83928" lon="2.4176">
        <ele>55.20000076294</ele>
        <time>2015-12-28T20:00:50Z</time>
      </trkpt>
      <trkpt lat="48.83918" lon="2.41759">
        <ele>55.599998474121</ele>
        <time>2015-12-28T20:00:52Z</time>
      </trkpt>
      <trkpt lat="48.83902" lon="2.41757">
        <ele>55.79999923706</ele>
        <time>2015-12-28T20:00:56Z</time>
      </trkpt>
      <trkpt lat="48.83893" lon="2.41756">
        <ele>56</ele>
        <time>2015-12-28T20:00:59Z</time>
      </trkpt>
      <trkpt lat="48.83878" lon="2.41761">
        <ele>56.400001525879</ele>
        <time>2015-12-28T20:01:03Z</time>
      </trkpt>
      <trkpt lat="48.83859" lon="2.4177">
        <ele>57</ele>
        <time>2015-12-28T20:01:08Z</time>
      </trkpt>
      <trkpt lat="48.83837" lon="2.41777">
        <ele>56.79999923706</ele>
        <time>2015-12-28T20:01:13Z</time>
      </trkpt>
      <trkpt lat="48.83815" lon="2.41785">
        <ele>56.599998474121</ele>
        <time>2015-12-28T20:01:18Z</time>
      </trkpt>
      <trkpt lat="48.83795" lon="2.41793">
        <ele>56.599998474121</ele>
        <time>2015-12-28T20:01:22Z</time>
      </trkpt>
      <trkpt lat="48.83792" lon="2.41795">
        <ele>56.599998474121</ele>
        <time>2015-12-28T20:01:23Z</time>
      </trkpt>
      <trkpt lat="48.83773" lon="2.41808">
        <ele>56.79999923706</ele>
        <time>2015-12-28T20:01:28Z</time>
      </trkpt>
      <trkpt lat="48.83753" lon="2.41816">
        <ele>56.79999923706</ele>
        <time>2015-12-28T20:01:33Z</time>
      </trkpt>
      <trkpt lat="48.83736" lon="2.41827">
        <ele>57.400001525879</ele>
        <time>2015-12-28T20:01:37Z</time>
      </trkpt>
      <trkpt lat="48.83717" lon="2.41836">
        <ele>57.599998474121</ele>
        <time>2015-12-28T20:01:41Z</time>
      </trkpt>
      <trkpt lat="48.83712" lon="2.41839">
        <ele>57.79999923706</ele>
        <time>2015-12-28T20:01:42Z</time>
      </trkpt>
      <trkpt lat="48.83693" lon="2.41852">
        <ele>58</ele>
        <time>2015-12-28T20:01:46Z</time>
      </trkpt>
      <trkpt lat="48.83679" lon="2.41863">
        <ele>57.79999923706</ele>
        <time>2015-12-28T20:01:49Z</time>
      </trkpt>
      <trkpt lat="48.83662" lon="2.41876">
        <ele>57.599998474121</ele>
        <time>2015-12-28T20:01:53Z</time>
      </trkpt>
      <trkpt lat="48.83647" lon="2.41885">
        <ele>57.599998474121</ele>
        <time>2015-12-28T20:01:56Z</time>
      </trkpt>
      <trkpt lat="48.83628" lon="2.41896">
        <ele>57.20000076294</ele>
        <time>2015-12-28T20:02:00Z</time>
      </trkpt>
      <trkpt lat="48.83606" lon="2.4191">
        <ele>57</ele>
        <time>2015-12-28T20:02:04Z</time>
      </trkpt>
      <trkpt lat="48.83585" lon="2.41923">
        <ele>56.20000076294</ele>
        <time>2015-12-28T20:02:08Z</time>
      </trkpt>
      <trkpt lat="48.83565" lon="2.41937">
        <ele>55.599998474121</ele>
        <time>2015-12-28T20:02:12Z</time>
      </trkpt>
      <trkpt lat="48.83546" lon="2.41949">
        <ele>55</ele>
        <time>2015-12-28T20:02:16Z</time>
      </trkpt>
      <trkpt lat="48.83527" lon="2.4196">
        <ele>54.599998474121</ele>
        <time>2015-12-28T20:02:20Z</time>
      </trkpt>
      <trkpt lat="48.83507" lon="2.41971">
        <ele>54.599998474121</ele>
        <time>2015-12-28T20:02:25Z</time>
      </trkpt>
      <trkpt lat="48.83493" lon="2.41976">
        <ele>54.79999923706</ele>
        <time>2015-12-28T20:02:29Z</time>
      </trkpt>
      <trkpt lat="48.83481" lon="2.41992">
        <ele>55</ele>
        <time>2015-12-28T20:02:52Z</time>
      </trkpt>
      <trkpt lat="48.83465" lon="2.42004">
        <ele>55</ele>
        <time>2015-12-28T20:02:59Z</time>
      </trkpt>
      <trkpt lat="48.83448" lon="2.42015">
        <ele>54.599998474121</ele>
        <time>2015-12-28T20:03:05Z</time>
      </trkpt>
      <trkpt lat="48.83428" lon="2.42027">
        <ele>53.79999923706</ele>
        <time>2015-12-28T20:03:11Z</time>
      </trkpt>
      <trkpt lat="48.83408" lon="2.42036">
        <ele>53.20000076294</ele>
        <time>2015-12-28T20:03:16Z</time>
      </trkpt>
      <trkpt lat="48.83389" lon="2.4204">
        <ele>53.20000076294</ele>
        <time>2015-12-28T20:03:20Z</time>
      </trkpt>
      <trkpt lat="48.83368" lon="2.42042">
        <ele>53.400001525879</ele>
        <time>2015-12-28T20:03:24Z</time>
      </trkpt>
      <trkpt lat="48.8335" lon="2.42042">
        <ele>53.400001525879</ele>
        <time>2015-12-28T20:03:27Z</time>
      </trkpt>
      <trkpt lat="48.83331" lon="2.42041">
        <ele>53</ele>
        <time>2015-12-28T20:03:30Z</time>
      </trkpt>
      <trkpt lat="48.83312" lon="2.4204">
        <ele>52.400001525879</ele>
        <time>2015-12-28T20:03:33Z</time>
      </trkpt>
      <trkpt lat="48.8329" lon="2.42041">
        <ele>52.20000076294</ele>
        <time>2015-12-28T20:03:36Z</time>
      </trkpt>
      <trkpt lat="48.8327" lon="2.42042">
        <ele>52</ele>
        <time>2015-12-28T20:03:39Z</time>
      </trkpt>
      <trkpt lat="48.83247" lon="2.42046">
        <ele>52.400001525879</ele>
        <time>2015-12-28T20:03:43Z</time>
      </trkpt>
      <trkpt lat="48.83229" lon="2.42051">
        <ele>53</ele>
        <time>2015-12-28T20:03:46Z</time>
      </trkpt>
      <trkpt lat="48.83209" lon="2.42056">
        <ele>54</ele>
        <time>2015-12-28T20:03:49Z</time>
      </trkpt>
      <trkpt lat="48.83195" lon="2.42059">
        <ele>54.79999923706</ele>
        <time>2015-12-28T20:03:51Z</time>
      </trkpt>
      <trkpt lat="48.83173" lon="2.42062">
        <ele>55.20000076294</ele>
        <time>2015-12-28T20:03:54Z</time>
      </trkpt>
      <trkpt lat="48.8315" lon="2.42063">
        <ele>55</ele>
        <time>2015-12-28T20:03:57Z</time>
      </trkpt>
      <trkpt lat="48.83126" lon="2.42065">
        <ele>54.79999923706</ele>
        <time>2015-12-28T20:04:00Z</time>
      </trkpt>
      <trkpt lat="48.83104" lon="2.42065">
        <ele>54.599998474121</ele>
        <time>2015-12-28T20:04:03Z</time>
      </trkpt>
      <trkpt lat="48.83081" lon="2.42064">
        <ele>54.400001525879</ele>
        <time>2015-12-28T20:04:06Z</time>
      </trkpt>
      <trkpt lat="48.83058" lon="2.42061">
        <ele>54.20000076294</ele>
        <time>2015-12-28T20:04:09Z</time>
      </trkpt>
      <trkpt lat="48.83034" lon="2.42057">
        <ele>53.79999923706</ele>
        <time>2015-12-28T20:04:12Z</time>
      </trkpt>
      <trkpt lat="48.83011" lon="2.42051">
        <ele>53.599998474121</ele>
        <time>2015-12-28T20:04:15Z</time>
      </trkpt>
      <trkpt lat="48.82987" lon="2.42041">
        <ele>53.599998474121</ele>
        <time>2015-12-28T20:04:18Z</time>
      </trkpt>
      <trkpt lat="48.82963" lon="2.4203">
        <ele>53.400001525879</ele>
        <time>2015-12-28T20:04:21Z</time>
      </trkpt>
      <trkpt lat="48.8294" lon="2.42016">
        <ele>53.20000076294</ele>
        <time>2015-12-28T20:04:24Z</time>
      </trkpt>
      <trkpt lat="48.82918" lon="2.42002">
        <ele>53.20000076294</ele>
        <time>2015-12-28T20:04:27Z</time>
      </trkpt>
      <trkpt lat="48.82899" lon="2.41991">
        <ele>53.20000076294</ele>
        <time>2015-12-28T20:04:30Z</time>
      </trkpt>
      <trkpt lat="48.82877" lon="2.4198">
        <ele>53.20000076294</ele>
        <time>2015-12-28T20:04:34Z</time>
      </trkpt>
      <trkpt lat="48.82869" lon="2.41974">
        <ele>53.20000076294</ele>
        <time>2015-12-28T20:04:36Z</time>
      </trkpt>
      <trkpt lat="48.8286" lon="2.41956">
        <ele>53</ele>
        <time>2015-12-28T20:04:40Z</time>
      </trkpt>
      <trkpt lat="48.82858" lon="2.41952">
        <ele>52.79999923706</ele>
        <time>2015-12-28T20:04:41Z</time>
      </trkpt>
      <trkpt lat="48.82844" lon="2.41946">
        <ele>52.79999923706</ele>
        <time>2015-12-28T20:04:46Z</time>
      </trkpt>
      <trkpt lat="48.8283" lon="2.41945">
        <ele>53</ele>
        <time>2015-12-28T20:04:52Z</time>
      </trkpt>
      <trkpt lat="48.82822" lon="2.41943">
        <ele>53</ele>
        <time>2015-12-28T20:04:57Z</time>
      </trkpt>
      <trkpt lat="48.82819" lon="2.41943">
        <ele>53.20000076294</ele>
        <time>2015-12-28T20:05:00Z</time>
      </trkpt>
      <trkpt lat="48.82808" lon="2.41932">
        <ele>53</ele>
        <time>2015-12-28T20:05:38Z</time>
      </trkpt>
      <trkpt lat="48.82789" lon="2.41937">
        <ele>53.400001525879</ele>
        <time>2015-12-28T20:05:43Z</time>
      </trkpt>
      <trkpt lat="48.82779" lon="2.41937">
        <ele>53.400001525879</ele>
        <time>2015-12-28T20:05:45Z</time>
      </trkpt>
      <trkpt lat="48.82757" lon="2.41939">
        <ele>53</ele>
        <time>2015-12-28T20:05:49Z</time>
      </trkpt>
      <trkpt lat="48.82752" lon="2.41939">
        <ele>52.79999923706</ele>
        <time>2015-12-28T20:05:50Z</time>
      </trkpt>
      <trkpt lat="48.82729" lon="2.41946">
        <ele>52.20000076294</ele>
        <time>2015-12-28T20:05:54Z</time>
      </trkpt>
      <trkpt lat="48.82711" lon="2.41952">
        <ele>51.599998474121</ele>
        <time>2015-12-28T20:05:57Z</time>
      </trkpt>
      <trkpt lat="48.82692" lon="2.4196">
        <ele>51.20000076294</ele>
        <time>2015-12-28T20:06:00Z</time>
      </trkpt>
      <trkpt lat="48.82673" lon="2.41965">
        <ele>51.599998474121</ele>
        <time>2015-12-28T20:06:03Z</time>
      </trkpt>
      <trkpt lat="48.82652" lon="2.4197">
        <ele>52.20000076294</ele>
        <time>2015-12-28T20:06:06Z</time>
      </trkpt>
      <trkpt lat="48.82629" lon="2.41976">
        <ele>52.400001525879</ele>
        <time>2015-12-28T20:06:09Z</time>
      </trkpt>
      <trkpt lat="48.82606" lon="2.41982">
        <ele>52.79999923706</ele>
        <time>2015-12-28T20:06:12Z</time>
      </trkpt>
      <trkpt lat="48.82583" lon="2.41985">
        <ele>53.400001525879</ele>
        <time>2015-12-28T20:06:15Z</time>
      </trkpt>
      <trkpt lat="48.82563" lon="2.41988">
        <ele>53.599998474121</ele>
        <time>2015-12-28T20:06:18Z</time>
      </trkpt>
      <trkpt lat="48.82539" lon="2.4199">
        <ele>54</ele>
        <time>2015-12-28T20:06:22Z</time>
      </trkpt>
      <trkpt lat="48.82517" lon="2.41993">
        <ele>54.20000076294</ele>
        <time>2015-12-28T20:06:26Z</time>
      </trkpt>
      <trkpt lat="48.82496" lon="2.41997">
        <ele>54.599998474121</ele>
        <time>2015-12-28T20:06:30Z</time>
      </trkpt>
      <trkpt lat="48.82476" lon="2.41999">
        <ele>55.20000076294</ele>
        <time>2015-12-28T20:06:34Z</time>
      </trkpt>
      <trkpt lat="48.82458" lon="2.41999">
        <ele>55.599998474121</ele>
        <time>2015-12-28T20:06:38Z</time>
      </trkpt>
      <trkpt lat="48.82437" lon="2.41999">
        <ele>56</ele>
        <time>2015-12-28T20:06:43Z</time>
      </trkpt>
      <trkpt lat="48.82423" lon="2.42">
        <ele>56.599998474121</ele>
        <time>2015-12-28T20:06:47Z</time>
      </trkpt>
      <trkpt lat="48.82412" lon="2.41997">
        <ele>57</ele>
        <time>2015-12-28T20:06:51Z</time>
      </trkpt>
      <trkpt lat="48.82407" lon="2.41997">
        <ele>57.20000076294</ele>
        <time>2015-12-28T20:06:54Z</time>
      </trkpt>
      <trkpt lat="48.82407" lon="2.41989">
        <ele>57</ele>
        <time>2015-12-28T20:06:59Z</time>
      </trkpt>
      <trkpt lat="48.824" lon="2.41988">
        <ele>57.20000076294</ele>
        <time>2015-12-28T20:07:20Z</time>
      </trkpt>
      <trkpt lat="48.8238" lon="2.41989">
        <ele>58</ele>
        <time>2015-12-28T20:07:26Z</time>
      </trkpt>
      <trkpt lat="48.8236" lon="2.41993">
        <ele>58.79999923706</ele>
        <time>2015-12-28T20:07:31Z</time>
      </trkpt>
      <trkpt lat="48.8234" lon="2.41998">
        <ele>58.79999923706</ele>
        <time>2015-12-28T20:07:37Z</time>
      </trkpt>
      <trkpt lat="48.82321" lon="2.42001">
        <ele>58.599998474121</ele>
        <time>2015-12-28T20:07:42Z</time>
      </trkpt>
      <trkpt lat="48.82301" lon="2.42">
        <ele>58.400001525879</ele>
        <time>2015-12-28T20:07:48Z</time>
      </trkpt>
      <trkpt lat="48.82282" lon="2.42">
        <ele>58.20000076294</ele>
        <time>2015-12-28T20:07:54Z</time>
      </trkpt>
      <trkpt lat="48.82264" lon="2.42002">
        <ele>57.79999923706</ele>
        <time>2015-12-28T20:07:59Z</time>
      </trkpt>
      <trkpt lat="48.82244" lon="2.42008">
        <ele>57.400001525879</ele>
        <time>2015-12-28T20:08:03Z</time>
      </trkpt>
      <trkpt lat="48.82225" lon="2.42006">
        <ele>56.79999923706</ele>
        <time>2015-12-28T20:08:06Z</time>
      </trkpt>
      <trkpt lat="48.82204" lon="2.42002">
        <ele>56.400001525879</ele>
        <time>2015-12-28T20:08:10Z</time>
      </trkpt>
      <trkpt lat="48.82194" lon="2.42">
        <ele>56.20000076294</ele>
        <time>2015-12-28T20:08:12Z</time>
      </trkpt>
      <trkpt lat="48.82176" lon="2.41997">
        <ele>55.79999923706</ele>
        <time>2015-12-28T20:08:16Z</time>
      </trkpt>
      <trkpt lat="48.82165" lon="2.41996">
        <ele>55.79999923706</ele>
        <time>2015-12-28T20:08:19Z</time>
      </trkpt>
      <trkpt lat="48.82144" lon="2.41995">
        <ele>55.599998474121</ele>
        <time>2015-12-28T20:08:25Z</time>
      </trkpt>
      <trkpt lat="48.82124" lon="2.4199">
        <ele>55.400001525879</ele>
        <time>2015-12-28T20:08:31Z</time>
      </trkpt>
      <trkpt lat="48.82119" lon="2.41989">
        <ele>55.20000076294</ele>
        <time>2015-12-28T20:08:33Z</time>
      </trkpt>
      <trkpt lat="48.82101" lon="2.41986">
        <ele>55.20000076294</ele>
        <time>2015-12-28T20:08:39Z</time>
      </trkpt>
      <trkpt lat="48.82083" lon="2.41987">
        <ele>55.20000076294</ele>
        <time>2015-12-28T20:08:45Z</time>
      </trkpt>
      <trkpt lat="48.82064" lon="2.41998">
        <ele>55</ele>
        <time>2015-12-28T20:08:51Z</time>
      </trkpt>
      <trkpt lat="48.82042" lon="2.41996">
        <ele>55</ele>
        <time>2015-12-28T20:08:57Z</time>
      </trkpt>
      <trkpt lat="48.82022" lon="2.41998">
        <ele>55</ele>
        <time>2015-12-28T20:09:02Z</time>
      </trkpt>
      <trkpt lat="48.82004" lon="2.42009">
        <ele>54.400001525879</ele>
        <time>2015-12-28T20:09:08Z</time>
      </trkpt>
      <trkpt lat="48.82003" lon="2.42038">
        <ele>55</ele>
        <time>2015-12-28T20:09:13Z</time>
      </trkpt>
      <trkpt lat="48.82003" lon="2.42068">
        <ele>55.79999923706</ele>
        <time>2015-12-28T20:09:18Z</time>
      </trkpt>
      <trkpt lat="48.82005" lon="2.42097">
        <ele>56.400001525879</ele>
        <time>2015-12-28T20:09:23Z</time>
      </trkpt>
      <trkpt lat="48.82007" lon="2.4213">
        <ele>56.400001525879</ele>
        <time>2015-12-28T20:09:29Z</time>
      </trkpt>
      <trkpt lat="48.82009" lon="2.42157">
        <ele>56.599998474121</ele>
        <time>2015-12-28T20:09:35Z</time>
      </trkpt>
      <trkpt lat="48.82005" lon="2.42163">
        <ele>56.400001525879</ele>
        <time>2015-12-28T20:09:38Z</time>
      </trkpt>
      <trkpt lat="48.81991" lon="2.42168">
        <ele>55.79999923706</ele>
        <time>2015-12-28T20:09:42Z</time>
      </trkpt>
      <trkpt lat="48.8197" lon="2.42171">
        <ele>55</ele>
        <time>2015-12-28T20:09:47Z</time>
      </trkpt>
      <trkpt lat="48.81949" lon="2.42176">
        <ele>54.20000076294</ele>
        <time>2015-12-28T20:09:53Z</time>
      </trkpt>
      <trkpt lat="48.81934" lon="2.42179">
        <ele>53.20000076294</ele>
        <time>2015-12-28T20:09:59Z</time>
      </trkpt>
      <trkpt lat="48.81929" lon="2.42178">
        <ele>52.599998474121</ele>
        <time>2015-12-28T20:10:03Z</time>
      </trkpt>
      <trkpt lat="48.81934" lon="2.42205">
        <ele>52.20000076294</ele>
        <time>2015-12-28T20:10:27Z</time>
      </trkpt>
      <trkpt lat="48.81937" lon="2.42234">
        <ele>51.400001525879</ele>
        <time>2015-12-28T20:10:32Z</time>
      </trkpt>
      <trkpt lat="48.81942" lon="2.42262">
        <ele>51.20000076294</ele>
        <time>2015-12-28T20:10:38Z</time>
      </trkpt>
      <trkpt lat="48.8196" lon="2.4227">
        <ele>52.79999923706</ele>
        <time>2015-12-28T20:10:47Z</time>
      </trkpt>
      <trkpt lat="48.81978" lon="2.4227">
        <ele>53.79999923706</ele>
        <time>2015-12-28T20:10:55Z</time>
      </trkpt>
      <trkpt lat="48.81986" lon="2.42271">
        <ele>54.400001525879</ele>
        <time>2015-12-28T20:10:58Z</time>
      </trkpt>
      <trkpt lat="48.82003" lon="2.42275">
        <ele>55.400001525879</ele>
        <time>2015-12-28T20:11:06Z</time>
      </trkpt>
      <trkpt lat="48.82005" lon="2.4228">
        <ele>55.79999923706</ele>
        <time>2015-12-28T20:11:08Z</time>
      </trkpt>
      <trkpt lat="48.82009" lon="2.42309">
        <ele>56.599998474121</ele>
        <time>2015-12-28T20:11:16Z</time>
      </trkpt>
      <trkpt lat="48.82011" lon="2.42315">
        <ele>57</ele>
        <time>2015-12-28T20:11:20Z</time>
      </trkpt>
      <trkpt lat="48.82003" lon="2.42323">
        <ele>56.20000076294</ele>
        <time>2015-12-28T20:11:33Z</time>
      </trkpt>
      <trkpt lat="48.81982" lon="2.42323">
        <ele>54.400001525879</ele>
        <time>2015-12-28T20:11:41Z</time>
      </trkpt>
      <trkpt lat="48.81964" lon="2.42318">
        <ele>52.599998474121</ele>
        <time>2015-12-28T20:11:45Z</time>
      </trkpt>
      <trkpt lat="48.81955" lon="2.42319">
        <ele>51.79999923706</ele>
        <time>2015-12-28T20:11:47Z</time>
      </trkpt>
      <trkpt lat="48.81936" lon="2.42327">
        <ele>49.79999923706</ele>
        <time>2015-12-28T20:11:52Z</time>
      </trkpt>
      <trkpt lat="48.81929" lon="2.42355">
        <ele>48.599998474121</ele>
        <time>2015-12-28T20:11:56Z</time>
      </trkpt>
      <trkpt lat="48.8192" lon="2.42382">
        <ele>47.400001525879</ele>
        <time>2015-12-28T20:12:00Z</time>
      </trkpt>
      <trkpt lat="48.81909" lon="2.42406">
        <ele>46</ele>
        <time>2015-12-28T20:12:04Z</time>
      </trkpt>
      <trkpt lat="48.81896" lon="2.42429">
        <ele>44.79999923706</ele>
        <time>2015-12-28T20:12:09Z</time>
      </trkpt>
      <trkpt lat="48.81891" lon="2.42439">
        <ele>44.599998474121</ele>
        <time>2015-12-28T20:12:11Z</time>
      </trkpt>
      <trkpt lat="48.81884" lon="2.42444">
        <ele>43.79999923706</ele>
        <time>2015-12-28T20:12:13Z</time>
      </trkpt>
      <trkpt lat="48.81865" lon="2.42442">
        <ele>41.79999923706</ele>
        <time>2015-12-28T20:12:18Z</time>
      </trkpt>
      <trkpt lat="48.81858" lon="2.42443">
        <ele>41.20000076294</ele>
        <time>2015-12-28T20:12:20Z</time>
      </trkpt>
      <trkpt lat="48.81837" lon="2.42445">
        <ele>39.599998474121</ele>
        <time>2015-12-28T20:12:26Z</time>
      </trkpt>
      <trkpt lat="48.81834" lon="2.42445">
        <ele>39.400001525879</ele>
        <time>2015-12-28T20:12:27Z</time>
      </trkpt>
      <trkpt lat="48.81816" lon="2.42442">
        <ele>37.599998474121</ele>
        <time>2015-12-28T20:12:32Z</time>
      </trkpt>
      <trkpt lat="48.81798" lon="2.42433">
        <ele>35.400001525879</ele>
        <time>2015-12-28T20:12:40Z</time>
      </trkpt>
      <trkpt lat="48.818" lon="2.42435">
        <ele>35.79999923706</ele>
        <time>2015-12-28T20:13:32Z</time>
      </trkpt>
      <trkpt lat="48.81801" lon="2.42443">
        <ele>36.400001525879</ele>
        <time>2015-12-28T20:13:36Z</time>
      </trkpt>
      <trkpt lat="48.81805" lon="2.42434">
        <ele>36.20000076294</ele>
        <time>2015-12-28T20:14:38Z</time>
      </trkpt>
      <trkpt lat="48.81799" lon="2.42419">
        <ele>34.599998474121</ele>
        <time>2015-12-28T20:15:19Z</time>
      </trkpt>
      <trkpt lat="48.81803" lon="2.42428">
        <ele>35.599998474121</ele>
        <time>2015-12-28T20:15:37Z</time>
      </trkpt>
      <trkpt lat="48.81797" lon="2.42412">
        <ele>34.20000076294</ele>
        <time>2015-12-28T20:16:10Z</time>
      </trkpt>
      <trkpt lat="48.81803" lon="2.42399">
        <ele>34.79999923706</ele>
        <time>2015-12-28T20:17:01Z</time>
      </trkpt>
      <trkpt lat="48.81799" lon="2.42418">
        <ele>34.400001525879</ele>
        <time>2015-12-28T20:18:05Z</time>
      </trkpt>
      <trkpt lat="48.81796" lon="2.4245">
        <ele>36</ele>
        <time>2015-12-28T20:18:12Z</time>
      </trkpt>
      <trkpt lat="48.81796" lon="2.4247">
        <ele>36</ele>
        <time>2015-12-28T20:18:15Z</time>
      </trkpt>
      <trkpt lat="48.81794" lon="2.42498">
        <ele>36.20000076294</ele>
        <time>2015-12-28T20:18:19Z</time>
      </trkpt>
      <trkpt lat="48.81792" lon="2.42525">
        <ele>35</ele>
        <time>2015-12-28T20:18:23Z</time>
      </trkpt>
      <trkpt lat="48.8179" lon="2.42558">
        <ele>35.20000076294</ele>
        <time>2015-12-28T20:18:28Z</time>
      </trkpt>
      <trkpt lat="48.81793" lon="2.42591">
        <ele>35.599998474121</ele>
        <time>2015-12-28T20:18:33Z</time>
      </trkpt>
      <trkpt lat="48.81797" lon="2.42622">
        <ele>36.20000076294</ele>
        <time>2015-12-28T20:18:38Z</time>
      </trkpt>
      <trkpt lat="48.81801" lon="2.42656">
        <ele>37.20000076294</ele>
        <time>2015-12-28T20:18:43Z</time>
      </trkpt>
      <trkpt lat="48.81802" lon="2.42684">
        <ele>38</ele>
        <time>2015-12-28T20:18:46Z</time>
      </trkpt>
      <trkpt lat="48.81802" lon="2.42719">
        <ele>37.599998474121</ele>
        <time>2015-12-28T20:18:50Z</time>
      </trkpt>
      <trkpt lat="48.81803" lon="2.42727">
        <ele>37.400001525879</ele>
        <time>2015-12-28T20:18:51Z</time>
      </trkpt>
      <trkpt lat="48.81803" lon="2.4276">
        <ele>36.599998474121</ele>
        <time>2015-12-28T20:18:55Z</time>
      </trkpt>
      <trkpt lat="48.81803" lon="2.42794">
        <ele>36.400001525879</ele>
        <time>2015-12-28T20:18:59Z</time>
      </trkpt>
      <trkpt lat="48.81801" lon="2.42821">
        <ele>36.599998474121</ele>
        <time>2015-12-28T20:19:02Z</time>
      </trkpt>
      <trkpt lat="48.81799" lon="2.42849">
        <ele>36.599998474121</ele>
        <time>2015-12-28T20:19:05Z</time>
      </trkpt>
      <trkpt lat="48.81798" lon="2.42879">
        <ele>36.400001525879</ele>
        <time>2015-12-28T20:19:08Z</time>
      </trkpt>
      <trkpt lat="48.81798" lon="2.4291">
        <ele>36.599998474121</ele>
        <time>2015-12-28T20:19:11Z</time>
      </trkpt>
      <trkpt lat="48.81799" lon="2.42942">
        <ele>36.20000076294</ele>
        <time>2015-12-28T20:19:14Z</time>
      </trkpt>
      <trkpt lat="48.81799" lon="2.42972">
        <ele>36.20000076294</ele>
        <time>2015-12-28T20:19:17Z</time>
      </trkpt>
      <trkpt lat="48.81799" lon="2.43003">
        <ele>36.20000076294</ele>
        <time>2015-12-28T20:19:20Z</time>
      </trkpt>
      <trkpt lat="48.818" lon="2.43036">
        <ele>36.400001525879</ele>
        <time>2015-12-28T20:19:23Z</time>
      </trkpt>
      <trkpt lat="48.81802" lon="2.43067">
        <ele>37</ele>
        <time>2015-12-28T20:19:26Z</time>
      </trkpt>
      <trkpt lat="48.81804" lon="2.43099">
        <ele>37.20000076294</ele>
        <time>2015-12-28T20:19:29Z</time>
      </trkpt>
      <trkpt lat="48.81807" lon="2.43132">
        <ele>37.20000076294</ele>
        <time>2015-12-28T20:19:32Z</time>
      </trkpt>
      <trkpt lat="48.81809" lon="2.43165">
        <ele>37.20000076294</ele>
        <time>2015-12-28T20:19:35Z</time>
      </trkpt>
      <trkpt lat="48.81811" lon="2.43197">
        <ele>37.79999923706</ele>
        <time>2015-12-28T20:19:38Z</time>
      </trkpt>
      <trkpt lat="48.81812" lon="2.43228">
        <ele>38.20000076294</ele>
        <time>2015-12-28T20:19:41Z</time>
      </trkpt>
      <trkpt lat="48.81813" lon="2.43258">
        <ele>38.599998474121</ele>
        <time>2015-12-28T20:19:44Z</time>
      </trkpt>
      <trkpt lat="48.81814" lon="2.43291">
        <ele>39.599998474121</ele>
        <time>2015-12-28T20:19:47Z</time>
      </trkpt>
      <trkpt lat="48.81816" lon="2.43323">
        <ele>39.20000076294</ele>
        <time>2015-12-28T20:19:50Z</time>
      </trkpt>
      <trkpt lat="48.81818" lon="2.43356">
        <ele>39.20000076294</ele>
        <time>2015-12-28T20:19:53Z</time>
      </trkpt>
      <trkpt lat="48.81819" lon="2.43389">
        <ele>39</ele>
        <time>2015-12-28T20:19:56Z</time>
      </trkpt>
      <trkpt lat="48.8182" lon="2.43421">
        <ele>39.20000076294</ele>
        <time>2015-12-28T20:19:59Z</time>
      </trkpt>
      <trkpt lat="48.8182" lon="2.43453">
        <ele>38.599998474121</ele>
        <time>2015-12-28T20:20:02Z</time>
      </trkpt>
      <trkpt lat="48.81821" lon="2.43485">
        <ele>38.20000076294</ele>
        <time>2015-12-28T20:20:05Z</time>
      </trkpt>
      <trkpt lat="48.81822" lon="2.43518">
        <ele>38.400001525879</ele>
        <time>2015-12-28T20:20:08Z</time>
      </trkpt>
      <trkpt lat="48.81823" lon="2.4355">
        <ele>39.400001525879</ele>
        <time>2015-12-28T20:20:11Z</time>
      </trkpt>
      <trkpt lat="48.81822" lon="2.43581">
        <ele>38.79999923706</ele>
        <time>2015-12-28T20:20:14Z</time>
      </trkpt>
      <trkpt lat="48.81821" lon="2.43612">
        <ele>38</ele>
        <time>2015-12-28T20:20:17Z</time>
      </trkpt>
      <trkpt lat="48.81819" lon="2.43645">
        <ele>37</ele>
        <time>2015-12-28T20:20:20Z</time>
      </trkpt>
      <trkpt lat="48.8182" lon="2.43677">
        <ele>36.79999923706</ele>
        <time>2015-12-28T20:20:23Z</time>
      </trkpt>
      <trkpt lat="48.8182" lon="2.43707">
        <ele>37.599998474121</ele>
        <time>2015-12-28T20:20:26Z</time>
      </trkpt>
      <trkpt lat="48.81819" lon="2.43737">
        <ele>37.79999923706</ele>
        <time>2015-12-28T20:20:29Z</time>
      </trkpt>
      <trkpt lat="48.81819" lon="2.43746">
        <ele>38</ele>
        <time>2015-12-28T20:20:30Z</time>
      </trkpt>
      <trkpt lat="48.8182" lon="2.43777">
        <ele>39.20000076294</ele>
        <time>2015-12-28T20:20:33Z</time>
      </trkpt>
      <trkpt lat="48.81821" lon="2.43786">
        <ele>39.599998474121</ele>
        <time>2015-12-28T20:20:34Z</time>
      </trkpt>
      <trkpt lat="48.81821" lon="2.43814">
        <ele>40.20000076294</ele>
        <time>2015-12-28T20:20:37Z</time>
      </trkpt>
      <trkpt lat="48.81823" lon="2.43849">
        <ele>41</ele>
        <time>2015-12-28T20:20:41Z</time>
      </trkpt>
      <trkpt lat="48.81826" lon="2.43884">
        <ele>41.79999923706</ele>
        <time>2015-12-28T20:20:45Z</time>
      </trkpt>
      <trkpt lat="48.81829" lon="2.43917">
        <ele>42.400001525879</ele>
        <time>2015-12-28T20:20:49Z</time>
      </trkpt>
      <trkpt lat="48.81829" lon="2.43949">
        <ele>43</ele>
        <time>2015-12-28T20:20:53Z</time>
      </trkpt>
      <trkpt lat="48.8183" lon="2.43983">
        <ele>43.400001525879</ele>
        <time>2015-12-28T20:20:57Z</time>
      </trkpt>
      <trkpt lat="48.81829" lon="2.44008">
        <ele>43.79999923706</ele>
        <time>2015-12-28T20:21:00Z</time>
      </trkpt>
      <trkpt lat="48.81825" lon="2.44035">
        <ele>43.79999923706</ele>
        <time>2015-12-28T20:21:03Z</time>
      </trkpt>
      <trkpt lat="48.8182" lon="2.44064">
        <ele>43</ele>
        <time>2015-12-28T20:21:06Z</time>
      </trkpt>
      <trkpt lat="48.81814" lon="2.44094">
        <ele>41.599998474121</ele>
        <time>2015-12-28T20:21:09Z</time>
      </trkpt>
      <trkpt lat="48.81807" lon="2.44122">
        <ele>41</ele>
        <time>2015-12-28T20:21:12Z</time>
      </trkpt>
      <trkpt lat="48.81801" lon="2.44151">
        <ele>40.599998474121</ele>
        <time>2015-12-28T20:21:15Z</time>
      </trkpt>
      <trkpt lat="48.81795" lon="2.44181">
        <ele>39.79999923706</ele>
        <time>2015-12-28T20:21:18Z</time>
      </trkpt>
      <trkpt lat="48.81791" lon="2.44213">
        <ele>39.20000076294</ele>
        <time>2015-12-28T20:21:21Z</time>
      </trkpt>
      <trkpt lat="48.81789" lon="2.44246">
        <ele>38.79999923706</ele>
        <time>2015-12-28T20:21:24Z</time>
      </trkpt>
      <trkpt lat="48.81788" lon="2.44279">
        <ele>39</ele>
        <time>2015-12-28T20:21:27Z</time>
      </trkpt>
      <trkpt lat="48.81786" lon="2.44313">
        <ele>39.20000076294</ele>
        <time>2015-12-28T20:21:30Z</time>
      </trkpt>
      <trkpt lat="48.81785" lon="2.44347">
        <ele>39.20000076294</ele>
        <time>2015-12-28T20:21:33Z</time>
      </trkpt>
      <trkpt lat="48.81785" lon="2.44378">
        <ele>38.400001525879</ele>
        <time>2015-12-28T20:21:36Z</time>
      </trkpt>
      <trkpt lat="48.81785" lon="2.44388">
        <ele>38.20000076294</ele>
        <time>2015-12-28T20:21:37Z</time>
      </trkpt>
      <trkpt lat="48.81783" lon="2.44418">
        <ele>37.20000076294</ele>
        <time>2015-12-28T20:21:40Z</time>
      </trkpt>
      <trkpt lat="48.81783" lon="2.44448">
        <ele>37.79999923706</ele>
        <time>2015-12-28T20:21:43Z</time>
      </trkpt>
      <trkpt lat="48.81783" lon="2.44478">
        <ele>39</ele>
        <time>2015-12-28T20:21:46Z</time>
      </trkpt>
      <trkpt lat="48.81785" lon="2.44506">
        <ele>39.79999923706</ele>
        <time>2015-12-28T20:21:49Z</time>
      </trkpt>
      <trkpt lat="48.81788" lon="2.44536">
        <ele>39.599998474121</ele>
        <time>2015-12-28T20:21:52Z</time>
      </trkpt>
      <trkpt lat="48.81788" lon="2.44546">
        <ele>39.599998474121</ele>
        <time>2015-12-28T20:21:53Z</time>
      </trkpt>
      <trkpt lat="48.81789" lon="2.44574">
        <ele>39.400001525879</ele>
        <time>2015-12-28T20:21:56Z</time>
      </trkpt>
      <trkpt lat="48.81789" lon="2.44602">
        <ele>39.20000076294</ele>
        <time>2015-12-28T20:21:59Z</time>
      </trkpt>
      <trkpt lat="48.81791" lon="2.44638">
        <ele>38.599998474121</ele>
        <time>2015-12-28T20:22:03Z</time>
      </trkpt>
      <trkpt lat="48.81791" lon="2.44657">
        <ele>38.20000076294</ele>
        <time>2015-12-28T20:22:05Z</time>
      </trkpt>
      <trkpt lat="48.81792" lon="2.44686">
        <ele>38.400001525879</ele>
        <time>2015-12-28T20:22:08Z</time>
      </trkpt>
      <trkpt lat="48.81793" lon="2.44717">
        <ele>39.400001525879</ele>
        <time>2015-12-28T20:22:11Z</time>
      </trkpt>
      <trkpt lat="48.81795" lon="2.44749">
        <ele>40.20000076294</ele>
        <time>2015-12-28T20:22:14Z</time>
      </trkpt>
      <trkpt lat="48.81795" lon="2.4478">
        <ele>40.599998474121</ele>
        <time>2015-12-28T20:22:17Z</time>
      </trkpt>
      <trkpt lat="48.81795" lon="2.44813">
        <ele>40.599998474121</ele>
        <time>2015-12-28T20:22:20Z</time>
      </trkpt>
      <trkpt lat="48.81796" lon="2.44846">
        <ele>40.599998474121</ele>
        <time>2015-12-28T20:22:23Z</time>
      </trkpt>
      <trkpt lat="48.81795" lon="2.44879">
        <ele>40</ele>
        <time>2015-12-28T20:22:26Z</time>
      </trkpt>
      <trkpt lat="48.81794" lon="2.44908">
        <ele>39.20000076294</ele>
        <time>2015-12-28T20:22:29Z</time>
      </trkpt>
      <trkpt lat="48.81793" lon="2.44941">
        <ele>39.400001525879</ele>
        <time>2015-12-28T20:22:32Z</time>
      </trkpt>
      <trkpt lat="48.81791" lon="2.44974">
        <ele>38.79999923706</ele>
        <time>2015-12-28T20:22:35Z</time>
      </trkpt>
      <trkpt lat="48.81787" lon="2.45006">
        <ele>37.599998474121</ele>
        <time>2015-12-28T20:22:38Z</time>
      </trkpt>
      <trkpt lat="48.81782" lon="2.45039">
        <ele>37.20000076294</ele>
        <time>2015-12-28T20:22:41Z</time>
      </trkpt>
      <trkpt lat="48.81776" lon="2.45073">
        <ele>36.79999923706</ele>
        <time>2015-12-28T20:22:44Z</time>
      </trkpt>
      <trkpt lat="48.81771" lon="2.45102">
        <ele>36.599998474121</ele>
        <time>2015-12-28T20:22:47Z</time>
      </trkpt>
      <trkpt lat="48.81765" lon="2.45128">
        <ele>37.400001525879</ele>
        <time>2015-12-28T20:22:50Z</time>
      </trkpt>
      <trkpt lat="48.81757" lon="2.45159">
        <ele>38.20000076294</ele>
        <time>2015-12-28T20:22:54Z</time>
      </trkpt>
      <trkpt lat="48.81748" lon="2.45188">
        <ele>39.599998474121</ele>
        <time>2015-12-28T20:22:58Z</time>
      </trkpt>
      <trkpt lat="48.8174" lon="2.45215">
        <ele>40.599998474121</ele>
        <time>2015-12-28T20:23:02Z</time>
      </trkpt>
      <trkpt lat="48.81732" lon="2.45241">
        <ele>43.20000076294</ele>
        <time>2015-12-28T20:23:07Z</time>
      </trkpt>
      <trkpt lat="48.81731" lon="2.45246">
        <ele>43.599998474121</ele>
        <time>2015-12-28T20:23:08Z</time>
      </trkpt>
      <trkpt lat="48.81729" lon="2.45263">
        <ele>44.79999923706</ele>
        <time>2015-12-28T20:23:14Z</time>
      </trkpt>
      <trkpt lat="48.81728" lon="2.45266">
        <ele>45</ele>
        <time>2015-12-28T20:24:37Z</time>
      </trkpt>
      <trkpt lat="48.81721" lon="2.45287">
        <ele>46.20000076294</ele>
        <time>2015-12-28T20:25:16Z</time>
      </trkpt>
      <trkpt lat="48.81721" lon="2.45293">
        <ele>46</ele>
        <time>2015-12-28T20:25:21Z</time>
      </trkpt>
      <trkpt lat="48.81729" lon="2.45314">
        <ele>46.20000076294</ele>
        <time>2015-12-28T20:25:59Z</time>
      </trkpt>
      <trkpt lat="48.8172" lon="2.4534">
        <ele>45.79999923706</ele>
        <time>2015-12-28T20:26:12Z</time>
      </trkpt>
      <trkpt lat="48.81721" lon="2.45372">
        <ele>46.400001525879</ele>
        <time>2015-12-28T20:26:16Z</time>
      </trkpt>
      <trkpt lat="48.81719" lon="2.45404">
        <ele>45</ele>
        <time>2015-12-28T20:26:21Z</time>
      </trkpt>
      <trkpt lat="48.81716" lon="2.45434">
        <ele>44.599998474121</ele>
        <time>2015-12-28T20:26:27Z</time>
      </trkpt>
      <trkpt lat="48.81699" lon="2.45481">
        <ele>41</ele>
        <time>2015-12-28T20:26:33Z</time>
      </trkpt>
      <trkpt lat="48.81701" lon="2.45515">
        <ele>41.20000076294</ele>
        <time>2015-12-28T20:26:36Z</time>
      </trkpt>
      <trkpt lat="48.81695" lon="2.45542">
        <ele>40.599998474121</ele>
        <time>2015-12-28T20:26:40Z</time>
      </trkpt>
      <trkpt lat="48.81689" lon="2.45568">
        <ele>40</ele>
        <time>2015-12-28T20:26:44Z</time>
      </trkpt>
      <trkpt lat="48.81682" lon="2.45593">
        <ele>40</ele>
        <time>2015-12-28T20:26:48Z</time>
      </trkpt>
      <trkpt lat="48.81674" lon="2.45619">
        <ele>39.79999923706</ele>
        <time>2015-12-28T20:26:51Z</time>
      </trkpt>
      <trkpt lat="48.81668" lon="2.45651">
        <ele>39.599998474121</ele>
        <time>2015-12-28T20:26:56Z</time>
      </trkpt>
      <trkpt lat="48.81666" lon="2.4566">
        <ele>39.400001525879</ele>
        <time>2015-12-28T20:26:57Z</time>
      </trkpt>
      <trkpt lat="48.81659" lon="2.45688">
        <ele>39.20000076294</ele>
        <time>2015-12-28T20:27:01Z</time>
      </trkpt>
      <trkpt lat="48.81656" lon="2.45701">
        <ele>39.20000076294</ele>
        <time>2015-12-28T20:27:03Z</time>
      </trkpt>
      <trkpt lat="48.81647" lon="2.4573">
        <ele>38.79999923706</ele>
        <time>2015-12-28T20:27:07Z</time>
      </trkpt>
      <trkpt lat="48.81641" lon="2.45752">
        <ele>38.400001525879</ele>
        <time>2015-12-28T20:27:10Z</time>
      </trkpt>
      <trkpt lat="48.81634" lon="2.45782">
        <ele>39.79999923706</ele>
        <time>2015-12-28T20:27:14Z</time>
      </trkpt>
      <trkpt lat="48.81629" lon="2.4581">
        <ele>40</ele>
        <time>2015-12-28T20:27:18Z</time>
      </trkpt>
      <trkpt lat="48.81626" lon="2.45841">
        <ele>41.20000076294</ele>
        <time>2015-12-28T20:27:23Z</time>
      </trkpt>
      <trkpt lat="48.81624" lon="2.45856">
        <ele>42.400001525879</ele>
        <time>2015-12-28T20:27:26Z</time>
      </trkpt>
      <trkpt lat="48.81618" lon="2.45874">
        <ele>43</ele>
        <time>2015-12-28T20:27:34Z</time>
      </trkpt>
      <trkpt lat="48.81614" lon="2.45887">
        <ele>43.599998474121</ele>
        <time>2015-12-28T20:27:41Z</time>
      </trkpt>
      <trkpt lat="48.81617" lon="2.45873">
        <ele>43</ele>
        <time>2015-12-28T20:27:48Z</time>
      </trkpt>
      <trkpt lat="48.81613" lon="2.45863">
        <ele>41.599998474121</ele>
        <time>2015-12-28T20:28:24Z</time>
      </trkpt>
      <trkpt lat="48.81629" lon="2.45866">
        <ele>44</ele>
        <time>2015-12-28T20:29:09Z</time>
      </trkpt>
      <trkpt lat="48.8164" lon="2.4589">
        <ele>47.400001525879</ele>
        <time>2015-12-28T20:29:41Z</time>
      </trkpt>
      <trkpt lat="48.81653" lon="2.45907">
        <ele>50.599998474121</ele>
        <time>2015-12-28T20:30:20Z</time>
      </trkpt>
      <trkpt lat="48.81666" lon="2.45925">
        <ele>53.599998474121</ele>
        <time>2015-12-28T20:30:49Z</time>
      </trkpt>
      <trkpt lat="48.81683" lon="2.45933">
        <ele>56.400001525879</ele>
        <time>2015-12-28T20:31:47Z</time>
      </trkpt>
      <trkpt lat="48.81687" lon="2.45939">
        <ele>57.400001525879</ele>
        <time>2015-12-28T20:33:17Z</time>
      </trkpt>
      <trkpt lat="48.81695" lon="2.45943">
        <ele>58</ele>
        <time>2015-12-28T20:33:22Z</time>
      </trkpt>
      <trkpt lat="48.81711" lon="2.45926">
        <ele>57.79999923706</ele>
        <time>2015-12-28T20:33:31Z</time>
      </trkpt>
      <trkpt lat="48.81725" lon="2.45926">
        <ele>58.79999923706</ele>
        <time>2015-12-28T20:33:35Z</time>
      </trkpt>
      <trkpt lat="48.81738" lon="2.4595">
        <ele>60.400001525879</ele>
        <time>2015-12-28T20:33:41Z</time>
      </trkpt>
      <trkpt lat="48.8175" lon="2.45972">
        <ele>61.79999923706</ele>
        <time>2015-12-28T20:33:46Z</time>
      </trkpt>
      <trkpt lat="48.81763" lon="2.45994">
        <ele>63.400001525879</ele>
        <time>2015-12-28T20:33:51Z</time>
      </trkpt>
      <trkpt lat="48.81773" lon="2.46023">
        <ele>65.400001525879</ele>
        <time>2015-12-28T20:33:56Z</time>
      </trkpt>
      <trkpt lat="48.81784" lon="2.46048">
        <ele>65.800003051758</ele>
        <time>2015-12-28T20:34:00Z</time>
      </trkpt>
      <trkpt lat="48.81794" lon="2.46075">
        <ele>66.400001525879</ele>
        <time>2015-12-28T20:34:04Z</time>
      </trkpt>
      <trkpt lat="48.81804" lon="2.46102">
        <ele>65.400001525879</ele>
        <time>2015-12-28T20:34:08Z</time>
      </trkpt>
      <trkpt lat="48.81815" lon="2.46126">
        <ele>63.79999923706</ele>
        <time>2015-12-28T20:34:12Z</time>
      </trkpt>
      <trkpt lat="48.81817" lon="2.46131">
        <ele>63.599998474121</ele>
        <time>2015-12-28T20:34:13Z</time>
      </trkpt>
      <trkpt lat="48.81821" lon="2.46138">
        <ele>63.20000076294</ele>
        <time>2015-12-28T20:34:15Z</time>
      </trkpt>
      <trkpt lat="48.81824" lon="2.46148">
        <ele>62.79999923706</ele>
        <time>2015-12-28T20:34:23Z</time>
      </trkpt>
      <trkpt lat="48.81824" lon="2.46154">
        <ele>63</ele>
        <time>2015-12-28T20:34:49Z</time>
      </trkpt>
      <trkpt lat="48.81829" lon="2.46165">
        <ele>62.400001525879</ele>
        <time>2015-12-28T20:34:53Z</time>
      </trkpt>
      <trkpt lat="48.81839" lon="2.46189">
        <ele>62.20000076294</ele>
        <time>2015-12-28T20:34:59Z</time>
      </trkpt>
      <trkpt lat="48.8185" lon="2.46211">
        <ele>61.79999923706</ele>
        <time>2015-12-28T20:35:04Z</time>
      </trkpt>
      <trkpt lat="48.81863" lon="2.46233">
        <ele>61.400001525879</ele>
        <time>2015-12-28T20:35:09Z</time>
      </trkpt>
      <trkpt lat="48.81873" lon="2.46258">
        <ele>61</ele>
        <time>2015-12-28T20:35:17Z</time>
      </trkpt>
      <trkpt lat="48.81875" lon="2.46261">
        <ele>60.79999923706</ele>
        <time>2015-12-28T20:35:18Z</time>
      </trkpt>
      <trkpt lat="48.81887" lon="2.46281">
        <ele>59.20000076294</ele>
        <time>2015-12-28T20:35:26Z</time>
      </trkpt>
      <trkpt lat="48.81898" lon="2.46302">
        <ele>57.599998474121</ele>
        <time>2015-12-28T20:35:32Z</time>
      </trkpt>
      <trkpt lat="48.8191" lon="2.46326">
        <ele>56</ele>
        <time>2015-12-28T20:35:40Z</time>
      </trkpt>
      <trkpt lat="48.81911" lon="2.46341">
        <ele>55.599998474121</ele>
        <time>2015-12-28T20:36:02Z</time>
      </trkpt>
      <trkpt lat="48.81926" lon="2.46331">
        <ele>54.20000076294</ele>
        <time>2015-12-28T20:36:34Z</time>
      </trkpt>
      <trkpt lat="48.81946" lon="2.46332">
        <ele>53</ele>
        <time>2015-12-28T20:37:15Z</time>
      </trkpt>
      <trkpt lat="48.81964" lon="2.46335">
        <ele>52.79999923706</ele>
        <time>2015-12-28T20:37:42Z</time>
      </trkpt>
      <trkpt lat="48.81982" lon="2.46337">
        <ele>52.599998474121</ele>
        <time>2015-12-28T20:38:01Z</time>
      </trkpt>
      <trkpt lat="48.82003" lon="2.46338">
        <ele>52.400001525879</ele>
        <time>2015-12-28T20:38:06Z</time>
      </trkpt>
      <trkpt lat="48.82023" lon="2.46339">
        <ele>52.20000076294</ele>
        <time>2015-12-28T20:38:11Z</time>
      </trkpt>
      <trkpt lat="48.82031" lon="2.46338">
        <ele>52.400001525879</ele>
        <time>2015-12-28T20:38:16Z</time>
      </trkpt>
      <trkpt lat="48.82032" lon="2.46325">
        <ele>52.599998474121</ele>
        <time>2015-12-28T20:38:28Z</time>
      </trkpt>
      <trkpt lat="48.82035" lon="2.46317">
        <ele>52.599998474121</ele>
        <time>2015-12-28T20:38:33Z</time>
      </trkpt>
      <trkpt lat="48.82042" lon="2.46293">
        <ele>53</ele>
        <time>2015-12-28T20:38:54Z</time>
      </trkpt>
      <trkpt lat="48.81991" lon="2.46462">
        <ele>54.79999923706</ele>
        <time>2015-12-28T20:39:55Z</time>
      </trkpt>
      <trkpt lat="48.81991" lon="2.46461">
        <ele>54.79999923706</ele>
        <time>2015-12-28T20:40:01Z</time>
      </trkpt>
      <trkpt lat="48.81993" lon="2.46457">
        <ele>54.599998474121</ele>
        <time>2015-12-28T20:40:08Z</time>
      </trkpt>
      <trkpt lat="48.82" lon="2.46457">
        <ele>54.79999923706</ele>
        <time>2015-12-28T20:40:13Z</time>
      </trkpt>
      <trkpt lat="48.8202" lon="2.46449">
        <ele>54.79999923706</ele>
        <time>2015-12-28T20:40:22Z</time>
      </trkpt>
      <trkpt lat="48.82038" lon="2.46441">
        <ele>54.20000076294</ele>
        <time>2015-12-28T20:40:27Z</time>
      </trkpt>
      <trkpt lat="48.82056" lon="2.46445">
        <ele>54.20000076294</ele>
        <time>2015-12-28T20:40:32Z</time>
      </trkpt>
      <trkpt lat="48.82075" lon="2.46442">
        <ele>54.599998474121</ele>
        <time>2015-12-28T20:40:37Z</time>
      </trkpt>
      <trkpt lat="48.82097" lon="2.4644">
        <ele>55.20000076294</ele>
        <time>2015-12-28T20:40:42Z</time>
      </trkpt>
      <trkpt lat="48.82118" lon="2.4644">
        <ele>55.20000076294</ele>
        <time>2015-12-28T20:40:47Z</time>
      </trkpt>
      <trkpt lat="48.82138" lon="2.46441">
        <ele>55</ele>
        <time>2015-12-28T20:40:52Z</time>
      </trkpt>
      <trkpt lat="48.8216" lon="2.46451">
        <ele>54.79999923706</ele>
        <time>2015-12-28T20:40:57Z</time>
      </trkpt>
      <trkpt lat="48.82176" lon="2.46464">
        <ele>54.20000076294</ele>
        <time>2015-12-28T20:41:00Z</time>
      </trkpt>
      <trkpt lat="48.82198" lon="2.46471">
        <ele>53.79999923706</ele>
        <time>2015-12-28T20:41:05Z</time>
      </trkpt>
      <trkpt lat="48.82212" lon="2.46478">
        <ele>53.20000076294</ele>
        <time>2015-12-28T20:41:08Z</time>
      </trkpt>
      <trkpt lat="48.8223" lon="2.46491">
        <ele>52.400001525879</ele>
        <time>2015-12-28T20:41:12Z</time>
      </trkpt>
      <trkpt lat="48.82248" lon="2.46504">
        <ele>51.400001525879</ele>
        <time>2015-12-28T20:41:16Z</time>
      </trkpt>
      <trkpt lat="48.82258" lon="2.46509">
        <ele>51.20000076294</ele>
        <time>2015-12-28T20:41:18Z</time>
      </trkpt>
      <trkpt lat="48.82278" lon="2.46515">
        <ele>50.400001525879</ele>
        <time>2015-12-28T20:41:22Z</time>
      </trkpt>
      <trkpt lat="48.82298" lon="2.46517">
        <ele>50.20000076294</ele>
        <time>2015-12-28T20:41:26Z</time>
      </trkpt>
      <trkpt lat="48.82317" lon="2.46516">
        <ele>50.599998474121</ele>
        <time>2015-12-28T20:41:30Z</time>
      </trkpt>
      <trkpt lat="48.82327" lon="2.46516">
        <ele>51</ele>
        <time>2015-12-28T20:41:32Z</time>
      </trkpt>
      <trkpt lat="48.82351" lon="2.46518">
        <ele>51.400001525879</ele>
        <time>2015-12-28T20:41:36Z</time>
      </trkpt>
      <trkpt lat="48.8237" lon="2.46517">
        <ele>51</ele>
        <time>2015-12-28T20:41:39Z</time>
      </trkpt>
      <trkpt lat="48.8239" lon="2.4652">
        <ele>50</ele>
        <time>2015-12-28T20:41:43Z</time>
      </trkpt>
      <trkpt lat="48.82411" lon="2.46518">
        <ele>49.400001525879</ele>
        <time>2015-12-28T20:41:47Z</time>
      </trkpt>
      <trkpt lat="48.82435" lon="2.46514">
        <ele>49</ele>
        <time>2015-12-28T20:41:50Z</time>
      </trkpt>
      <trkpt lat="48.8244" lon="2.46513">
        <ele>48.79999923706</ele>
        <time>2015-12-28T20:41:51Z</time>
      </trkpt>
      <trkpt lat="48.8246" lon="2.46508">
        <ele>49.20000076294</ele>
        <time>2015-12-28T20:41:55Z</time>
      </trkpt>
      <trkpt lat="48.82481" lon="2.46504">
        <ele>49.20000076294</ele>
        <time>2015-12-28T20:41:59Z</time>
      </trkpt>
      <trkpt lat="48.82502" lon="2.46501">
        <ele>49.20000076294</ele>
        <time>2015-12-28T20:42:03Z</time>
      </trkpt>
      <trkpt lat="48.82522" lon="2.46494">
        <ele>49</ele>
        <time>2015-12-28T20:42:07Z</time>
      </trkpt>
      <trkpt lat="48.82542" lon="2.46485">
        <ele>49.20000076294</ele>
        <time>2015-12-28T20:42:11Z</time>
      </trkpt>
      <trkpt lat="48.82563" lon="2.46479">
        <ele>49.400001525879</ele>
        <time>2015-12-28T20:42:15Z</time>
      </trkpt>
      <trkpt lat="48.82583" lon="2.46474">
        <ele>49.79999923706</ele>
        <time>2015-12-28T20:42:19Z</time>
      </trkpt>
      <trkpt lat="48.82602" lon="2.4647">
        <ele>50.20000076294</ele>
        <time>2015-12-28T20:42:23Z</time>
      </trkpt>
      <trkpt lat="48.82619" lon="2.46465">
        <ele>51.599998474121</ele>
        <time>2015-12-28T20:42:27Z</time>
      </trkpt>
      <trkpt lat="48.8264" lon="2.46461">
        <ele>53.400001525879</ele>
        <time>2015-12-28T20:42:32Z</time>
      </trkpt>
      <trkpt lat="48.82646" lon="2.46459">
        <ele>54</ele>
        <time>2015-12-28T20:42:34Z</time>
      </trkpt>
      <trkpt lat="48.82665" lon="2.46457">
        <ele>55.400001525879</ele>
        <time>2015-12-28T20:42:39Z</time>
      </trkpt>
      <trkpt lat="48.82685" lon="2.46454">
        <ele>57.20000076294</ele>
        <time>2015-12-28T20:42:45Z</time>
      </trkpt>
      <trkpt lat="48.82688" lon="2.46455">
        <ele>57.400001525879</ele>
        <time>2015-12-28T20:42:46Z</time>
      </trkpt>
      <trkpt lat="48.82695" lon="2.46455">
        <ele>58</ele>
        <time>2015-12-28T20:42:50Z</time>
      </trkpt>
      <trkpt lat="48.82696" lon="2.46454">
        <ele>58</ele>
        <time>2015-12-28T20:42:51Z</time>
      </trkpt>
      <trkpt lat="48.82701" lon="2.46451">
        <ele>58.400001525879</ele>
        <time>2015-12-28T20:42:57Z</time>
      </trkpt>
      <trkpt lat="48.82714" lon="2.46458">
        <ele>59</ele>
        <time>2015-12-28T20:44:08Z</time>
      </trkpt>
      <trkpt lat="48.82735" lon="2.46462">
        <ele>60.20000076294</ele>
        <time>2015-12-28T20:44:14Z</time>
      </trkpt>
      <trkpt lat="48.82753" lon="2.4647">
        <ele>60.79999923706</ele>
        <time>2015-12-28T20:44:19Z</time>
      </trkpt>
      <trkpt lat="48.82772" lon="2.46464">
        <ele>61.20000076294</ele>
        <time>2015-12-28T20:44:24Z</time>
      </trkpt>
      <trkpt lat="48.82794" lon="2.46455">
        <ele>60.599998474121</ele>
        <time>2015-12-28T20:44:29Z</time>
      </trkpt>
      <trkpt lat="48.82815" lon="2.46449">
        <ele>60.400001525879</ele>
        <time>2015-12-28T20:44:33Z</time>
      </trkpt>
      <trkpt lat="48.82833" lon="2.46447">
        <ele>60.400001525879</ele>
        <time>2015-12-28T20:44:36Z</time>
      </trkpt>
      <trkpt lat="48.82853" lon="2.4645">
        <ele>60.400001525879</ele>
        <time>2015-12-28T20:44:39Z</time>
      </trkpt>
      <trkpt lat="48.82875" lon="2.46456">
        <ele>60.20000076294</ele>
        <time>2015-12-28T20:44:43Z</time>
      </trkpt>
      <trkpt lat="48.82895" lon="2.46459">
        <ele>60</ele>
        <time>2015-12-28T20:44:47Z</time>
      </trkpt>
      <trkpt lat="48.8291" lon="2.46459">
        <ele>59.79999923706</ele>
        <time>2015-12-28T20:44:50Z</time>
      </trkpt>
      <trkpt lat="48.82931" lon="2.46463">
        <ele>59.400001525879</ele>
        <time>2015-12-28T20:44:54Z</time>
      </trkpt>
      <trkpt lat="48.82952" lon="2.46465">
        <ele>59.400001525879</ele>
        <time>2015-12-28T20:44:58Z</time>
      </trkpt>
      <trkpt lat="48.82972" lon="2.46465">
        <ele>60</ele>
        <time>2015-12-28T20:45:02Z</time>
      </trkpt>
      <trkpt lat="48.82984" lon="2.46467">
        <ele>60.20000076294</ele>
        <time>2015-12-28T20:45:04Z</time>
      </trkpt>
      <trkpt lat="48.83004" lon="2.46472">
        <ele>60.79999923706</ele>
        <time>2015-12-28T20:45:08Z</time>
      </trkpt>
      <trkpt lat="48.83025" lon="2.46475">
        <ele>61.20000076294</ele>
        <time>2015-12-28T20:45:12Z</time>
      </trkpt>
      <trkpt lat="48.83045" lon="2.46481">
        <ele>61.400001525879</ele>
        <time>2015-12-28T20:45:16Z</time>
      </trkpt>
      <trkpt lat="48.83068" lon="2.46488">
        <ele>61.599998474121</ele>
        <time>2015-12-28T20:45:20Z</time>
      </trkpt>
      <trkpt lat="48.83088" lon="2.46499">
        <ele>62</ele>
        <time>2015-12-28T20:45:24Z</time>
      </trkpt>
      <trkpt lat="48.83108" lon="2.46509">
        <ele>62</ele>
        <time>2015-12-28T20:45:28Z</time>
      </trkpt>
      <trkpt lat="48.83118" lon="2.46513">
        <ele>61.79999923706</ele>
        <time>2015-12-28T20:45:30Z</time>
      </trkpt>
      <trkpt lat="48.83133" lon="2.46524">
        <ele>61.599998474121</ele>
        <time>2015-12-28T20:45:33Z</time>
      </trkpt>
      <trkpt lat="48.8315" lon="2.46539">
        <ele>61.400001525879</ele>
        <time>2015-12-28T20:45:36Z</time>
      </trkpt>
      <trkpt lat="48.83171" lon="2.46556">
        <ele>61.20000076294</ele>
        <time>2015-12-28T20:45:40Z</time>
      </trkpt>
      <trkpt lat="48.83186" lon="2.46572">
        <ele>61</ele>
        <time>2015-12-28T20:45:43Z</time>
      </trkpt>
      <trkpt lat="48.83203" lon="2.46587">
        <ele>60.79999923706</ele>
        <time>2015-12-28T20:45:46Z</time>
      </trkpt>
      <trkpt lat="48.83208" lon="2.46594">
        <ele>60.79999923706</ele>
        <time>2015-12-28T20:45:47Z</time>
      </trkpt>
      <trkpt lat="48.83223" lon="2.46614">
        <ele>60.599998474121</ele>
        <time>2015-12-28T20:45:50Z</time>
      </trkpt>
      <trkpt lat="48.83238" lon="2.46635">
        <ele>60.400001525879</ele>
        <time>2015-12-28T20:45:53Z</time>
      </trkpt>
      <trkpt lat="48.83253" lon="2.46656">
        <ele>60.400001525879</ele>
        <time>2015-12-28T20:45:56Z</time>
      </trkpt>
      <trkpt lat="48.83266" lon="2.46678">
        <ele>60.20000076294</ele>
        <time>2015-12-28T20:45:59Z</time>
      </trkpt>
      <trkpt lat="48.83279" lon="2.46699">
        <ele>60.400001525879</ele>
        <time>2015-12-28T20:46:02Z</time>
      </trkpt>
      <trkpt lat="48.83292" lon="2.46725">
        <ele>60.79999923706</ele>
        <time>2015-12-28T20:46:05Z</time>
      </trkpt>
      <trkpt lat="48.83306" lon="2.46753">
        <ele>61</ele>
        <time>2015-12-28T20:46:09Z</time>
      </trkpt>
      <trkpt lat="48.83315" lon="2.46776">
        <ele>61</ele>
        <time>2015-12-28T20:46:13Z</time>
      </trkpt>
      <trkpt lat="48.83318" lon="2.46781">
        <ele>61</ele>
        <time>2015-12-28T20:46:14Z</time>
      </trkpt>
      <trkpt lat="48.83331" lon="2.46809">
        <ele>61</ele>
        <time>2015-12-28T20:46:19Z</time>
      </trkpt>
      <trkpt lat="48.83338" lon="2.46826">
        <ele>61.20000076294</ele>
        <time>2015-12-28T20:46:22Z</time>
      </trkpt>
      <trkpt lat="48.83351" lon="2.46847">
        <ele>61</ele>
        <time>2015-12-28T20:46:26Z</time>
      </trkpt>
      <trkpt lat="48.83364" lon="2.46866">
        <ele>61</ele>
        <time>2015-12-28T20:46:30Z</time>
      </trkpt>
      <trkpt lat="48.83374" lon="2.4688">
        <ele>61</ele>
        <time>2015-12-28T20:46:33Z</time>
      </trkpt>
      <trkpt lat="48.83391" lon="2.46894">
        <ele>61</ele>
        <time>2015-12-28T20:46:37Z</time>
      </trkpt>
      <trkpt lat="48.83409" lon="2.46907">
        <ele>61</ele>
        <time>2015-12-28T20:46:41Z</time>
      </trkpt>
      <trkpt lat="48.83429" lon="2.46919">
        <ele>61</ele>
        <time>2015-12-28T20:46:45Z</time>
      </trkpt>
      <trkpt lat="48.83447" lon="2.46932">
        <ele>61.400001525879</ele>
        <time>2015-12-28T20:46:49Z</time>
      </trkpt>
      <trkpt lat="48.83469" lon="2.46938">
        <ele>62.400001525879</ele>
        <time>2015-12-28T20:46:53Z</time>
      </trkpt>
      <trkpt lat="48.83487" lon="2.46944">
        <ele>63</ele>
        <time>2015-12-28T20:46:56Z</time>
      </trkpt>
      <trkpt lat="48.83506" lon="2.46948">
        <ele>63.79999923706</ele>
        <time>2015-12-28T20:46:59Z</time>
      </trkpt>
      <trkpt lat="48.83511" lon="2.4695">
        <ele>64</ele>
        <time>2015-12-28T20:47:00Z</time>
      </trkpt>
      <trkpt lat="48.83532" lon="2.46958">
        <ele>64.599998474121</ele>
        <time>2015-12-28T20:47:04Z</time>
      </trkpt>
      <trkpt lat="48.83554" lon="2.46963">
        <ele>64.599998474121</ele>
        <time>2015-12-28T20:47:08Z</time>
      </trkpt>
      <trkpt lat="48.83559" lon="2.46963">
        <ele>64.599998474121</ele>
        <time>2015-12-28T20:47:09Z</time>
      </trkpt>
      <trkpt lat="48.83579" lon="2.46965">
        <ele>64.599998474121</ele>
        <time>2015-12-28T20:47:14Z</time>
      </trkpt>
      <trkpt lat="48.83583" lon="2.46965">
        <ele>64.599998474121</ele>
        <time>2015-12-28T20:47:15Z</time>
      </trkpt>
      <trkpt lat="48.8359" lon="2.46965">
        <ele>64.599998474121</ele>
        <time>2015-12-28T20:47:17Z</time>
      </trkpt>
      <trkpt lat="48.83599" lon="2.46966">
        <ele>64.599998474121</ele>
        <time>2015-12-28T20:47:20Z</time>
      </trkpt>
      <trkpt lat="48.83609" lon="2.46968">
        <ele>64.599998474121</ele>
        <time>2015-12-28T20:47:26Z</time>
      </trkpt>
      <trkpt lat="48.83616" lon="2.46966">
        <ele>64.199996948242</ele>
        <time>2015-12-28T20:47:35Z</time>
      </trkpt>
      <trkpt lat="48.83628" lon="2.46982">
        <ele>64</ele>
        <time>2015-12-28T20:47:44Z</time>
      </trkpt>
      <trkpt lat="48.83634" lon="2.46996">
        <ele>64</ele>
        <time>2015-12-28T20:49:02Z</time>
      </trkpt>
      <trkpt lat="48.83653" lon="2.46983">
        <ele>63.20000076294</ele>
        <time>2015-12-28T20:49:12Z</time>
      </trkpt>
      <trkpt lat="48.8367" lon="2.4697">
        <ele>62.599998474121</ele>
        <time>2015-12-28T20:49:17Z</time>
      </trkpt>
      <trkpt lat="48.83689" lon="2.46959">
        <ele>62.400001525879</ele>
        <time>2015-12-28T20:49:22Z</time>
      </trkpt>
      <trkpt lat="48.83706" lon="2.46942">
        <ele>62.599998474121</ele>
        <time>2015-12-28T20:49:27Z</time>
      </trkpt>
      <trkpt lat="48.83722" lon="2.46924">
        <ele>63</ele>
        <time>2015-12-28T20:49:33Z</time>
      </trkpt>
      <trkpt lat="48.83739" lon="2.46905">
        <ele>62.79999923706</ele>
        <time>2015-12-28T20:49:38Z</time>
      </trkpt>
      <trkpt lat="48.83757" lon="2.46884">
        <ele>62.20000076294</ele>
        <time>2015-12-28T20:49:43Z</time>
      </trkpt>
      <trkpt lat="48.83773" lon="2.46867">
        <ele>61.79999923706</ele>
        <time>2015-12-28T20:49:48Z</time>
      </trkpt>
      <trkpt lat="48.8379" lon="2.46849">
        <ele>61.20000076294</ele>
        <time>2015-12-28T20:49:53Z</time>
      </trkpt>
      <trkpt lat="48.83805" lon="2.46833">
        <ele>61.400001525879</ele>
        <time>2015-12-28T20:49:58Z</time>
      </trkpt>
      <trkpt lat="48.83821" lon="2.46814">
        <ele>61.400001525879</ele>
        <time>2015-12-28T20:50:03Z</time>
      </trkpt>
      <trkpt lat="48.83836" lon="2.46796">
        <ele>61.599998474121</ele>
        <time>2015-12-28T20:50:08Z</time>
      </trkpt>
      <trkpt lat="48.83852" lon="2.46779">
        <ele>62</ele>
        <time>2015-12-28T20:50:12Z</time>
      </trkpt>
      <trkpt lat="48.83869" lon="2.46764">
        <ele>62.20000076294</ele>
        <time>2015-12-28T20:50:16Z</time>
      </trkpt>
      <trkpt lat="48.83886" lon="2.46746">
        <ele>61.599998474121</ele>
        <time>2015-12-28T20:50:21Z</time>
      </trkpt>
      <trkpt lat="48.83901" lon="2.4673">
        <ele>60.79999923706</ele>
        <time>2015-12-28T20:50:25Z</time>
      </trkpt>
      <trkpt lat="48.83911" lon="2.46719">
        <ele>60.20000076294</ele>
        <time>2015-12-28T20:50:28Z</time>
      </trkpt>
      <trkpt lat="48.83924" lon="2.46709">
        <ele>60</ele>
        <time>2015-12-28T20:50:32Z</time>
      </trkpt>
      <trkpt lat="48.83943" lon="2.46693">
        <ele>59.599998474121</ele>
        <time>2015-12-28T20:50:37Z</time>
      </trkpt>
      <trkpt lat="48.83962" lon="2.46678">
        <ele>59.79999923706</ele>
        <time>2015-12-28T20:50:42Z</time>
      </trkpt>
      <trkpt lat="48.83983" lon="2.46663">
        <ele>60.20000076294</ele>
        <time>2015-12-28T20:50:47Z</time>
      </trkpt>
      <trkpt lat="48.83999" lon="2.46649">
        <ele>60.79999923706</ele>
        <time>2015-12-28T20:50:51Z</time>
      </trkpt>
      <trkpt lat="48.84006" lon="2.46643">
        <ele>61.20000076294</ele>
        <time>2015-12-28T20:50:53Z</time>
      </trkpt>
      <trkpt lat="48.84012" lon="2.46636">
        <ele>61.400001525879</ele>
        <time>2015-12-28T20:50:55Z</time>
      </trkpt>
      <trkpt lat="48.8402" lon="2.46629">
        <ele>61.79999923706</ele>
        <time>2015-12-28T20:50:57Z</time>
      </trkpt>
      <trkpt lat="48.84034" lon="2.46614">
        <ele>62.599998474121</ele>
        <time>2015-12-28T20:51:01Z</time>
      </trkpt>
      <trkpt lat="48.8405" lon="2.46595">
        <ele>63</ele>
        <time>2015-12-28T20:51:05Z</time>
      </trkpt>
      <trkpt lat="48.84064" lon="2.46575">
        <ele>63</ele>
        <time>2015-12-28T20:51:09Z</time>
      </trkpt>
      <trkpt lat="48.84078" lon="2.46554">
        <ele>62.599998474121</ele>
        <time>2015-12-28T20:51:13Z</time>
      </trkpt>
      <trkpt lat="48.84093" lon="2.46533">
        <ele>62.79999923706</ele>
        <time>2015-12-28T20:51:17Z</time>
      </trkpt>
      <trkpt lat="48.84109" lon="2.46512">
        <ele>63</ele>
        <time>2015-12-28T20:51:21Z</time>
      </trkpt>
      <trkpt lat="48.84119" lon="2.46497">
        <ele>63</ele>
        <time>2015-12-28T20:51:24Z</time>
      </trkpt>
      <trkpt lat="48.84132" lon="2.46476">
        <ele>62.79999923706</ele>
        <time>2015-12-28T20:51:28Z</time>
      </trkpt>
      <trkpt lat="48.84144" lon="2.46452">
        <ele>62.400001525879</ele>
        <time>2015-12-28T20:51:32Z</time>
      </trkpt>
      <trkpt lat="48.84157" lon="2.46427">
        <ele>63.20000076294</ele>
        <time>2015-12-28T20:51:36Z</time>
      </trkpt>
      <trkpt lat="48.84171" lon="2.46402">
        <ele>62.79999923706</ele>
        <time>2015-12-28T20:51:40Z</time>
      </trkpt>
      <trkpt lat="48.84183" lon="2.46379">
        <ele>62.79999923706</ele>
        <time>2015-12-28T20:51:44Z</time>
      </trkpt>
      <trkpt lat="48.84194" lon="2.46357">
        <ele>62.599998474121</ele>
        <time>2015-12-28T20:51:48Z</time>
      </trkpt>
      <trkpt lat="48.84208" lon="2.46334">
        <ele>62</ele>
        <time>2015-12-28T20:51:53Z</time>
      </trkpt>
      <trkpt lat="48.84214" lon="2.46322">
        <ele>61.599998474121</ele>
        <time>2015-12-28T20:51:56Z</time>
      </trkpt>
      <trkpt lat="48.84214" lon="2.46312">
        <ele>61</ele>
        <time>2015-12-28T20:51:59Z</time>
      </trkpt>
      <trkpt lat="48.84221" lon="2.46308">
        <ele>60.79999923706</ele>
        <time>2015-12-28T20:52:05Z</time>
      </trkpt>
      <trkpt lat="48.84236" lon="2.46288">
        <ele>59.79999923706</ele>
        <time>2015-12-28T20:52:44Z</time>
      </trkpt>
      <trkpt lat="48.84245" lon="2.46261">
        <ele>58.599998474121</ele>
        <time>2015-12-28T20:52:50Z</time>
      </trkpt>
      <trkpt lat="48.84254" lon="2.46233">
        <ele>57.79999923706</ele>
        <time>2015-12-28T20:52:55Z</time>
      </trkpt>
      <trkpt lat="48.84261" lon="2.46204">
        <ele>58.20000076294</ele>
        <time>2015-12-28T20:52:59Z</time>
      </trkpt>
      <trkpt lat="48.84268" lon="2.46177">
        <ele>58.79999923706</ele>
        <time>2015-12-28T20:53:03Z</time>
      </trkpt>
      <trkpt lat="48.84275" lon="2.46145">
        <ele>59.599998474121</ele>
        <time>2015-12-28T20:53:08Z</time>
      </trkpt>
      <trkpt lat="48.84282" lon="2.46116">
        <ele>60.400001525879</ele>
        <time>2015-12-28T20:53:12Z</time>
      </trkpt>
      <trkpt lat="48.8429" lon="2.46084">
        <ele>60.20000076294</ele>
        <time>2015-12-28T20:53:16Z</time>
      </trkpt>
      <trkpt lat="48.84298" lon="2.46055">
        <ele>58.79999923706</ele>
        <time>2015-12-28T20:53:20Z</time>
      </trkpt>
      <trkpt lat="48.84305" lon="2.46028">
        <ele>57.599998474121</ele>
        <time>2015-12-28T20:53:24Z</time>
      </trkpt>
      <trkpt lat="48.8431" lon="2.46001">
        <ele>57.599998474121</ele>
        <time>2015-12-28T20:53:28Z</time>
      </trkpt>
      <trkpt lat="48.84317" lon="2.45972">
        <ele>57.400001525879</ele>
        <time>2015-12-28T20:53:32Z</time>
      </trkpt>
      <trkpt lat="48.84324" lon="2.45946">
        <ele>57.599998474121</ele>
        <time>2015-12-28T20:53:35Z</time>
      </trkpt>
      <trkpt lat="48.84332" lon="2.45914">
        <ele>58</ele>
        <time>2015-12-28T20:53:39Z</time>
      </trkpt>
      <trkpt lat="48.84338" lon="2.45882">
        <ele>58</ele>
        <time>2015-12-28T20:53:43Z</time>
      </trkpt>
      <trkpt lat="48.84339" lon="2.45875">
        <ele>58</ele>
        <time>2015-12-28T20:53:44Z</time>
      </trkpt>
      <trkpt lat="48.84345" lon="2.45843">
        <ele>57.400001525879</ele>
        <time>2015-12-28T20:53:48Z</time>
      </trkpt>
      <trkpt lat="48.8435" lon="2.4581">
        <ele>57.400001525879</ele>
        <time>2015-12-28T20:53:52Z</time>
      </trkpt>
      <trkpt lat="48.84355" lon="2.45778">
        <ele>57.599998474121</ele>
        <time>2015-12-28T20:53:56Z</time>
      </trkpt>
      <trkpt lat="48.8436" lon="2.45749">
        <ele>57.79999923706</ele>
        <time>2015-12-28T20:54:00Z</time>
      </trkpt>
      <trkpt lat="48.84365" lon="2.45718">
        <ele>57.79999923706</ele>
        <time>2015-12-28T20:54:04Z</time>
      </trkpt>
      <trkpt lat="48.8437" lon="2.45689">
        <ele>57.599998474121</ele>
        <time>2015-12-28T20:54:08Z</time>
      </trkpt>
      <trkpt lat="48.84371" lon="2.45682">
        <ele>57.599998474121</ele>
        <time>2015-12-28T20:54:09Z</time>
      </trkpt>
      <trkpt lat="48.84376" lon="2.45652">
        <ele>57.599998474121</ele>
        <time>2015-12-28T20:54:13Z</time>
      </trkpt>
      <trkpt lat="48.8438" lon="2.45624">
        <ele>57.400001525879</ele>
        <time>2015-12-28T20:54:17Z</time>
      </trkpt>
      <trkpt lat="48.84381" lon="2.45616">
        <ele>57.400001525879</ele>
        <time>2015-12-28T20:54:18Z</time>
      </trkpt>
      <trkpt lat="48.84383" lon="2.45586">
        <ele>57.599998474121</ele>
        <time>2015-12-28T20:54:22Z</time>
      </trkpt>
      <trkpt lat="48.84385" lon="2.45571">
        <ele>57.599998474121</ele>
        <time>2015-12-28T20:54:24Z</time>
      </trkpt>
      <trkpt lat="48.84387" lon="2.45537">
        <ele>57</ele>
        <time>2015-12-28T20:54:28Z</time>
      </trkpt>
      <trkpt lat="48.84392" lon="2.45504">
        <ele>56.20000076294</ele>
        <time>2015-12-28T20:54:32Z</time>
      </trkpt>
      <trkpt lat="48.84395" lon="2.45472">
        <ele>55.400001525879</ele>
        <time>2015-12-28T20:54:36Z</time>
      </trkpt>
      <trkpt lat="48.84398" lon="2.45441">
        <ele>54.79999923706</ele>
        <time>2015-12-28T20:54:40Z</time>
      </trkpt>
      <trkpt lat="48.84404" lon="2.45411">
        <ele>54.400001525879</ele>
        <time>2015-12-28T20:54:44Z</time>
      </trkpt>
      <trkpt lat="48.84408" lon="2.45382">
        <ele>54.400001525879</ele>
        <time>2015-12-28T20:54:48Z</time>
      </trkpt>
      <trkpt lat="48.84408" lon="2.45375">
        <ele>54.400001525879</ele>
        <time>2015-12-28T20:54:49Z</time>
      </trkpt>
      <trkpt lat="48.84412" lon="2.45346">
        <ele>54.400001525879</ele>
        <time>2015-12-28T20:54:53Z</time>
      </trkpt>
      <trkpt lat="48.84415" lon="2.45315">
        <ele>54</ele>
        <time>2015-12-28T20:54:57Z</time>
      </trkpt>
      <trkpt lat="48.84419" lon="2.45286">
        <ele>54.400001525879</ele>
        <time>2015-12-28T20:55:01Z</time>
      </trkpt>
      <trkpt lat="48.84424" lon="2.45251">
        <ele>54.79999923706</ele>
        <time>2015-12-28T20:55:06Z</time>
      </trkpt>
      <trkpt lat="48.84429" lon="2.45221">
        <ele>55</ele>
        <time>2015-12-28T20:55:10Z</time>
      </trkpt>
      <trkpt lat="48.84433" lon="2.45191">
        <ele>55</ele>
        <time>2015-12-28T20:55:14Z</time>
      </trkpt>
      <trkpt lat="48.84435" lon="2.45184">
        <ele>55</ele>
        <time>2015-12-28T20:55:15Z</time>
      </trkpt>
      <trkpt lat="48.84439" lon="2.45155">
        <ele>54.79999923706</ele>
        <time>2015-12-28T20:55:19Z</time>
      </trkpt>
      <trkpt lat="48.84445" lon="2.45129">
        <ele>54.599998474121</ele>
        <time>2015-12-28T20:55:23Z</time>
      </trkpt>
      <trkpt lat="48.84449" lon="2.45112">
        <ele>54.599998474121</ele>
        <time>2015-12-28T20:55:26Z</time>
      </trkpt>
      <trkpt lat="48.84453" lon="2.45092">
        <ele>54.400001525879</ele>
        <time>2015-12-28T20:55:31Z</time>
      </trkpt>
      <trkpt lat="48.84453" lon="2.45082">
        <ele>54.599998474121</ele>
        <time>2015-12-28T20:55:33Z</time>
      </trkpt>
      <trkpt lat="48.84455" lon="2.45068">
        <ele>54.400001525879</ele>
        <time>2015-12-28T20:55:36Z</time>
      </trkpt>
      <trkpt lat="48.84457" lon="2.4505">
        <ele>54.20000076294</ele>
        <time>2015-12-28T20:55:40Z</time>
      </trkpt>
      <trkpt lat="48.84458" lon="2.4504">
        <ele>54.20000076294</ele>
        <time>2015-12-28T20:55:42Z</time>
      </trkpt>
      <trkpt lat="48.84463" lon="2.45011">
        <ele>54.20000076294</ele>
        <time>2015-12-28T20:55:47Z</time>
      </trkpt>
      <trkpt lat="48.84465" lon="2.44991">
        <ele>54.400001525879</ele>
        <time>2015-12-28T20:55:50Z</time>
      </trkpt>
      <trkpt lat="48.84465" lon="2.4497">
        <ele>55</ele>
        <time>2015-12-28T20:55:54Z</time>
      </trkpt>
      <trkpt lat="48.84468" lon="2.4494">
        <ele>55.599998474121</ele>
        <time>2015-12-28T20:55:59Z</time>
      </trkpt>
      <trkpt lat="48.8447" lon="2.44914">
        <ele>55.400001525879</ele>
        <time>2015-12-28T20:56:03Z</time>
      </trkpt>
      <trkpt lat="48.84471" lon="2.44884">
        <ele>55.79999923706</ele>
        <time>2015-12-28T20:56:07Z</time>
      </trkpt>
      <trkpt lat="48.84474" lon="2.44852">
        <ele>55.599998474121</ele>
        <time>2015-12-28T20:56:11Z</time>
      </trkpt>
      <trkpt lat="48.84478" lon="2.44818">
        <ele>54.79999923706</ele>
        <time>2015-12-28T20:56:15Z</time>
      </trkpt>
      <trkpt lat="48.84481" lon="2.44791">
        <ele>54</ele>
        <time>2015-12-28T20:56:18Z</time>
      </trkpt>
      <trkpt lat="48.84487" lon="2.44762">
        <ele>53.599998474121</ele>
        <time>2015-12-28T20:56:21Z</time>
      </trkpt>
      <trkpt lat="48.84491" lon="2.44729">
        <ele>53.599998474121</ele>
        <time>2015-12-28T20:56:25Z</time>
      </trkpt>
      <trkpt lat="48.84492" lon="2.44722">
        <ele>53.599998474121</ele>
        <time>2015-12-28T20:56:26Z</time>
      </trkpt>
      <trkpt lat="48.84494" lon="2.44706">
        <ele>53.79999923706</ele>
        <time>2015-12-28T20:56:28Z</time>
      </trkpt>
      <trkpt lat="48.84496" lon="2.44678">
        <ele>54.20000076294</ele>
        <time>2015-12-28T20:56:32Z</time>
      </trkpt>
      <trkpt lat="48.845" lon="2.44658">
        <ele>54</ele>
        <time>2015-12-28T20:56:36Z</time>
      </trkpt>
      <trkpt lat="48.845" lon="2.44653">
        <ele>54</ele>
        <time>2015-12-28T20:56:38Z</time>
      </trkpt>
      <trkpt lat="48.84518" lon="2.44651">
        <ele>54</ele>
        <time>2015-12-28T20:57:02Z</time>
      </trkpt>
      <trkpt lat="48.84536" lon="2.44644">
        <ele>53.599998474121</ele>
        <time>2015-12-28T20:57:08Z</time>
      </trkpt>
      <trkpt lat="48.84555" lon="2.44639">
        <ele>53.20000076294</ele>
        <time>2015-12-28T20:57:15Z</time>
      </trkpt>
      <trkpt lat="48.84568" lon="2.44636">
        <ele>52.79999923706</ele>
        <time>2015-12-28T20:57:20Z</time>
      </trkpt>
      <trkpt lat="48.8457" lon="2.44625">
        <ele>53</ele>
        <time>2015-12-28T20:57:24Z</time>
      </trkpt>
      <trkpt lat="48.84572" lon="2.44595">
        <ele>53.599998474121</ele>
        <time>2015-12-28T20:57:31Z</time>
      </trkpt>
      <trkpt lat="48.84577" lon="2.44569">
        <ele>54.20000076294</ele>
        <time>2015-12-28T20:57:37Z</time>
      </trkpt>
      <trkpt lat="48.84577" lon="2.4454">
        <ele>54.79999923706</ele>
        <time>2015-12-28T20:57:42Z</time>
      </trkpt>
      <trkpt lat="48.84579" lon="2.44508">
        <ele>56</ele>
        <time>2015-12-28T20:57:48Z</time>
      </trkpt>
      <trkpt lat="48.84582" lon="2.44478">
        <ele>56.20000076294</ele>
        <time>2015-12-28T20:57:53Z</time>
      </trkpt>
      <trkpt lat="48.84585" lon="2.44448">
        <ele>55.599998474121</ele>
        <time>2015-12-28T20:57:57Z</time>
      </trkpt>
      <trkpt lat="48.84586" lon="2.44419">
        <ele>54.79999923706</ele>
        <time>2015-12-28T20:58:01Z</time>
      </trkpt>
      <trkpt lat="48.84586" lon="2.44388">
        <ele>54.20000076294</ele>
        <time>2015-12-28T20:58:05Z</time>
      </trkpt>
      <trkpt lat="48.84588" lon="2.44356">
        <ele>53.79999923706</ele>
        <time>2015-12-28T20:58:09Z</time>
      </trkpt>
      <trkpt lat="48.84591" lon="2.44328">
        <ele>53.599998474121</ele>
        <time>2015-12-28T20:58:13Z</time>
      </trkpt>
      <trkpt lat="48.84592" lon="2.44299">
        <ele>53.79999923706</ele>
        <time>2015-12-28T20:58:17Z</time>
      </trkpt>
      <trkpt lat="48.84592" lon="2.44271">
        <ele>54</ele>
        <time>2015-12-28T20:58:21Z</time>
      </trkpt>
      <trkpt lat="48.84593" lon="2.44265">
        <ele>54.20000076294</ele>
        <time>2015-12-28T20:58:22Z</time>
      </trkpt>
      <trkpt lat="48.8459" lon="2.44232">
        <ele>54.400001525879</ele>
        <time>2015-12-28T20:58:27Z</time>
      </trkpt>
      <trkpt lat="48.84591" lon="2.44205">
        <ele>54.400001525879</ele>
        <time>2015-12-28T20:58:30Z</time>
      </trkpt>
      <trkpt lat="48.8459" lon="2.44176">
        <ele>54.400001525879</ele>
        <time>2015-12-28T20:58:34Z</time>
      </trkpt>
      <trkpt lat="48.84592" lon="2.44146">
        <ele>54.79999923706</ele>
        <time>2015-12-28T20:58:38Z</time>
      </trkpt>
      <trkpt lat="48.84592" lon="2.44113">
        <ele>54</ele>
        <time>2015-12-28T20:58:43Z</time>
      </trkpt>
      <trkpt lat="48.84594" lon="2.44084">
        <ele>53.400001525879</ele>
        <time>2015-12-28T20:58:48Z</time>
      </trkpt>
      <trkpt lat="48.84595" lon="2.44061">
        <ele>53.20000076294</ele>
        <time>2015-12-28T20:58:51Z</time>
      </trkpt>
      <trkpt lat="48.84596" lon="2.44045">
        <ele>53.20000076294</ele>
        <time>2015-12-28T20:58:54Z</time>
      </trkpt>
      <trkpt lat="48.84601" lon="2.44018">
        <ele>53</ele>
        <time>2015-12-28T20:58:59Z</time>
      </trkpt>
      <trkpt lat="48.84603" lon="2.43989">
        <ele>53.20000076294</ele>
        <time>2015-12-28T20:59:11Z</time>
      </trkpt>
      <trkpt lat="48.84601" lon="2.43974">
        <ele>53.400001525879</ele>
        <time>2015-12-28T20:59:21Z</time>
      </trkpt>
      <trkpt lat="48.84597" lon="2.43965">
        <ele>53.599998474121</ele>
        <time>2015-12-28T20:59:29Z</time>
      </trkpt>
      <trkpt lat="48.84596" lon="2.43953">
        <ele>53.599998474121</ele>
        <time>2015-12-28T20:59:38Z</time>
      </trkpt>
      <trkpt lat="48.84593" lon="2.43935">
        <ele>54</ele>
        <time>2015-12-28T20:59:46Z</time>
      </trkpt>
      <trkpt lat="48.84591" lon="2.43929">
        <ele>54</ele>
        <time>2015-12-28T20:59:48Z</time>
      </trkpt>
      <trkpt lat="48.8459" lon="2.43925">
        <ele>54</ele>
        <time>2015-12-28T20:59:50Z</time>
      </trkpt>
      <trkpt lat="48.84593" lon="2.43907">
        <ele>54.20000076294</ele>
        <time>2015-12-28T21:00:02Z</time>
      </trkpt>
      <trkpt lat="48.84593" lon="2.43882">
        <ele>55.599998474121</ele>
        <time>2015-12-28T21:00:10Z</time>
      </trkpt>
      <trkpt lat="48.84594" lon="2.43877">
        <ele>56</ele>
        <time>2015-12-28T21:00:11Z</time>
      </trkpt>
      <trkpt lat="48.84598" lon="2.43849">
        <ele>57.79999923706</ele>
        <time>2015-12-28T21:00:18Z</time>
      </trkpt>
      <trkpt lat="48.84606" lon="2.43824">
        <ele>59</ele>
        <time>2015-12-28T21:00:24Z</time>
      </trkpt>
      <trkpt lat="48.84607" lon="2.43796">
        <ele>58.599998474121</ele>
        <time>2015-12-28T21:00:30Z</time>
      </trkpt>
      <trkpt lat="48.84613" lon="2.43769">
        <ele>58</ele>
        <time>2015-12-28T21:00:34Z</time>
      </trkpt>
      <trkpt lat="48.8462" lon="2.43733">
        <ele>57.599998474121</ele>
        <time>2015-12-28T21:00:39Z</time>
      </trkpt>
      <trkpt lat="48.84624" lon="2.43702">
        <ele>57.20000076294</ele>
        <time>2015-12-28T21:00:44Z</time>
      </trkpt>
      <trkpt lat="48.84628" lon="2.43687">
        <ele>57</ele>
        <time>2015-12-28T21:00:47Z</time>
      </trkpt>
      <trkpt lat="48.84634" lon="2.43657">
        <ele>56.20000076294</ele>
        <time>2015-12-28T21:00:53Z</time>
      </trkpt>
      <trkpt lat="48.84639" lon="2.4363">
        <ele>55.79999923706</ele>
        <time>2015-12-28T21:00:58Z</time>
      </trkpt>
      <trkpt lat="48.84642" lon="2.43603">
        <ele>55.599998474121</ele>
        <time>2015-12-28T21:01:03Z</time>
      </trkpt>
      <trkpt lat="48.84644" lon="2.43573">
        <ele>56</ele>
        <time>2015-12-28T21:01:09Z</time>
      </trkpt>
      <trkpt lat="48.84647" lon="2.43549">
        <ele>57.20000076294</ele>
        <time>2015-12-28T21:01:14Z</time>
      </trkpt>
      <trkpt lat="48.84653" lon="2.4353">
        <ele>58</ele>
        <time>2015-12-28T21:01:21Z</time>
      </trkpt>
      <trkpt lat="48.84672" lon="2.4352">
        <ele>58.20000076294</ele>
        <time>2015-12-28T21:01:28Z</time>
      </trkpt>
      <trkpt lat="48.84693" lon="2.43521">
        <ele>58</ele>
        <time>2015-12-28T21:01:34Z</time>
      </trkpt>
      <trkpt lat="48.84711" lon="2.43515">
        <ele>58.79999923706</ele>
        <time>2015-12-28T21:01:42Z</time>
      </trkpt>
      <trkpt lat="48.8472" lon="2.43488">
        <ele>58.599998474121</ele>
        <time>2015-12-28T21:01:48Z</time>
      </trkpt>
      <trkpt lat="48.84727" lon="2.43461">
        <ele>58.599998474121</ele>
        <time>2015-12-28T21:01:55Z</time>
      </trkpt>
      <trkpt lat="48.84739" lon="2.43445">
        <ele>58.599998474121</ele>
        <time>2015-12-28T21:02:02Z</time>
      </trkpt>
      <trkpt lat="48.84742" lon="2.43417">
        <ele>59</ele>
        <time>2015-12-28T21:02:09Z</time>
      </trkpt>
      <trkpt lat="48.8474" lon="2.43388">
        <ele>58.599998474121</ele>
        <time>2015-12-28T21:02:16Z</time>
      </trkpt>
      <trkpt lat="48.84739" lon="2.43357">
        <ele>58.400001525879</ele>
        <time>2015-12-28T21:02:23Z</time>
      </trkpt>
      <trkpt lat="48.84741" lon="2.43328">
        <ele>57.79999923706</ele>
        <time>2015-12-28T21:02:33Z</time>
      </trkpt>
      <trkpt lat="48.84742" lon="2.43297">
        <ele>56.79999923706</ele>
        <time>2015-12-28T21:02:42Z</time>
      </trkpt>
      <trkpt lat="48.84741" lon="2.43268">
        <ele>55.79999923706</ele>
        <time>2015-12-28T21:02:47Z</time>
      </trkpt>
      <trkpt lat="48.84742" lon="2.43236">
        <ele>54.599998474121</ele>
        <time>2015-12-28T21:02:52Z</time>
      </trkpt>
      <trkpt lat="48.84741" lon="2.43208">
        <ele>54.20000076294</ele>
        <time>2015-12-28T21:02:56Z</time>
      </trkpt>
      <trkpt lat="48.84744" lon="2.43177">
        <ele>53.79999923706</ele>
        <time>2015-12-28T21:03:00Z</time>
      </trkpt>
      <trkpt lat="48.84745" lon="2.43149">
        <ele>53.79999923706</ele>
        <time>2015-12-28T21:03:04Z</time>
      </trkpt>
      <trkpt lat="48.84746" lon="2.4312">
        <ele>53.79999923706</ele>
        <time>2015-12-28T21:03:08Z</time>
      </trkpt>
      <trkpt lat="48.84747" lon="2.43088">
        <ele>53.400001525879</ele>
        <time>2015-12-28T21:03:13Z</time>
      </trkpt>
      <trkpt lat="48.84747" lon="2.43058">
        <ele>53.599998474121</ele>
        <time>2015-12-28T21:03:18Z</time>
      </trkpt>
      <trkpt lat="48.84746" lon="2.43028">
        <ele>54</ele>
        <time>2015-12-28T21:03:22Z</time>
      </trkpt>
      <trkpt lat="48.84745" lon="2.42998">
        <ele>54.400001525879</ele>
        <time>2015-12-28T21:03:26Z</time>
      </trkpt>
      <trkpt lat="48.84743" lon="2.42964">
        <ele>53.599998474121</ele>
        <time>2015-12-28T21:03:30Z</time>
      </trkpt>
      <trkpt lat="48.8474" lon="2.42929">
        <ele>53.20000076294</ele>
        <time>2015-12-28T21:03:34Z</time>
      </trkpt>
      <trkpt lat="48.84735" lon="2.42897">
        <ele>52.79999923706</ele>
        <time>2015-12-28T21:03:38Z</time>
      </trkpt>
      <trkpt lat="48.84729" lon="2.42865">
        <ele>52.20000076294</ele>
        <time>2015-12-28T21:03:42Z</time>
      </trkpt>
      <trkpt lat="48.84727" lon="2.42833">
        <ele>51.599998474121</ele>
        <time>2015-12-28T21:03:46Z</time>
      </trkpt>
      <trkpt lat="48.84723" lon="2.42803">
        <ele>51.599998474121</ele>
        <time>2015-12-28T21:03:50Z</time>
      </trkpt>
      <trkpt lat="48.84723" lon="2.42795">
        <ele>51.599998474121</ele>
        <time>2015-12-28T21:03:51Z</time>
      </trkpt>
      <trkpt lat="48.84723" lon="2.42772">
        <ele>51.79999923706</ele>
        <time>2015-12-28T21:03:54Z</time>
      </trkpt>
      <trkpt lat="48.84719" lon="2.42744">
        <ele>52.400001525879</ele>
        <time>2015-12-28T21:03:59Z</time>
      </trkpt>
      <trkpt lat="48.84718" lon="2.42737">
        <ele>52.400001525879</ele>
        <time>2015-12-28T21:04:00Z</time>
      </trkpt>
      <trkpt lat="48.84716" lon="2.42712">
        <ele>52.79999923706</ele>
        <time>2015-12-28T21:04:04Z</time>
      </trkpt>
      <trkpt lat="48.84711" lon="2.42683">
        <ele>53.20000076294</ele>
        <time>2015-12-28T21:04:09Z</time>
      </trkpt>
      <trkpt lat="48.8471" lon="2.42679">
        <ele>53.20000076294</ele>
        <time>2015-12-28T21:04:10Z</time>
      </trkpt>
      <trkpt lat="48.84705" lon="2.42652">
        <ele>53.400001525879</ele>
        <time>2015-12-28T21:04:16Z</time>
      </trkpt>
      <trkpt lat="48.84703" lon="2.42642">
        <ele>53.400001525879</ele>
        <time>2015-12-28T21:04:18Z</time>
      </trkpt>
      <trkpt lat="48.84701" lon="2.42626">
        <ele>53.20000076294</ele>
        <time>2015-12-28T21:04:21Z</time>
      </trkpt>
      <trkpt lat="48.84694" lon="2.42597">
        <ele>53.20000076294</ele>
        <time>2015-12-28T21:04:26Z</time>
      </trkpt>
      <trkpt lat="48.84691" lon="2.42585">
        <ele>53</ele>
        <time>2015-12-28T21:04:28Z</time>
      </trkpt>
      <trkpt lat="48.84683" lon="2.42558">
        <ele>52.79999923706</ele>
        <time>2015-12-28T21:04:32Z</time>
      </trkpt>
      <trkpt lat="48.84678" lon="2.42545">
        <ele>52.599998474121</ele>
        <time>2015-12-28T21:04:34Z</time>
      </trkpt>
      <trkpt lat="48.84671" lon="2.42519">
        <ele>52.400001525879</ele>
        <time>2015-12-28T21:04:38Z</time>
      </trkpt>
      <trkpt lat="48.84669" lon="2.42513">
        <ele>52.400001525879</ele>
        <time>2015-12-28T21:04:39Z</time>
      </trkpt>
      <trkpt lat="48.84659" lon="2.42483">
        <ele>52.400001525879</ele>
        <time>2015-12-28T21:04:44Z</time>
      </trkpt>
      <trkpt lat="48.84649" lon="2.42454">
        <ele>52.599998474121</ele>
        <time>2015-12-28T21:04:49Z</time>
      </trkpt>
      <trkpt lat="48.84639" lon="2.42429">
        <ele>52.79999923706</ele>
        <time>2015-12-28T21:04:54Z</time>
      </trkpt>
      <trkpt lat="48.84627" lon="2.42406">
        <ele>53.20000076294</ele>
        <time>2015-12-28T21:04:59Z</time>
      </trkpt>
      <trkpt lat="48.84624" lon="2.42403">
        <ele>53.20000076294</ele>
        <time>2015-12-28T21:05:00Z</time>
      </trkpt>
      <trkpt lat="48.8462" lon="2.42397">
        <ele>53.20000076294</ele>
        <time>2015-12-28T21:05:02Z</time>
      </trkpt>
      <trkpt lat="48.84604" lon="2.42379">
        <ele>53.599998474121</ele>
        <time>2015-12-28T21:05:09Z</time>
      </trkpt>
      <trkpt lat="48.84599" lon="2.42371">
        <ele>53.79999923706</ele>
        <time>2015-12-28T21:05:14Z</time>
      </trkpt>
      <trkpt lat="48.84594" lon="2.42355">
        <ele>54.20000076294</ele>
        <time>2015-12-28T21:06:03Z</time>
      </trkpt>
      <trkpt lat="48.84586" lon="2.4233">
        <ele>55</ele>
        <time>2015-12-28T21:06:13Z</time>
      </trkpt>
      <trkpt lat="48.84572" lon="2.4231">
        <ele>55</ele>
        <time>2015-12-28T21:06:23Z</time>
      </trkpt>
      <trkpt lat="48.84558" lon="2.42289">
        <ele>55.20000076294</ele>
        <time>2015-12-28T21:06:30Z</time>
      </trkpt>
      <trkpt lat="48.84546" lon="2.42267">
        <ele>55.400001525879</ele>
        <time>2015-12-28T21:06:36Z</time>
      </trkpt>
      <trkpt lat="48.84533" lon="2.42241">
        <ele>55.599998474121</ele>
        <time>2015-12-28T21:06:41Z</time>
      </trkpt>
      <trkpt lat="48.8452" lon="2.42219">
        <ele>55.400001525879</ele>
        <time>2015-12-28T21:06:46Z</time>
      </trkpt>
      <trkpt lat="48.8451" lon="2.42193">
        <ele>55</ele>
        <time>2015-12-28T21:06:50Z</time>
      </trkpt>
      <trkpt lat="48.84495" lon="2.42167">
        <ele>54.599998474121</ele>
        <time>2015-12-28T21:06:55Z</time>
      </trkpt>
      <trkpt lat="48.84482" lon="2.42144">
        <ele>54.79999923706</ele>
        <time>2015-12-28T21:07:00Z</time>
      </trkpt>
      <trkpt lat="48.84471" lon="2.42116">
        <ele>54.599998474121</ele>
        <time>2015-12-28T21:07:05Z</time>
      </trkpt>
      <trkpt lat="48.84461" lon="2.42093">
        <ele>54.79999923706</ele>
        <time>2015-12-28T21:07:09Z</time>
      </trkpt>
      <trkpt lat="48.84454" lon="2.42072">
        <ele>54.599998474121</ele>
        <time>2015-12-28T21:07:12Z</time>
      </trkpt>
      <trkpt lat="48.84443" lon="2.42043">
        <ele>54</ele>
        <time>2015-12-28T21:07:16Z</time>
      </trkpt>
      <trkpt lat="48.84439" lon="2.42036">
        <ele>54</ele>
        <time>2015-12-28T21:07:17Z</time>
      </trkpt>
      <trkpt lat="48.84426" lon="2.42012">
        <ele>53.599998474121</ele>
        <time>2015-12-28T21:07:21Z</time>
      </trkpt>
      <trkpt lat="48.84415" lon="2.4199">
        <ele>53.599998474121</ele>
        <time>2015-12-28T21:07:24Z</time>
      </trkpt>
      <trkpt lat="48.84405" lon="2.41963">
        <ele>54.20000076294</ele>
        <time>2015-12-28T21:07:27Z</time>
      </trkpt>
      <trkpt lat="48.84394" lon="2.41941">
        <ele>54.79999923706</ele>
        <time>2015-12-28T21:07:30Z</time>
      </trkpt>
      <trkpt lat="48.84384" lon="2.41918">
        <ele>55.400001525879</ele>
        <time>2015-12-28T21:07:33Z</time>
      </trkpt>
      <trkpt lat="48.84373" lon="2.41886">
        <ele>54.599998474121</ele>
        <time>2015-12-28T21:07:37Z</time>
      </trkpt>
      <trkpt lat="48.84366" lon="2.41863">
        <ele>53.79999923706</ele>
        <time>2015-12-28T21:07:40Z</time>
      </trkpt>
      <trkpt lat="48.84365" lon="2.4183">
        <ele>53.400001525879</ele>
        <time>2015-12-28T21:07:44Z</time>
      </trkpt>
      <trkpt lat="48.84366" lon="2.41823">
        <ele>53.20000076294</ele>
        <time>2015-12-28T21:07:45Z</time>
      </trkpt>
      <trkpt lat="48.84372" lon="2.41797">
        <ele>52.79999923706</ele>
        <time>2015-12-28T21:07:49Z</time>
      </trkpt>
      <trkpt lat="48.84375" lon="2.41784">
        <ele>52.599998474121</ele>
        <time>2015-12-28T21:07:52Z</time>
      </trkpt>
      <trkpt lat="48.84376" lon="2.41773">
        <ele>52.400001525879</ele>
        <time>2015-12-28T21:07:56Z</time>
      </trkpt>
      <trkpt lat="48.84371" lon="2.41744">
        <ele>51.79999923706</ele>
        <time>2015-12-28T21:08:16Z</time>
      </trkpt>
      <trkpt lat="48.84372" lon="2.41714">
        <ele>52.79999923706</ele>
        <time>2015-12-28T21:08:21Z</time>
      </trkpt>
      <trkpt lat="48.84375" lon="2.41684">
        <ele>54</ele>
        <time>2015-12-28T21:08:25Z</time>
      </trkpt>
      <trkpt lat="48.84376" lon="2.41651">
        <ele>55</ele>
        <time>2015-12-28T21:08:29Z</time>
      </trkpt>
      <trkpt lat="48.84377" lon="2.41615">
        <ele>57.20000076294</ele>
        <time>2015-12-28T21:08:33Z</time>
      </trkpt>
      <trkpt lat="48.84378" lon="2.4158">
        <ele>58.400001525879</ele>
        <time>2015-12-28T21:08:37Z</time>
      </trkpt>
      <trkpt lat="48.8438" lon="2.41552">
        <ele>56.599998474121</ele>
        <time>2015-12-28T21:08:40Z</time>
      </trkpt>
      <trkpt lat="48.84383" lon="2.41517">
        <ele>54.400001525879</ele>
        <time>2015-12-28T21:08:44Z</time>
      </trkpt>
      <trkpt lat="48.84386" lon="2.41482">
        <ele>52.20000076294</ele>
        <time>2015-12-28T21:08:48Z</time>
      </trkpt>
      <trkpt lat="48.84389" lon="2.41466">
        <ele>50.79999923706</ele>
        <time>2015-12-28T21:08:50Z</time>
      </trkpt>
      <trkpt lat="48.84392" lon="2.41435">
        <ele>49</ele>
        <time>2015-12-28T21:08:54Z</time>
      </trkpt>
      <trkpt lat="48.84395" lon="2.41405">
        <ele>48.20000076294</ele>
        <time>2015-12-28T21:08:58Z</time>
      </trkpt>
      <trkpt lat="48.84399" lon="2.41374">
        <ele>48.599998474121</ele>
        <time>2015-12-28T21:09:02Z</time>
      </trkpt>
      <trkpt lat="48.84402" lon="2.41344">
        <ele>49.599998474121</ele>
        <time>2015-12-28T21:09:06Z</time>
      </trkpt>
      <trkpt lat="48.84405" lon="2.41313">
        <ele>50.599998474121</ele>
        <time>2015-12-28T21:09:10Z</time>
      </trkpt>
      <trkpt lat="48.84407" lon="2.41297">
        <ele>51</ele>
        <time>2015-12-28T21:09:12Z</time>
      </trkpt>
      <trkpt lat="48.84408" lon="2.41267">
        <ele>51.400001525879</ele>
        <time>2015-12-28T21:09:16Z</time>
      </trkpt>
      <trkpt lat="48.84411" lon="2.41235">
        <ele>52</ele>
        <time>2015-12-28T21:09:20Z</time>
      </trkpt>
      <trkpt lat="48.84414" lon="2.41203">
        <ele>52.20000076294</ele>
        <time>2015-12-28T21:09:24Z</time>
      </trkpt>
      <trkpt lat="48.84417" lon="2.41171">
        <ele>52.20000076294</ele>
        <time>2015-12-28T21:09:28Z</time>
      </trkpt>
      <trkpt lat="48.8442" lon="2.41138">
        <ele>53.599998474121</ele>
        <time>2015-12-28T21:09:32Z</time>
      </trkpt>
      <trkpt lat="48.84421" lon="2.41107">
        <ele>54.20000076294</ele>
        <time>2015-12-28T21:09:36Z</time>
      </trkpt>
      <trkpt lat="48.84422" lon="2.41099">
        <ele>54.400001525879</ele>
        <time>2015-12-28T21:09:37Z</time>
      </trkpt>
      <trkpt lat="48.84425" lon="2.41072">
        <ele>54.599998474121</ele>
        <time>2015-12-28T21:09:41Z</time>
      </trkpt>
      <trkpt lat="48.84427" lon="2.41059">
        <ele>54.79999923706</ele>
        <time>2015-12-28T21:09:44Z</time>
      </trkpt>
      <trkpt lat="48.84429" lon="2.41053">
        <ele>54.599998474121</ele>
        <time>2015-12-28T21:09:54Z</time>
      </trkpt>
      <trkpt lat="48.84438" lon="2.41049">
        <ele>54.400001525879</ele>
        <time>2015-12-28T21:10:25Z</time>
      </trkpt>
      <trkpt lat="48.84431" lon="2.41049">
        <ele>54.599998474121</ele>
        <time>2015-12-28T21:10:31Z</time>
      </trkpt>
      <trkpt lat="48.84423" lon="2.41022">
        <ele>55.20000076294</ele>
        <time>2015-12-28T21:10:40Z</time>
      </trkpt>
      <trkpt lat="48.8442" lon="2.41014">
        <ele>55.400001525879</ele>
        <time>2015-12-28T21:10:43Z</time>
      </trkpt>
      <trkpt lat="48.84412" lon="2.4101">
        <ele>55.79999923706</ele>
        <time>2015-12-28T21:10:48Z</time>
      </trkpt>
      <trkpt lat="48.84409" lon="2.41004">
        <ele>56</ele>
        <time>2015-12-28T21:10:50Z</time>
      </trkpt>
      <trkpt lat="48.84412" lon="2.40984">
        <ele>55.79999923706</ele>
        <time>2015-12-28T21:10:56Z</time>
      </trkpt>
      <trkpt lat="48.84421" lon="2.40956">
        <ele>55.79999923706</ele>
        <time>2015-12-28T21:11:03Z</time>
      </trkpt>
      <trkpt lat="48.8443" lon="2.40931">
        <ele>56</ele>
        <time>2015-12-28T21:11:08Z</time>
      </trkpt>
      <trkpt lat="48.84442" lon="2.40908">
        <ele>56.20000076294</ele>
        <time>2015-12-28T21:11:14Z</time>
      </trkpt>
      <trkpt lat="48.84441" lon="2.40896">
        <ele>56.20000076294</ele>
        <time>2015-12-28T21:11:18Z</time>
      </trkpt>
      <trkpt lat="48.84436" lon="2.40888">
        <ele>56</ele>
        <time>2015-12-28T21:11:22Z</time>
      </trkpt>
      <trkpt lat="48.84417" lon="2.40882">
        <ele>56.20000076294</ele>
        <time>2015-12-28T21:11:28Z</time>
      </trkpt>
      <trkpt lat="48.84408" lon="2.40884">
        <ele>56.400001525879</ele>
        <time>2015-12-28T21:11:31Z</time>
      </trkpt>
      <trkpt lat="48.84394" lon="2.40906">
        <ele>56.599998474121</ele>
        <time>2015-12-28T21:11:37Z</time>
      </trkpt>
      <trkpt lat="48.84393" lon="2.40908">
        <ele>56.599998474121</ele>
        <time>2015-12-28T21:11:38Z</time>
      </trkpt>
      <trkpt lat="48.84391" lon="2.40912">
        <ele>56.599998474121</ele>
        <time>2015-12-28T21:11:42Z</time>
      </trkpt>
      <trkpt lat="48.84383" lon="2.40906">
        <ele>56.599998474121</ele>
        <time>2015-12-28T21:11:52Z</time>
      </trkpt>
      <trkpt lat="48.84387" lon="2.40936">
        <ele>56.400001525879</ele>
        <time>2015-12-28T21:12:05Z</time>
      </trkpt>
      <trkpt lat="48.84389" lon="2.40957">
        <ele>56.400001525879</ele>
        <time>2015-12-28T21:12:09Z</time>
      </trkpt>
      <trkpt lat="48.84373" lon="2.40971">
        <ele>57</ele>
        <time>2015-12-28T21:12:12Z</time>
      </trkpt>
      <trkpt lat="48.84359" lon="2.40975">
        <ele>57.599998474121</ele>
        <time>2015-12-28T21:12:15Z</time>
      </trkpt>
      <trkpt lat="48.84336" lon="2.40987">
        <ele>57.79999923706</ele>
        <time>2015-12-28T21:12:21Z</time>
      </trkpt>
      <trkpt lat="48.84316" lon="2.40997">
        <ele>58</ele>
        <time>2015-12-28T21:12:26Z</time>
      </trkpt>
      <trkpt lat="48.84296" lon="2.40998">
        <ele>58</ele>
        <time>2015-12-28T21:12:32Z</time>
      </trkpt>
      <trkpt lat="48.84288" lon="2.40998">
        <ele>58</ele>
        <time>2015-12-28T21:12:37Z</time>
      </trkpt>
      <trkpt lat="48.84289" lon="2.41">
        <ele>58</ele>
        <time>2015-12-28T21:12:52Z</time>
      </trkpt>
      <trkpt lat="48.84292" lon="2.40993">
        <ele>58</ele>
        <time>2015-12-28T21:13:39Z</time>
      </trkpt>
      <trkpt lat="48.84312" lon="2.40986">
        <ele>57.79999923706</ele>
        <time>2015-12-28T21:13:46Z</time>
      </trkpt>
      <trkpt lat="48.84331" lon="2.40993">
        <ele>58</ele>
        <time>2015-12-28T21:13:53Z</time>
      </trkpt>
      <trkpt lat="48.8435" lon="2.40995">
        <ele>58</ele>
        <time>2015-12-28T21:14:01Z</time>
      </trkpt>
      <trkpt lat="48.84367" lon="2.40995">
        <ele>57.599998474121</ele>
        <time>2015-12-28T21:14:07Z</time>
      </trkpt>
      <trkpt lat="48.84388" lon="2.41001">
        <ele>56.79999923706</ele>
        <time>2015-12-28T21:14:16Z</time>
      </trkpt>
      <trkpt lat="48.84404" lon="2.40993">
        <ele>56.20000076294</ele>
        <time>2015-12-28T21:14:23Z</time>
      </trkpt>
      <trkpt lat="48.84404" lon="2.41007">
        <ele>56.20000076294</ele>
        <time>2015-12-28T21:14:36Z</time>
      </trkpt>
      <trkpt lat="48.84405" lon="2.4101">
        <ele>56</ele>
        <time>2015-12-28T21:14:40Z</time>
      </trkpt>
      <trkpt lat="48.84414" lon="2.41003">
        <ele>55.79999923706</ele>
        <time>2015-12-28T21:14:46Z</time>
      </trkpt>
      <trkpt lat="48.84424" lon="2.40998">
        <ele>55.599998474121</ele>
        <time>2015-12-28T21:14:53Z</time>
      </trkpt>
      <trkpt lat="48.84427" lon="2.40973">
        <ele>55.400001525879</ele>
        <time>2015-12-28T21:14:57Z</time>
      </trkpt>
      <trkpt lat="48.8443" lon="2.4095">
        <ele>55.599998474121</ele>
        <time>2015-12-28T21:15:00Z</time>
      </trkpt>
      <trkpt lat="48.8443" lon="2.40916">
        <ele>56</ele>
        <time>2015-12-28T21:15:04Z</time>
      </trkpt>
      <trkpt lat="48.8443" lon="2.40898">
        <ele>56.20000076294</ele>
        <time>2015-12-28T21:15:06Z</time>
      </trkpt>
      <trkpt lat="48.84433" lon="2.40866">
        <ele>56</ele>
        <time>2015-12-28T21:15:09Z</time>
      </trkpt>
      <trkpt lat="48.84433" lon="2.40836">
        <ele>56</ele>
        <time>2015-12-28T21:15:12Z</time>
      </trkpt>
      <trkpt lat="48.84434" lon="2.40805">
        <ele>55.79999923706</ele>
        <time>2015-12-28T21:15:15Z</time>
      </trkpt>
      <trkpt lat="48.84435" lon="2.40775">
        <ele>55.400001525879</ele>
        <time>2015-12-28T21:15:18Z</time>
      </trkpt>
      <trkpt lat="48.84435" lon="2.40765">
        <ele>55.20000076294</ele>
        <time>2015-12-28T21:15:19Z</time>
      </trkpt>
      <trkpt lat="48.84437" lon="2.40735">
        <ele>54.20000076294</ele>
        <time>2015-12-28T21:15:22Z</time>
      </trkpt>
      <trkpt lat="48.84442" lon="2.40705">
        <ele>52.400001525879</ele>
        <time>2015-12-28T21:15:25Z</time>
      </trkpt>
      <trkpt lat="48.84446" lon="2.40675">
        <ele>50.400001525879</ele>
        <time>2015-12-28T21:15:28Z</time>
      </trkpt>
      <trkpt lat="48.8445" lon="2.40643">
        <ele>50.599998474121</ele>
        <time>2015-12-28T21:15:31Z</time>
      </trkpt>
      <trkpt lat="48.84457" lon="2.40611">
        <ele>51</ele>
        <time>2015-12-28T21:15:34Z</time>
      </trkpt>
      <trkpt lat="48.84462" lon="2.40579">
        <ele>51</ele>
        <time>2015-12-28T21:15:37Z</time>
      </trkpt>
      <trkpt lat="48.84469" lon="2.40544">
        <ele>51</ele>
        <time>2015-12-28T21:15:40Z</time>
      </trkpt>
      <trkpt lat="48.84471" lon="2.4051">
        <ele>51</ele>
        <time>2015-12-28T21:15:43Z</time>
      </trkpt>
      <trkpt lat="48.84473" lon="2.40477">
        <ele>51.20000076294</ele>
        <time>2015-12-28T21:15:46Z</time>
      </trkpt>
      <trkpt lat="48.84478" lon="2.40444">
        <ele>51.20000076294</ele>
        <time>2015-12-28T21:15:49Z</time>
      </trkpt>
      <trkpt lat="48.84481" lon="2.4041">
        <ele>50.20000076294</ele>
        <time>2015-12-28T21:15:52Z</time>
      </trkpt>
      <trkpt lat="48.84484" lon="2.40378">
        <ele>51.20000076294</ele>
        <time>2015-12-28T21:15:55Z</time>
      </trkpt>
      <trkpt lat="48.84486" lon="2.40346">
        <ele>52.20000076294</ele>
        <time>2015-12-28T21:15:58Z</time>
      </trkpt>
      <trkpt lat="48.84489" lon="2.40314">
        <ele>52.400001525879</ele>
        <time>2015-12-28T21:16:01Z</time>
      </trkpt>
      <trkpt lat="48.84492" lon="2.40284">
        <ele>52.79999923706</ele>
        <time>2015-12-28T21:16:04Z</time>
      </trkpt>
      <trkpt lat="48.84493" lon="2.40276">
        <ele>53</ele>
        <time>2015-12-28T21:16:05Z</time>
      </trkpt>
      <trkpt lat="48.84498" lon="2.40257">
        <ele>53.599998474121</ele>
        <time>2015-12-28T21:16:09Z</time>
      </trkpt>
      <trkpt lat="48.84504" lon="2.40261">
        <ele>53.599998474121</ele>
        <time>2015-12-28T21:16:45Z</time>
      </trkpt>
      <trkpt lat="48.84508" lon="2.40253">
        <ele>53.79999923706</ele>
        <time>2015-12-28T21:16:51Z</time>
      </trkpt>
      <trkpt lat="48.84515" lon="2.40235">
        <ele>53.599998474121</ele>
        <time>2015-12-28T21:16:55Z</time>
      </trkpt>
      <trkpt lat="48.84516" lon="2.40222">
        <ele>53.599998474121</ele>
        <time>2015-12-28T21:16:59Z</time>
      </trkpt>
      <trkpt lat="48.84508" lon="2.40195">
        <ele>53.400001525879</ele>
        <time>2015-12-28T21:17:07Z</time>
      </trkpt>
      <trkpt lat="48.845" lon="2.4017">
        <ele>53</ele>
        <time>2015-12-28T21:17:12Z</time>
      </trkpt>
      <trkpt lat="48.84494" lon="2.40144">
        <ele>53.20000076294</ele>
        <time>2015-12-28T21:17:16Z</time>
      </trkpt>
      <trkpt lat="48.84494" lon="2.40111">
        <ele>53.599998474121</ele>
        <time>2015-12-28T21:17:20Z</time>
      </trkpt>
      <trkpt lat="48.84494" lon="2.40092">
        <ele>53.79999923706</ele>
        <time>2015-12-28T21:17:22Z</time>
      </trkpt>
      <trkpt lat="48.84498" lon="2.40061">
        <ele>54.79999923706</ele>
        <time>2015-12-28T21:17:25Z</time>
      </trkpt>
      <trkpt lat="48.84501" lon="2.40026">
        <ele>55.400001525879</ele>
        <time>2015-12-28T21:17:28Z</time>
      </trkpt>
      <trkpt lat="48.84503" lon="2.39991">
        <ele>55.599998474121</ele>
        <time>2015-12-28T21:17:31Z</time>
      </trkpt>
      <trkpt lat="48.84506" lon="2.39955">
        <ele>55.20000076294</ele>
        <time>2015-12-28T21:17:34Z</time>
      </trkpt>
      <trkpt lat="48.84511" lon="2.3992">
        <ele>55</ele>
        <time>2015-12-28T21:17:37Z</time>
      </trkpt>
      <trkpt lat="48.84514" lon="2.39886">
        <ele>54.79999923706</ele>
        <time>2015-12-28T21:17:40Z</time>
      </trkpt>
      <trkpt lat="48.84518" lon="2.39846">
        <ele>55.599998474121</ele>
        <time>2015-12-28T21:17:43Z</time>
      </trkpt>
      <trkpt lat="48.84519" lon="2.39834">
        <ele>55.79999923706</ele>
        <time>2015-12-28T21:17:44Z</time>
      </trkpt>
      <trkpt lat="48.84523" lon="2.398">
        <ele>54.400001525879</ele>
        <time>2015-12-28T21:17:47Z</time>
      </trkpt>
      <trkpt lat="48.84528" lon="2.39765">
        <ele>52.79999923706</ele>
        <time>2015-12-28T21:17:50Z</time>
      </trkpt>
      <trkpt lat="48.84531" lon="2.39742">
        <ele>53</ele>
        <time>2015-12-28T21:17:52Z</time>
      </trkpt>
      <trkpt lat="48.84534" lon="2.39706">
        <ele>54.599998474121</ele>
        <time>2015-12-28T21:17:55Z</time>
      </trkpt>
      <trkpt lat="48.84536" lon="2.39672">
        <ele>56</ele>
        <time>2015-12-28T21:17:58Z</time>
      </trkpt>
      <trkpt lat="48.84539" lon="2.39639">
        <ele>57</ele>
        <time>2015-12-28T21:18:01Z</time>
      </trkpt>
      <trkpt lat="48.84543" lon="2.39607">
        <ele>58.20000076294</ele>
        <time>2015-12-28T21:18:04Z</time>
      </trkpt>
      <trkpt lat="48.84547" lon="2.3958">
        <ele>58.400001525879</ele>
        <time>2015-12-28T21:18:07Z</time>
      </trkpt>
      <trkpt lat="48.84551" lon="2.3955">
        <ele>59.20000076294</ele>
        <time>2015-12-28T21:18:11Z</time>
      </trkpt>
      <trkpt lat="48.84553" lon="2.39521">
        <ele>59</ele>
        <time>2015-12-28T21:18:16Z</time>
      </trkpt>
      <trkpt lat="48.84557" lon="2.39507">
        <ele>58.20000076294</ele>
        <time>2015-12-28T21:18:20Z</time>
      </trkpt>
      <trkpt lat="48.84553" lon="2.3952">
        <ele>59</ele>
        <time>2015-12-28T21:18:30Z</time>
      </trkpt>
      <trkpt lat="48.84553" lon="2.39522">
        <ele>59</ele>
        <time>2015-12-28T21:18:31Z</time>
      </trkpt>
      <trkpt lat="48.84556" lon="2.3951">
        <ele>58.20000076294</ele>
        <time>2015-12-28T21:19:19Z</time>
      </trkpt>
      <trkpt lat="48.84569" lon="2.39491">
        <ele>57.79999923706</ele>
        <time>2015-12-28T21:19:33Z</time>
      </trkpt>
      <trkpt lat="48.84589" lon="2.39474">
        <ele>57.79999923706</ele>
        <time>2015-12-28T21:19:39Z</time>
      </trkpt>
      <trkpt lat="48.84603" lon="2.39459">
        <ele>56.599998474121</ele>
        <time>2015-12-28T21:19:42Z</time>
      </trkpt>
      <trkpt lat="48.84622" lon="2.39443">
        <ele>57.400001525879</ele>
        <time>2015-12-28T21:19:49Z</time>
      </trkpt>
      <trkpt lat="48.84641" lon="2.3943">
        <ele>57.599998474121</ele>
        <time>2015-12-28T21:19:54Z</time>
      </trkpt>
      <trkpt lat="48.84657" lon="2.39412">
        <ele>57.20000076294</ele>
        <time>2015-12-28T21:20:01Z</time>
      </trkpt>
      <trkpt lat="48.84671" lon="2.39392">
        <ele>57.79999923706</ele>
        <time>2015-12-28T21:20:07Z</time>
      </trkpt>
      <trkpt lat="48.84694" lon="2.39383">
        <ele>57.599998474121</ele>
        <time>2015-12-28T21:20:11Z</time>
      </trkpt>
      <trkpt lat="48.84713" lon="2.39366">
        <ele>56.400001525879</ele>
        <time>2015-12-28T21:20:15Z</time>
      </trkpt>
      <trkpt lat="48.84728" lon="2.39348">
        <ele>55.400001525879</ele>
        <time>2015-12-28T21:20:19Z</time>
      </trkpt>
      <trkpt lat="48.84744" lon="2.3933">
        <ele>54.599998474121</ele>
        <time>2015-12-28T21:20:23Z</time>
      </trkpt>
      <trkpt lat="48.84762" lon="2.39313">
        <ele>53.400001525879</ele>
        <time>2015-12-28T21:20:27Z</time>
      </trkpt>
      <trkpt lat="48.84776" lon="2.39296">
        <ele>54</ele>
        <time>2015-12-28T21:20:31Z</time>
      </trkpt>
      <trkpt lat="48.84787" lon="2.39284">
        <ele>54.599998474121</ele>
        <time>2015-12-28T21:20:35Z</time>
      </trkpt>
      <trkpt lat="48.84794" lon="2.3928">
        <ele>55</ele>
        <time>2015-12-28T21:20:39Z</time>
      </trkpt>
      <trkpt lat="48.84805" lon="2.39268">
        <ele>55</ele>
        <time>2015-12-28T21:20:58Z</time>
      </trkpt>
      <trkpt lat="48.8482" lon="2.39246">
        <ele>54.20000076294</ele>
        <time>2015-12-28T21:21:05Z</time>
      </trkpt>
      <trkpt lat="48.84833" lon="2.39234">
        <ele>53</ele>
        <time>2015-12-28T21:21:08Z</time>
      </trkpt>
      <trkpt lat="48.8485" lon="2.39216">
        <ele>52.400001525879</ele>
        <time>2015-12-28T21:21:12Z</time>
      </trkpt>
      <trkpt lat="48.84866" lon="2.39195">
        <ele>51</ele>
        <time>2015-12-28T21:21:17Z</time>
      </trkpt>
      <trkpt lat="48.84887" lon="2.39176">
        <ele>50.20000076294</ele>
        <time>2015-12-28T21:21:21Z</time>
      </trkpt>
      <trkpt lat="48.84907" lon="2.3916">
        <ele>49.79999923706</ele>
        <time>2015-12-28T21:21:25Z</time>
      </trkpt>
      <trkpt lat="48.84924" lon="2.39149">
        <ele>49.400001525879</ele>
        <time>2015-12-28T21:21:29Z</time>
      </trkpt>
      <trkpt lat="48.84941" lon="2.39134">
        <ele>49.400001525879</ele>
        <time>2015-12-28T21:21:34Z</time>
      </trkpt>
      <trkpt lat="48.84957" lon="2.39116">
        <ele>49.79999923706</ele>
        <time>2015-12-28T21:21:39Z</time>
      </trkpt>
      <trkpt lat="48.84975" lon="2.39097">
        <ele>50.79999923706</ele>
        <time>2015-12-28T21:21:44Z</time>
      </trkpt>
      <trkpt lat="48.84986" lon="2.39083">
        <ele>51.400001525879</ele>
        <time>2015-12-28T21:21:47Z</time>
      </trkpt>
      <trkpt lat="48.85" lon="2.39067">
        <ele>52.400001525879</ele>
        <time>2015-12-28T21:21:51Z</time>
      </trkpt>
      <trkpt lat="48.85016" lon="2.39049">
        <ele>53</ele>
        <time>2015-12-28T21:21:54Z</time>
      </trkpt>
      <trkpt lat="48.85019" lon="2.39044">
        <ele>53</ele>
        <time>2015-12-28T21:21:55Z</time>
      </trkpt>
      <trkpt lat="48.85036" lon="2.39034">
        <ele>53</ele>
        <time>2015-12-28T21:21:59Z</time>
      </trkpt>
      <trkpt lat="48.85042" lon="2.39028">
        <ele>53</ele>
        <time>2015-12-28T21:22:00Z</time>
      </trkpt>
      <trkpt lat="48.85057" lon="2.39009">
        <ele>53.599998474121</ele>
        <time>2015-12-28T21:22:04Z</time>
      </trkpt>
      <trkpt lat="48.8506" lon="2.39007">
        <ele>53.79999923706</ele>
        <time>2015-12-28T21:22:05Z</time>
      </trkpt>
      <trkpt lat="48.85071" lon="2.38991">
        <ele>54</ele>
        <time>2015-12-28T21:22:08Z</time>
      </trkpt>
      <trkpt lat="48.85095" lon="2.38978">
        <ele>54.79999923706</ele>
        <time>2015-12-28T21:22:11Z</time>
      </trkpt>
      <trkpt lat="48.85102" lon="2.38973">
        <ele>55.20000076294</ele>
        <time>2015-12-28T21:22:12Z</time>
      </trkpt>
      <trkpt lat="48.85107" lon="2.38968">
        <ele>55.20000076294</ele>
        <time>2015-12-28T21:22:13Z</time>
      </trkpt>
      <trkpt lat="48.85123" lon="2.38951">
        <ele>54.79999923706</ele>
        <time>2015-12-28T21:22:16Z</time>
      </trkpt>
      <trkpt lat="48.8514" lon="2.38939">
        <ele>54.599998474121</ele>
        <time>2015-12-28T21:22:19Z</time>
      </trkpt>
      <trkpt lat="48.85158" lon="2.38925">
        <ele>54.20000076294</ele>
        <time>2015-12-28T21:22:23Z</time>
      </trkpt>
      <trkpt lat="48.85167" lon="2.38918">
        <ele>54</ele>
        <time>2015-12-28T21:22:25Z</time>
      </trkpt>
      <trkpt lat="48.85184" lon="2.38908">
        <ele>53.599998474121</ele>
        <time>2015-12-28T21:22:28Z</time>
      </trkpt>
      <trkpt lat="48.85204" lon="2.38897">
        <ele>52.20000076294</ele>
        <time>2015-12-28T21:22:31Z</time>
      </trkpt>
      <trkpt lat="48.85219" lon="2.389">
        <ele>52.20000076294</ele>
        <time>2015-12-28T21:22:35Z</time>
      </trkpt>
      <trkpt lat="48.85222" lon="2.38901">
        <ele>52.20000076294</ele>
        <time>2015-12-28T21:22:37Z</time>
      </trkpt>
      <trkpt lat="48.85227" lon="2.38895">
        <ele>51.599998474121</ele>
        <time>2015-12-28T21:22:41Z</time>
      </trkpt>
      <trkpt lat="48.8524" lon="2.38874">
        <ele>50</ele>
        <time>2015-12-28T21:22:47Z</time>
      </trkpt>
      <trkpt lat="48.85249" lon="2.3886">
        <ele>49.79999923706</ele>
        <time>2015-12-28T21:22:51Z</time>
      </trkpt>
      <trkpt lat="48.85265" lon="2.3884">
        <ele>50</ele>
        <time>2015-12-28T21:22:58Z</time>
      </trkpt>
      <trkpt lat="48.85279" lon="2.38821">
        <ele>49.20000076294</ele>
        <time>2015-12-28T21:23:03Z</time>
      </trkpt>
      <trkpt lat="48.85296" lon="2.38803">
        <ele>47.400001525879</ele>
        <time>2015-12-28T21:23:07Z</time>
      </trkpt>
      <trkpt lat="48.85313" lon="2.38782">
        <ele>46.20000076294</ele>
        <time>2015-12-28T21:23:11Z</time>
      </trkpt>
      <trkpt lat="48.85325" lon="2.38759">
        <ele>47.79999923706</ele>
        <time>2015-12-28T21:23:15Z</time>
      </trkpt>
      <trkpt lat="48.85337" lon="2.38736">
        <ele>49.400001525879</ele>
        <time>2015-12-28T21:23:19Z</time>
      </trkpt>
      <trkpt lat="48.85352" lon="2.38711">
        <ele>50.599998474121</ele>
        <time>2015-12-28T21:23:23Z</time>
      </trkpt>
      <trkpt lat="48.85365" lon="2.3869">
        <ele>50.79999923706</ele>
        <time>2015-12-28T21:23:27Z</time>
      </trkpt>
      <trkpt lat="48.85377" lon="2.38665">
        <ele>50.599998474121</ele>
        <time>2015-12-28T21:23:31Z</time>
      </trkpt>
      <trkpt lat="48.85394" lon="2.38641">
        <ele>48.20000076294</ele>
        <time>2015-12-28T21:23:35Z</time>
      </trkpt>
      <trkpt lat="48.85412" lon="2.38619">
        <ele>47</ele>
        <time>2015-12-28T21:23:39Z</time>
      </trkpt>
      <trkpt lat="48.85428" lon="2.38594">
        <ele>47</ele>
        <time>2015-12-28T21:23:43Z</time>
      </trkpt>
      <trkpt lat="48.85441" lon="2.38566">
        <ele>46.79999923706</ele>
        <time>2015-12-28T21:23:47Z</time>
      </trkpt>
      <trkpt lat="48.85452" lon="2.38539">
        <ele>46.79999923706</ele>
        <time>2015-12-28T21:23:51Z</time>
      </trkpt>
      <trkpt lat="48.85467" lon="2.3851">
        <ele>47</ele>
        <time>2015-12-28T21:23:55Z</time>
      </trkpt>
      <trkpt lat="48.85479" lon="2.38487">
        <ele>47.400001525879</ele>
        <time>2015-12-28T21:23:58Z</time>
      </trkpt>
      <trkpt lat="48.8549" lon="2.38464">
        <ele>47.79999923706</ele>
        <time>2015-12-28T21:24:01Z</time>
      </trkpt>
      <trkpt lat="48.85503" lon="2.38437">
        <ele>47.79999923706</ele>
        <time>2015-12-28T21:24:04Z</time>
      </trkpt>
      <trkpt lat="48.85518" lon="2.38412">
        <ele>48</ele>
        <time>2015-12-28T21:24:07Z</time>
      </trkpt>
      <trkpt lat="48.85535" lon="2.38386">
        <ele>47.400001525879</ele>
        <time>2015-12-28T21:24:10Z</time>
      </trkpt>
      <trkpt lat="48.85552" lon="2.38361">
        <ele>46.599998474121</ele>
        <time>2015-12-28T21:24:13Z</time>
      </trkpt>
      <trkpt lat="48.85567" lon="2.38333">
        <ele>45.79999923706</ele>
        <time>2015-12-28T21:24:16Z</time>
      </trkpt>
      <trkpt lat="48.85583" lon="2.38308">
        <ele>44.20000076294</ele>
        <time>2015-12-28T21:24:19Z</time>
      </trkpt>
      <trkpt lat="48.85595" lon="2.38287">
        <ele>45</ele>
        <time>2015-12-28T21:24:22Z</time>
      </trkpt>
      <trkpt lat="48.85613" lon="2.38263">
        <ele>46</ele>
        <time>2015-12-28T21:24:25Z</time>
      </trkpt>
      <trkpt lat="48.85625" lon="2.38239">
        <ele>46.599998474121</ele>
        <time>2015-12-28T21:24:28Z</time>
      </trkpt>
      <trkpt lat="48.85639" lon="2.38215">
        <ele>47.599998474121</ele>
        <time>2015-12-28T21:24:31Z</time>
      </trkpt>
      <trkpt lat="48.85652" lon="2.38195">
        <ele>48</ele>
        <time>2015-12-28T21:24:33Z</time>
      </trkpt>
      <trkpt lat="48.85666" lon="2.38167">
        <ele>48</ele>
        <time>2015-12-28T21:24:36Z</time>
      </trkpt>
      <trkpt lat="48.85685" lon="2.38138">
        <ele>47.400001525879</ele>
        <time>2015-12-28T21:24:39Z</time>
      </trkpt>
      <trkpt lat="48.85702" lon="2.38115">
        <ele>46.79999923706</ele>
        <time>2015-12-28T21:24:42Z</time>
      </trkpt>
      <trkpt lat="48.85718" lon="2.38094">
        <ele>46.400001525879</ele>
        <time>2015-12-28T21:24:45Z</time>
      </trkpt>
      <trkpt lat="48.85731" lon="2.38074">
        <ele>46.400001525879</ele>
        <time>2015-12-28T21:24:48Z</time>
      </trkpt>
      <trkpt lat="48.85743" lon="2.3805">
        <ele>46.20000076294</ele>
        <time>2015-12-28T21:24:52Z</time>
      </trkpt>
      <trkpt lat="48.85755" lon="2.38036">
        <ele>45.599998474121</ele>
        <time>2015-12-28T21:24:57Z</time>
      </trkpt>
      <trkpt lat="48.85758" lon="2.38035">
        <ele>45.599998474121</ele>
        <time>2015-12-28T21:25:01Z</time>
      </trkpt>
      <trkpt lat="48.85776" lon="2.38037">
        <ele>45.400001525879</ele>
        <time>2015-12-28T21:25:32Z</time>
      </trkpt>
      <trkpt lat="48.85792" lon="2.38025">
        <ele>45</ele>
        <time>2015-12-28T21:25:44Z</time>
      </trkpt>
      <trkpt lat="48.85794" lon="2.38014">
        <ele>44.599998474121</ele>
        <time>2015-12-28T21:25:46Z</time>
      </trkpt>
      <trkpt lat="48.85797" lon="2.37983">
        <ele>43.79999923706</ele>
        <time>2015-12-28T21:25:50Z</time>
      </trkpt>
      <trkpt lat="48.85802" lon="2.37963">
        <ele>43.599998474121</ele>
        <time>2015-12-28T21:25:53Z</time>
      </trkpt>
      <trkpt lat="48.85818" lon="2.37936">
        <ele>44.20000076294</ele>
        <time>2015-12-28T21:25:57Z</time>
      </trkpt>
      <trkpt lat="48.85833" lon="2.37913">
        <ele>45.20000076294</ele>
        <time>2015-12-28T21:26:00Z</time>
      </trkpt>
      <trkpt lat="48.85846" lon="2.3789">
        <ele>45.79999923706</ele>
        <time>2015-12-28T21:26:03Z</time>
      </trkpt>
      <trkpt lat="48.85859" lon="2.37868">
        <ele>46</ele>
        <time>2015-12-28T21:26:06Z</time>
      </trkpt>
      <trkpt lat="48.85873" lon="2.37845">
        <ele>46.400001525879</ele>
        <time>2015-12-28T21:26:09Z</time>
      </trkpt>
      <trkpt lat="48.85886" lon="2.37822">
        <ele>46.20000076294</ele>
        <time>2015-12-28T21:26:12Z</time>
      </trkpt>
      <trkpt lat="48.85898" lon="2.37802">
        <ele>46.20000076294</ele>
        <time>2015-12-28T21:26:15Z</time>
      </trkpt>
      <trkpt lat="48.85909" lon="2.37779">
        <ele>46.20000076294</ele>
        <time>2015-12-28T21:26:18Z</time>
      </trkpt>
      <trkpt lat="48.85922" lon="2.37757">
        <ele>46.599998474121</ele>
        <time>2015-12-28T21:26:21Z</time>
      </trkpt>
      <trkpt lat="48.85936" lon="2.37735">
        <ele>46.400001525879</ele>
        <time>2015-12-28T21:26:24Z</time>
      </trkpt>
      <trkpt lat="48.85953" lon="2.37707">
        <ele>46</ele>
        <time>2015-12-28T21:26:27Z</time>
      </trkpt>
      <trkpt lat="48.85967" lon="2.3768">
        <ele>45.599998474121</ele>
        <time>2015-12-28T21:26:30Z</time>
      </trkpt>
      <trkpt lat="48.85981" lon="2.37653">
        <ele>45.79999923706</ele>
        <time>2015-12-28T21:26:33Z</time>
      </trkpt>
      <trkpt lat="48.85997" lon="2.37628">
        <ele>46</ele>
        <time>2015-12-28T21:26:36Z</time>
      </trkpt>
      <trkpt lat="48.86013" lon="2.37604">
        <ele>46.599998474121</ele>
        <time>2015-12-28T21:26:39Z</time>
      </trkpt>
      <trkpt lat="48.86029" lon="2.37581">
        <ele>46.79999923706</ele>
        <time>2015-12-28T21:26:42Z</time>
      </trkpt>
      <trkpt lat="48.86047" lon="2.37565">
        <ele>45.20000076294</ele>
        <time>2015-12-28T21:26:45Z</time>
      </trkpt>
      <trkpt lat="48.8606" lon="2.37546">
        <ele>44</ele>
        <time>2015-12-28T21:26:48Z</time>
      </trkpt>
      <trkpt lat="48.86061" lon="2.37541">
        <ele>43.79999923706</ele>
        <time>2015-12-28T21:26:49Z</time>
      </trkpt>
      <trkpt lat="48.86072" lon="2.37512">
        <ele>43</ele>
        <time>2015-12-28T21:26:54Z</time>
      </trkpt>
      <trkpt lat="48.86081" lon="2.37495">
        <ele>42.599998474121</ele>
        <time>2015-12-28T21:26:57Z</time>
      </trkpt>
      <trkpt lat="48.86087" lon="2.37484">
        <ele>42.20000076294</ele>
        <time>2015-12-28T21:26:59Z</time>
      </trkpt>
      <trkpt lat="48.86103" lon="2.37459">
        <ele>42.79999923706</ele>
        <time>2015-12-28T21:27:03Z</time>
      </trkpt>
      <trkpt lat="48.86115" lon="2.37438">
        <ele>43.79999923706</ele>
        <time>2015-12-28T21:27:06Z</time>
      </trkpt>
      <trkpt lat="48.86128" lon="2.37413">
        <ele>44.20000076294</ele>
        <time>2015-12-28T21:27:09Z</time>
      </trkpt>
      <trkpt lat="48.86142" lon="2.37387">
        <ele>44.79999923706</ele>
        <time>2015-12-28T21:27:12Z</time>
      </trkpt>
      <trkpt lat="48.86158" lon="2.3736">
        <ele>45.599998474121</ele>
        <time>2015-12-28T21:27:15Z</time>
      </trkpt>
      <trkpt lat="48.86172" lon="2.37337">
        <ele>46.400001525879</ele>
        <time>2015-12-28T21:27:18Z</time>
      </trkpt>
      <trkpt lat="48.86188" lon="2.37314">
        <ele>46.599998474121</ele>
        <time>2015-12-28T21:27:21Z</time>
      </trkpt>
      <trkpt lat="48.86204" lon="2.37294">
        <ele>46</ele>
        <time>2015-12-28T21:27:25Z</time>
      </trkpt>
      <trkpt lat="48.86207" lon="2.37288">
        <ele>45.79999923706</ele>
        <time>2015-12-28T21:27:26Z</time>
      </trkpt>
      <trkpt lat="48.86218" lon="2.37262">
        <ele>45.20000076294</ele>
        <time>2015-12-28T21:27:30Z</time>
      </trkpt>
      <trkpt lat="48.86219" lon="2.37256">
        <ele>45</ele>
        <time>2015-12-28T21:27:31Z</time>
      </trkpt>
      <trkpt lat="48.86233" lon="2.37232">
        <ele>44.79999923706</ele>
        <time>2015-12-28T21:27:35Z</time>
      </trkpt>
      <trkpt lat="48.86245" lon="2.37208">
        <ele>44.599998474121</ele>
        <time>2015-12-28T21:27:39Z</time>
      </trkpt>
      <trkpt lat="48.86256" lon="2.37193">
        <ele>44.400001525879</ele>
        <time>2015-12-28T21:27:42Z</time>
      </trkpt>
      <trkpt lat="48.8627" lon="2.37169">
        <ele>44</ele>
        <time>2015-12-28T21:27:46Z</time>
      </trkpt>
      <trkpt lat="48.8629" lon="2.37142">
        <ele>43.79999923706</ele>
        <time>2015-12-28T21:27:50Z</time>
      </trkpt>
      <trkpt lat="48.86305" lon="2.37121">
        <ele>43.400001525879</ele>
        <time>2015-12-28T21:27:53Z</time>
      </trkpt>
      <trkpt lat="48.86316" lon="2.37099">
        <ele>43.599998474121</ele>
        <time>2015-12-28T21:27:56Z</time>
      </trkpt>
      <trkpt lat="48.86329" lon="2.3708">
        <ele>43.599998474121</ele>
        <time>2015-12-28T21:27:59Z</time>
      </trkpt>
      <trkpt lat="48.86343" lon="2.37058">
        <ele>44</ele>
        <time>2015-12-28T21:28:02Z</time>
      </trkpt>
      <trkpt lat="48.86355" lon="2.37035">
        <ele>45</ele>
        <time>2015-12-28T21:28:06Z</time>
      </trkpt>
      <trkpt lat="48.86367" lon="2.37017">
        <ele>45.20000076294</ele>
        <time>2015-12-28T21:28:13Z</time>
      </trkpt>
      <trkpt lat="48.86376" lon="2.37008">
        <ele>45.20000076294</ele>
        <time>2015-12-28T21:28:18Z</time>
      </trkpt>
      <trkpt lat="48.86383" lon="2.37001">
        <ele>45.20000076294</ele>
        <time>2015-12-28T21:28:20Z</time>
      </trkpt>
      <trkpt lat="48.86386" lon="2.36996">
        <ele>45.20000076294</ele>
        <time>2015-12-28T21:28:22Z</time>
      </trkpt>
      <trkpt lat="48.86394" lon="2.3698">
        <ele>44.79999923706</ele>
        <time>2015-12-28T21:28:27Z</time>
      </trkpt>
      <trkpt lat="48.86396" lon="2.36971">
        <ele>44.79999923706</ele>
        <time>2015-12-28T21:28:31Z</time>
      </trkpt>
      <trkpt lat="48.86397" lon="2.36968">
        <ele>44.599998474121</ele>
        <time>2015-12-28T21:28:32Z</time>
      </trkpt>
      <trkpt lat="48.864" lon="2.36958">
        <ele>44.400001525879</ele>
        <time>2015-12-28T21:28:34Z</time>
      </trkpt>
      <trkpt lat="48.86412" lon="2.36931">
        <ele>45.20000076294</ele>
        <time>2015-12-28T21:28:39Z</time>
      </trkpt>
      <trkpt lat="48.86422" lon="2.36908">
        <ele>45.599998474121</ele>
        <time>2015-12-28T21:28:43Z</time>
      </trkpt>
      <trkpt lat="48.86434" lon="2.36883">
        <ele>45.79999923706</ele>
        <time>2015-12-28T21:28:47Z</time>
      </trkpt>
      <trkpt lat="48.86441" lon="2.36872">
        <ele>46</ele>
        <time>2015-12-28T21:28:49Z</time>
      </trkpt>
      <trkpt lat="48.86452" lon="2.3685">
        <ele>46.20000076294</ele>
        <time>2015-12-28T21:28:52Z</time>
      </trkpt>
      <trkpt lat="48.8647" lon="2.36816">
        <ele>46.79999923706</ele>
        <time>2015-12-28T21:28:56Z</time>
      </trkpt>
      <trkpt lat="48.86486" lon="2.36794">
        <ele>47.20000076294</ele>
        <time>2015-12-28T21:28:59Z</time>
      </trkpt>
      <trkpt lat="48.86503" lon="2.36777">
        <ele>46.79999923706</ele>
        <time>2015-12-28T21:29:02Z</time>
      </trkpt>
      <trkpt lat="48.86516" lon="2.36757">
        <ele>46.20000076294</ele>
        <time>2015-12-28T21:29:05Z</time>
      </trkpt>
      <trkpt lat="48.86529" lon="2.36736">
        <ele>46</ele>
        <time>2015-12-28T21:29:08Z</time>
      </trkpt>
      <trkpt lat="48.86546" lon="2.36709">
        <ele>45.79999923706</ele>
        <time>2015-12-28T21:29:12Z</time>
      </trkpt>
      <trkpt lat="48.86562" lon="2.36685">
        <ele>45.79999923706</ele>
        <time>2015-12-28T21:29:14Z</time>
      </trkpt>
      <trkpt lat="48.86576" lon="2.36659">
        <ele>45.79999923706</ele>
        <time>2015-12-28T21:29:18Z</time>
      </trkpt>
      <trkpt lat="48.86597" lon="2.36632">
        <ele>46.400001525879</ele>
        <time>2015-12-28T21:29:21Z</time>
      </trkpt>
      <trkpt lat="48.86601" lon="2.36626">
        <ele>46.400001525879</ele>
        <time>2015-12-28T21:29:22Z</time>
      </trkpt>
      <trkpt lat="48.86611" lon="2.36604">
        <ele>46.599998474121</ele>
        <time>2015-12-28T21:29:25Z</time>
      </trkpt>
      <trkpt lat="48.86624" lon="2.36584">
        <ele>46.400001525879</ele>
        <time>2015-12-28T21:29:28Z</time>
      </trkpt>
      <trkpt lat="48.8664" lon="2.36559">
        <ele>46</ele>
        <time>2015-12-28T21:29:32Z</time>
      </trkpt>
      <trkpt lat="48.86654" lon="2.36539">
        <ele>45.400001525879</ele>
        <time>2015-12-28T21:29:37Z</time>
      </trkpt>
      <trkpt lat="48.8666" lon="2.36529">
        <ele>44.400001525879</ele>
        <time>2015-12-28T21:29:39Z</time>
      </trkpt>
      <trkpt lat="48.86669" lon="2.3652">
        <ele>43</ele>
        <time>2015-12-28T21:29:58Z</time>
      </trkpt>
      <trkpt lat="48.86674" lon="2.36517">
        <ele>42.400001525879</ele>
        <time>2015-12-28T21:30:02Z</time>
      </trkpt>
      <trkpt lat="48.8668" lon="2.36506">
        <ele>41.20000076294</ele>
        <time>2015-12-28T21:30:05Z</time>
      </trkpt>
      <trkpt lat="48.86691" lon="2.36492">
        <ele>40.20000076294</ele>
        <time>2015-12-28T21:30:10Z</time>
      </trkpt>
      <trkpt lat="48.867" lon="2.3647">
        <ele>41.20000076294</ele>
        <time>2015-12-28T21:30:26Z</time>
      </trkpt>
      <trkpt lat="48.86704" lon="2.3646">
        <ele>41.599998474121</ele>
        <time>2015-12-28T21:30:32Z</time>
      </trkpt>
      <trkpt lat="48.86707" lon="2.36429">
        <ele>42.599998474121</ele>
        <time>2015-12-28T21:30:50Z</time>
      </trkpt>
      <trkpt lat="48.86716" lon="2.3642">
        <ele>41.79999923706</ele>
        <time>2015-12-28T21:30:57Z</time>
      </trkpt>
      <trkpt lat="48.86717" lon="2.3642">
        <ele>41.79999923706</ele>
        <time>2015-12-28T21:31:00Z</time>
      </trkpt>
      <trkpt lat="48.86737" lon="2.36409">
        <ele>41.20000076294</ele>
        <time>2015-12-28T21:31:11Z</time>
      </trkpt>
      <trkpt lat="48.86737" lon="2.36402">
        <ele>41.599998474121</ele>
        <time>2015-12-28T21:31:14Z</time>
      </trkpt>
      <trkpt lat="48.86736" lon="2.36396">
        <ele>42.20000076294</ele>
        <time>2015-12-28T21:31:17Z</time>
      </trkpt>
      <trkpt lat="48.86734" lon="2.36368">
        <ele>43.79999923706</ele>
        <time>2015-12-28T21:31:30Z</time>
      </trkpt>
      <trkpt lat="48.86739" lon="2.36354">
        <ele>43.599998474121</ele>
        <time>2015-12-28T21:31:39Z</time>
      </trkpt>
      <trkpt lat="48.86743" lon="2.36328">
        <ele>43.79999923706</ele>
        <time>2015-12-28T21:32:06Z</time>
      </trkpt>
      <trkpt lat="48.86735" lon="2.36299">
        <ele>43.79999923706</ele>
        <time>2015-12-28T21:32:14Z</time>
      </trkpt>
      <trkpt lat="48.86724" lon="2.36274">
        <ele>45.20000076294</ele>
        <time>2015-12-28T21:32:19Z</time>
      </trkpt>
      <trkpt lat="48.86714" lon="2.3625">
        <ele>46.79999923706</ele>
        <time>2015-12-28T21:32:23Z</time>
      </trkpt>
      <trkpt lat="48.86704" lon="2.36225">
        <ele>46.79999923706</ele>
        <time>2015-12-28T21:32:28Z</time>
      </trkpt>
      <trkpt lat="48.86694" lon="2.36201">
        <ele>46.400001525879</ele>
        <time>2015-12-28T21:32:32Z</time>
      </trkpt>
      <trkpt lat="48.86684" lon="2.36173">
        <ele>46</ele>
        <time>2015-12-28T21:32:36Z</time>
      </trkpt>
      <trkpt lat="48.86677" lon="2.36144">
        <ele>45.599998474121</ele>
        <time>2015-12-28T21:32:40Z</time>
      </trkpt>
      <trkpt lat="48.8667" lon="2.36115">
        <ele>45.20000076294</ele>
        <time>2015-12-28T21:32:44Z</time>
      </trkpt>
      <trkpt lat="48.86658" lon="2.36084">
        <ele>44.79999923706</ele>
        <time>2015-12-28T21:32:47Z</time>
      </trkpt>
      <trkpt lat="48.86648" lon="2.36056">
        <ele>44.79999923706</ele>
        <time>2015-12-28T21:32:49Z</time>
      </trkpt>
      <trkpt lat="48.86639" lon="2.36032">
        <ele>44.79999923706</ele>
        <time>2015-12-28T21:32:51Z</time>
      </trkpt>
      <trkpt lat="48.86633" lon="2.35998">
        <ele>44</ele>
        <time>2015-12-28T21:32:54Z</time>
      </trkpt>
      <trkpt lat="48.86628" lon="2.3596">
        <ele>44.400001525879</ele>
        <time>2015-12-28T21:32:57Z</time>
      </trkpt>
      <trkpt lat="48.86621" lon="2.35924">
        <ele>44.79999923706</ele>
        <time>2015-12-28T21:33:00Z</time>
      </trkpt>
      <trkpt lat="48.86616" lon="2.3589">
        <ele>44.400001525879</ele>
        <time>2015-12-28T21:33:03Z</time>
      </trkpt>
      <trkpt lat="48.8661" lon="2.35857">
        <ele>44.20000076294</ele>
        <time>2015-12-28T21:33:06Z</time>
      </trkpt>
      <trkpt lat="48.86604" lon="2.35827">
        <ele>44</ele>
        <time>2015-12-28T21:33:09Z</time>
      </trkpt>
      <trkpt lat="48.86597" lon="2.358">
        <ele>44.400001525879</ele>
        <time>2015-12-28T21:33:12Z</time>
      </trkpt>
      <trkpt lat="48.86591" lon="2.35771">
        <ele>44.79999923706</ele>
        <time>2015-12-28T21:33:15Z</time>
      </trkpt>
      <trkpt lat="48.8658" lon="2.35742">
        <ele>45</ele>
        <time>2015-12-28T21:33:18Z</time>
      </trkpt>
      <trkpt lat="48.86572" lon="2.35715">
        <ele>45.400001525879</ele>
        <time>2015-12-28T21:33:21Z</time>
      </trkpt>
      <trkpt lat="48.86561" lon="2.35684">
        <ele>45</ele>
        <time>2015-12-28T21:33:25Z</time>
      </trkpt>
      <trkpt lat="48.8656" lon="2.35677">
        <ele>45</ele>
        <time>2015-12-28T21:33:26Z</time>
      </trkpt>
      <trkpt lat="48.86556" lon="2.3565">
        <ele>44.79999923706</ele>
        <time>2015-12-28T21:33:31Z</time>
      </trkpt>
      <trkpt lat="48.86553" lon="2.35638">
        <ele>45</ele>
        <time>2015-12-28T21:33:35Z</time>
      </trkpt>
      <trkpt lat="48.86549" lon="2.35628">
        <ele>45</ele>
        <time>2015-12-28T21:33:41Z</time>
      </trkpt>
      <trkpt lat="48.86547" lon="2.35625">
        <ele>45.20000076294</ele>
        <time>2015-12-28T21:33:43Z</time>
      </trkpt>
      <trkpt lat="48.86548" lon="2.35624">
        <ele>45</ele>
        <time>2015-12-28T21:33:46Z</time>
      </trkpt>
      <trkpt lat="48.86543" lon="2.35596">
        <ele>45.20000076294</ele>
        <time>2015-12-28T21:34:04Z</time>
      </trkpt>
      <trkpt lat="48.8654" lon="2.35583">
        <ele>45</ele>
        <time>2015-12-28T21:34:09Z</time>
      </trkpt>
      <trkpt lat="48.86522" lon="2.35576">
        <ele>46.20000076294</ele>
        <time>2015-12-28T21:34:25Z</time>
      </trkpt>
      <trkpt lat="48.86502" lon="2.35568">
        <ele>45.79999923706</ele>
        <time>2015-12-28T21:34:33Z</time>
      </trkpt>
      <trkpt lat="48.86485" lon="2.35559">
        <ele>45.599998474121</ele>
        <time>2015-12-28T21:34:41Z</time>
      </trkpt>
      <trkpt lat="48.86467" lon="2.35551">
        <ele>45.400001525879</ele>
        <time>2015-12-28T21:34:46Z</time>
      </trkpt>
      <trkpt lat="48.8645" lon="2.35535">
        <ele>45.20000076294</ele>
        <time>2015-12-28T21:34:49Z</time>
      </trkpt>
      <trkpt lat="48.86431" lon="2.35529">
        <ele>44.79999923706</ele>
        <time>2015-12-28T21:34:56Z</time>
      </trkpt>
      <trkpt lat="48.86411" lon="2.35521">
        <ele>44.599998474121</ele>
        <time>2015-12-28T21:35:05Z</time>
      </trkpt>
      <trkpt lat="48.86392" lon="2.35512">
        <ele>44.400001525879</ele>
        <time>2015-12-28T21:35:11Z</time>
      </trkpt>
      <trkpt lat="48.86374" lon="2.35504">
        <ele>44.20000076294</ele>
        <time>2015-12-28T21:35:16Z</time>
      </trkpt>
      <trkpt lat="48.86352" lon="2.35488">
        <ele>44.20000076294</ele>
        <time>2015-12-28T21:35:20Z</time>
      </trkpt>
      <trkpt lat="48.86329" lon="2.35468">
        <ele>44.599998474121</ele>
        <time>2015-12-28T21:35:24Z</time>
      </trkpt>
      <trkpt lat="48.86311" lon="2.35454">
        <ele>45.20000076294</ele>
        <time>2015-12-28T21:35:26Z</time>
      </trkpt>
      <trkpt lat="48.86294" lon="2.35443">
        <ele>45.599998474121</ele>
        <time>2015-12-28T21:35:28Z</time>
      </trkpt>
      <trkpt lat="48.86271" lon="2.35428">
        <ele>46.20000076294</ele>
        <time>2015-12-28T21:35:31Z</time>
      </trkpt>
      <trkpt lat="48.86252" lon="2.35414">
        <ele>46.20000076294</ele>
        <time>2015-12-28T21:35:34Z</time>
      </trkpt>
      <trkpt lat="48.86252" lon="2.35412">
        <ele>46.20000076294</ele>
        <time>2015-12-28T21:35:35Z</time>
      </trkpt>
      <trkpt lat="48.86234" lon="2.354">
        <ele>46.79999923706</ele>
        <time>2015-12-28T21:35:39Z</time>
      </trkpt>
      <trkpt lat="48.86216" lon="2.35392">
        <ele>47.20000076294</ele>
        <time>2015-12-28T21:35:41Z</time>
      </trkpt>
      <trkpt lat="48.86213" lon="2.35389">
        <ele>47.400001525879</ele>
        <time>2015-12-28T21:35:42Z</time>
      </trkpt>
      <trkpt lat="48.86194" lon="2.35378">
        <ele>47.79999923706</ele>
        <time>2015-12-28T21:35:45Z</time>
      </trkpt>
      <trkpt lat="48.86184" lon="2.35372">
        <ele>48.400001525879</ele>
        <time>2015-12-28T21:35:46Z</time>
      </trkpt>
      <trkpt lat="48.86163" lon="2.3536">
        <ele>50.599998474121</ele>
        <time>2015-12-28T21:35:48Z</time>
      </trkpt>
      <trkpt lat="48.86152" lon="2.35355">
        <ele>51.599998474121</ele>
        <time>2015-12-28T21:35:49Z</time>
      </trkpt>
      <trkpt lat="48.86129" lon="2.35341">
        <ele>53.79999923706</ele>
        <time>2015-12-28T21:35:51Z</time>
      </trkpt>
      <trkpt lat="48.86105" lon="2.35329">
        <ele>56</ele>
        <time>2015-12-28T21:35:54Z</time>
      </trkpt>
      <trkpt lat="48.86092" lon="2.35327">
        <ele>55.20000076294</ele>
        <time>2015-12-28T21:35:56Z</time>
      </trkpt>
      <trkpt lat="48.86079" lon="2.35324">
        <ele>54.400001525879</ele>
        <time>2015-12-28T21:35:58Z</time>
      </trkpt>
      <trkpt lat="48.86067" lon="2.35317">
        <ele>53.79999923706</ele>
        <time>2015-12-28T21:36:00Z</time>
      </trkpt>
      <trkpt lat="48.86043" lon="2.35306">
        <ele>52.599998474121</ele>
        <time>2015-12-28T21:36:03Z</time>
      </trkpt>
      <trkpt lat="48.86036" lon="2.35304">
        <ele>52.20000076294</ele>
        <time>2015-12-28T21:36:04Z</time>
      </trkpt>
      <trkpt lat="48.86029" lon="2.35299">
        <ele>52</ele>
        <time>2015-12-28T21:36:05Z</time>
      </trkpt>
      <trkpt lat="48.86017" lon="2.35291">
        <ele>51.400001525879</ele>
        <time>2015-12-28T21:36:07Z</time>
      </trkpt>
      <trkpt lat="48.86001" lon="2.35278">
        <ele>50.79999923706</ele>
        <time>2015-12-28T21:36:10Z</time>
      </trkpt>
      <trkpt lat="48.85996" lon="2.35275">
        <ele>50.400001525879</ele>
        <time>2015-12-28T21:36:11Z</time>
      </trkpt>
      <trkpt lat="48.85971" lon="2.35266">
        <ele>48.79999923706</ele>
        <time>2015-12-28T21:36:15Z</time>
      </trkpt>
      <trkpt lat="48.85964" lon="2.35263">
        <ele>48.400001525879</ele>
        <time>2015-12-28T21:36:16Z</time>
      </trkpt>
      <trkpt lat="48.85941" lon="2.35251">
        <ele>47</ele>
        <time>2015-12-28T21:36:21Z</time>
      </trkpt>
      <trkpt lat="48.85916" lon="2.35236">
        <ele>47.599998474121</ele>
        <time>2015-12-28T21:36:23Z</time>
      </trkpt>
      <trkpt lat="48.85892" lon="2.35222">
        <ele>48</ele>
        <time>2015-12-28T21:36:26Z</time>
      </trkpt>
      <trkpt lat="48.85874" lon="2.35211">
        <ele>48.400001525879</ele>
        <time>2015-12-28T21:36:28Z</time>
      </trkpt>
      <trkpt lat="48.85855" lon="2.352">
        <ele>48.79999923706</ele>
        <time>2015-12-28T21:36:31Z</time>
      </trkpt>
      <trkpt lat="48.85849" lon="2.35198">
        <ele>48.20000076294</ele>
        <time>2015-12-28T21:36:33Z</time>
      </trkpt>
      <trkpt lat="48.85836" lon="2.35192">
        <ele>47</ele>
        <time>2015-12-28T21:36:37Z</time>
      </trkpt>
      <trkpt lat="48.85825" lon="2.35188">
        <ele>46</ele>
        <time>2015-12-28T21:36:40Z</time>
      </trkpt>
      <trkpt lat="48.85808" lon="2.35182">
        <ele>44.400001525879</ele>
        <time>2015-12-28T21:36:44Z</time>
      </trkpt>
      <trkpt lat="48.85771" lon="2.35168">
        <ele>41.20000076294</ele>
        <time>2015-12-28T21:36:48Z</time>
      </trkpt>
      <trkpt lat="48.85755" lon="2.35165">
        <ele>40.599998474121</ele>
        <time>2015-12-28T21:36:50Z</time>
      </trkpt>
      <trkpt lat="48.85738" lon="2.35141">
        <ele>39.599998474121</ele>
        <time>2015-12-28T21:36:54Z</time>
      </trkpt>
      <trkpt lat="48.85737" lon="2.35128">
        <ele>39.400001525879</ele>
        <time>2015-12-28T21:36:56Z</time>
      </trkpt>
      <trkpt lat="48.85737" lon="2.35116">
        <ele>40</ele>
        <time>2015-12-28T21:36:58Z</time>
      </trkpt>
      <trkpt lat="48.85739" lon="2.35087">
        <ele>41.400001525879</ele>
        <time>2015-12-28T21:37:03Z</time>
      </trkpt>
      <trkpt lat="48.8575" lon="2.35054">
        <ele>44.20000076294</ele>
        <time>2015-12-28T21:37:08Z</time>
      </trkpt>
      <trkpt lat="48.85756" lon="2.35043">
        <ele>45</ele>
        <time>2015-12-28T21:37:11Z</time>
      </trkpt>
      <trkpt lat="48.85773" lon="2.35012">
        <ele>47.599998474121</ele>
        <time>2015-12-28T21:37:16Z</time>
      </trkpt>
      <trkpt lat="48.85776" lon="2.35007">
        <ele>47.79999923706</ele>
        <time>2015-12-28T21:37:18Z</time>
      </trkpt>
      <trkpt lat="48.85789" lon="2.34981">
        <ele>46.400001525879</ele>
        <time>2015-12-28T21:37:22Z</time>
      </trkpt>
      <trkpt lat="48.85797" lon="2.3496">
        <ele>44.599998474121</ele>
        <time>2015-12-28T21:37:24Z</time>
      </trkpt>
      <trkpt lat="48.85808" lon="2.34932">
        <ele>43.79999923706</ele>
        <time>2015-12-28T21:37:29Z</time>
      </trkpt>
      <trkpt lat="48.8581" lon="2.34917">
        <ele>44.20000076294</ele>
        <time>2015-12-28T21:37:31Z</time>
      </trkpt>
      <trkpt lat="48.85819" lon="2.34886">
        <ele>43.79999923706</ele>
        <time>2015-12-28T21:37:34Z</time>
      </trkpt>
      <trkpt lat="48.85831" lon="2.3485">
        <ele>45</ele>
        <time>2015-12-28T21:37:39Z</time>
      </trkpt>
      <trkpt lat="48.85836" lon="2.34828">
        <ele>45.599998474121</ele>
        <time>2015-12-28T21:37:44Z</time>
      </trkpt>
      <trkpt lat="48.85845" lon="2.34799">
        <ele>46.599998474121</ele>
        <time>2015-12-28T21:37:49Z</time>
      </trkpt>
      <trkpt lat="48.85849" lon="2.34794">
        <ele>47</ele>
        <time>2015-12-28T21:37:50Z</time>
      </trkpt>
      <trkpt lat="48.85861" lon="2.34769">
        <ele>47.20000076294</ele>
        <time>2015-12-28T21:37:54Z</time>
      </trkpt>
      <trkpt lat="48.85871" lon="2.34748">
        <ele>46.400001525879</ele>
        <time>2015-12-28T21:37:58Z</time>
      </trkpt>
      <trkpt lat="48.85878" lon="2.34738">
        <ele>46.400001525879</ele>
        <time>2015-12-28T21:38:01Z</time>
      </trkpt>
      <trkpt lat="48.85892" lon="2.34722">
        <ele>46.400001525879</ele>
        <time>2015-12-28T21:38:06Z</time>
      </trkpt>
      <trkpt lat="48.85895" lon="2.34719">
        <ele>46.20000076294</ele>
        <time>2015-12-28T21:38:08Z</time>
      </trkpt>
      <trkpt lat="48.85908" lon="2.34698">
        <ele>46.599998474121</ele>
        <time>2015-12-28T21:38:15Z</time>
      </trkpt>
      <trkpt lat="48.85915" lon="2.34694">
        <ele>46.400001525879</ele>
        <time>2015-12-28T21:38:18Z</time>
      </trkpt>
      <trkpt lat="48.85931" lon="2.34713">
        <ele>45.400001525879</ele>
        <time>2015-12-28T21:38:26Z</time>
      </trkpt>
      <trkpt lat="48.8595" lon="2.34721">
        <ele>45</ele>
        <time>2015-12-28T21:38:35Z</time>
      </trkpt>
      <trkpt lat="48.85952" lon="2.3472">
        <ele>45.20000076294</ele>
        <time>2015-12-28T21:38:38Z</time>
      </trkpt>
      <trkpt lat="48.85957" lon="2.34713">
        <ele>45.400001525879</ele>
        <time>2015-12-28T21:39:01Z</time>
      </trkpt>
      <trkpt lat="48.85961" lon="2.34709">
        <ele>45.599998474121</ele>
        <time>2015-12-28T21:39:21Z</time>
      </trkpt>
      <trkpt lat="48.85961" lon="2.34708">
        <ele>45.79999923706</ele>
        <time>2015-12-28T21:39:23Z</time>
      </trkpt>
    </trkseg>
  </trk>
  <trk>
    <name><![CDATA[lundi 2015 12 14]]></name>
    <extensions>
      <line xmlns="http://www.topografix.com/GPX/gpx_style/0/2">
        <color>000000</color>
      </line>
    </extensions>
    <trkseg>
      <trkpt lat="48.85734" lon="2.34735">
        <ele>40.400001525879</ele>
        <time>2015-12-14T19:21:13Z</time>
      </trkpt>
      <trkpt lat="48.85747" lon="2.34743">
        <ele>40.400001525879</ele>
        <time>2015-12-14T19:21:32Z</time>
      </trkpt>
      <trkpt lat="48.85763" lon="2.3473">
        <ele>39.79999923706</ele>
        <time>2015-12-14T19:21:39Z</time>
      </trkpt>
      <trkpt lat="48.85779" lon="2.34721">
        <ele>39.599998474121</ele>
        <time>2015-12-14T19:21:45Z</time>
      </trkpt>
      <trkpt lat="48.85798" lon="2.34726">
        <ele>41.400001525879</ele>
        <time>2015-12-14T19:21:52Z</time>
      </trkpt>
      <trkpt lat="48.85819" lon="2.34727">
        <ele>43.20000076294</ele>
        <time>2015-12-14T19:21:58Z</time>
      </trkpt>
      <trkpt lat="48.85839" lon="2.34726">
        <ele>45.20000076294</ele>
        <time>2015-12-14T19:22:05Z</time>
      </trkpt>
      <trkpt lat="48.85858" lon="2.34728">
        <ele>47.400001525879</ele>
        <time>2015-12-14T19:22:14Z</time>
      </trkpt>
      <trkpt lat="48.85876" lon="2.34719">
        <ele>47</ele>
        <time>2015-12-14T19:22:21Z</time>
      </trkpt>
      <trkpt lat="48.85888" lon="2.34696">
        <ele>47</ele>
        <time>2015-12-14T19:22:30Z</time>
      </trkpt>
      <trkpt lat="48.85896" lon="2.34668">
        <ele>48</ele>
        <time>2015-12-14T19:22:37Z</time>
      </trkpt>
      <trkpt lat="48.85907" lon="2.34642">
        <ele>48.20000076294</ele>
        <time>2015-12-14T19:22:44Z</time>
      </trkpt>
      <trkpt lat="48.85916" lon="2.34613">
        <ele>49.400001525879</ele>
        <time>2015-12-14T19:22:51Z</time>
      </trkpt>
      <trkpt lat="48.85924" lon="2.34584">
        <ele>50.79999923706</ele>
        <time>2015-12-14T19:22:57Z</time>
      </trkpt>
      <trkpt lat="48.85934" lon="2.34555">
        <ele>50.79999923706</ele>
        <time>2015-12-14T19:23:02Z</time>
      </trkpt>
      <trkpt lat="48.85939" lon="2.34527">
        <ele>51</ele>
        <time>2015-12-14T19:23:07Z</time>
      </trkpt>
      <trkpt lat="48.85946" lon="2.34497">
        <ele>51.20000076294</ele>
        <time>2015-12-14T19:23:12Z</time>
      </trkpt>
      <trkpt lat="48.85967" lon="2.34469">
        <ele>52</ele>
        <time>2015-12-14T19:23:16Z</time>
      </trkpt>
      <trkpt lat="48.85979" lon="2.34448">
        <ele>52.599998474121</ele>
        <time>2015-12-14T19:23:19Z</time>
      </trkpt>
      <trkpt lat="48.85988" lon="2.34418">
        <ele>53.20000076294</ele>
        <time>2015-12-14T19:23:23Z</time>
      </trkpt>
      <trkpt lat="48.85998" lon="2.34395">
        <ele>53.599998474121</ele>
        <time>2015-12-14T19:23:27Z</time>
      </trkpt>
      <trkpt lat="48.86005" lon="2.34373">
        <ele>53.599998474121</ele>
        <time>2015-12-14T19:23:30Z</time>
      </trkpt>
      <trkpt lat="48.86009" lon="2.34343">
        <ele>53.20000076294</ele>
        <time>2015-12-14T19:23:34Z</time>
      </trkpt>
      <trkpt lat="48.86016" lon="2.34309">
        <ele>52.20000076294</ele>
        <time>2015-12-14T19:23:38Z</time>
      </trkpt>
      <trkpt lat="48.86025" lon="2.34277">
        <ele>49.79999923706</ele>
        <time>2015-12-14T19:23:42Z</time>
      </trkpt>
      <trkpt lat="48.86034" lon="2.34246">
        <ele>48.20000076294</ele>
        <time>2015-12-14T19:23:46Z</time>
      </trkpt>
      <trkpt lat="48.86042" lon="2.34216">
        <ele>48.20000076294</ele>
        <time>2015-12-14T19:23:50Z</time>
      </trkpt>
      <trkpt lat="48.86054" lon="2.34187">
        <ele>48.20000076294</ele>
        <time>2015-12-14T19:23:54Z</time>
      </trkpt>
      <trkpt lat="48.86064" lon="2.3416">
        <ele>48</ele>
        <time>2015-12-14T19:23:58Z</time>
      </trkpt>
      <trkpt lat="48.8607" lon="2.34147">
        <ele>48</ele>
        <time>2015-12-14T19:24:00Z</time>
      </trkpt>
      <trkpt lat="48.86074" lon="2.34116">
        <ele>47.599998474121</ele>
        <time>2015-12-14T19:24:04Z</time>
      </trkpt>
      <trkpt lat="48.86078" lon="2.34088">
        <ele>46.79999923706</ele>
        <time>2015-12-14T19:24:08Z</time>
      </trkpt>
      <trkpt lat="48.86086" lon="2.34059">
        <ele>44.599998474121</ele>
        <time>2015-12-14T19:24:12Z</time>
      </trkpt>
      <trkpt lat="48.86096" lon="2.34029">
        <ele>45.79999923706</ele>
        <time>2015-12-14T19:24:16Z</time>
      </trkpt>
      <trkpt lat="48.86105" lon="2.33999">
        <ele>47</ele>
        <time>2015-12-14T19:24:20Z</time>
      </trkpt>
      <trkpt lat="48.86116" lon="2.33971">
        <ele>48.599998474121</ele>
        <time>2015-12-14T19:24:24Z</time>
      </trkpt>
      <trkpt lat="48.86125" lon="2.33946">
        <ele>50</ele>
        <time>2015-12-14T19:24:28Z</time>
      </trkpt>
      <trkpt lat="48.86133" lon="2.33927">
        <ele>49.599998474121</ele>
        <time>2015-12-14T19:24:31Z</time>
      </trkpt>
      <trkpt lat="48.86143" lon="2.33903">
        <ele>48.599998474121</ele>
        <time>2015-12-14T19:24:35Z</time>
      </trkpt>
      <trkpt lat="48.86145" lon="2.33897">
        <ele>48.599998474121</ele>
        <time>2015-12-14T19:24:36Z</time>
      </trkpt>
      <trkpt lat="48.86155" lon="2.3387">
        <ele>48.20000076294</ele>
        <time>2015-12-14T19:24:40Z</time>
      </trkpt>
      <trkpt lat="48.86164" lon="2.33844">
        <ele>46.400001525879</ele>
        <time>2015-12-14T19:24:44Z</time>
      </trkpt>
      <trkpt lat="48.86174" lon="2.33816">
        <ele>44.20000076294</ele>
        <time>2015-12-14T19:24:48Z</time>
      </trkpt>
      <trkpt lat="48.86185" lon="2.33789">
        <ele>45</ele>
        <time>2015-12-14T19:24:52Z</time>
      </trkpt>
      <trkpt lat="48.86199" lon="2.33763">
        <ele>46.400001525879</ele>
        <time>2015-12-14T19:24:56Z</time>
      </trkpt>
      <trkpt lat="48.86211" lon="2.3374">
        <ele>47.20000076294</ele>
        <time>2015-12-14T19:25:00Z</time>
      </trkpt>
      <trkpt lat="48.86225" lon="2.33718">
        <ele>48</ele>
        <time>2015-12-14T19:25:04Z</time>
      </trkpt>
      <trkpt lat="48.86238" lon="2.33693">
        <ele>48.400001525879</ele>
        <time>2015-12-14T19:25:08Z</time>
      </trkpt>
      <trkpt lat="48.86241" lon="2.33687">
        <ele>48.20000076294</ele>
        <time>2015-12-14T19:25:09Z</time>
      </trkpt>
      <trkpt lat="48.86245" lon="2.33652">
        <ele>48.20000076294</ele>
        <time>2015-12-14T19:25:14Z</time>
      </trkpt>
      <trkpt lat="48.86244" lon="2.33637">
        <ele>48</ele>
        <time>2015-12-14T19:25:16Z</time>
      </trkpt>
      <trkpt lat="48.8625" lon="2.3361">
        <ele>48.20000076294</ele>
        <time>2015-12-14T19:25:20Z</time>
      </trkpt>
      <trkpt lat="48.86257" lon="2.33578">
        <ele>48.20000076294</ele>
        <time>2015-12-14T19:25:25Z</time>
      </trkpt>
      <trkpt lat="48.86264" lon="2.33553">
        <ele>46.599998474121</ele>
        <time>2015-12-14T19:25:29Z</time>
      </trkpt>
      <trkpt lat="48.86274" lon="2.33522">
        <ele>45.20000076294</ele>
        <time>2015-12-14T19:25:34Z</time>
      </trkpt>
      <trkpt lat="48.86281" lon="2.33495">
        <ele>44.400001525879</ele>
        <time>2015-12-14T19:25:38Z</time>
      </trkpt>
      <trkpt lat="48.86284" lon="2.33489">
        <ele>44.400001525879</ele>
        <time>2015-12-14T19:25:39Z</time>
      </trkpt>
      <trkpt lat="48.86294" lon="2.33459">
        <ele>44.599998474121</ele>
        <time>2015-12-14T19:25:44Z</time>
      </trkpt>
      <trkpt lat="48.86305" lon="2.33431">
        <ele>45.400001525879</ele>
        <time>2015-12-14T19:25:48Z</time>
      </trkpt>
      <trkpt lat="48.86312" lon="2.33404">
        <ele>47</ele>
        <time>2015-12-14T19:25:52Z</time>
      </trkpt>
      <trkpt lat="48.86314" lon="2.33392">
        <ele>47.599998474121</ele>
        <time>2015-12-14T19:25:54Z</time>
      </trkpt>
      <trkpt lat="48.86319" lon="2.33385">
        <ele>48.20000076294</ele>
        <time>2015-12-14T19:25:56Z</time>
      </trkpt>
      <trkpt lat="48.86339" lon="2.33392">
        <ele>49.599998474121</ele>
        <time>2015-12-14T19:26:01Z</time>
      </trkpt>
      <trkpt lat="48.86345" lon="2.33396">
        <ele>50</ele>
        <time>2015-12-14T19:26:03Z</time>
      </trkpt>
      <trkpt lat="48.8636" lon="2.334">
        <ele>50.400001525879</ele>
        <time>2015-12-14T19:26:08Z</time>
      </trkpt>
      <trkpt lat="48.86366" lon="2.33405">
        <ele>50.599998474121</ele>
        <time>2015-12-14T19:26:12Z</time>
      </trkpt>
      <trkpt lat="48.86384" lon="2.33412">
        <ele>50.599998474121</ele>
        <time>2015-12-14T19:26:18Z</time>
      </trkpt>
      <trkpt lat="48.86401" lon="2.33419">
        <ele>50.400001525879</ele>
        <time>2015-12-14T19:26:22Z</time>
      </trkpt>
      <trkpt lat="48.86412" lon="2.33419">
        <ele>50.400001525879</ele>
        <time>2015-12-14T19:26:27Z</time>
      </trkpt>
      <trkpt lat="48.86432" lon="2.33411">
        <ele>50</ele>
        <time>2015-12-14T19:26:34Z</time>
      </trkpt>
      <trkpt lat="48.86453" lon="2.33399">
        <ele>49.400001525879</ele>
        <time>2015-12-14T19:26:38Z</time>
      </trkpt>
      <trkpt lat="48.86472" lon="2.33394">
        <ele>49.20000076294</ele>
        <time>2015-12-14T19:26:42Z</time>
      </trkpt>
      <trkpt lat="48.86492" lon="2.33388">
        <ele>48.79999923706</ele>
        <time>2015-12-14T19:26:47Z</time>
      </trkpt>
      <trkpt lat="48.8651" lon="2.33379">
        <ele>48.599998474121</ele>
        <time>2015-12-14T19:26:52Z</time>
      </trkpt>
      <trkpt lat="48.8653" lon="2.33373">
        <ele>48.400001525879</ele>
        <time>2015-12-14T19:26:56Z</time>
      </trkpt>
      <trkpt lat="48.86548" lon="2.33363">
        <ele>48</ele>
        <time>2015-12-14T19:27:02Z</time>
      </trkpt>
      <trkpt lat="48.8655" lon="2.33355">
        <ele>48</ele>
        <time>2015-12-14T19:27:07Z</time>
      </trkpt>
      <trkpt lat="48.86559" lon="2.33353">
        <ele>47.599998474121</ele>
        <time>2015-12-14T19:27:55Z</time>
      </trkpt>
      <trkpt lat="48.86577" lon="2.33347">
        <ele>47</ele>
        <time>2015-12-14T19:28:02Z</time>
      </trkpt>
      <trkpt lat="48.86597" lon="2.33335">
        <ele>46.400001525879</ele>
        <time>2015-12-14T19:28:10Z</time>
      </trkpt>
      <trkpt lat="48.86614" lon="2.33326">
        <ele>46.20000076294</ele>
        <time>2015-12-14T19:28:16Z</time>
      </trkpt>
      <trkpt lat="48.86633" lon="2.33325">
        <ele>46.79999923706</ele>
        <time>2015-12-14T19:28:23Z</time>
      </trkpt>
      <trkpt lat="48.86656" lon="2.33334">
        <ele>47.79999923706</ele>
        <time>2015-12-14T19:28:29Z</time>
      </trkpt>
      <trkpt lat="48.86676" lon="2.33344">
        <ele>48.599998474121</ele>
        <time>2015-12-14T19:28:34Z</time>
      </trkpt>
      <trkpt lat="48.86694" lon="2.33351">
        <ele>49.20000076294</ele>
        <time>2015-12-14T19:28:40Z</time>
      </trkpt>
      <trkpt lat="48.86699" lon="2.33349">
        <ele>49.20000076294</ele>
        <time>2015-12-14T19:28:41Z</time>
      </trkpt>
      <trkpt lat="48.86713" lon="2.33331">
        <ele>49</ele>
        <time>2015-12-14T19:28:46Z</time>
      </trkpt>
      <trkpt lat="48.86731" lon="2.33316">
        <ele>48.599998474121</ele>
        <time>2015-12-14T19:28:51Z</time>
      </trkpt>
      <trkpt lat="48.86742" lon="2.33295">
        <ele>48.20000076294</ele>
        <time>2015-12-14T19:28:56Z</time>
      </trkpt>
      <trkpt lat="48.86731" lon="2.33265">
        <ele>47.400001525879</ele>
        <time>2015-12-14T19:29:02Z</time>
      </trkpt>
      <trkpt lat="48.86737" lon="2.33237">
        <ele>46.79999923706</ele>
        <time>2015-12-14T19:29:08Z</time>
      </trkpt>
      <trkpt lat="48.86741" lon="2.33226">
        <ele>46.79999923706</ele>
        <time>2015-12-14T19:29:12Z</time>
      </trkpt>
      <trkpt lat="48.8676" lon="2.33233">
        <ele>46.79999923706</ele>
        <time>2015-12-14T19:29:23Z</time>
      </trkpt>
      <trkpt lat="48.86766" lon="2.33228">
        <ele>47</ele>
        <time>2015-12-14T19:29:28Z</time>
      </trkpt>
      <trkpt lat="48.86775" lon="2.33219">
        <ele>47</ele>
        <time>2015-12-14T19:29:36Z</time>
      </trkpt>
      <trkpt lat="48.8678" lon="2.3322">
        <ele>47.20000076294</ele>
        <time>2015-12-14T19:30:29Z</time>
      </trkpt>
      <trkpt lat="48.86791" lon="2.33211">
        <ele>47.599998474121</ele>
        <time>2015-12-14T19:30:59Z</time>
      </trkpt>
      <trkpt lat="48.868" lon="2.33184">
        <ele>48</ele>
        <time>2015-12-14T19:31:10Z</time>
      </trkpt>
      <trkpt lat="48.86809" lon="2.33157">
        <ele>48.400001525879</ele>
        <time>2015-12-14T19:31:16Z</time>
      </trkpt>
      <trkpt lat="48.86818" lon="2.33128">
        <ele>49.400001525879</ele>
        <time>2015-12-14T19:31:22Z</time>
      </trkpt>
      <trkpt lat="48.86827" lon="2.33103">
        <ele>50</ele>
        <time>2015-12-14T19:31:26Z</time>
      </trkpt>
      <trkpt lat="48.86829" lon="2.33096">
        <ele>50.20000076294</ele>
        <time>2015-12-14T19:31:27Z</time>
      </trkpt>
      <trkpt lat="48.86835" lon="2.33074">
        <ele>50</ele>
        <time>2015-12-14T19:31:30Z</time>
      </trkpt>
      <trkpt lat="48.86838" lon="2.33038">
        <ele>47.79999923706</ele>
        <time>2015-12-14T19:31:35Z</time>
      </trkpt>
      <trkpt lat="48.86848" lon="2.3301">
        <ele>46.400001525879</ele>
        <time>2015-12-14T19:31:40Z</time>
      </trkpt>
      <trkpt lat="48.86862" lon="2.3299">
        <ele>46.400001525879</ele>
        <time>2015-12-14T19:31:44Z</time>
      </trkpt>
      <trkpt lat="48.86875" lon="2.32968">
        <ele>47.20000076294</ele>
        <time>2015-12-14T19:31:48Z</time>
      </trkpt>
      <trkpt lat="48.8689" lon="2.3295">
        <ele>48</ele>
        <time>2015-12-14T19:31:51Z</time>
      </trkpt>
      <trkpt lat="48.86906" lon="2.32945">
        <ele>48.79999923706</ele>
        <time>2015-12-14T19:31:58Z</time>
      </trkpt>
      <trkpt lat="48.86917" lon="2.32952">
        <ele>49.400001525879</ele>
        <time>2015-12-14T19:32:01Z</time>
      </trkpt>
      <trkpt lat="48.86936" lon="2.32969">
        <ele>50.400001525879</ele>
        <time>2015-12-14T19:32:06Z</time>
      </trkpt>
      <trkpt lat="48.86952" lon="2.32987">
        <ele>50.79999923706</ele>
        <time>2015-12-14T19:32:11Z</time>
      </trkpt>
      <trkpt lat="48.86969" lon="2.33008">
        <ele>50.79999923706</ele>
        <time>2015-12-14T19:32:18Z</time>
      </trkpt>
      <trkpt lat="48.86989" lon="2.33013">
        <ele>50.599998474121</ele>
        <time>2015-12-14T19:32:24Z</time>
      </trkpt>
      <trkpt lat="48.8701" lon="2.33012">
        <ele>50.400001525879</ele>
        <time>2015-12-14T19:32:29Z</time>
      </trkpt>
      <trkpt lat="48.87025" lon="2.33009">
        <ele>50.20000076294</ele>
        <time>2015-12-14T19:32:37Z</time>
      </trkpt>
      <trkpt lat="48.87031" lon="2.33024">
        <ele>50.400001525879</ele>
        <time>2015-12-14T19:33:00Z</time>
      </trkpt>
      <trkpt lat="48.8704" lon="2.33052">
        <ele>50.599998474121</ele>
        <time>2015-12-14T19:33:05Z</time>
      </trkpt>
      <trkpt lat="48.87048" lon="2.33083">
        <ele>51</ele>
        <time>2015-12-14T19:33:10Z</time>
      </trkpt>
      <trkpt lat="48.87055" lon="2.33108">
        <ele>50.400001525879</ele>
        <time>2015-12-14T19:33:15Z</time>
      </trkpt>
      <trkpt lat="48.87059" lon="2.33135">
        <ele>49.400001525879</ele>
        <time>2015-12-14T19:33:20Z</time>
      </trkpt>
      <trkpt lat="48.87066" lon="2.33164">
        <ele>48.599998474121</ele>
        <time>2015-12-14T19:33:26Z</time>
      </trkpt>
      <trkpt lat="48.87071" lon="2.33192">
        <ele>48.20000076294</ele>
        <time>2015-12-14T19:33:32Z</time>
      </trkpt>
      <trkpt lat="48.87076" lon="2.3322">
        <ele>48</ele>
        <time>2015-12-14T19:33:40Z</time>
      </trkpt>
      <trkpt lat="48.8708" lon="2.33228">
        <ele>48</ele>
        <time>2015-12-14T19:33:43Z</time>
      </trkpt>
      <trkpt lat="48.871" lon="2.33225">
        <ele>48.20000076294</ele>
        <time>2015-12-14T19:33:49Z</time>
      </trkpt>
      <trkpt lat="48.87106" lon="2.33221">
        <ele>48.400001525879</ele>
        <time>2015-12-14T19:33:51Z</time>
      </trkpt>
      <trkpt lat="48.87122" lon="2.33209">
        <ele>48.599998474121</ele>
        <time>2015-12-14T19:33:59Z</time>
      </trkpt>
      <trkpt lat="48.87124" lon="2.33208">
        <ele>48.599998474121</ele>
        <time>2015-12-14T19:34:24Z</time>
      </trkpt>
      <trkpt lat="48.87118" lon="2.33193">
        <ele>48.79999923706</ele>
        <time>2015-12-14T19:35:36Z</time>
      </trkpt>
      <trkpt lat="48.87122" lon="2.33197">
        <ele>48.79999923706</ele>
        <time>2015-12-14T19:36:43Z</time>
      </trkpt>
      <trkpt lat="48.87121" lon="2.33197">
        <ele>48.79999923706</ele>
        <time>2015-12-14T19:36:44Z</time>
      </trkpt>
      <trkpt lat="48.87118" lon="2.33197">
        <ele>48.79999923706</ele>
        <time>2015-12-14T19:37:29Z</time>
      </trkpt>
      <trkpt lat="48.87136" lon="2.33198">
        <ele>49</ele>
        <time>2015-12-14T19:38:14Z</time>
      </trkpt>
      <trkpt lat="48.87129" lon="2.33213">
        <ele>48.599998474121</ele>
        <time>2015-12-14T19:38:57Z</time>
      </trkpt>
      <trkpt lat="48.87144" lon="2.3323">
        <ele>48.599998474121</ele>
        <time>2015-12-14T19:39:04Z</time>
      </trkpt>
      <trkpt lat="48.87162" lon="2.33239">
        <ele>48.79999923706</ele>
        <time>2015-12-14T19:39:10Z</time>
      </trkpt>
      <trkpt lat="48.87181" lon="2.33241">
        <ele>49</ele>
        <time>2015-12-14T19:39:19Z</time>
      </trkpt>
      <trkpt lat="48.872" lon="2.33232">
        <ele>50.400001525879</ele>
        <time>2015-12-14T19:39:23Z</time>
      </trkpt>
      <trkpt lat="48.87218" lon="2.33224">
        <ele>51.400001525879</ele>
        <time>2015-12-14T19:39:26Z</time>
      </trkpt>
      <trkpt lat="48.87239" lon="2.33214">
        <ele>52.599998474121</ele>
        <time>2015-12-14T19:39:30Z</time>
      </trkpt>
      <trkpt lat="48.87261" lon="2.33208">
        <ele>51.20000076294</ele>
        <time>2015-12-14T19:39:33Z</time>
      </trkpt>
      <trkpt lat="48.87285" lon="2.33202">
        <ele>50.400001525879</ele>
        <time>2015-12-14T19:39:36Z</time>
      </trkpt>
      <trkpt lat="48.87287" lon="2.33195">
        <ele>50.20000076294</ele>
        <time>2015-12-14T19:39:37Z</time>
      </trkpt>
      <trkpt lat="48.87295" lon="2.33162">
        <ele>49.79999923706</ele>
        <time>2015-12-14T19:39:41Z</time>
      </trkpt>
      <trkpt lat="48.87305" lon="2.33146">
        <ele>48.400001525879</ele>
        <time>2015-12-14T19:39:44Z</time>
      </trkpt>
      <trkpt lat="48.87311" lon="2.33135">
        <ele>47.599998474121</ele>
        <time>2015-12-14T19:39:48Z</time>
      </trkpt>
      <trkpt lat="48.87312" lon="2.33135">
        <ele>47.599998474121</ele>
        <time>2015-12-14T19:39:50Z</time>
      </trkpt>
      <trkpt lat="48.87324" lon="2.33115">
        <ele>46.400001525879</ele>
        <time>2015-12-14T19:40:04Z</time>
      </trkpt>
      <trkpt lat="48.87343" lon="2.33115">
        <ele>47.20000076294</ele>
        <time>2015-12-14T19:40:09Z</time>
      </trkpt>
      <trkpt lat="48.87364" lon="2.33116">
        <ele>47.79999923706</ele>
        <time>2015-12-14T19:40:14Z</time>
      </trkpt>
      <trkpt lat="48.87383" lon="2.33115">
        <ele>48.20000076294</ele>
        <time>2015-12-14T19:40:18Z</time>
      </trkpt>
      <trkpt lat="48.87401" lon="2.33115">
        <ele>48.599998474121</ele>
        <time>2015-12-14T19:40:22Z</time>
      </trkpt>
      <trkpt lat="48.87419" lon="2.33117">
        <ele>49</ele>
        <time>2015-12-14T19:40:26Z</time>
      </trkpt>
      <trkpt lat="48.87442" lon="2.33117">
        <ele>49</ele>
        <time>2015-12-14T19:40:30Z</time>
      </trkpt>
      <trkpt lat="48.87462" lon="2.33117">
        <ele>47.79999923706</ele>
        <time>2015-12-14T19:40:34Z</time>
      </trkpt>
      <trkpt lat="48.87466" lon="2.33116">
        <ele>47.599998474121</ele>
        <time>2015-12-14T19:40:35Z</time>
      </trkpt>
      <trkpt lat="48.87477" lon="2.33114">
        <ele>47</ele>
        <time>2015-12-14T19:40:39Z</time>
      </trkpt>
      <trkpt lat="48.8748" lon="2.33112">
        <ele>46.79999923706</ele>
        <time>2015-12-14T19:40:43Z</time>
      </trkpt>
      <trkpt lat="48.87472" lon="2.33085">
        <ele>46.599998474121</ele>
        <time>2015-12-14T19:40:49Z</time>
      </trkpt>
      <trkpt lat="48.87462" lon="2.33057">
        <ele>46.20000076294</ele>
        <time>2015-12-14T19:40:55Z</time>
      </trkpt>
      <trkpt lat="48.8746" lon="2.33039">
        <ele>45.79999923706</ele>
        <time>2015-12-14T19:40:58Z</time>
      </trkpt>
      <trkpt lat="48.87465" lon="2.33006">
        <ele>44.79999923706</ele>
        <time>2015-12-14T19:41:03Z</time>
      </trkpt>
      <trkpt lat="48.87471" lon="2.32978">
        <ele>46.599998474121</ele>
        <time>2015-12-14T19:41:07Z</time>
      </trkpt>
      <trkpt lat="48.87474" lon="2.32951">
        <ele>49.599998474121</ele>
        <time>2015-12-14T19:41:11Z</time>
      </trkpt>
      <trkpt lat="48.87474" lon="2.32921">
        <ele>50</ele>
        <time>2015-12-14T19:41:16Z</time>
      </trkpt>
      <trkpt lat="48.87472" lon="2.32893">
        <ele>49.20000076294</ele>
        <time>2015-12-14T19:41:21Z</time>
      </trkpt>
      <trkpt lat="48.87466" lon="2.32865">
        <ele>48.599998474121</ele>
        <time>2015-12-14T19:41:28Z</time>
      </trkpt>
      <trkpt lat="48.8745" lon="2.32855">
        <ele>50</ele>
        <time>2015-12-14T19:41:36Z</time>
      </trkpt>
      <trkpt lat="48.87436" lon="2.32851">
        <ele>51</ele>
        <time>2015-12-14T19:41:42Z</time>
      </trkpt>
      <trkpt lat="48.87438" lon="2.32836">
        <ele>50.20000076294</ele>
        <time>2015-12-14T19:41:50Z</time>
      </trkpt>
      <trkpt lat="48.87433" lon="2.32798">
        <ele>49.599998474121</ele>
        <time>2015-12-14T19:41:56Z</time>
      </trkpt>
      <trkpt lat="48.8743" lon="2.32767">
        <ele>49.20000076294</ele>
        <time>2015-12-14T19:42:02Z</time>
      </trkpt>
      <trkpt lat="48.87426" lon="2.32738">
        <ele>48.79999923706</ele>
        <time>2015-12-14T19:42:08Z</time>
      </trkpt>
      <trkpt lat="48.87425" lon="2.32718">
        <ele>48.400001525879</ele>
        <time>2015-12-14T19:42:15Z</time>
      </trkpt>
      <trkpt lat="48.87428" lon="2.32712">
        <ele>48</ele>
        <time>2015-12-14T19:42:22Z</time>
      </trkpt>
      <trkpt lat="48.87419" lon="2.32695">
        <ele>47.599998474121</ele>
        <time>2015-12-14T19:42:29Z</time>
      </trkpt>
      <trkpt lat="48.8742" lon="2.32666">
        <ele>46.599998474121</ele>
        <time>2015-12-14T19:42:34Z</time>
      </trkpt>
      <trkpt lat="48.87421" lon="2.32638">
        <ele>46.79999923706</ele>
        <time>2015-12-14T19:42:38Z</time>
      </trkpt>
      <trkpt lat="48.87424" lon="2.32609">
        <ele>46.20000076294</ele>
        <time>2015-12-14T19:42:42Z</time>
      </trkpt>
      <trkpt lat="48.87437" lon="2.32585">
        <ele>45.20000076294</ele>
        <time>2015-12-14T19:42:46Z</time>
      </trkpt>
      <trkpt lat="48.87452" lon="2.32565">
        <ele>44.20000076294</ele>
        <time>2015-12-14T19:42:50Z</time>
      </trkpt>
      <trkpt lat="48.87466" lon="2.32544">
        <ele>43.400001525879</ele>
        <time>2015-12-14T19:42:54Z</time>
      </trkpt>
      <trkpt lat="48.8748" lon="2.32524">
        <ele>42.79999923706</ele>
        <time>2015-12-14T19:42:58Z</time>
      </trkpt>
      <trkpt lat="48.87487" lon="2.32495">
        <ele>42.599998474121</ele>
        <time>2015-12-14T19:43:03Z</time>
      </trkpt>
      <trkpt lat="48.87494" lon="2.32483">
        <ele>42.79999923706</ele>
        <time>2015-12-14T19:43:06Z</time>
      </trkpt>
      <trkpt lat="48.87501" lon="2.32469">
        <ele>43</ele>
        <time>2015-12-14T19:43:10Z</time>
      </trkpt>
      <trkpt lat="48.87512" lon="2.32441">
        <ele>43</ele>
        <time>2015-12-14T19:43:18Z</time>
      </trkpt>
      <trkpt lat="48.87525" lon="2.3242">
        <ele>43</ele>
        <time>2015-12-14T19:43:24Z</time>
      </trkpt>
      <trkpt lat="48.8754" lon="2.32404">
        <ele>42</ele>
        <time>2015-12-14T19:43:32Z</time>
      </trkpt>
      <trkpt lat="48.8755" lon="2.32381">
        <ele>41.79999923706</ele>
        <time>2015-12-14T19:43:45Z</time>
      </trkpt>
      <trkpt lat="48.87563" lon="2.32358">
        <ele>42</ele>
        <time>2015-12-14T19:43:50Z</time>
      </trkpt>
      <trkpt lat="48.87577" lon="2.3234">
        <ele>43</ele>
        <time>2015-12-14T19:43:54Z</time>
      </trkpt>
      <trkpt lat="48.8759" lon="2.32316">
        <ele>43.79999923706</ele>
        <time>2015-12-14T19:43:59Z</time>
      </trkpt>
      <trkpt lat="48.87597" lon="2.32286">
        <ele>45.599998474121</ele>
        <time>2015-12-14T19:44:07Z</time>
      </trkpt>
      <trkpt lat="48.87608" lon="2.32264">
        <ele>47</ele>
        <time>2015-12-14T19:44:13Z</time>
      </trkpt>
      <trkpt lat="48.87624" lon="2.32244">
        <ele>48.400001525879</ele>
        <time>2015-12-14T19:44:18Z</time>
      </trkpt>
      <trkpt lat="48.87635" lon="2.32229">
        <ele>48.400001525879</ele>
        <time>2015-12-14T19:44:22Z</time>
      </trkpt>
      <trkpt lat="48.87644" lon="2.32216">
        <ele>48.599998474121</ele>
        <time>2015-12-14T19:44:26Z</time>
      </trkpt>
      <trkpt lat="48.87658" lon="2.32198">
        <ele>49.400001525879</ele>
        <time>2015-12-14T19:44:33Z</time>
      </trkpt>
      <trkpt lat="48.87676" lon="2.32184">
        <ele>51.20000076294</ele>
        <time>2015-12-14T19:44:39Z</time>
      </trkpt>
      <trkpt lat="48.87684" lon="2.32178">
        <ele>52.20000076294</ele>
        <time>2015-12-14T19:44:42Z</time>
      </trkpt>
      <trkpt lat="48.8769" lon="2.32174">
        <ele>52.599998474121</ele>
        <time>2015-12-14T19:44:47Z</time>
      </trkpt>
      <trkpt lat="48.87703" lon="2.32155">
        <ele>54</ele>
        <time>2015-12-14T19:45:20Z</time>
      </trkpt>
      <trkpt lat="48.87718" lon="2.32136">
        <ele>54.79999923706</ele>
        <time>2015-12-14T19:45:25Z</time>
      </trkpt>
      <trkpt lat="48.87734" lon="2.3212">
        <ele>55.599998474121</ele>
        <time>2015-12-14T19:45:29Z</time>
      </trkpt>
      <trkpt lat="48.8775" lon="2.32098">
        <ele>56.79999923706</ele>
        <time>2015-12-14T19:45:34Z</time>
      </trkpt>
      <trkpt lat="48.87764" lon="2.3208">
        <ele>57.79999923706</ele>
        <time>2015-12-14T19:45:38Z</time>
      </trkpt>
      <trkpt lat="48.87779" lon="2.32063">
        <ele>58.400001525879</ele>
        <time>2015-12-14T19:45:42Z</time>
      </trkpt>
      <trkpt lat="48.87795" lon="2.32049">
        <ele>58</ele>
        <time>2015-12-14T19:45:47Z</time>
      </trkpt>
      <trkpt lat="48.87813" lon="2.32031">
        <ele>57.599998474121</ele>
        <time>2015-12-14T19:45:54Z</time>
      </trkpt>
      <trkpt lat="48.87821" lon="2.32004">
        <ele>57</ele>
        <time>2015-12-14T19:46:02Z</time>
      </trkpt>
      <trkpt lat="48.87826" lon="2.31973">
        <ele>57.20000076294</ele>
        <time>2015-12-14T19:46:10Z</time>
      </trkpt>
      <trkpt lat="48.87842" lon="2.31954">
        <ele>58</ele>
        <time>2015-12-14T19:46:17Z</time>
      </trkpt>
      <trkpt lat="48.87859" lon="2.31938">
        <ele>58.79999923706</ele>
        <time>2015-12-14T19:46:22Z</time>
      </trkpt>
      <trkpt lat="48.87875" lon="2.31922">
        <ele>60.20000076294</ele>
        <time>2015-12-14T19:46:27Z</time>
      </trkpt>
      <trkpt lat="48.87891" lon="2.31907">
        <ele>61.400001525879</ele>
        <time>2015-12-14T19:46:32Z</time>
      </trkpt>
      <trkpt lat="48.87905" lon="2.31888">
        <ele>62.599998474121</ele>
        <time>2015-12-14T19:46:37Z</time>
      </trkpt>
      <trkpt lat="48.8792" lon="2.31868">
        <ele>63</ele>
        <time>2015-12-14T19:46:43Z</time>
      </trkpt>
      <trkpt lat="48.87935" lon="2.31847">
        <ele>63.20000076294</ele>
        <time>2015-12-14T19:46:51Z</time>
      </trkpt>
      <trkpt lat="48.87946" lon="2.31826">
        <ele>63</ele>
        <time>2015-12-14T19:47:00Z</time>
      </trkpt>
      <trkpt lat="48.8796" lon="2.31816">
        <ele>63.20000076294</ele>
        <time>2015-12-14T19:47:43Z</time>
      </trkpt>
      <trkpt lat="48.87975" lon="2.318">
        <ele>63.20000076294</ele>
        <time>2015-12-14T19:47:49Z</time>
      </trkpt>
      <trkpt lat="48.8799" lon="2.31785">
        <ele>63.20000076294</ele>
        <time>2015-12-14T19:47:55Z</time>
      </trkpt>
      <trkpt lat="48.88008" lon="2.3177">
        <ele>63.79999923706</ele>
        <time>2015-12-14T19:48:01Z</time>
      </trkpt>
      <trkpt lat="48.88025" lon="2.31752">
        <ele>64.199996948242</ele>
        <time>2015-12-14T19:48:07Z</time>
      </trkpt>
      <trkpt lat="48.88042" lon="2.31735">
        <ele>63.79999923706</ele>
        <time>2015-12-14T19:48:14Z</time>
      </trkpt>
      <trkpt lat="48.8806" lon="2.3172">
        <ele>63.400001525879</ele>
        <time>2015-12-14T19:48:21Z</time>
      </trkpt>
      <trkpt lat="48.88069" lon="2.31709">
        <ele>63.20000076294</ele>
        <time>2015-12-14T19:48:25Z</time>
      </trkpt>
      <trkpt lat="48.88085" lon="2.31695">
        <ele>63.599998474121</ele>
        <time>2015-12-14T19:48:30Z</time>
      </trkpt>
      <trkpt lat="48.881" lon="2.3168">
        <ele>64</ele>
        <time>2015-12-14T19:48:36Z</time>
      </trkpt>
      <trkpt lat="48.88109" lon="2.31673">
        <ele>64</ele>
        <time>2015-12-14T19:48:41Z</time>
      </trkpt>
      <trkpt lat="48.8812" lon="2.31669">
        <ele>63.599998474121</ele>
        <time>2015-12-14T19:48:47Z</time>
      </trkpt>
      <trkpt lat="48.88121" lon="2.31668">
        <ele>63.599998474121</ele>
        <time>2015-12-14T19:48:49Z</time>
      </trkpt>
      <trkpt lat="48.88142" lon="2.31659">
        <ele>62.599998474121</ele>
        <time>2015-12-14T19:49:12Z</time>
      </trkpt>
      <trkpt lat="48.88154" lon="2.31656">
        <ele>62</ele>
        <time>2015-12-14T19:49:17Z</time>
      </trkpt>
      <trkpt lat="48.88159" lon="2.31638">
        <ele>61.400001525879</ele>
        <time>2015-12-14T19:49:22Z</time>
      </trkpt>
      <trkpt lat="48.8817" lon="2.31615">
        <ele>62</ele>
        <time>2015-12-14T19:49:30Z</time>
      </trkpt>
      <trkpt lat="48.88183" lon="2.31592">
        <ele>62.599998474121</ele>
        <time>2015-12-14T19:49:37Z</time>
      </trkpt>
      <trkpt lat="48.88198" lon="2.31573">
        <ele>62.599998474121</ele>
        <time>2015-12-14T19:49:43Z</time>
      </trkpt>
      <trkpt lat="48.88213" lon="2.31553">
        <ele>61.79999923706</ele>
        <time>2015-12-14T19:49:50Z</time>
      </trkpt>
      <trkpt lat="48.88231" lon="2.31536">
        <ele>61</ele>
        <time>2015-12-14T19:49:56Z</time>
      </trkpt>
      <trkpt lat="48.88247" lon="2.31521">
        <ele>60.599998474121</ele>
        <time>2015-12-14T19:50:02Z</time>
      </trkpt>
      <trkpt lat="48.88263" lon="2.31498">
        <ele>60.400001525879</ele>
        <time>2015-12-14T19:50:08Z</time>
      </trkpt>
      <trkpt lat="48.8828" lon="2.31479">
        <ele>60</ele>
        <time>2015-12-14T19:50:14Z</time>
      </trkpt>
      <trkpt lat="48.88296" lon="2.31459">
        <ele>60</ele>
        <time>2015-12-14T19:50:20Z</time>
      </trkpt>
      <trkpt lat="48.88312" lon="2.31445">
        <ele>59.599998474121</ele>
        <time>2015-12-14T19:50:25Z</time>
      </trkpt>
      <trkpt lat="48.88329" lon="2.3143">
        <ele>59.400001525879</ele>
        <time>2015-12-14T19:50:30Z</time>
      </trkpt>
      <trkpt lat="48.88345" lon="2.3141">
        <ele>59.20000076294</ele>
        <time>2015-12-14T19:50:35Z</time>
      </trkpt>
      <trkpt lat="48.8836" lon="2.31388">
        <ele>59</ele>
        <time>2015-12-14T19:50:41Z</time>
      </trkpt>
      <trkpt lat="48.88374" lon="2.31368">
        <ele>59</ele>
        <time>2015-12-14T19:50:47Z</time>
      </trkpt>
      <trkpt lat="48.88387" lon="2.31348">
        <ele>59</ele>
        <time>2015-12-14T19:50:52Z</time>
      </trkpt>
      <trkpt lat="48.88402" lon="2.31327">
        <ele>59</ele>
        <time>2015-12-14T19:50:57Z</time>
      </trkpt>
      <trkpt lat="48.88418" lon="2.3131">
        <ele>59.20000076294</ele>
        <time>2015-12-14T19:51:02Z</time>
      </trkpt>
      <trkpt lat="48.88433" lon="2.31289">
        <ele>58.599998474121</ele>
        <time>2015-12-14T19:51:07Z</time>
      </trkpt>
      <trkpt lat="48.88449" lon="2.31263">
        <ele>58.599998474121</ele>
        <time>2015-12-14T19:51:12Z</time>
      </trkpt>
      <trkpt lat="48.88463" lon="2.31242">
        <ele>57.79999923706</ele>
        <time>2015-12-14T19:51:16Z</time>
      </trkpt>
      <trkpt lat="48.88474" lon="2.31219">
        <ele>57.400001525879</ele>
        <time>2015-12-14T19:51:20Z</time>
      </trkpt>
      <trkpt lat="48.88487" lon="2.31193">
        <ele>57</ele>
        <time>2015-12-14T19:51:25Z</time>
      </trkpt>
      <trkpt lat="48.88495" lon="2.31178">
        <ele>56.79999923706</ele>
        <time>2015-12-14T19:51:28Z</time>
      </trkpt>
      <trkpt lat="48.88508" lon="2.31153">
        <ele>56.599998474121</ele>
        <time>2015-12-14T19:51:33Z</time>
      </trkpt>
      <trkpt lat="48.8852" lon="2.3113">
        <ele>56.20000076294</ele>
        <time>2015-12-14T19:51:38Z</time>
      </trkpt>
      <trkpt lat="48.88525" lon="2.31099">
        <ele>55.400001525879</ele>
        <time>2015-12-14T19:51:45Z</time>
      </trkpt>
      <trkpt lat="48.88528" lon="2.31075">
        <ele>55.20000076294</ele>
        <time>2015-12-14T19:51:50Z</time>
      </trkpt>
      <trkpt lat="48.8854" lon="2.31052">
        <ele>55.599998474121</ele>
        <time>2015-12-14T19:51:55Z</time>
      </trkpt>
      <trkpt lat="48.88556" lon="2.31036">
        <ele>56</ele>
        <time>2015-12-14T19:52:00Z</time>
      </trkpt>
      <trkpt lat="48.88567" lon="2.3101">
        <ele>55.20000076294</ele>
        <time>2015-12-14T19:52:06Z</time>
      </trkpt>
      <trkpt lat="48.88583" lon="2.30987">
        <ele>54.79999923706</ele>
        <time>2015-12-14T19:52:12Z</time>
      </trkpt>
      <trkpt lat="48.88594" lon="2.30966">
        <ele>55.400001525879</ele>
        <time>2015-12-14T19:52:21Z</time>
      </trkpt>
      <trkpt lat="48.88584" lon="2.30944">
        <ele>56.599998474121</ele>
        <time>2015-12-14T19:52:52Z</time>
      </trkpt>
      <trkpt lat="48.88576" lon="2.30916">
        <ele>58</ele>
        <time>2015-12-14T19:52:59Z</time>
      </trkpt>
      <trkpt lat="48.88566" lon="2.30888">
        <ele>57.599998474121</ele>
        <time>2015-12-14T19:53:05Z</time>
      </trkpt>
      <trkpt lat="48.88556" lon="2.30864">
        <ele>57.400001525879</ele>
        <time>2015-12-14T19:53:10Z</time>
      </trkpt>
      <trkpt lat="48.88545" lon="2.30835">
        <ele>57</ele>
        <time>2015-12-14T19:53:15Z</time>
      </trkpt>
      <trkpt lat="48.88536" lon="2.30804">
        <ele>56</ele>
        <time>2015-12-14T19:53:20Z</time>
      </trkpt>
      <trkpt lat="48.88526" lon="2.30774">
        <ele>55</ele>
        <time>2015-12-14T19:53:25Z</time>
      </trkpt>
      <trkpt lat="48.88517" lon="2.30745">
        <ele>54</ele>
        <time>2015-12-14T19:53:30Z</time>
      </trkpt>
      <trkpt lat="48.88512" lon="2.30712">
        <ele>54</ele>
        <time>2015-12-14T19:53:35Z</time>
      </trkpt>
      <trkpt lat="48.88511" lon="2.30699">
        <ele>54</ele>
        <time>2015-12-14T19:53:37Z</time>
      </trkpt>
      <trkpt lat="48.88509" lon="2.3067">
        <ele>54</ele>
        <time>2015-12-14T19:53:41Z</time>
      </trkpt>
      <trkpt lat="48.88508" lon="2.30646">
        <ele>53.79999923706</ele>
        <time>2015-12-14T19:53:44Z</time>
      </trkpt>
      <trkpt lat="48.88513" lon="2.30612">
        <ele>54.400001525879</ele>
        <time>2015-12-14T19:53:48Z</time>
      </trkpt>
      <trkpt lat="48.88517" lon="2.30576">
        <ele>54.599998474121</ele>
        <time>2015-12-14T19:53:52Z</time>
      </trkpt>
      <trkpt lat="48.8852" lon="2.30548">
        <ele>54.79999923706</ele>
        <time>2015-12-14T19:53:55Z</time>
      </trkpt>
      <trkpt lat="48.88521" lon="2.30537">
        <ele>54.79999923706</ele>
        <time>2015-12-14T19:53:56Z</time>
      </trkpt>
      <trkpt lat="48.88524" lon="2.30517">
        <ele>55</ele>
        <time>2015-12-14T19:53:58Z</time>
      </trkpt>
      <trkpt lat="48.88526" lon="2.30488">
        <ele>55.20000076294</ele>
        <time>2015-12-14T19:54:01Z</time>
      </trkpt>
      <trkpt lat="48.88527" lon="2.30458">
        <ele>55.599998474121</ele>
        <time>2015-12-14T19:54:04Z</time>
      </trkpt>
      <trkpt lat="48.88528" lon="2.30429">
        <ele>55.79999923706</ele>
        <time>2015-12-14T19:54:07Z</time>
      </trkpt>
      <trkpt lat="48.8853" lon="2.30401">
        <ele>55.20000076294</ele>
        <time>2015-12-14T19:54:10Z</time>
      </trkpt>
      <trkpt lat="48.88525" lon="2.3038">
        <ele>54.599998474121</ele>
        <time>2015-12-14T19:54:12Z</time>
      </trkpt>
      <trkpt lat="48.88523" lon="2.30363">
        <ele>54.20000076294</ele>
        <time>2015-12-14T19:54:14Z</time>
      </trkpt>
      <trkpt lat="48.88513" lon="2.3034">
        <ele>53.599998474121</ele>
        <time>2015-12-14T19:54:18Z</time>
      </trkpt>
      <trkpt lat="48.88497" lon="2.30327">
        <ele>53.400001525879</ele>
        <time>2015-12-14T19:54:22Z</time>
      </trkpt>
      <trkpt lat="48.88493" lon="2.30325">
        <ele>53.20000076294</ele>
        <time>2015-12-14T19:54:23Z</time>
      </trkpt>
      <trkpt lat="48.88476" lon="2.30313">
        <ele>52.599998474121</ele>
        <time>2015-12-14T19:54:28Z</time>
      </trkpt>
      <trkpt lat="48.88459" lon="2.30305">
        <ele>52.400001525879</ele>
        <time>2015-12-14T19:54:33Z</time>
      </trkpt>
      <trkpt lat="48.88456" lon="2.30304">
        <ele>52.400001525879</ele>
        <time>2015-12-14T19:54:34Z</time>
      </trkpt>
      <trkpt lat="48.88451" lon="2.30302">
        <ele>52.400001525879</ele>
        <time>2015-12-14T19:54:36Z</time>
      </trkpt>
      <trkpt lat="48.88447" lon="2.303">
        <ele>52.400001525879</ele>
        <time>2015-12-14T19:54:39Z</time>
      </trkpt>
      <trkpt lat="48.88445" lon="2.30298">
        <ele>52.20000076294</ele>
        <time>2015-12-14T19:54:41Z</time>
      </trkpt>
      <trkpt lat="48.88442" lon="2.30296">
        <ele>52</ele>
        <time>2015-12-14T19:54:43Z</time>
      </trkpt>
      <trkpt lat="48.88426" lon="2.30287">
        <ele>51.599998474121</ele>
        <time>2015-12-14T19:54:52Z</time>
      </trkpt>
      <trkpt lat="48.88407" lon="2.30277">
        <ele>51</ele>
        <time>2015-12-14T19:54:57Z</time>
      </trkpt>
      <trkpt lat="48.88389" lon="2.30265">
        <ele>50.20000076294</ele>
        <time>2015-12-14T19:55:01Z</time>
      </trkpt>
      <trkpt lat="48.88371" lon="2.30251">
        <ele>49.20000076294</ele>
        <time>2015-12-14T19:55:05Z</time>
      </trkpt>
      <trkpt lat="48.88351" lon="2.30234">
        <ele>49</ele>
        <time>2015-12-14T19:55:09Z</time>
      </trkpt>
      <trkpt lat="48.88333" lon="2.3022">
        <ele>49</ele>
        <time>2015-12-14T19:55:13Z</time>
      </trkpt>
      <trkpt lat="48.88313" lon="2.30205">
        <ele>49</ele>
        <time>2015-12-14T19:55:17Z</time>
      </trkpt>
      <trkpt lat="48.88292" lon="2.30189">
        <ele>49</ele>
        <time>2015-12-14T19:55:21Z</time>
      </trkpt>
      <trkpt lat="48.88271" lon="2.30176">
        <ele>49.400001525879</ele>
        <time>2015-12-14T19:55:25Z</time>
      </trkpt>
      <trkpt lat="48.88249" lon="2.30161">
        <ele>51</ele>
        <time>2015-12-14T19:55:29Z</time>
      </trkpt>
      <trkpt lat="48.88229" lon="2.30147">
        <ele>52.20000076294</ele>
        <time>2015-12-14T19:55:33Z</time>
      </trkpt>
      <trkpt lat="48.88207" lon="2.30133">
        <ele>53.400001525879</ele>
        <time>2015-12-14T19:55:37Z</time>
      </trkpt>
      <trkpt lat="48.88186" lon="2.30118">
        <ele>54.400001525879</ele>
        <time>2015-12-14T19:55:41Z</time>
      </trkpt>
      <trkpt lat="48.88168" lon="2.30102">
        <ele>54.400001525879</ele>
        <time>2015-12-14T19:55:45Z</time>
      </trkpt>
      <trkpt lat="48.88147" lon="2.30087">
        <ele>54.20000076294</ele>
        <time>2015-12-14T19:55:49Z</time>
      </trkpt>
      <trkpt lat="48.88125" lon="2.30076">
        <ele>54.400001525879</ele>
        <time>2015-12-14T19:55:53Z</time>
      </trkpt>
      <trkpt lat="48.88105" lon="2.30065">
        <ele>54.79999923706</ele>
        <time>2015-12-14T19:55:57Z</time>
      </trkpt>
      <trkpt lat="48.88084" lon="2.3005">
        <ele>54.599998474121</ele>
        <time>2015-12-14T19:56:01Z</time>
      </trkpt>
      <trkpt lat="48.88065" lon="2.30033">
        <ele>54.400001525879</ele>
        <time>2015-12-14T19:56:04Z</time>
      </trkpt>
      <trkpt lat="48.88048" lon="2.30014">
        <ele>54.20000076294</ele>
        <time>2015-12-14T19:56:06Z</time>
      </trkpt>
      <trkpt lat="48.88031" lon="2.30002">
        <ele>54</ele>
        <time>2015-12-14T19:56:08Z</time>
      </trkpt>
      <trkpt lat="48.88008" lon="2.29985">
        <ele>53.599998474121</ele>
        <time>2015-12-14T19:56:11Z</time>
      </trkpt>
      <trkpt lat="48.87988" lon="2.29969">
        <ele>53</ele>
        <time>2015-12-14T19:56:14Z</time>
      </trkpt>
      <trkpt lat="48.87967" lon="2.29955">
        <ele>52.400001525879</ele>
        <time>2015-12-14T19:56:17Z</time>
      </trkpt>
      <trkpt lat="48.87946" lon="2.2994">
        <ele>51.79999923706</ele>
        <time>2015-12-14T19:56:20Z</time>
      </trkpt>
      <trkpt lat="48.87927" lon="2.29927">
        <ele>51.599998474121</ele>
        <time>2015-12-14T19:56:23Z</time>
      </trkpt>
      <trkpt lat="48.87921" lon="2.29924">
        <ele>51.599998474121</ele>
        <time>2015-12-14T19:56:24Z</time>
      </trkpt>
      <trkpt lat="48.87901" lon="2.29909">
        <ele>51.79999923706</ele>
        <time>2015-12-14T19:56:28Z</time>
      </trkpt>
      <trkpt lat="48.87884" lon="2.29895">
        <ele>51.599998474121</ele>
        <time>2015-12-14T19:56:32Z</time>
      </trkpt>
      <trkpt lat="48.87866" lon="2.29879">
        <ele>51.599998474121</ele>
        <time>2015-12-14T19:56:37Z</time>
      </trkpt>
      <trkpt lat="48.87861" lon="2.29876">
        <ele>51.599998474121</ele>
        <time>2015-12-14T19:56:39Z</time>
      </trkpt>
      <trkpt lat="48.87849" lon="2.29864">
        <ele>51.20000076294</ele>
        <time>2015-12-14T19:56:45Z</time>
      </trkpt>
      <trkpt lat="48.87847" lon="2.29862">
        <ele>51.20000076294</ele>
        <time>2015-12-14T19:56:46Z</time>
      </trkpt>
      <trkpt lat="48.87851" lon="2.29833">
        <ele>50.20000076294</ele>
        <time>2015-12-14T19:57:50Z</time>
      </trkpt>
      <trkpt lat="48.87852" lon="2.29803">
        <ele>50.400001525879</ele>
        <time>2015-12-14T19:58:00Z</time>
      </trkpt>
      <trkpt lat="48.8785" lon="2.29794">
        <ele>50.599998474121</ele>
        <time>2015-12-14T19:58:03Z</time>
      </trkpt>
      <trkpt lat="48.87833" lon="2.2978">
        <ele>50.79999923706</ele>
        <time>2015-12-14T19:58:11Z</time>
      </trkpt>
      <trkpt lat="48.87829" lon="2.29778">
        <ele>51</ele>
        <time>2015-12-14T19:58:13Z</time>
      </trkpt>
      <trkpt lat="48.87826" lon="2.29777">
        <ele>51</ele>
        <time>2015-12-14T19:58:15Z</time>
      </trkpt>
      <trkpt lat="48.87816" lon="2.29778">
        <ele>51.20000076294</ele>
        <time>2015-12-14T19:58:19Z</time>
      </trkpt>
      <trkpt lat="48.87808" lon="2.29775">
        <ele>51.20000076294</ele>
        <time>2015-12-14T19:58:23Z</time>
      </trkpt>
      <trkpt lat="48.87814" lon="2.29743">
        <ele>51.400001525879</ele>
        <time>2015-12-14T19:58:29Z</time>
      </trkpt>
      <trkpt lat="48.8782" lon="2.29731">
        <ele>51.20000076294</ele>
        <time>2015-12-14T19:58:31Z</time>
      </trkpt>
      <trkpt lat="48.87823" lon="2.29723">
        <ele>51.20000076294</ele>
        <time>2015-12-14T19:58:32Z</time>
      </trkpt>
      <trkpt lat="48.87832" lon="2.29697">
        <ele>50.599998474121</ele>
        <time>2015-12-14T19:58:36Z</time>
      </trkpt>
      <trkpt lat="48.87841" lon="2.29667">
        <ele>50.20000076294</ele>
        <time>2015-12-14T19:58:40Z</time>
      </trkpt>
      <trkpt lat="48.8785" lon="2.29635">
        <ele>50</ele>
        <time>2015-12-14T19:58:44Z</time>
      </trkpt>
      <trkpt lat="48.87849" lon="2.29601">
        <ele>49.599998474121</ele>
        <time>2015-12-14T19:58:48Z</time>
      </trkpt>
      <trkpt lat="48.87851" lon="2.29585">
        <ele>49.400001525879</ele>
        <time>2015-12-14T19:58:51Z</time>
      </trkpt>
      <trkpt lat="48.8785" lon="2.29578">
        <ele>49.400001525879</ele>
        <time>2015-12-14T19:58:53Z</time>
      </trkpt>
      <trkpt lat="48.8787" lon="2.29575">
        <ele>48.599998474121</ele>
        <time>2015-12-14T19:59:03Z</time>
      </trkpt>
      <trkpt lat="48.87876" lon="2.29563">
        <ele>48.599998474121</ele>
        <time>2015-12-14T19:59:07Z</time>
      </trkpt>
      <trkpt lat="48.87893" lon="2.29544">
        <ele>48.599998474121</ele>
        <time>2015-12-14T19:59:13Z</time>
      </trkpt>
      <trkpt lat="48.87912" lon="2.29525">
        <ele>48.599998474121</ele>
        <time>2015-12-14T19:59:18Z</time>
      </trkpt>
      <trkpt lat="48.87927" lon="2.29501">
        <ele>49.20000076294</ele>
        <time>2015-12-14T19:59:23Z</time>
      </trkpt>
      <trkpt lat="48.87941" lon="2.29484">
        <ele>49.20000076294</ele>
        <time>2015-12-14T19:59:31Z</time>
      </trkpt>
      <trkpt lat="48.8796" lon="2.29476">
        <ele>48.599998474121</ele>
        <time>2015-12-14T19:59:39Z</time>
      </trkpt>
      <trkpt lat="48.87973" lon="2.29456">
        <ele>48.400001525879</ele>
        <time>2015-12-14T19:59:43Z</time>
      </trkpt>
      <trkpt lat="48.8799" lon="2.29439">
        <ele>48.599998474121</ele>
        <time>2015-12-14T19:59:47Z</time>
      </trkpt>
      <trkpt lat="48.88004" lon="2.2942">
        <ele>49.20000076294</ele>
        <time>2015-12-14T19:59:51Z</time>
      </trkpt>
      <trkpt lat="48.88021" lon="2.29402">
        <ele>49</ele>
        <time>2015-12-14T19:59:55Z</time>
      </trkpt>
      <trkpt lat="48.88039" lon="2.29385">
        <ele>48.599998474121</ele>
        <time>2015-12-14T20:00:00Z</time>
      </trkpt>
      <trkpt lat="48.88054" lon="2.29365">
        <ele>48.20000076294</ele>
        <time>2015-12-14T20:00:05Z</time>
      </trkpt>
      <trkpt lat="48.88057" lon="2.2936">
        <ele>48</ele>
        <time>2015-12-14T20:00:06Z</time>
      </trkpt>
      <trkpt lat="48.88063" lon="2.29352">
        <ele>47.400001525879</ele>
        <time>2015-12-14T20:00:08Z</time>
      </trkpt>
      <trkpt lat="48.88068" lon="2.29339">
        <ele>46.599998474121</ele>
        <time>2015-12-14T20:00:11Z</time>
      </trkpt>
      <trkpt lat="48.88083" lon="2.29323">
        <ele>45.20000076294</ele>
        <time>2015-12-14T20:00:16Z</time>
      </trkpt>
      <trkpt lat="48.88098" lon="2.29307">
        <ele>44.20000076294</ele>
        <time>2015-12-14T20:00:24Z</time>
      </trkpt>
      <trkpt lat="48.88109" lon="2.29297">
        <ele>44.20000076294</ele>
        <time>2015-12-14T20:00:28Z</time>
      </trkpt>
      <trkpt lat="48.88128" lon="2.29311">
        <ele>45.599998474121</ele>
        <time>2015-12-14T20:00:34Z</time>
      </trkpt>
      <trkpt lat="48.88135" lon="2.29318">
        <ele>46</ele>
        <time>2015-12-14T20:00:36Z</time>
      </trkpt>
      <trkpt lat="48.8815" lon="2.29334">
        <ele>47.20000076294</ele>
        <time>2015-12-14T20:00:41Z</time>
      </trkpt>
      <trkpt lat="48.88166" lon="2.29347">
        <ele>48.599998474121</ele>
        <time>2015-12-14T20:00:46Z</time>
      </trkpt>
      <trkpt lat="48.88181" lon="2.29366">
        <ele>50.20000076294</ele>
        <time>2015-12-14T20:00:53Z</time>
      </trkpt>
      <trkpt lat="48.882" lon="2.29376">
        <ele>51</ele>
        <time>2015-12-14T20:00:59Z</time>
      </trkpt>
      <trkpt lat="48.88216" lon="2.29393">
        <ele>51.20000076294</ele>
        <time>2015-12-14T20:01:06Z</time>
      </trkpt>
      <trkpt lat="48.88222" lon="2.29399">
        <ele>51.20000076294</ele>
        <time>2015-12-14T20:01:10Z</time>
      </trkpt>
      <trkpt lat="48.88242" lon="2.29387">
        <ele>50.79999923706</ele>
        <time>2015-12-14T20:01:17Z</time>
      </trkpt>
      <trkpt lat="48.88257" lon="2.2937">
        <ele>50.400001525879</ele>
        <time>2015-12-14T20:01:24Z</time>
      </trkpt>
      <trkpt lat="48.88278" lon="2.2937">
        <ele>50.20000076294</ele>
        <time>2015-12-14T20:01:28Z</time>
      </trkpt>
      <trkpt lat="48.88295" lon="2.29357">
        <ele>48.79999923706</ele>
        <time>2015-12-14T20:01:41Z</time>
      </trkpt>
      <trkpt lat="48.88296" lon="2.29356">
        <ele>48.599998474121</ele>
        <time>2015-12-14T20:01:42Z</time>
      </trkpt>
      <trkpt lat="48.8831" lon="2.29332">
        <ele>47.79999923706</ele>
        <time>2015-12-14T20:01:50Z</time>
      </trkpt>
      <trkpt lat="48.8832" lon="2.29325">
        <ele>47</ele>
        <time>2015-12-14T20:01:53Z</time>
      </trkpt>
      <trkpt lat="48.88338" lon="2.29309">
        <ele>45.400001525879</ele>
        <time>2015-12-14T20:01:59Z</time>
      </trkpt>
      <trkpt lat="48.88341" lon="2.29296">
        <ele>45.599998474121</ele>
        <time>2015-12-14T20:02:04Z</time>
      </trkpt>
      <trkpt lat="48.88326" lon="2.29275">
        <ele>46</ele>
        <time>2015-12-14T20:02:11Z</time>
      </trkpt>
      <trkpt lat="48.88307" lon="2.29261">
        <ele>46.400001525879</ele>
        <time>2015-12-14T20:02:16Z</time>
      </trkpt>
      <trkpt lat="48.88294" lon="2.29238">
        <ele>47</ele>
        <time>2015-12-14T20:02:21Z</time>
      </trkpt>
      <trkpt lat="48.88285" lon="2.29209">
        <ele>47.79999923706</ele>
        <time>2015-12-14T20:02:26Z</time>
      </trkpt>
      <trkpt lat="48.8827" lon="2.29191">
        <ele>48.20000076294</ele>
        <time>2015-12-14T20:02:30Z</time>
      </trkpt>
      <trkpt lat="48.88255" lon="2.29169">
        <ele>48.400001525879</ele>
        <time>2015-12-14T20:02:35Z</time>
      </trkpt>
      <trkpt lat="48.88249" lon="2.29149">
        <ele>48</ele>
        <time>2015-12-14T20:02:40Z</time>
      </trkpt>
      <trkpt lat="48.88257" lon="2.29123">
        <ele>47.400001525879</ele>
        <time>2015-12-14T20:02:43Z</time>
      </trkpt>
      <trkpt lat="48.88266" lon="2.29106">
        <ele>47.400001525879</ele>
        <time>2015-12-14T20:02:46Z</time>
      </trkpt>
      <trkpt lat="48.8828" lon="2.29082">
        <ele>46.79999923706</ele>
        <time>2015-12-14T20:02:51Z</time>
      </trkpt>
      <trkpt lat="48.88296" lon="2.29061">
        <ele>45</ele>
        <time>2015-12-14T20:02:57Z</time>
      </trkpt>
      <trkpt lat="48.88296" lon="2.29047">
        <ele>44.400001525879</ele>
        <time>2015-12-14T20:03:01Z</time>
      </trkpt>
      <trkpt lat="48.88284" lon="2.29028">
        <ele>44</ele>
        <time>2015-12-14T20:03:06Z</time>
      </trkpt>
      <trkpt lat="48.8827" lon="2.29006">
        <ele>43.599998474121</ele>
        <time>2015-12-14T20:03:16Z</time>
      </trkpt>
      <trkpt lat="48.88255" lon="2.28991">
        <ele>43.400001525879</ele>
        <time>2015-12-14T20:03:22Z</time>
      </trkpt>
      <trkpt lat="48.88245" lon="2.28963">
        <ele>43.20000076294</ele>
        <time>2015-12-14T20:03:29Z</time>
      </trkpt>
      <trkpt lat="48.88231" lon="2.28945">
        <ele>43</ele>
        <time>2015-12-14T20:03:34Z</time>
      </trkpt>
      <trkpt lat="48.88218" lon="2.28926">
        <ele>43</ele>
        <time>2015-12-14T20:03:39Z</time>
      </trkpt>
      <trkpt lat="48.8821" lon="2.28899">
        <ele>42.400001525879</ele>
        <time>2015-12-14T20:03:45Z</time>
      </trkpt>
      <trkpt lat="48.88211" lon="2.28883">
        <ele>42</ele>
        <time>2015-12-14T20:03:54Z</time>
      </trkpt>
      <trkpt lat="48.8822" lon="2.2887">
        <ele>41.20000076294</ele>
        <time>2015-12-14T20:04:00Z</time>
      </trkpt>
      <trkpt lat="48.88217" lon="2.28871">
        <ele>41.400001525879</ele>
        <time>2015-12-14T20:04:05Z</time>
      </trkpt>
      <trkpt lat="48.88216" lon="2.2887">
        <ele>41.400001525879</ele>
        <time>2015-12-14T20:04:07Z</time>
      </trkpt>
      <trkpt lat="48.88209" lon="2.28859">
        <ele>41.599998474121</ele>
        <time>2015-12-14T20:04:11Z</time>
      </trkpt>
      <trkpt lat="48.8819" lon="2.28845">
        <ele>42.400001525879</ele>
        <time>2015-12-14T20:04:16Z</time>
      </trkpt>
      <trkpt lat="48.8819" lon="2.2884">
        <ele>42.20000076294</ele>
        <time>2015-12-14T20:04:18Z</time>
      </trkpt>
      <trkpt lat="48.88201" lon="2.28845">
        <ele>41.79999923706</ele>
        <time>2015-12-14T20:04:24Z</time>
      </trkpt>
      <trkpt lat="48.88219" lon="2.28853">
        <ele>41.20000076294</ele>
        <time>2015-12-14T20:04:35Z</time>
      </trkpt>
      <trkpt lat="48.8822" lon="2.28852">
        <ele>41.20000076294</ele>
        <time>2015-12-14T20:04:36Z</time>
      </trkpt>
      <trkpt lat="48.88222" lon="2.28852">
        <ele>41.400001525879</ele>
        <time>2015-12-14T20:04:39Z</time>
      </trkpt>
      <trkpt lat="48.88234" lon="2.28838">
        <ele>42.20000076294</ele>
        <time>2015-12-14T20:05:01Z</time>
      </trkpt>
      <trkpt lat="48.88247" lon="2.28815">
        <ele>42.79999923706</ele>
        <time>2015-12-14T20:05:10Z</time>
      </trkpt>
      <trkpt lat="48.88263" lon="2.28799">
        <ele>43.79999923706</ele>
        <time>2015-12-14T20:05:17Z</time>
      </trkpt>
      <trkpt lat="48.88279" lon="2.28784">
        <ele>44.79999923706</ele>
        <time>2015-12-14T20:05:25Z</time>
      </trkpt>
      <trkpt lat="48.88287" lon="2.28745">
        <ele>46.20000076294</ele>
        <time>2015-12-14T20:05:37Z</time>
      </trkpt>
      <trkpt lat="48.88286" lon="2.28741">
        <ele>46.20000076294</ele>
        <time>2015-12-14T20:05:38Z</time>
      </trkpt>
      <trkpt lat="48.88276" lon="2.28725">
        <ele>46</ele>
        <time>2015-12-14T20:05:43Z</time>
      </trkpt>
      <trkpt lat="48.88262" lon="2.28706">
        <ele>45.79999923706</ele>
        <time>2015-12-14T20:05:49Z</time>
      </trkpt>
      <trkpt lat="48.88248" lon="2.28684">
        <ele>45.400001525879</ele>
        <time>2015-12-14T20:05:54Z</time>
      </trkpt>
      <trkpt lat="48.88233" lon="2.28665">
        <ele>45</ele>
        <time>2015-12-14T20:05:59Z</time>
      </trkpt>
      <trkpt lat="48.8822" lon="2.28643">
        <ele>45.20000076294</ele>
        <time>2015-12-14T20:06:05Z</time>
      </trkpt>
      <trkpt lat="48.88204" lon="2.2862">
        <ele>45.400001525879</ele>
        <time>2015-12-14T20:06:11Z</time>
      </trkpt>
      <trkpt lat="48.88188" lon="2.28604">
        <ele>45.400001525879</ele>
        <time>2015-12-14T20:06:16Z</time>
      </trkpt>
      <trkpt lat="48.88171" lon="2.28592">
        <ele>45.20000076294</ele>
        <time>2015-12-14T20:06:24Z</time>
      </trkpt>
      <trkpt lat="48.88151" lon="2.28599">
        <ele>44.599998474121</ele>
        <time>2015-12-14T20:06:32Z</time>
      </trkpt>
      <trkpt lat="48.88133" lon="2.28591">
        <ele>44.400001525879</ele>
        <time>2015-12-14T20:06:38Z</time>
      </trkpt>
      <trkpt lat="48.88114" lon="2.2858">
        <ele>44.20000076294</ele>
        <time>2015-12-14T20:06:44Z</time>
      </trkpt>
      <trkpt lat="48.88096" lon="2.28566">
        <ele>44.599998474121</ele>
        <time>2015-12-14T20:06:49Z</time>
      </trkpt>
      <trkpt lat="48.88078" lon="2.28555">
        <ele>45.79999923706</ele>
        <time>2015-12-14T20:06:56Z</time>
      </trkpt>
      <trkpt lat="48.88062" lon="2.28543">
        <ele>46.599998474121</ele>
        <time>2015-12-14T20:07:05Z</time>
      </trkpt>
      <trkpt lat="48.88043" lon="2.28532">
        <ele>47.400001525879</ele>
        <time>2015-12-14T20:07:10Z</time>
      </trkpt>
      <trkpt lat="48.88024" lon="2.2852">
        <ele>48.20000076294</ele>
        <time>2015-12-14T20:07:14Z</time>
      </trkpt>
      <trkpt lat="48.88007" lon="2.28509">
        <ele>49.20000076294</ele>
        <time>2015-12-14T20:07:17Z</time>
      </trkpt>
      <trkpt lat="48.87985" lon="2.28497">
        <ele>50.400001525879</ele>
        <time>2015-12-14T20:07:21Z</time>
      </trkpt>
      <trkpt lat="48.87966" lon="2.28487">
        <ele>51.79999923706</ele>
        <time>2015-12-14T20:07:24Z</time>
      </trkpt>
      <trkpt lat="48.87948" lon="2.28478">
        <ele>53</ele>
        <time>2015-12-14T20:07:27Z</time>
      </trkpt>
      <trkpt lat="48.87928" lon="2.28471">
        <ele>51.599998474121</ele>
        <time>2015-12-14T20:07:30Z</time>
      </trkpt>
      <trkpt lat="48.87923" lon="2.2847">
        <ele>50.599998474121</ele>
        <time>2015-12-14T20:07:31Z</time>
      </trkpt>
      <trkpt lat="48.87907" lon="2.28461">
        <ele>48.20000076294</ele>
        <time>2015-12-14T20:07:34Z</time>
      </trkpt>
      <trkpt lat="48.87887" lon="2.2845">
        <ele>46.20000076294</ele>
        <time>2015-12-14T20:07:37Z</time>
      </trkpt>
      <trkpt lat="48.87867" lon="2.28443">
        <ele>44.599998474121</ele>
        <time>2015-12-14T20:07:40Z</time>
      </trkpt>
      <trkpt lat="48.87846" lon="2.28438">
        <ele>44.20000076294</ele>
        <time>2015-12-14T20:07:44Z</time>
      </trkpt>
      <trkpt lat="48.87827" lon="2.28436">
        <ele>44.599998474121</ele>
        <time>2015-12-14T20:07:49Z</time>
      </trkpt>
      <trkpt lat="48.87817" lon="2.2843">
        <ele>44.599998474121</ele>
        <time>2015-12-14T20:07:53Z</time>
      </trkpt>
      <trkpt lat="48.87813" lon="2.28423">
        <ele>44.400001525879</ele>
        <time>2015-12-14T20:07:57Z</time>
      </trkpt>
      <trkpt lat="48.87817" lon="2.28423">
        <ele>44.20000076294</ele>
        <time>2015-12-14T20:08:21Z</time>
      </trkpt>
      <trkpt lat="48.87801" lon="2.28417">
        <ele>44.400001525879</ele>
        <time>2015-12-14T20:08:36Z</time>
      </trkpt>
      <trkpt lat="48.87783" lon="2.28422">
        <ele>45</ele>
        <time>2015-12-14T20:08:45Z</time>
      </trkpt>
      <trkpt lat="48.87774" lon="2.28428">
        <ele>45.599998474121</ele>
        <time>2015-12-14T20:08:50Z</time>
      </trkpt>
      <trkpt lat="48.87764" lon="2.28427">
        <ele>46.20000076294</ele>
        <time>2015-12-14T20:09:00Z</time>
      </trkpt>
      <trkpt lat="48.87746" lon="2.28431">
        <ele>47.20000076294</ele>
        <time>2015-12-14T20:09:24Z</time>
      </trkpt>
      <trkpt lat="48.87742" lon="2.28429">
        <ele>47.20000076294</ele>
        <time>2015-12-14T20:09:26Z</time>
      </trkpt>
      <trkpt lat="48.87736" lon="2.28422">
        <ele>47.20000076294</ele>
        <time>2015-12-14T20:09:32Z</time>
      </trkpt>
      <trkpt lat="48.87716" lon="2.28406">
        <ele>47.599998474121</ele>
        <time>2015-12-14T20:10:18Z</time>
      </trkpt>
      <trkpt lat="48.87708" lon="2.28382">
        <ele>47.79999923706</ele>
        <time>2015-12-14T20:10:31Z</time>
      </trkpt>
      <trkpt lat="48.87698" lon="2.28363">
        <ele>48</ele>
        <time>2015-12-14T20:10:38Z</time>
      </trkpt>
      <trkpt lat="48.8768" lon="2.28356">
        <ele>49.20000076294</ele>
        <time>2015-12-14T20:10:53Z</time>
      </trkpt>
      <trkpt lat="48.87663" lon="2.28364">
        <ele>51</ele>
        <time>2015-12-14T20:11:03Z</time>
      </trkpt>
      <trkpt lat="48.87644" lon="2.28378">
        <ele>53</ele>
        <time>2015-12-14T20:11:10Z</time>
      </trkpt>
      <trkpt lat="48.87624" lon="2.2838">
        <ele>55</ele>
        <time>2015-12-14T20:11:13Z</time>
      </trkpt>
      <trkpt lat="48.87602" lon="2.28382">
        <ele>56.599998474121</ele>
        <time>2015-12-14T20:11:16Z</time>
      </trkpt>
      <trkpt lat="48.87583" lon="2.28386">
        <ele>56.599998474121</ele>
        <time>2015-12-14T20:11:19Z</time>
      </trkpt>
      <trkpt lat="48.87572" lon="2.28389">
        <ele>57</ele>
        <time>2015-12-14T20:11:21Z</time>
      </trkpt>
      <trkpt lat="48.87551" lon="2.28398">
        <ele>57.79999923706</ele>
        <time>2015-12-14T20:11:25Z</time>
      </trkpt>
      <trkpt lat="48.87529" lon="2.28404">
        <ele>58.599998474121</ele>
        <time>2015-12-14T20:11:29Z</time>
      </trkpt>
      <trkpt lat="48.87507" lon="2.28397">
        <ele>59.599998474121</ele>
        <time>2015-12-14T20:11:32Z</time>
      </trkpt>
      <trkpt lat="48.87498" lon="2.28396">
        <ele>59.400001525879</ele>
        <time>2015-12-14T20:11:37Z</time>
      </trkpt>
      <trkpt lat="48.87498" lon="2.28396">
        <ele>59.599998474121</ele>
        <time>2015-12-14T20:11:38Z</time>
      </trkpt>
      <trkpt lat="48.87499" lon="2.28386">
        <ele>59.79999923706</ele>
        <time>2015-12-14T20:11:48Z</time>
      </trkpt>
      <trkpt lat="48.8749" lon="2.28375">
        <ele>60</ele>
        <time>2015-12-14T20:11:52Z</time>
      </trkpt>
      <trkpt lat="48.87475" lon="2.28358">
        <ele>60.400001525879</ele>
        <time>2015-12-14T20:11:56Z</time>
      </trkpt>
      <trkpt lat="48.87462" lon="2.2834">
        <ele>60.79999923706</ele>
        <time>2015-12-14T20:12:00Z</time>
      </trkpt>
      <trkpt lat="48.87451" lon="2.28327">
        <ele>61.20000076294</ele>
        <time>2015-12-14T20:12:03Z</time>
      </trkpt>
      <trkpt lat="48.87436" lon="2.28307">
        <ele>61.599998474121</ele>
        <time>2015-12-14T20:12:07Z</time>
      </trkpt>
      <trkpt lat="48.87418" lon="2.28288">
        <ele>61.20000076294</ele>
        <time>2015-12-14T20:12:12Z</time>
      </trkpt>
      <trkpt lat="48.87401" lon="2.28274">
        <ele>61.20000076294</ele>
        <time>2015-12-14T20:12:16Z</time>
      </trkpt>
      <trkpt lat="48.8739" lon="2.28244">
        <ele>60.599998474121</ele>
        <time>2015-12-14T20:12:21Z</time>
      </trkpt>
      <trkpt lat="48.8738" lon="2.28229">
        <ele>61.20000076294</ele>
        <time>2015-12-14T20:12:25Z</time>
      </trkpt>
      <trkpt lat="48.8737" lon="2.2824">
        <ele>61</ele>
        <time>2015-12-14T20:12:40Z</time>
      </trkpt>
      <trkpt lat="48.87355" lon="2.28262">
        <ele>60.20000076294</ele>
        <time>2015-12-14T20:12:46Z</time>
      </trkpt>
      <trkpt lat="48.87346" lon="2.28278">
        <ele>58.79999923706</ele>
        <time>2015-12-14T20:12:54Z</time>
      </trkpt>
      <trkpt lat="48.87333" lon="2.28302">
        <ele>56.79999923706</ele>
        <time>2015-12-14T20:13:03Z</time>
      </trkpt>
      <trkpt lat="48.87316" lon="2.28316">
        <ele>54.599998474121</ele>
        <time>2015-12-14T20:13:10Z</time>
      </trkpt>
      <trkpt lat="48.87305" lon="2.28341">
        <ele>52.400001525879</ele>
        <time>2015-12-14T20:13:16Z</time>
      </trkpt>
      <trkpt lat="48.87306" lon="2.28372">
        <ele>51.79999923706</ele>
        <time>2015-12-14T20:13:27Z</time>
      </trkpt>
      <trkpt lat="48.873" lon="2.28357">
        <ele>51.599998474121</ele>
        <time>2015-12-14T20:13:40Z</time>
      </trkpt>
      <trkpt lat="48.87288" lon="2.28338">
        <ele>51</ele>
        <time>2015-12-14T20:14:02Z</time>
      </trkpt>
      <trkpt lat="48.87273" lon="2.28323">
        <ele>50.599998474121</ele>
        <time>2015-12-14T20:14:12Z</time>
      </trkpt>
      <trkpt lat="48.87256" lon="2.28317">
        <ele>52.400001525879</ele>
        <time>2015-12-14T20:14:27Z</time>
      </trkpt>
      <trkpt lat="48.8725" lon="2.28317">
        <ele>53.400001525879</ele>
        <time>2015-12-14T20:14:30Z</time>
      </trkpt>
      <trkpt lat="48.87243" lon="2.28319">
        <ele>54.599998474121</ele>
        <time>2015-12-14T20:14:34Z</time>
      </trkpt>
      <trkpt lat="48.87239" lon="2.28307">
        <ele>55</ele>
        <time>2015-12-14T20:14:47Z</time>
      </trkpt>
      <trkpt lat="48.8723" lon="2.28284">
        <ele>55.79999923706</ele>
        <time>2015-12-14T20:15:15Z</time>
      </trkpt>
      <trkpt lat="48.87217" lon="2.28267">
        <ele>58</ele>
        <time>2015-12-14T20:15:26Z</time>
      </trkpt>
      <trkpt lat="48.87207" lon="2.2826">
        <ele>59</ele>
        <time>2015-12-14T20:15:32Z</time>
      </trkpt>
      <trkpt lat="48.87193" lon="2.28251">
        <ele>60.599998474121</ele>
        <time>2015-12-14T20:16:10Z</time>
      </trkpt>
      <trkpt lat="48.87179" lon="2.28248">
        <ele>61.599998474121</ele>
        <time>2015-12-14T20:17:05Z</time>
      </trkpt>
      <trkpt lat="48.8716" lon="2.28241">
        <ele>62</ele>
        <time>2015-12-14T20:17:16Z</time>
      </trkpt>
      <trkpt lat="48.87141" lon="2.28239">
        <ele>62.79999923706</ele>
        <time>2015-12-14T20:17:23Z</time>
      </trkpt>
      <trkpt lat="48.87121" lon="2.28234">
        <ele>63.400001525879</ele>
        <time>2015-12-14T20:17:29Z</time>
      </trkpt>
      <trkpt lat="48.87101" lon="2.28224">
        <ele>63.20000076294</ele>
        <time>2015-12-14T20:17:33Z</time>
      </trkpt>
      <trkpt lat="48.87083" lon="2.28215">
        <ele>62.20000076294</ele>
        <time>2015-12-14T20:17:36Z</time>
      </trkpt>
      <trkpt lat="48.87064" lon="2.28204">
        <ele>61</ele>
        <time>2015-12-14T20:17:41Z</time>
      </trkpt>
      <trkpt lat="48.87054" lon="2.28197">
        <ele>60.400001525879</ele>
        <time>2015-12-14T20:17:45Z</time>
      </trkpt>
      <trkpt lat="48.87051" lon="2.28192">
        <ele>59.79999923706</ele>
        <time>2015-12-14T20:17:48Z</time>
      </trkpt>
      <trkpt lat="48.87033" lon="2.2818">
        <ele>58.599998474121</ele>
        <time>2015-12-14T20:18:31Z</time>
      </trkpt>
      <trkpt lat="48.87029" lon="2.28209">
        <ele>62</ele>
        <time>2015-12-14T20:18:40Z</time>
      </trkpt>
      <trkpt lat="48.87025" lon="2.28238">
        <ele>65</ele>
        <time>2015-12-14T20:18:47Z</time>
      </trkpt>
      <trkpt lat="48.87029" lon="2.28257">
        <ele>66.199996948242</ele>
        <time>2015-12-14T20:18:54Z</time>
      </trkpt>
      <trkpt lat="48.87018" lon="2.28257">
        <ele>66.199996948242</ele>
        <time>2015-12-14T20:19:07Z</time>
      </trkpt>
      <trkpt lat="48.86996" lon="2.28259">
        <ele>66.199996948242</ele>
        <time>2015-12-14T20:19:17Z</time>
      </trkpt>
      <trkpt lat="48.86976" lon="2.28253">
        <ele>66</ele>
        <time>2015-12-14T20:19:26Z</time>
      </trkpt>
      <trkpt lat="48.8697" lon="2.28243">
        <ele>65.800003051758</ele>
        <time>2015-12-14T20:19:31Z</time>
      </trkpt>
      <trkpt lat="48.86953" lon="2.28231">
        <ele>65.400001525879</ele>
        <time>2015-12-14T20:19:37Z</time>
      </trkpt>
      <trkpt lat="48.86934" lon="2.28219">
        <ele>65.199996948242</ele>
        <time>2015-12-14T20:19:42Z</time>
      </trkpt>
      <trkpt lat="48.86914" lon="2.28208">
        <ele>65.599998474121</ele>
        <time>2015-12-14T20:19:47Z</time>
      </trkpt>
      <trkpt lat="48.86896" lon="2.28199">
        <ele>65.800003051758</ele>
        <time>2015-12-14T20:19:52Z</time>
      </trkpt>
      <trkpt lat="48.86876" lon="2.28191">
        <ele>66</ele>
        <time>2015-12-14T20:19:57Z</time>
      </trkpt>
      <trkpt lat="48.86859" lon="2.2818">
        <ele>66.199996948242</ele>
        <time>2015-12-14T20:20:03Z</time>
      </trkpt>
      <trkpt lat="48.8684" lon="2.28167">
        <ele>66</ele>
        <time>2015-12-14T20:20:10Z</time>
      </trkpt>
      <trkpt lat="48.86827" lon="2.28147">
        <ele>66.800003051758</ele>
        <time>2015-12-14T20:20:17Z</time>
      </trkpt>
      <trkpt lat="48.86817" lon="2.2814">
        <ele>67</ele>
        <time>2015-12-14T20:20:20Z</time>
      </trkpt>
      <trkpt lat="48.86804" lon="2.28136">
        <ele>67.199996948242</ele>
        <time>2015-12-14T20:20:26Z</time>
      </trkpt>
      <trkpt lat="48.86786" lon="2.28123">
        <ele>68</ele>
        <time>2015-12-14T20:21:16Z</time>
      </trkpt>
      <trkpt lat="48.86771" lon="2.28108">
        <ele>68.599998474121</ele>
        <time>2015-12-14T20:21:29Z</time>
      </trkpt>
      <trkpt lat="48.86769" lon="2.28105">
        <ele>68.800003051758</ele>
        <time>2015-12-14T20:21:33Z</time>
      </trkpt>
      <trkpt lat="48.86754" lon="2.2809">
        <ele>69.400001525879</ele>
        <time>2015-12-14T20:21:45Z</time>
      </trkpt>
      <trkpt lat="48.86735" lon="2.2808">
        <ele>70</ele>
        <time>2015-12-14T20:21:51Z</time>
      </trkpt>
      <trkpt lat="48.86716" lon="2.28071">
        <ele>69.800003051758</ele>
        <time>2015-12-14T20:21:57Z</time>
      </trkpt>
      <trkpt lat="48.86698" lon="2.28064">
        <ele>69.599998474121</ele>
        <time>2015-12-14T20:22:02Z</time>
      </trkpt>
      <trkpt lat="48.8668" lon="2.28057">
        <ele>69.199996948242</ele>
        <time>2015-12-14T20:22:08Z</time>
      </trkpt>
      <trkpt lat="48.86672" lon="2.2804">
        <ele>68.599998474121</ele>
        <time>2015-12-14T20:22:15Z</time>
      </trkpt>
      <trkpt lat="48.86663" lon="2.28036">
        <ele>68.400001525879</ele>
        <time>2015-12-14T20:22:20Z</time>
      </trkpt>
      <trkpt lat="48.8666" lon="2.28032">
        <ele>68.199996948242</ele>
        <time>2015-12-14T20:22:22Z</time>
      </trkpt>
      <trkpt lat="48.86644" lon="2.28016">
        <ele>67.400001525879</ele>
        <time>2015-12-14T20:22:52Z</time>
      </trkpt>
      <trkpt lat="48.86625" lon="2.28001">
        <ele>66.599998474121</ele>
        <time>2015-12-14T20:22:57Z</time>
      </trkpt>
      <trkpt lat="48.86607" lon="2.27989">
        <ele>66.400001525879</ele>
        <time>2015-12-14T20:23:01Z</time>
      </trkpt>
      <trkpt lat="48.86589" lon="2.27977">
        <ele>66</ele>
        <time>2015-12-14T20:23:04Z</time>
      </trkpt>
      <trkpt lat="48.86567" lon="2.27962">
        <ele>65.800003051758</ele>
        <time>2015-12-14T20:23:07Z</time>
      </trkpt>
      <trkpt lat="48.86546" lon="2.27945">
        <ele>65.800003051758</ele>
        <time>2015-12-14T20:23:10Z</time>
      </trkpt>
      <trkpt lat="48.86524" lon="2.27924">
        <ele>65.800003051758</ele>
        <time>2015-12-14T20:23:13Z</time>
      </trkpt>
      <trkpt lat="48.86504" lon="2.27898">
        <ele>65.800003051758</ele>
        <time>2015-12-14T20:23:16Z</time>
      </trkpt>
      <trkpt lat="48.86489" lon="2.27882">
        <ele>65.800003051758</ele>
        <time>2015-12-14T20:23:18Z</time>
      </trkpt>
      <trkpt lat="48.8647" lon="2.27859">
        <ele>66</ele>
        <time>2015-12-14T20:23:21Z</time>
      </trkpt>
      <trkpt lat="48.8645" lon="2.27838">
        <ele>66</ele>
        <time>2015-12-14T20:23:24Z</time>
      </trkpt>
      <trkpt lat="48.86435" lon="2.27817">
        <ele>65.800003051758</ele>
        <time>2015-12-14T20:23:27Z</time>
      </trkpt>
      <trkpt lat="48.86423" lon="2.27806">
        <ele>66</ele>
        <time>2015-12-14T20:23:29Z</time>
      </trkpt>
      <trkpt lat="48.86407" lon="2.27789">
        <ele>66.199996948242</ele>
        <time>2015-12-14T20:23:33Z</time>
      </trkpt>
      <trkpt lat="48.8639" lon="2.27769">
        <ele>66.400001525879</ele>
        <time>2015-12-14T20:23:39Z</time>
      </trkpt>
      <trkpt lat="48.86388" lon="2.27767">
        <ele>66.400001525879</ele>
        <time>2015-12-14T20:23:40Z</time>
      </trkpt>
      <trkpt lat="48.86385" lon="2.27761">
        <ele>66.400001525879</ele>
        <time>2015-12-14T20:23:44Z</time>
      </trkpt>
      <trkpt lat="48.86373" lon="2.27737">
        <ele>66.400001525879</ele>
        <time>2015-12-14T20:24:02Z</time>
      </trkpt>
      <trkpt lat="48.86356" lon="2.2772">
        <ele>67</ele>
        <time>2015-12-14T20:24:07Z</time>
      </trkpt>
      <trkpt lat="48.8634" lon="2.27708">
        <ele>66.400001525879</ele>
        <time>2015-12-14T20:24:11Z</time>
      </trkpt>
      <trkpt lat="48.86322" lon="2.27694">
        <ele>65.800003051758</ele>
        <time>2015-12-14T20:24:15Z</time>
      </trkpt>
      <trkpt lat="48.86304" lon="2.27678">
        <ele>65.199996948242</ele>
        <time>2015-12-14T20:24:19Z</time>
      </trkpt>
      <trkpt lat="48.86288" lon="2.27663">
        <ele>64.599998474121</ele>
        <time>2015-12-14T20:24:23Z</time>
      </trkpt>
      <trkpt lat="48.86269" lon="2.27649">
        <ele>64</ele>
        <time>2015-12-14T20:24:28Z</time>
      </trkpt>
      <trkpt lat="48.86249" lon="2.27639">
        <ele>64.599998474121</ele>
        <time>2015-12-14T20:24:33Z</time>
      </trkpt>
      <trkpt lat="48.8623" lon="2.27625">
        <ele>65</ele>
        <time>2015-12-14T20:24:39Z</time>
      </trkpt>
      <trkpt lat="48.86215" lon="2.27616">
        <ele>65.199996948242</ele>
        <time>2015-12-14T20:24:43Z</time>
      </trkpt>
      <trkpt lat="48.86196" lon="2.27603">
        <ele>65.400001525879</ele>
        <time>2015-12-14T20:24:48Z</time>
      </trkpt>
      <trkpt lat="48.86179" lon="2.27589">
        <ele>66</ele>
        <time>2015-12-14T20:24:52Z</time>
      </trkpt>
      <trkpt lat="48.86169" lon="2.27582">
        <ele>66.400001525879</ele>
        <time>2015-12-14T20:24:54Z</time>
      </trkpt>
      <trkpt lat="48.8615" lon="2.2757">
        <ele>67</ele>
        <time>2015-12-14T20:24:57Z</time>
      </trkpt>
      <trkpt lat="48.8613" lon="2.2756">
        <ele>67.400001525879</ele>
        <time>2015-12-14T20:25:00Z</time>
      </trkpt>
      <trkpt lat="48.86111" lon="2.2755">
        <ele>67.800003051758</ele>
        <time>2015-12-14T20:25:03Z</time>
      </trkpt>
      <trkpt lat="48.86092" lon="2.27538">
        <ele>67.800003051758</ele>
        <time>2015-12-14T20:25:07Z</time>
      </trkpt>
      <trkpt lat="48.86081" lon="2.27533">
        <ele>67.599998474121</ele>
        <time>2015-12-14T20:25:10Z</time>
      </trkpt>
      <trkpt lat="48.86063" lon="2.27543">
        <ele>67.400001525879</ele>
        <time>2015-12-14T20:25:14Z</time>
      </trkpt>
      <trkpt lat="48.86048" lon="2.27545">
        <ele>67</ele>
        <time>2015-12-14T20:25:17Z</time>
      </trkpt>
      <trkpt lat="48.86026" lon="2.27553">
        <ele>66.400001525879</ele>
        <time>2015-12-14T20:25:21Z</time>
      </trkpt>
      <trkpt lat="48.8602" lon="2.27553">
        <ele>66.400001525879</ele>
        <time>2015-12-14T20:25:22Z</time>
      </trkpt>
      <trkpt lat="48.85995" lon="2.27549">
        <ele>67</ele>
        <time>2015-12-14T20:25:25Z</time>
      </trkpt>
      <trkpt lat="48.85973" lon="2.27547">
        <ele>67.400001525879</ele>
        <time>2015-12-14T20:25:28Z</time>
      </trkpt>
      <trkpt lat="48.85952" lon="2.27546">
        <ele>67.599998474121</ele>
        <time>2015-12-14T20:25:33Z</time>
      </trkpt>
      <trkpt lat="48.85929" lon="2.27538">
        <ele>67.800003051758</ele>
        <time>2015-12-14T20:25:37Z</time>
      </trkpt>
      <trkpt lat="48.8591" lon="2.27527">
        <ele>68</ele>
        <time>2015-12-14T20:25:41Z</time>
      </trkpt>
      <trkpt lat="48.85892" lon="2.27519">
        <ele>67.800003051758</ele>
        <time>2015-12-14T20:25:44Z</time>
      </trkpt>
      <trkpt lat="48.85874" lon="2.27517">
        <ele>67.800003051758</ele>
        <time>2015-12-14T20:25:48Z</time>
      </trkpt>
      <trkpt lat="48.85855" lon="2.27519">
        <ele>67.400001525879</ele>
        <time>2015-12-14T20:25:52Z</time>
      </trkpt>
      <trkpt lat="48.85851" lon="2.27518">
        <ele>67.400001525879</ele>
        <time>2015-12-14T20:25:54Z</time>
      </trkpt>
      <trkpt lat="48.85847" lon="2.27519">
        <ele>67.199996948242</ele>
        <time>2015-12-14T20:25:58Z</time>
      </trkpt>
      <trkpt lat="48.85846" lon="2.2752">
        <ele>67.199996948242</ele>
        <time>2015-12-14T20:25:59Z</time>
      </trkpt>
      <trkpt lat="48.85839" lon="2.27512">
        <ele>67.199996948242</ele>
        <time>2015-12-14T20:26:18Z</time>
      </trkpt>
      <trkpt lat="48.85822" lon="2.27495">
        <ele>67.199996948242</ele>
        <time>2015-12-14T20:26:46Z</time>
      </trkpt>
      <trkpt lat="48.85816" lon="2.27466">
        <ele>67.800003051758</ele>
        <time>2015-12-14T20:26:54Z</time>
      </trkpt>
      <trkpt lat="48.85813" lon="2.27434">
        <ele>68.599998474121</ele>
        <time>2015-12-14T20:26:59Z</time>
      </trkpt>
      <trkpt lat="48.85819" lon="2.27406">
        <ele>69.599998474121</ele>
        <time>2015-12-14T20:27:04Z</time>
      </trkpt>
      <trkpt lat="48.85824" lon="2.27376">
        <ele>69.199996948242</ele>
        <time>2015-12-14T20:27:10Z</time>
      </trkpt>
      <trkpt lat="48.85826" lon="2.27345">
        <ele>67.800003051758</ele>
        <time>2015-12-14T20:27:16Z</time>
      </trkpt>
      <trkpt lat="48.85821" lon="2.27317">
        <ele>66.199996948242</ele>
        <time>2015-12-14T20:27:21Z</time>
      </trkpt>
      <trkpt lat="48.8582" lon="2.27288">
        <ele>64.800003051758</ele>
        <time>2015-12-14T20:27:28Z</time>
      </trkpt>
      <trkpt lat="48.85816" lon="2.27269">
        <ele>64.199996948242</ele>
        <time>2015-12-14T20:27:34Z</time>
      </trkpt>
      <trkpt lat="48.85798" lon="2.27268">
        <ele>63.400001525879</ele>
        <time>2015-12-14T20:27:54Z</time>
      </trkpt>
      <trkpt lat="48.85779" lon="2.27279">
        <ele>64</ele>
        <time>2015-12-14T20:28:01Z</time>
      </trkpt>
      <trkpt lat="48.85761" lon="2.27289">
        <ele>64.599998474121</ele>
        <time>2015-12-14T20:28:05Z</time>
      </trkpt>
      <trkpt lat="48.85746" lon="2.27305">
        <ele>65.400001525879</ele>
        <time>2015-12-14T20:28:11Z</time>
      </trkpt>
      <trkpt lat="48.85744" lon="2.2731">
        <ele>65.199996948242</ele>
        <time>2015-12-14T20:28:13Z</time>
      </trkpt>
      <trkpt lat="48.8574" lon="2.2732">
        <ele>65</ele>
        <time>2015-12-14T20:28:17Z</time>
      </trkpt>
      <trkpt lat="48.8573" lon="2.2733">
        <ele>64.400001525879</ele>
        <time>2015-12-14T20:28:21Z</time>
      </trkpt>
      <trkpt lat="48.85722" lon="2.2736">
        <ele>64.400001525879</ele>
        <time>2015-12-14T20:28:26Z</time>
      </trkpt>
      <trkpt lat="48.85708" lon="2.27383">
        <ele>64.199996948242</ele>
        <time>2015-12-14T20:28:31Z</time>
      </trkpt>
      <trkpt lat="48.85693" lon="2.27403">
        <ele>64</ele>
        <time>2015-12-14T20:28:36Z</time>
      </trkpt>
      <trkpt lat="48.85681" lon="2.27429">
        <ele>63</ele>
        <time>2015-12-14T20:28:41Z</time>
      </trkpt>
      <trkpt lat="48.85675" lon="2.27456">
        <ele>62.20000076294</ele>
        <time>2015-12-14T20:28:45Z</time>
      </trkpt>
      <trkpt lat="48.85659" lon="2.27483">
        <ele>61.20000076294</ele>
        <time>2015-12-14T20:28:49Z</time>
      </trkpt>
      <trkpt lat="48.85649" lon="2.27507">
        <ele>61</ele>
        <time>2015-12-14T20:28:53Z</time>
      </trkpt>
      <trkpt lat="48.85637" lon="2.27533">
        <ele>60.20000076294</ele>
        <time>2015-12-14T20:28:59Z</time>
      </trkpt>
      <trkpt lat="48.85631" lon="2.27541">
        <ele>60.400001525879</ele>
        <time>2015-12-14T20:29:01Z</time>
      </trkpt>
      <trkpt lat="48.85626" lon="2.27551">
        <ele>60.599998474121</ele>
        <time>2015-12-14T20:29:04Z</time>
      </trkpt>
      <trkpt lat="48.85609" lon="2.2757">
        <ele>60.79999923706</ele>
        <time>2015-12-14T20:29:09Z</time>
      </trkpt>
      <trkpt lat="48.85589" lon="2.27588">
        <ele>60</ele>
        <time>2015-12-14T20:29:13Z</time>
      </trkpt>
      <trkpt lat="48.85572" lon="2.27608">
        <ele>58.79999923706</ele>
        <time>2015-12-14T20:29:17Z</time>
      </trkpt>
      <trkpt lat="48.85561" lon="2.2763">
        <ele>58.599998474121</ele>
        <time>2015-12-14T20:29:20Z</time>
      </trkpt>
      <trkpt lat="48.85553" lon="2.27646">
        <ele>58.79999923706</ele>
        <time>2015-12-14T20:29:23Z</time>
      </trkpt>
      <trkpt lat="48.85549" lon="2.27659">
        <ele>59.20000076294</ele>
        <time>2015-12-14T20:29:26Z</time>
      </trkpt>
      <trkpt lat="48.8553" lon="2.27672">
        <ele>58.400001525879</ele>
        <time>2015-12-14T20:29:52Z</time>
      </trkpt>
      <trkpt lat="48.85519" lon="2.27694">
        <ele>57.400001525879</ele>
        <time>2015-12-14T20:29:58Z</time>
      </trkpt>
      <trkpt lat="48.85506" lon="2.27716">
        <ele>56.79999923706</ele>
        <time>2015-12-14T20:30:06Z</time>
      </trkpt>
      <trkpt lat="48.8549" lon="2.27735">
        <ele>56.79999923706</ele>
        <time>2015-12-14T20:30:13Z</time>
      </trkpt>
      <trkpt lat="48.85476" lon="2.27754">
        <ele>57.400001525879</ele>
        <time>2015-12-14T20:30:19Z</time>
      </trkpt>
      <trkpt lat="48.8546" lon="2.27771">
        <ele>57.79999923706</ele>
        <time>2015-12-14T20:30:26Z</time>
      </trkpt>
      <trkpt lat="48.85442" lon="2.27785">
        <ele>56.20000076294</ele>
        <time>2015-12-14T20:30:33Z</time>
      </trkpt>
      <trkpt lat="48.85438" lon="2.27799">
        <ele>55.599998474121</ele>
        <time>2015-12-14T20:30:38Z</time>
      </trkpt>
      <trkpt lat="48.85436" lon="2.27828">
        <ele>54.599998474121</ele>
        <time>2015-12-14T20:30:45Z</time>
      </trkpt>
      <trkpt lat="48.85444" lon="2.27853">
        <ele>54.599998474121</ele>
        <time>2015-12-14T20:30:51Z</time>
      </trkpt>
      <trkpt lat="48.85445" lon="2.27863">
        <ele>54.400001525879</ele>
        <time>2015-12-14T20:30:53Z</time>
      </trkpt>
      <trkpt lat="48.85449" lon="2.27894">
        <ele>53.400001525879</ele>
        <time>2015-12-14T20:31:00Z</time>
      </trkpt>
      <trkpt lat="48.85454" lon="2.27924">
        <ele>52.79999923706</ele>
        <time>2015-12-14T20:31:07Z</time>
      </trkpt>
      <trkpt lat="48.85457" lon="2.27934">
        <ele>53</ele>
        <time>2015-12-14T20:31:12Z</time>
      </trkpt>
      <trkpt lat="48.85469" lon="2.27956">
        <ele>54.20000076294</ele>
        <time>2015-12-14T20:31:21Z</time>
      </trkpt>
      <trkpt lat="48.85484" lon="2.27974">
        <ele>55.79999923706</ele>
        <time>2015-12-14T20:31:32Z</time>
      </trkpt>
      <trkpt lat="48.85488" lon="2.27983">
        <ele>56.20000076294</ele>
        <time>2015-12-14T20:31:38Z</time>
      </trkpt>
      <trkpt lat="48.85483" lon="2.28009">
        <ele>55</ele>
        <time>2015-12-14T20:31:48Z</time>
      </trkpt>
      <trkpt lat="48.85491" lon="2.28037">
        <ele>54.20000076294</ele>
        <time>2015-12-14T20:31:53Z</time>
      </trkpt>
      <trkpt lat="48.85498" lon="2.28063">
        <ele>54.20000076294</ele>
        <time>2015-12-14T20:32:01Z</time>
      </trkpt>
      <trkpt lat="48.855" lon="2.28067">
        <ele>54.20000076294</ele>
        <time>2015-12-14T20:32:03Z</time>
      </trkpt>
      <trkpt lat="48.85503" lon="2.28084">
        <ele>54.20000076294</ele>
        <time>2015-12-14T20:33:01Z</time>
      </trkpt>
      <trkpt lat="48.85509" lon="2.28095">
        <ele>52.79999923706</ele>
        <time>2015-12-14T20:33:09Z</time>
      </trkpt>
      <trkpt lat="48.85511" lon="2.28096">
        <ele>52.599998474121</ele>
        <time>2015-12-14T20:33:13Z</time>
      </trkpt>
      <trkpt lat="48.8552" lon="2.28114">
        <ele>50.400001525879</ele>
        <time>2015-12-14T20:33:44Z</time>
      </trkpt>
      <trkpt lat="48.85523" lon="2.28118">
        <ele>50</ele>
        <time>2015-12-14T20:33:48Z</time>
      </trkpt>
      <trkpt lat="48.85527" lon="2.28137">
        <ele>48.400001525879</ele>
        <time>2015-12-14T20:34:13Z</time>
      </trkpt>
      <trkpt lat="48.8553" lon="2.28139">
        <ele>48.599998474121</ele>
        <time>2015-12-14T20:34:18Z</time>
      </trkpt>
      <trkpt lat="48.85534" lon="2.28148">
        <ele>48.20000076294</ele>
        <time>2015-12-14T20:34:30Z</time>
      </trkpt>
      <trkpt lat="48.85542" lon="2.28148">
        <ele>49.599998474121</ele>
        <time>2015-12-14T20:34:48Z</time>
      </trkpt>
      <trkpt lat="48.85543" lon="2.28149">
        <ele>49.79999923706</ele>
        <time>2015-12-14T20:34:52Z</time>
      </trkpt>
      <trkpt lat="48.85558" lon="2.28162">
        <ele>51</ele>
        <time>2015-12-14T20:35:37Z</time>
      </trkpt>
      <trkpt lat="48.85565" lon="2.2817">
        <ele>50.79999923706</ele>
        <time>2015-12-14T20:36:06Z</time>
      </trkpt>
      <trkpt lat="48.85562" lon="2.28176">
        <ele>49.400001525879</ele>
        <time>2015-12-14T20:36:11Z</time>
      </trkpt>
      <trkpt lat="48.85563" lon="2.28189">
        <ele>47.400001525879</ele>
        <time>2015-12-14T20:36:58Z</time>
      </trkpt>
      <trkpt lat="48.85547" lon="2.28211">
        <ele>44</ele>
        <time>2015-12-14T20:37:03Z</time>
      </trkpt>
      <trkpt lat="48.85534" lon="2.28232">
        <ele>43</ele>
        <time>2015-12-14T20:37:07Z</time>
      </trkpt>
      <trkpt lat="48.85522" lon="2.28248">
        <ele>42</ele>
        <time>2015-12-14T20:37:11Z</time>
      </trkpt>
      <trkpt lat="48.85505" lon="2.28239">
        <ele>41.20000076294</ele>
        <time>2015-12-14T20:37:20Z</time>
      </trkpt>
      <trkpt lat="48.85493" lon="2.28214">
        <ele>41.599998474121</ele>
        <time>2015-12-14T20:37:26Z</time>
      </trkpt>
      <trkpt lat="48.85484" lon="2.28188">
        <ele>42</ele>
        <time>2015-12-14T20:37:33Z</time>
      </trkpt>
      <trkpt lat="48.85466" lon="2.28173">
        <ele>41.79999923706</ele>
        <time>2015-12-14T20:37:38Z</time>
      </trkpt>
      <trkpt lat="48.85464" lon="2.2817">
        <ele>41.79999923706</ele>
        <time>2015-12-14T20:37:39Z</time>
      </trkpt>
      <trkpt lat="48.85455" lon="2.28145">
        <ele>44.400001525879</ele>
        <time>2015-12-14T20:37:45Z</time>
      </trkpt>
      <trkpt lat="48.85453" lon="2.28133">
        <ele>46.20000076294</ele>
        <time>2015-12-14T20:37:48Z</time>
      </trkpt>
      <trkpt lat="48.85452" lon="2.28128">
        <ele>47</ele>
        <time>2015-12-14T20:37:50Z</time>
      </trkpt>
      <trkpt lat="48.85436" lon="2.28107">
        <ele>49.599998474121</ele>
        <time>2015-12-14T20:38:02Z</time>
      </trkpt>
      <trkpt lat="48.85418" lon="2.28091">
        <ele>51.20000076294</ele>
        <time>2015-12-14T20:38:07Z</time>
      </trkpt>
      <trkpt lat="48.85399" lon="2.28077">
        <ele>51.79999923706</ele>
        <time>2015-12-14T20:38:11Z</time>
      </trkpt>
      <trkpt lat="48.85383" lon="2.28057">
        <ele>49.599998474121</ele>
        <time>2015-12-14T20:38:15Z</time>
      </trkpt>
      <trkpt lat="48.85367" lon="2.28043">
        <ele>47.79999923706</ele>
        <time>2015-12-14T20:38:19Z</time>
      </trkpt>
      <trkpt lat="48.85363" lon="2.28034">
        <ele>47</ele>
        <time>2015-12-14T20:38:22Z</time>
      </trkpt>
      <trkpt lat="48.85368" lon="2.28021">
        <ele>46.400001525879</ele>
        <time>2015-12-14T20:38:27Z</time>
      </trkpt>
      <trkpt lat="48.85383" lon="2.28003">
        <ele>46.599998474121</ele>
        <time>2015-12-14T20:38:36Z</time>
      </trkpt>
      <trkpt lat="48.85399" lon="2.27987">
        <ele>47.400001525879</ele>
        <time>2015-12-14T20:38:41Z</time>
      </trkpt>
      <trkpt lat="48.85414" lon="2.27969">
        <ele>48.599998474121</ele>
        <time>2015-12-14T20:38:48Z</time>
      </trkpt>
      <trkpt lat="48.85415" lon="2.27969">
        <ele>48.599998474121</ele>
        <time>2015-12-14T20:38:49Z</time>
      </trkpt>
      <trkpt lat="48.85431" lon="2.27958">
        <ele>50.20000076294</ele>
        <time>2015-12-14T20:39:23Z</time>
      </trkpt>
      <trkpt lat="48.85442" lon="2.27953">
        <ele>51.400001525879</ele>
        <time>2015-12-14T20:39:28Z</time>
      </trkpt>
      <trkpt lat="48.85446" lon="2.27926">
        <ele>51.79999923706</ele>
        <time>2015-12-14T20:39:37Z</time>
      </trkpt>
      <trkpt lat="48.85442" lon="2.27898">
        <ele>52.20000076294</ele>
        <time>2015-12-14T20:39:43Z</time>
      </trkpt>
      <trkpt lat="48.85442" lon="2.27896">
        <ele>52.20000076294</ele>
        <time>2015-12-14T20:39:44Z</time>
      </trkpt>
      <trkpt lat="48.8544" lon="2.27881">
        <ele>52.79999923706</ele>
        <time>2015-12-14T20:39:49Z</time>
      </trkpt>
      <trkpt lat="48.85444" lon="2.27875">
        <ele>53.599998474121</ele>
        <time>2015-12-14T20:39:52Z</time>
      </trkpt>
      <trkpt lat="48.85433" lon="2.27852">
        <ele>53.20000076294</ele>
        <time>2015-12-14T20:40:13Z</time>
      </trkpt>
      <trkpt lat="48.85421" lon="2.27828">
        <ele>52.79999923706</ele>
        <time>2015-12-14T20:40:20Z</time>
      </trkpt>
      <trkpt lat="48.85408" lon="2.27808">
        <ele>51.599998474121</ele>
        <time>2015-12-14T20:40:25Z</time>
      </trkpt>
      <trkpt lat="48.854" lon="2.27795">
        <ele>50.599998474121</ele>
        <time>2015-12-14T20:40:30Z</time>
      </trkpt>
      <trkpt lat="48.85391" lon="2.27781">
        <ele>49.79999923706</ele>
        <time>2015-12-14T20:41:03Z</time>
      </trkpt>
      <trkpt lat="48.85375" lon="2.27762">
        <ele>48.20000076294</ele>
        <time>2015-12-14T20:41:07Z</time>
      </trkpt>
      <trkpt lat="48.85359" lon="2.27738">
        <ele>46.20000076294</ele>
        <time>2015-12-14T20:41:11Z</time>
      </trkpt>
      <trkpt lat="48.85345" lon="2.27709">
        <ele>44.599998474121</ele>
        <time>2015-12-14T20:41:15Z</time>
      </trkpt>
      <trkpt lat="48.85333" lon="2.27688">
        <ele>43.599998474121</ele>
        <time>2015-12-14T20:41:18Z</time>
      </trkpt>
      <trkpt lat="48.85319" lon="2.27668">
        <ele>42.400001525879</ele>
        <time>2015-12-14T20:41:21Z</time>
      </trkpt>
      <trkpt lat="48.85305" lon="2.2765">
        <ele>41.400001525879</ele>
        <time>2015-12-14T20:41:24Z</time>
      </trkpt>
      <trkpt lat="48.8529" lon="2.27632">
        <ele>40.400001525879</ele>
        <time>2015-12-14T20:41:28Z</time>
      </trkpt>
      <trkpt lat="48.85279" lon="2.27616">
        <ele>39.79999923706</ele>
        <time>2015-12-14T20:41:34Z</time>
      </trkpt>
      <trkpt lat="48.85275" lon="2.27609">
        <ele>39.400001525879</ele>
        <time>2015-12-14T20:41:38Z</time>
      </trkpt>
      <trkpt lat="48.85275" lon="2.27606">
        <ele>39.400001525879</ele>
        <time>2015-12-14T20:41:42Z</time>
      </trkpt>
      <trkpt lat="48.85282" lon="2.27604">
        <ele>39.79999923706</ele>
        <time>2015-12-14T20:43:25Z</time>
      </trkpt>
      <trkpt lat="48.8529" lon="2.27597">
        <ele>40</ele>
        <time>2015-12-14T20:44:21Z</time>
      </trkpt>
      <trkpt lat="48.85303" lon="2.27576">
        <ele>40.79999923706</ele>
        <time>2015-12-14T20:44:27Z</time>
      </trkpt>
      <trkpt lat="48.8532" lon="2.27561">
        <ele>41.79999923706</ele>
        <time>2015-12-14T20:44:32Z</time>
      </trkpt>
      <trkpt lat="48.85328" lon="2.27535">
        <ele>42</ele>
        <time>2015-12-14T20:44:38Z</time>
      </trkpt>
      <trkpt lat="48.85332" lon="2.27506">
        <ele>41.400001525879</ele>
        <time>2015-12-14T20:44:45Z</time>
      </trkpt>
      <trkpt lat="48.85338" lon="2.27475">
        <ele>41.599998474121</ele>
        <time>2015-12-14T20:44:50Z</time>
      </trkpt>
      <trkpt lat="48.85342" lon="2.27442">
        <ele>42.599998474121</ele>
        <time>2015-12-14T20:44:55Z</time>
      </trkpt>
      <trkpt lat="48.85347" lon="2.27414">
        <ele>43.599998474121</ele>
        <time>2015-12-14T20:44:59Z</time>
      </trkpt>
      <trkpt lat="48.85353" lon="2.27385">
        <ele>43.599998474121</ele>
        <time>2015-12-14T20:45:03Z</time>
      </trkpt>
      <trkpt lat="48.85361" lon="2.27357">
        <ele>44.400001525879</ele>
        <time>2015-12-14T20:45:07Z</time>
      </trkpt>
      <trkpt lat="48.8537" lon="2.27332">
        <ele>45.20000076294</ele>
        <time>2015-12-14T20:45:11Z</time>
      </trkpt>
      <trkpt lat="48.85377" lon="2.27306">
        <ele>46</ele>
        <time>2015-12-14T20:45:15Z</time>
      </trkpt>
      <trkpt lat="48.85383" lon="2.27287">
        <ele>46.79999923706</ele>
        <time>2015-12-14T20:45:18Z</time>
      </trkpt>
      <trkpt lat="48.85385" lon="2.27253">
        <ele>45.79999923706</ele>
        <time>2015-12-14T20:45:22Z</time>
      </trkpt>
      <trkpt lat="48.85393" lon="2.27224">
        <ele>47</ele>
        <time>2015-12-14T20:45:27Z</time>
      </trkpt>
      <trkpt lat="48.85394" lon="2.27214">
        <ele>47.79999923706</ele>
        <time>2015-12-14T20:45:29Z</time>
      </trkpt>
      <trkpt lat="48.85395" lon="2.27206">
        <ele>48.400001525879</ele>
        <time>2015-12-14T20:45:31Z</time>
      </trkpt>
      <trkpt lat="48.85394" lon="2.27175">
        <ele>49.599998474121</ele>
        <time>2015-12-14T20:45:47Z</time>
      </trkpt>
      <trkpt lat="48.85408" lon="2.27154">
        <ele>49.79999923706</ele>
        <time>2015-12-14T20:45:54Z</time>
      </trkpt>
      <trkpt lat="48.85422" lon="2.27132">
        <ele>50.400001525879</ele>
        <time>2015-12-14T20:45:58Z</time>
      </trkpt>
      <trkpt lat="48.8543" lon="2.271">
        <ele>52.599998474121</ele>
        <time>2015-12-14T20:46:02Z</time>
      </trkpt>
      <trkpt lat="48.85434" lon="2.27085">
        <ele>53.599998474121</ele>
        <time>2015-12-14T20:46:04Z</time>
      </trkpt>
      <trkpt lat="48.85438" lon="2.2707">
        <ele>54</ele>
        <time>2015-12-14T20:46:06Z</time>
      </trkpt>
      <trkpt lat="48.85447" lon="2.27045">
        <ele>54.400001525879</ele>
        <time>2015-12-14T20:46:13Z</time>
      </trkpt>
      <trkpt lat="48.85454" lon="2.27013">
        <ele>54.599998474121</ele>
        <time>2015-12-14T20:46:35Z</time>
      </trkpt>
      <trkpt lat="48.85463" lon="2.2699">
        <ele>55</ele>
        <time>2015-12-14T20:46:41Z</time>
      </trkpt>
      <trkpt lat="48.85461" lon="2.26976">
        <ele>55</ele>
        <time>2015-12-14T20:46:45Z</time>
      </trkpt>
      <trkpt lat="48.85476" lon="2.26953">
        <ele>55</ele>
        <time>2015-12-14T20:46:52Z</time>
      </trkpt>
      <trkpt lat="48.85478" lon="2.26946">
        <ele>55.20000076294</ele>
        <time>2015-12-14T20:46:55Z</time>
      </trkpt>
      <trkpt lat="48.85488" lon="2.26922">
        <ele>56</ele>
        <time>2015-12-14T20:47:03Z</time>
      </trkpt>
      <trkpt lat="48.85502" lon="2.26902">
        <ele>56</ele>
        <time>2015-12-14T20:47:08Z</time>
      </trkpt>
      <trkpt lat="48.85504" lon="2.26876">
        <ele>55.20000076294</ele>
        <time>2015-12-14T20:47:10Z</time>
      </trkpt>
      <trkpt lat="48.85508" lon="2.26848">
        <ele>54.79999923706</ele>
        <time>2015-12-14T20:47:13Z</time>
      </trkpt>
      <trkpt lat="48.85516" lon="2.2682">
        <ele>54.599998474121</ele>
        <time>2015-12-14T20:47:18Z</time>
      </trkpt>
      <trkpt lat="48.85521" lon="2.26791">
        <ele>54</ele>
        <time>2015-12-14T20:47:23Z</time>
      </trkpt>
      <trkpt lat="48.85527" lon="2.26759">
        <ele>53.20000076294</ele>
        <time>2015-12-14T20:47:28Z</time>
      </trkpt>
      <trkpt lat="48.85532" lon="2.26738">
        <ele>53.599998474121</ele>
        <time>2015-12-14T20:47:32Z</time>
      </trkpt>
      <trkpt lat="48.85537" lon="2.26709">
        <ele>54.599998474121</ele>
        <time>2015-12-14T20:47:38Z</time>
      </trkpt>
      <trkpt lat="48.85547" lon="2.26684">
        <ele>55.599998474121</ele>
        <time>2015-12-14T20:47:43Z</time>
      </trkpt>
      <trkpt lat="48.8555" lon="2.26656">
        <ele>56</ele>
        <time>2015-12-14T20:47:47Z</time>
      </trkpt>
      <trkpt lat="48.85551" lon="2.26626">
        <ele>56.400001525879</ele>
        <time>2015-12-14T20:47:51Z</time>
      </trkpt>
      <trkpt lat="48.85559" lon="2.26598">
        <ele>57.599998474121</ele>
        <time>2015-12-14T20:47:55Z</time>
      </trkpt>
      <trkpt lat="48.85566" lon="2.26573">
        <ele>59.20000076294</ele>
        <time>2015-12-14T20:47:58Z</time>
      </trkpt>
      <trkpt lat="48.85575" lon="2.26548">
        <ele>60.20000076294</ele>
        <time>2015-12-14T20:48:01Z</time>
      </trkpt>
      <trkpt lat="48.85581" lon="2.26519">
        <ele>61.79999923706</ele>
        <time>2015-12-14T20:48:05Z</time>
      </trkpt>
      <trkpt lat="48.8558" lon="2.26516">
        <ele>61.79999923706</ele>
        <time>2015-12-14T20:48:06Z</time>
      </trkpt>
      <trkpt lat="48.85584" lon="2.26489">
        <ele>62.79999923706</ele>
        <time>2015-12-14T20:48:17Z</time>
      </trkpt>
      <trkpt lat="48.85577" lon="2.26464">
        <ele>61.400001525879</ele>
        <time>2015-12-14T20:48:40Z</time>
      </trkpt>
      <trkpt lat="48.85562" lon="2.26447">
        <ele>59.599998474121</ele>
        <time>2015-12-14T20:48:44Z</time>
      </trkpt>
      <trkpt lat="48.85542" lon="2.26431">
        <ele>57.20000076294</ele>
        <time>2015-12-14T20:48:48Z</time>
      </trkpt>
      <trkpt lat="48.85521" lon="2.26414">
        <ele>55.20000076294</ele>
        <time>2015-12-14T20:48:51Z</time>
      </trkpt>
      <trkpt lat="48.85504" lon="2.26399">
        <ele>56.20000076294</ele>
        <time>2015-12-14T20:48:54Z</time>
      </trkpt>
      <trkpt lat="48.85498" lon="2.26395">
        <ele>56.599998474121</ele>
        <time>2015-12-14T20:48:55Z</time>
      </trkpt>
      <trkpt lat="48.85478" lon="2.26383">
        <ele>58</ele>
        <time>2015-12-14T20:48:58Z</time>
      </trkpt>
      <trkpt lat="48.85457" lon="2.26367">
        <ele>59.400001525879</ele>
        <time>2015-12-14T20:49:01Z</time>
      </trkpt>
      <trkpt lat="48.85435" lon="2.26351">
        <ele>60.79999923706</ele>
        <time>2015-12-14T20:49:04Z</time>
      </trkpt>
      <trkpt lat="48.85413" lon="2.26338">
        <ele>61.400001525879</ele>
        <time>2015-12-14T20:49:07Z</time>
      </trkpt>
      <trkpt lat="48.85392" lon="2.26324">
        <ele>62</ele>
        <time>2015-12-14T20:49:10Z</time>
      </trkpt>
      <trkpt lat="48.85371" lon="2.26309">
        <ele>62</ele>
        <time>2015-12-14T20:49:13Z</time>
      </trkpt>
      <trkpt lat="48.8535" lon="2.26297">
        <ele>62.400001525879</ele>
        <time>2015-12-14T20:49:16Z</time>
      </trkpt>
      <trkpt lat="48.8533" lon="2.26287">
        <ele>63.20000076294</ele>
        <time>2015-12-14T20:49:19Z</time>
      </trkpt>
      <trkpt lat="48.85313" lon="2.26281">
        <ele>64.199996948242</ele>
        <time>2015-12-14T20:49:22Z</time>
      </trkpt>
      <trkpt lat="48.85308" lon="2.26283">
        <ele>64.599998474121</ele>
        <time>2015-12-14T20:49:23Z</time>
      </trkpt>
      <trkpt lat="48.85292" lon="2.26286">
        <ele>64.199996948242</ele>
        <time>2015-12-14T20:49:26Z</time>
      </trkpt>
      <trkpt lat="48.85279" lon="2.26284">
        <ele>64.199996948242</ele>
        <time>2015-12-14T20:49:30Z</time>
      </trkpt>
      <trkpt lat="48.85275" lon="2.26259">
        <ele>64.800003051758</ele>
        <time>2015-12-14T20:49:39Z</time>
      </trkpt>
      <trkpt lat="48.85274" lon="2.26255">
        <ele>64.800003051758</ele>
        <time>2015-12-14T20:49:40Z</time>
      </trkpt>
      <trkpt lat="48.85273" lon="2.26247">
        <ele>65</ele>
        <time>2015-12-14T20:49:44Z</time>
      </trkpt>
      <trkpt lat="48.85273" lon="2.26247">
        <ele>65</ele>
        <time>2015-12-14T20:49:45Z</time>
      </trkpt>
      <trkpt lat="48.85276" lon="2.26242">
        <ele>64.599998474121</ele>
        <time>2015-12-14T20:49:50Z</time>
      </trkpt>
      <trkpt lat="48.8527" lon="2.26262">
        <ele>64.400001525879</ele>
        <time>2015-12-14T20:50:08Z</time>
      </trkpt>
      <trkpt lat="48.85268" lon="2.2629">
        <ele>63.599998474121</ele>
        <time>2015-12-14T20:50:12Z</time>
      </trkpt>
      <trkpt lat="48.85263" lon="2.2632">
        <ele>62.599998474121</ele>
        <time>2015-12-14T20:50:16Z</time>
      </trkpt>
      <trkpt lat="48.85255" lon="2.26347">
        <ele>61.79999923706</ele>
        <time>2015-12-14T20:50:20Z</time>
      </trkpt>
      <trkpt lat="48.85246" lon="2.26373">
        <ele>60.79999923706</ele>
        <time>2015-12-14T20:50:24Z</time>
      </trkpt>
      <trkpt lat="48.85239" lon="2.26405">
        <ele>60.599998474121</ele>
        <time>2015-12-14T20:50:28Z</time>
      </trkpt>
      <trkpt lat="48.85236" lon="2.26413">
        <ele>60.599998474121</ele>
        <time>2015-12-14T20:50:29Z</time>
      </trkpt>
      <trkpt lat="48.85221" lon="2.2643">
        <ele>59.20000076294</ele>
        <time>2015-12-14T20:50:32Z</time>
      </trkpt>
      <trkpt lat="48.85216" lon="2.26435">
        <ele>58.599998474121</ele>
        <time>2015-12-14T20:50:33Z</time>
      </trkpt>
      <trkpt lat="48.85211" lon="2.26441">
        <ele>58.400001525879</ele>
        <time>2015-12-14T20:50:34Z</time>
      </trkpt>
      <trkpt lat="48.85194" lon="2.26457">
        <ele>58.400001525879</ele>
        <time>2015-12-14T20:50:37Z</time>
      </trkpt>
      <trkpt lat="48.8517" lon="2.26476">
        <ele>56.400001525879</ele>
        <time>2015-12-14T20:50:41Z</time>
      </trkpt>
      <trkpt lat="48.85154" lon="2.26494">
        <ele>55.79999923706</ele>
        <time>2015-12-14T20:50:45Z</time>
      </trkpt>
      <trkpt lat="48.85145" lon="2.26516">
        <ele>54.599998474121</ele>
        <time>2015-12-14T20:50:48Z</time>
      </trkpt>
      <trkpt lat="48.85132" lon="2.26524">
        <ele>53.599998474121</ele>
        <time>2015-12-14T20:50:52Z</time>
      </trkpt>
      <trkpt lat="48.85126" lon="2.26525">
        <ele>53.79999923706</ele>
        <time>2015-12-14T20:50:53Z</time>
      </trkpt>
      <trkpt lat="48.85107" lon="2.26543">
        <ele>54.20000076294</ele>
        <time>2015-12-14T20:50:57Z</time>
      </trkpt>
      <trkpt lat="48.85101" lon="2.26548">
        <ele>54</ele>
        <time>2015-12-14T20:50:58Z</time>
      </trkpt>
      <trkpt lat="48.85081" lon="2.26565">
        <ele>53.400001525879</ele>
        <time>2015-12-14T20:51:01Z</time>
      </trkpt>
      <trkpt lat="48.85062" lon="2.26578">
        <ele>52.79999923706</ele>
        <time>2015-12-14T20:51:04Z</time>
      </trkpt>
      <trkpt lat="48.85052" lon="2.26584">
        <ele>52.20000076294</ele>
        <time>2015-12-14T20:51:06Z</time>
      </trkpt>
      <trkpt lat="48.8504" lon="2.26588">
        <ele>51.599998474121</ele>
        <time>2015-12-14T20:51:09Z</time>
      </trkpt>
      <trkpt lat="48.8502" lon="2.26589">
        <ele>51</ele>
        <time>2015-12-14T20:51:13Z</time>
      </trkpt>
      <trkpt lat="48.85001" lon="2.26587">
        <ele>50.20000076294</ele>
        <time>2015-12-14T20:51:17Z</time>
      </trkpt>
      <trkpt lat="48.84977" lon="2.26583">
        <ele>49.400001525879</ele>
        <time>2015-12-14T20:51:22Z</time>
      </trkpt>
      <trkpt lat="48.8496" lon="2.26582">
        <ele>48.79999923706</ele>
        <time>2015-12-14T20:51:26Z</time>
      </trkpt>
      <trkpt lat="48.8494" lon="2.26584">
        <ele>48</ele>
        <time>2015-12-14T20:51:30Z</time>
      </trkpt>
      <trkpt lat="48.8492" lon="2.26587">
        <ele>48.599998474121</ele>
        <time>2015-12-14T20:51:34Z</time>
      </trkpt>
      <trkpt lat="48.84908" lon="2.26582">
        <ele>49.20000076294</ele>
        <time>2015-12-14T20:51:37Z</time>
      </trkpt>
      <trkpt lat="48.84903" lon="2.26586">
        <ele>49.400001525879</ele>
        <time>2015-12-14T20:51:39Z</time>
      </trkpt>
      <trkpt lat="48.8489" lon="2.26572">
        <ele>49.79999923706</ele>
        <time>2015-12-14T20:51:42Z</time>
      </trkpt>
      <trkpt lat="48.84886" lon="2.26542">
        <ele>50.400001525879</ele>
        <time>2015-12-14T20:51:46Z</time>
      </trkpt>
      <trkpt lat="48.84885" lon="2.26536">
        <ele>50.400001525879</ele>
        <time>2015-12-14T20:51:47Z</time>
      </trkpt>
      <trkpt lat="48.84878" lon="2.26509">
        <ele>51</ele>
        <time>2015-12-14T20:51:52Z</time>
      </trkpt>
      <trkpt lat="48.84877" lon="2.26504">
        <ele>51</ele>
        <time>2015-12-14T20:51:53Z</time>
      </trkpt>
      <trkpt lat="48.84876" lon="2.26493">
        <ele>51</ele>
        <time>2015-12-14T20:51:55Z</time>
      </trkpt>
      <trkpt lat="48.84874" lon="2.2647">
        <ele>50.79999923706</ele>
        <time>2015-12-14T20:51:59Z</time>
      </trkpt>
      <trkpt lat="48.84872" lon="2.26448">
        <ele>50.599998474121</ele>
        <time>2015-12-14T20:52:03Z</time>
      </trkpt>
      <trkpt lat="48.8487" lon="2.26421">
        <ele>50.20000076294</ele>
        <time>2015-12-14T20:52:07Z</time>
      </trkpt>
      <trkpt lat="48.84868" lon="2.2639">
        <ele>49.79999923706</ele>
        <time>2015-12-14T20:52:11Z</time>
      </trkpt>
      <trkpt lat="48.84867" lon="2.26357">
        <ele>49.79999923706</ele>
        <time>2015-12-14T20:52:14Z</time>
      </trkpt>
      <trkpt lat="48.84867" lon="2.2632">
        <ele>49.79999923706</ele>
        <time>2015-12-14T20:52:17Z</time>
      </trkpt>
      <trkpt lat="48.84864" lon="2.26296">
        <ele>49.400001525879</ele>
        <time>2015-12-14T20:52:19Z</time>
      </trkpt>
      <trkpt lat="48.84858" lon="2.26258">
        <ele>49</ele>
        <time>2015-12-14T20:52:22Z</time>
      </trkpt>
      <trkpt lat="48.84852" lon="2.26223">
        <ele>49.400001525879</ele>
        <time>2015-12-14T20:52:25Z</time>
      </trkpt>
      <trkpt lat="48.84846" lon="2.26186">
        <ele>50</ele>
        <time>2015-12-14T20:52:28Z</time>
      </trkpt>
      <trkpt lat="48.84846" lon="2.26156">
        <ele>50.400001525879</ele>
        <time>2015-12-14T20:52:30Z</time>
      </trkpt>
      <trkpt lat="48.84845" lon="2.2612">
        <ele>51.20000076294</ele>
        <time>2015-12-14T20:52:33Z</time>
      </trkpt>
      <trkpt lat="48.84843" lon="2.26102">
        <ele>51.599998474121</ele>
        <time>2015-12-14T20:52:35Z</time>
      </trkpt>
      <trkpt lat="48.84843" lon="2.26076">
        <ele>52.20000076294</ele>
        <time>2015-12-14T20:52:39Z</time>
      </trkpt>
      <trkpt lat="48.8485" lon="2.26053">
        <ele>51.20000076294</ele>
        <time>2015-12-14T20:53:07Z</time>
      </trkpt>
      <trkpt lat="48.84845" lon="2.26051">
        <ele>51.400001525879</ele>
        <time>2015-12-14T20:53:20Z</time>
      </trkpt>
      <trkpt lat="48.84827" lon="2.26044">
        <ele>51.79999923706</ele>
        <time>2015-12-14T20:53:28Z</time>
      </trkpt>
      <trkpt lat="48.84807" lon="2.26034">
        <ele>52</ele>
        <time>2015-12-14T20:53:35Z</time>
      </trkpt>
      <trkpt lat="48.84796" lon="2.26027">
        <ele>52</ele>
        <time>2015-12-14T20:53:42Z</time>
      </trkpt>
      <trkpt lat="48.84792" lon="2.26018">
        <ele>52</ele>
        <time>2015-12-14T20:53:56Z</time>
      </trkpt>
      <trkpt lat="48.84794" lon="2.26026">
        <ele>52.20000076294</ele>
        <time>2015-12-14T20:54:07Z</time>
      </trkpt>
      <trkpt lat="48.84794" lon="2.26057">
        <ele>52.400001525879</ele>
        <time>2015-12-14T20:54:12Z</time>
      </trkpt>
      <trkpt lat="48.84791" lon="2.26087">
        <ele>52.599998474121</ele>
        <time>2015-12-14T20:54:17Z</time>
      </trkpt>
      <trkpt lat="48.84789" lon="2.26117">
        <ele>52.400001525879</ele>
        <time>2015-12-14T20:54:21Z</time>
      </trkpt>
      <trkpt lat="48.84789" lon="2.26145">
        <ele>52.400001525879</ele>
        <time>2015-12-14T20:54:24Z</time>
      </trkpt>
      <trkpt lat="48.8479" lon="2.26175">
        <ele>52.20000076294</ele>
        <time>2015-12-14T20:54:27Z</time>
      </trkpt>
      <trkpt lat="48.84793" lon="2.26206">
        <ele>51.20000076294</ele>
        <time>2015-12-14T20:54:30Z</time>
      </trkpt>
      <trkpt lat="48.84793" lon="2.26235">
        <ele>50.20000076294</ele>
        <time>2015-12-14T20:54:33Z</time>
      </trkpt>
      <trkpt lat="48.84793" lon="2.26272">
        <ele>50.400001525879</ele>
        <time>2015-12-14T20:54:37Z</time>
      </trkpt>
      <trkpt lat="48.84795" lon="2.26297">
        <ele>51</ele>
        <time>2015-12-14T20:54:40Z</time>
      </trkpt>
      <trkpt lat="48.84793" lon="2.26329">
        <ele>51.79999923706</ele>
        <time>2015-12-14T20:54:44Z</time>
      </trkpt>
      <trkpt lat="48.84794" lon="2.26336">
        <ele>51.79999923706</ele>
        <time>2015-12-14T20:54:45Z</time>
      </trkpt>
      <trkpt lat="48.848" lon="2.26366">
        <ele>51.79999923706</ele>
        <time>2015-12-14T20:54:49Z</time>
      </trkpt>
      <trkpt lat="48.848" lon="2.2638">
        <ele>52</ele>
        <time>2015-12-14T20:54:51Z</time>
      </trkpt>
      <trkpt lat="48.8481" lon="2.26413">
        <ele>52.20000076294</ele>
        <time>2015-12-14T20:54:54Z</time>
      </trkpt>
      <trkpt lat="48.8481" lon="2.26429">
        <ele>52.400001525879</ele>
        <time>2015-12-14T20:54:56Z</time>
      </trkpt>
      <trkpt lat="48.84806" lon="2.26452">
        <ele>52.20000076294</ele>
        <time>2015-12-14T20:54:59Z</time>
      </trkpt>
      <trkpt lat="48.848" lon="2.26473">
        <ele>50.20000076294</ele>
        <time>2015-12-14T20:55:02Z</time>
      </trkpt>
      <trkpt lat="48.84791" lon="2.26501">
        <ele>48</ele>
        <time>2015-12-14T20:55:06Z</time>
      </trkpt>
      <trkpt lat="48.84789" lon="2.26508">
        <ele>47.79999923706</ele>
        <time>2015-12-14T20:55:07Z</time>
      </trkpt>
      <trkpt lat="48.84778" lon="2.26536">
        <ele>47.599998474121</ele>
        <time>2015-12-14T20:55:11Z</time>
      </trkpt>
      <trkpt lat="48.84769" lon="2.26562">
        <ele>47.79999923706</ele>
        <time>2015-12-14T20:55:15Z</time>
      </trkpt>
      <trkpt lat="48.84764" lon="2.26575">
        <ele>47.79999923706</ele>
        <time>2015-12-14T20:55:17Z</time>
      </trkpt>
      <trkpt lat="48.84755" lon="2.26597">
        <ele>47.599998474121</ele>
        <time>2015-12-14T20:55:21Z</time>
      </trkpt>
      <trkpt lat="48.84747" lon="2.26626">
        <ele>47.400001525879</ele>
        <time>2015-12-14T20:55:25Z</time>
      </trkpt>
      <trkpt lat="48.84757" lon="2.26671">
        <ele>47.400001525879</ele>
        <time>2015-12-14T20:55:27Z</time>
      </trkpt>
      <trkpt lat="48.84759" lon="2.267">
        <ele>47.599998474121</ele>
        <time>2015-12-14T20:55:29Z</time>
      </trkpt>
      <trkpt lat="48.84759" lon="2.26738">
        <ele>47.400001525879</ele>
        <time>2015-12-14T20:55:32Z</time>
      </trkpt>
      <trkpt lat="48.8476" lon="2.26772">
        <ele>47.400001525879</ele>
        <time>2015-12-14T20:55:35Z</time>
      </trkpt>
      <trkpt lat="48.84762" lon="2.26805">
        <ele>47.400001525879</ele>
        <time>2015-12-14T20:55:38Z</time>
      </trkpt>
      <trkpt lat="48.84761" lon="2.26834">
        <ele>47.400001525879</ele>
        <time>2015-12-14T20:55:41Z</time>
      </trkpt>
      <trkpt lat="48.84763" lon="2.26843">
        <ele>47.400001525879</ele>
        <time>2015-12-14T20:55:42Z</time>
      </trkpt>
      <trkpt lat="48.84765" lon="2.26866">
        <ele>47.20000076294</ele>
        <time>2015-12-14T20:55:45Z</time>
      </trkpt>
      <trkpt lat="48.84763" lon="2.26884">
        <ele>47</ele>
        <time>2015-12-14T20:55:49Z</time>
      </trkpt>
      <trkpt lat="48.84755" lon="2.26889">
        <ele>46.400001525879</ele>
        <time>2015-12-14T20:55:55Z</time>
      </trkpt>
      <trkpt lat="48.84755" lon="2.26889">
        <ele>46.400001525879</ele>
        <time>2015-12-14T20:55:56Z</time>
      </trkpt>
      <trkpt lat="48.84754" lon="2.26911">
        <ele>46.20000076294</ele>
        <time>2015-12-14T20:56:26Z</time>
      </trkpt>
      <trkpt lat="48.8477" lon="2.26927">
        <ele>46.599998474121</ele>
        <time>2015-12-14T20:56:31Z</time>
      </trkpt>
      <trkpt lat="48.84784" lon="2.26944">
        <ele>47.20000076294</ele>
        <time>2015-12-14T20:56:35Z</time>
      </trkpt>
      <trkpt lat="48.84798" lon="2.26963">
        <ele>47.599998474121</ele>
        <time>2015-12-14T20:56:39Z</time>
      </trkpt>
      <trkpt lat="48.84814" lon="2.26981">
        <ele>48.20000076294</ele>
        <time>2015-12-14T20:56:44Z</time>
      </trkpt>
      <trkpt lat="48.84834" lon="2.27003">
        <ele>48.79999923706</ele>
        <time>2015-12-14T20:56:49Z</time>
      </trkpt>
      <trkpt lat="48.84852" lon="2.27019">
        <ele>49</ele>
        <time>2015-12-14T20:56:53Z</time>
      </trkpt>
      <trkpt lat="48.84868" lon="2.27036">
        <ele>48</ele>
        <time>2015-12-14T20:56:57Z</time>
      </trkpt>
      <trkpt lat="48.84886" lon="2.27058">
        <ele>46.400001525879</ele>
        <time>2015-12-14T20:57:01Z</time>
      </trkpt>
      <trkpt lat="48.84903" lon="2.27081">
        <ele>44.79999923706</ele>
        <time>2015-12-14T20:57:05Z</time>
      </trkpt>
      <trkpt lat="48.84919" lon="2.27099">
        <ele>44</ele>
        <time>2015-12-14T20:57:08Z</time>
      </trkpt>
      <trkpt lat="48.84938" lon="2.27116">
        <ele>43</ele>
        <time>2015-12-14T20:57:12Z</time>
      </trkpt>
      <trkpt lat="48.84959" lon="2.2713">
        <ele>43.400001525879</ele>
        <time>2015-12-14T20:57:16Z</time>
      </trkpt>
      <trkpt lat="48.84975" lon="2.2715">
        <ele>43.79999923706</ele>
        <time>2015-12-14T20:57:20Z</time>
      </trkpt>
      <trkpt lat="48.84978" lon="2.27155">
        <ele>44</ele>
        <time>2015-12-14T20:57:21Z</time>
      </trkpt>
      <trkpt lat="48.84983" lon="2.27166">
        <ele>44.20000076294</ele>
        <time>2015-12-14T20:57:23Z</time>
      </trkpt>
      <trkpt lat="48.84992" lon="2.27188">
        <ele>45.20000076294</ele>
        <time>2015-12-14T20:57:27Z</time>
      </trkpt>
      <trkpt lat="48.85" lon="2.27209">
        <ele>46.20000076294</ele>
        <time>2015-12-14T20:57:31Z</time>
      </trkpt>
      <trkpt lat="48.8501" lon="2.27242">
        <ele>47.400001525879</ele>
        <time>2015-12-14T20:57:35Z</time>
      </trkpt>
      <trkpt lat="48.85019" lon="2.27269">
        <ele>46.400001525879</ele>
        <time>2015-12-14T20:57:39Z</time>
      </trkpt>
      <trkpt lat="48.8503" lon="2.27299">
        <ele>45</ele>
        <time>2015-12-14T20:57:43Z</time>
      </trkpt>
      <trkpt lat="48.85034" lon="2.27313">
        <ele>44.20000076294</ele>
        <time>2015-12-14T20:57:45Z</time>
      </trkpt>
      <trkpt lat="48.85045" lon="2.27343">
        <ele>43.599998474121</ele>
        <time>2015-12-14T20:57:49Z</time>
      </trkpt>
      <trkpt lat="48.85056" lon="2.27373">
        <ele>43.79999923706</ele>
        <time>2015-12-14T20:57:53Z</time>
      </trkpt>
      <trkpt lat="48.85069" lon="2.27403">
        <ele>44.20000076294</ele>
        <time>2015-12-14T20:57:57Z</time>
      </trkpt>
      <trkpt lat="48.85081" lon="2.27429">
        <ele>43.20000076294</ele>
        <time>2015-12-14T20:58:01Z</time>
      </trkpt>
      <trkpt lat="48.85095" lon="2.27453">
        <ele>41.79999923706</ele>
        <time>2015-12-14T20:58:06Z</time>
      </trkpt>
      <trkpt lat="48.8511" lon="2.27476">
        <ele>40.400001525879</ele>
        <time>2015-12-14T20:58:11Z</time>
      </trkpt>
      <trkpt lat="48.85117" lon="2.27481">
        <ele>39.79999923706</ele>
        <time>2015-12-14T20:58:15Z</time>
      </trkpt>
      <trkpt lat="48.85122" lon="2.2752">
        <ele>39.400001525879</ele>
        <time>2015-12-14T20:58:36Z</time>
      </trkpt>
      <trkpt lat="48.85127" lon="2.27548">
        <ele>39</ele>
        <time>2015-12-14T20:58:41Z</time>
      </trkpt>
      <trkpt lat="48.85131" lon="2.27578">
        <ele>38.599998474121</ele>
        <time>2015-12-14T20:58:46Z</time>
      </trkpt>
      <trkpt lat="48.85135" lon="2.27611">
        <ele>39.400001525879</ele>
        <time>2015-12-14T20:58:51Z</time>
      </trkpt>
      <trkpt lat="48.85137" lon="2.27639">
        <ele>40.20000076294</ele>
        <time>2015-12-14T20:58:56Z</time>
      </trkpt>
      <trkpt lat="48.85137" lon="2.27669">
        <ele>40.599998474121</ele>
        <time>2015-12-14T20:59:02Z</time>
      </trkpt>
      <trkpt lat="48.85139" lon="2.27696">
        <ele>39.400001525879</ele>
        <time>2015-12-14T20:59:07Z</time>
      </trkpt>
      <trkpt lat="48.85142" lon="2.27726">
        <ele>38.79999923706</ele>
        <time>2015-12-14T20:59:14Z</time>
      </trkpt>
      <trkpt lat="48.85144" lon="2.27755">
        <ele>38</ele>
        <time>2015-12-14T20:59:21Z</time>
      </trkpt>
      <trkpt lat="48.85149" lon="2.27774">
        <ele>37.599998474121</ele>
        <time>2015-12-14T20:59:29Z</time>
      </trkpt>
      <trkpt lat="48.85153" lon="2.27807">
        <ele>37</ele>
        <time>2015-12-14T20:59:35Z</time>
      </trkpt>
      <trkpt lat="48.85154" lon="2.27813">
        <ele>37</ele>
        <time>2015-12-14T20:59:37Z</time>
      </trkpt>
      <trkpt lat="48.85152" lon="2.27839">
        <ele>36.79999923706</ele>
        <time>2015-12-14T21:00:00Z</time>
      </trkpt>
      <trkpt lat="48.85161" lon="2.27871">
        <ele>36.599998474121</ele>
        <time>2015-12-14T21:00:07Z</time>
      </trkpt>
      <trkpt lat="48.85174" lon="2.279">
        <ele>36</ele>
        <time>2015-12-14T21:00:11Z</time>
      </trkpt>
      <trkpt lat="48.85185" lon="2.27925">
        <ele>35.20000076294</ele>
        <time>2015-12-14T21:00:14Z</time>
      </trkpt>
      <trkpt lat="48.852" lon="2.27947">
        <ele>35</ele>
        <time>2015-12-14T21:00:17Z</time>
      </trkpt>
      <trkpt lat="48.85218" lon="2.27967">
        <ele>35.20000076294</ele>
        <time>2015-12-14T21:00:20Z</time>
      </trkpt>
      <trkpt lat="48.85234" lon="2.27981">
        <ele>35.400001525879</ele>
        <time>2015-12-14T21:00:23Z</time>
      </trkpt>
      <trkpt lat="48.85238" lon="2.27988">
        <ele>35.400001525879</ele>
        <time>2015-12-14T21:00:24Z</time>
      </trkpt>
      <trkpt lat="48.85252" lon="2.28011">
        <ele>34.79999923706</ele>
        <time>2015-12-14T21:00:27Z</time>
      </trkpt>
      <trkpt lat="48.85263" lon="2.28037">
        <ele>34</ele>
        <time>2015-12-14T21:00:30Z</time>
      </trkpt>
      <trkpt lat="48.85267" lon="2.28046">
        <ele>33.599998474121</ele>
        <time>2015-12-14T21:00:31Z</time>
      </trkpt>
      <trkpt lat="48.85283" lon="2.28072">
        <ele>34.79999923706</ele>
        <time>2015-12-14T21:00:34Z</time>
      </trkpt>
      <trkpt lat="48.85298" lon="2.28099">
        <ele>35.20000076294</ele>
        <time>2015-12-14T21:00:37Z</time>
      </trkpt>
      <trkpt lat="48.85313" lon="2.28125">
        <ele>35.79999923706</ele>
        <time>2015-12-14T21:00:40Z</time>
      </trkpt>
      <trkpt lat="48.85326" lon="2.28151">
        <ele>37</ele>
        <time>2015-12-14T21:00:43Z</time>
      </trkpt>
      <trkpt lat="48.85343" lon="2.28178">
        <ele>37</ele>
        <time>2015-12-14T21:00:46Z</time>
      </trkpt>
      <trkpt lat="48.85357" lon="2.28206">
        <ele>35.400001525879</ele>
        <time>2015-12-14T21:00:49Z</time>
      </trkpt>
      <trkpt lat="48.85371" lon="2.28233">
        <ele>33.599998474121</ele>
        <time>2015-12-14T21:00:52Z</time>
      </trkpt>
      <trkpt lat="48.85386" lon="2.28257">
        <ele>33.20000076294</ele>
        <time>2015-12-14T21:00:55Z</time>
      </trkpt>
      <trkpt lat="48.85401" lon="2.28281">
        <ele>34.599998474121</ele>
        <time>2015-12-14T21:00:58Z</time>
      </trkpt>
      <trkpt lat="48.85415" lon="2.28303">
        <ele>36</ele>
        <time>2015-12-14T21:01:01Z</time>
      </trkpt>
      <trkpt lat="48.8543" lon="2.28325">
        <ele>36.79999923706</ele>
        <time>2015-12-14T21:01:04Z</time>
      </trkpt>
      <trkpt lat="48.85445" lon="2.28346">
        <ele>38.20000076294</ele>
        <time>2015-12-14T21:01:07Z</time>
      </trkpt>
      <trkpt lat="48.8545" lon="2.28352">
        <ele>38.599998474121</ele>
        <time>2015-12-14T21:01:08Z</time>
      </trkpt>
      <trkpt lat="48.85464" lon="2.28371">
        <ele>39.79999923706</ele>
        <time>2015-12-14T21:01:11Z</time>
      </trkpt>
      <trkpt lat="48.85469" lon="2.28377">
        <ele>40.20000076294</ele>
        <time>2015-12-14T21:01:12Z</time>
      </trkpt>
      <trkpt lat="48.85485" lon="2.28397">
        <ele>41.599998474121</ele>
        <time>2015-12-14T21:01:15Z</time>
      </trkpt>
      <trkpt lat="48.85502" lon="2.28416">
        <ele>43.20000076294</ele>
        <time>2015-12-14T21:01:18Z</time>
      </trkpt>
      <trkpt lat="48.85514" lon="2.28429">
        <ele>43.599998474121</ele>
        <time>2015-12-14T21:01:20Z</time>
      </trkpt>
      <trkpt lat="48.85529" lon="2.28452">
        <ele>43.400001525879</ele>
        <time>2015-12-14T21:01:23Z</time>
      </trkpt>
      <trkpt lat="48.8554" lon="2.28467">
        <ele>42.400001525879</ele>
        <time>2015-12-14T21:01:25Z</time>
      </trkpt>
      <trkpt lat="48.85557" lon="2.28491">
        <ele>40.79999923706</ele>
        <time>2015-12-14T21:01:28Z</time>
      </trkpt>
      <trkpt lat="48.85574" lon="2.28515">
        <ele>40.20000076294</ele>
        <time>2015-12-14T21:01:31Z</time>
      </trkpt>
      <trkpt lat="48.85591" lon="2.28536">
        <ele>39.79999923706</ele>
        <time>2015-12-14T21:01:34Z</time>
      </trkpt>
      <trkpt lat="48.85607" lon="2.28557">
        <ele>39.599998474121</ele>
        <time>2015-12-14T21:01:37Z</time>
      </trkpt>
      <trkpt lat="48.85623" lon="2.28576">
        <ele>40.79999923706</ele>
        <time>2015-12-14T21:01:40Z</time>
      </trkpt>
      <trkpt lat="48.8564" lon="2.28598">
        <ele>41.400001525879</ele>
        <time>2015-12-14T21:01:44Z</time>
      </trkpt>
      <trkpt lat="48.85657" lon="2.28619">
        <ele>41.599998474121</ele>
        <time>2015-12-14T21:01:48Z</time>
      </trkpt>
      <trkpt lat="48.85672" lon="2.28638">
        <ele>42</ele>
        <time>2015-12-14T21:01:53Z</time>
      </trkpt>
      <trkpt lat="48.85678" lon="2.28649">
        <ele>41.79999923706</ele>
        <time>2015-12-14T21:01:56Z</time>
      </trkpt>
      <trkpt lat="48.85688" lon="2.28662">
        <ele>41.79999923706</ele>
        <time>2015-12-14T21:02:00Z</time>
      </trkpt>
      <trkpt lat="48.85698" lon="2.28678">
        <ele>41.79999923706</ele>
        <time>2015-12-14T21:02:04Z</time>
      </trkpt>
      <trkpt lat="48.85707" lon="2.28689">
        <ele>41.79999923706</ele>
        <time>2015-12-14T21:02:07Z</time>
      </trkpt>
      <trkpt lat="48.85715" lon="2.28698">
        <ele>42</ele>
        <time>2015-12-14T21:02:10Z</time>
      </trkpt>
      <trkpt lat="48.85726" lon="2.28715">
        <ele>41.79999923706</ele>
        <time>2015-12-14T21:02:14Z</time>
      </trkpt>
      <trkpt lat="48.85741" lon="2.28737">
        <ele>41.400001525879</ele>
        <time>2015-12-14T21:02:18Z</time>
      </trkpt>
      <trkpt lat="48.85759" lon="2.28758">
        <ele>41.400001525879</ele>
        <time>2015-12-14T21:02:22Z</time>
      </trkpt>
      <trkpt lat="48.85773" lon="2.28777">
        <ele>40.599998474121</ele>
        <time>2015-12-14T21:02:26Z</time>
      </trkpt>
      <trkpt lat="48.85777" lon="2.28782">
        <ele>40.20000076294</ele>
        <time>2015-12-14T21:02:27Z</time>
      </trkpt>
      <trkpt lat="48.85794" lon="2.28802">
        <ele>39</ele>
        <time>2015-12-14T21:02:32Z</time>
      </trkpt>
      <trkpt lat="48.85801" lon="2.28812">
        <ele>38.20000076294</ele>
        <time>2015-12-14T21:02:34Z</time>
      </trkpt>
      <trkpt lat="48.85817" lon="2.28835">
        <ele>36.79999923706</ele>
        <time>2015-12-14T21:02:39Z</time>
      </trkpt>
      <trkpt lat="48.85823" lon="2.28843">
        <ele>36.79999923706</ele>
        <time>2015-12-14T21:02:41Z</time>
      </trkpt>
      <trkpt lat="48.85839" lon="2.28863">
        <ele>36.599998474121</ele>
        <time>2015-12-14T21:02:47Z</time>
      </trkpt>
      <trkpt lat="48.85847" lon="2.28878">
        <ele>36</ele>
        <time>2015-12-14T21:02:51Z</time>
      </trkpt>
      <trkpt lat="48.85852" lon="2.28889">
        <ele>35.20000076294</ele>
        <time>2015-12-14T21:02:54Z</time>
      </trkpt>
      <trkpt lat="48.85869" lon="2.28907">
        <ele>35</ele>
        <time>2015-12-14T21:03:01Z</time>
      </trkpt>
      <trkpt lat="48.85883" lon="2.28931">
        <ele>33.79999923706</ele>
        <time>2015-12-14T21:03:07Z</time>
      </trkpt>
      <trkpt lat="48.85897" lon="2.28952">
        <ele>33.20000076294</ele>
        <time>2015-12-14T21:03:12Z</time>
      </trkpt>
      <trkpt lat="48.85911" lon="2.28971">
        <ele>32.79999923706</ele>
        <time>2015-12-14T21:03:16Z</time>
      </trkpt>
      <trkpt lat="48.85928" lon="2.28992">
        <ele>32.400001525879</ele>
        <time>2015-12-14T21:03:21Z</time>
      </trkpt>
      <trkpt lat="48.85941" lon="2.29014">
        <ele>32.400001525879</ele>
        <time>2015-12-14T21:03:26Z</time>
      </trkpt>
      <trkpt lat="48.85955" lon="2.29033">
        <ele>32.20000076294</ele>
        <time>2015-12-14T21:03:31Z</time>
      </trkpt>
      <trkpt lat="48.85972" lon="2.29054">
        <ele>32.20000076294</ele>
        <time>2015-12-14T21:03:37Z</time>
      </trkpt>
      <trkpt lat="48.85988" lon="2.29073">
        <ele>32</ele>
        <time>2015-12-14T21:03:43Z</time>
      </trkpt>
      <trkpt lat="48.86002" lon="2.29093">
        <ele>31.60000038147</ele>
        <time>2015-12-14T21:03:49Z</time>
      </trkpt>
      <trkpt lat="48.86017" lon="2.2911">
        <ele>31</ele>
        <time>2015-12-14T21:03:56Z</time>
      </trkpt>
      <trkpt lat="48.86019" lon="2.29113">
        <ele>30.799999237061</ele>
        <time>2015-12-14T21:03:58Z</time>
      </trkpt>
      <trkpt lat="48.8603" lon="2.29123">
        <ele>30.799999237061</ele>
        <time>2015-12-14T21:05:18Z</time>
      </trkpt>
      <trkpt lat="48.86043" lon="2.29141">
        <ele>30.39999961853</ele>
        <time>2015-12-14T21:05:27Z</time>
      </trkpt>
      <trkpt lat="48.86058" lon="2.29161">
        <ele>29.799999237061</ele>
        <time>2015-12-14T21:05:35Z</time>
      </trkpt>
      <trkpt lat="48.86071" lon="2.29183">
        <ele>30.200000762939</ele>
        <time>2015-12-14T21:05:41Z</time>
      </trkpt>
      <trkpt lat="48.86087" lon="2.29203">
        <ele>30.60000038147</ele>
        <time>2015-12-14T21:05:47Z</time>
      </trkpt>
      <trkpt lat="48.861" lon="2.29222">
        <ele>31</ele>
        <time>2015-12-14T21:05:52Z</time>
      </trkpt>
      <trkpt lat="48.86114" lon="2.2924">
        <ele>31.60000038147</ele>
        <time>2015-12-14T21:05:56Z</time>
      </trkpt>
      <trkpt lat="48.86128" lon="2.29259">
        <ele>31.39999961853</ele>
        <time>2015-12-14T21:06:00Z</time>
      </trkpt>
      <trkpt lat="48.86143" lon="2.29276">
        <ele>31</ele>
        <time>2015-12-14T21:06:04Z</time>
      </trkpt>
      <trkpt lat="48.86158" lon="2.29294">
        <ele>30.60000038147</ele>
        <time>2015-12-14T21:06:08Z</time>
      </trkpt>
      <trkpt lat="48.86173" lon="2.29311">
        <ele>30.39999961853</ele>
        <time>2015-12-14T21:06:12Z</time>
      </trkpt>
      <trkpt lat="48.86188" lon="2.29332">
        <ele>30</ele>
        <time>2015-12-14T21:06:17Z</time>
      </trkpt>
      <trkpt lat="48.86202" lon="2.29351">
        <ele>31</ele>
        <time>2015-12-14T21:06:22Z</time>
      </trkpt>
      <trkpt lat="48.8621" lon="2.29361">
        <ele>31.799999237061</ele>
        <time>2015-12-14T21:06:25Z</time>
      </trkpt>
      <trkpt lat="48.86215" lon="2.29368">
        <ele>32.20000076294</ele>
        <time>2015-12-14T21:06:27Z</time>
      </trkpt>
      <trkpt lat="48.86227" lon="2.29384">
        <ele>33.20000076294</ele>
        <time>2015-12-14T21:06:31Z</time>
      </trkpt>
      <trkpt lat="48.86241" lon="2.29408">
        <ele>34.400001525879</ele>
        <time>2015-12-14T21:06:36Z</time>
      </trkpt>
      <trkpt lat="48.86255" lon="2.29431">
        <ele>34.599998474121</ele>
        <time>2015-12-14T21:06:41Z</time>
      </trkpt>
      <trkpt lat="48.86267" lon="2.29456">
        <ele>34.400001525879</ele>
        <time>2015-12-14T21:06:47Z</time>
      </trkpt>
      <trkpt lat="48.86277" lon="2.29485">
        <ele>33.79999923706</ele>
        <time>2015-12-14T21:06:53Z</time>
      </trkpt>
      <trkpt lat="48.86288" lon="2.29513">
        <ele>33.400001525879</ele>
        <time>2015-12-14T21:06:59Z</time>
      </trkpt>
      <trkpt lat="48.86295" lon="2.29538">
        <ele>33</ele>
        <time>2015-12-14T21:07:04Z</time>
      </trkpt>
      <trkpt lat="48.86303" lon="2.29565">
        <ele>32.79999923706</ele>
        <time>2015-12-14T21:07:10Z</time>
      </trkpt>
      <trkpt lat="48.8631" lon="2.29591">
        <ele>32.599998474121</ele>
        <time>2015-12-14T21:07:15Z</time>
      </trkpt>
      <trkpt lat="48.86317" lon="2.2962">
        <ele>32.599998474121</ele>
        <time>2015-12-14T21:07:21Z</time>
      </trkpt>
      <trkpt lat="48.8632" lon="2.29634">
        <ele>32.400001525879</ele>
        <time>2015-12-14T21:07:26Z</time>
      </trkpt>
      <trkpt lat="48.86328" lon="2.29658">
        <ele>32</ele>
        <time>2015-12-14T21:08:00Z</time>
      </trkpt>
      <trkpt lat="48.86333" lon="2.29685">
        <ele>32</ele>
        <time>2015-12-14T21:08:07Z</time>
      </trkpt>
      <trkpt lat="48.86338" lon="2.29714">
        <ele>32.400001525879</ele>
        <time>2015-12-14T21:08:13Z</time>
      </trkpt>
      <trkpt lat="48.86342" lon="2.2974">
        <ele>32.79999923706</ele>
        <time>2015-12-14T21:08:18Z</time>
      </trkpt>
      <trkpt lat="48.86349" lon="2.29767">
        <ele>33</ele>
        <time>2015-12-14T21:08:23Z</time>
      </trkpt>
      <trkpt lat="48.86353" lon="2.29794">
        <ele>33.20000076294</ele>
        <time>2015-12-14T21:08:28Z</time>
      </trkpt>
      <trkpt lat="48.86359" lon="2.29821">
        <ele>33.400001525879</ele>
        <time>2015-12-14T21:08:33Z</time>
      </trkpt>
      <trkpt lat="48.86366" lon="2.29847">
        <ele>34.20000076294</ele>
        <time>2015-12-14T21:08:38Z</time>
      </trkpt>
      <trkpt lat="48.86372" lon="2.29876">
        <ele>34.400001525879</ele>
        <time>2015-12-14T21:08:45Z</time>
      </trkpt>
      <trkpt lat="48.86375" lon="2.29908">
        <ele>34</ele>
        <time>2015-12-14T21:08:51Z</time>
      </trkpt>
      <trkpt lat="48.86379" lon="2.29941">
        <ele>36.400001525879</ele>
        <time>2015-12-14T21:08:57Z</time>
      </trkpt>
      <trkpt lat="48.86383" lon="2.29969">
        <ele>39.20000076294</ele>
        <time>2015-12-14T21:09:02Z</time>
      </trkpt>
      <trkpt lat="48.86388" lon="2.29996">
        <ele>42</ele>
        <time>2015-12-14T21:09:07Z</time>
      </trkpt>
      <trkpt lat="48.86393" lon="2.30029">
        <ele>37.400001525879</ele>
        <time>2015-12-14T21:09:12Z</time>
      </trkpt>
      <trkpt lat="48.86398" lon="2.30056">
        <ele>34.79999923706</ele>
        <time>2015-12-14T21:09:17Z</time>
      </trkpt>
      <trkpt lat="48.86402" lon="2.30083">
        <ele>32.599998474121</ele>
        <time>2015-12-14T21:09:23Z</time>
      </trkpt>
      <trkpt lat="48.86406" lon="2.30111">
        <ele>28.60000038147</ele>
        <time>2015-12-14T21:09:30Z</time>
      </trkpt>
      <trkpt lat="48.86409" lon="2.30139">
        <ele>25.799999237061</ele>
        <time>2015-12-14T21:09:39Z</time>
      </trkpt>
      <trkpt lat="48.86411" lon="2.30163">
        <ele>25</ele>
        <time>2015-12-14T21:10:02Z</time>
      </trkpt>
      <trkpt lat="48.86413" lon="2.30182">
        <ele>26</ele>
        <time>2015-12-14T21:10:09Z</time>
      </trkpt>
      <trkpt lat="48.86417" lon="2.30192">
        <ele>26.60000038147</ele>
        <time>2015-12-14T21:10:13Z</time>
      </trkpt>
      <trkpt lat="48.8642" lon="2.3022">
        <ele>28</ele>
        <time>2015-12-14T21:10:19Z</time>
      </trkpt>
      <trkpt lat="48.86419" lon="2.30249">
        <ele>29</ele>
        <time>2015-12-14T21:10:24Z</time>
      </trkpt>
      <trkpt lat="48.86419" lon="2.30256">
        <ele>29.39999961853</ele>
        <time>2015-12-14T21:10:25Z</time>
      </trkpt>
      <trkpt lat="48.8642" lon="2.30287">
        <ele>30.39999961853</ele>
        <time>2015-12-14T21:10:29Z</time>
      </trkpt>
      <trkpt lat="48.86421" lon="2.30322">
        <ele>31</ele>
        <time>2015-12-14T21:10:33Z</time>
      </trkpt>
      <trkpt lat="48.86423" lon="2.30358">
        <ele>31.39999961853</ele>
        <time>2015-12-14T21:10:37Z</time>
      </trkpt>
      <trkpt lat="48.86429" lon="2.30392">
        <ele>32.20000076294</ele>
        <time>2015-12-14T21:10:41Z</time>
      </trkpt>
      <trkpt lat="48.86437" lon="2.30425">
        <ele>32.599998474121</ele>
        <time>2015-12-14T21:10:45Z</time>
      </trkpt>
      <trkpt lat="48.8644" lon="2.30441">
        <ele>32.400001525879</ele>
        <time>2015-12-14T21:10:47Z</time>
      </trkpt>
      <trkpt lat="48.86442" lon="2.30466">
        <ele>32.20000076294</ele>
        <time>2015-12-14T21:10:50Z</time>
      </trkpt>
      <trkpt lat="48.86443" lon="2.3049">
        <ele>31.60000038147</ele>
        <time>2015-12-14T21:10:53Z</time>
      </trkpt>
      <trkpt lat="48.8644" lon="2.3052">
        <ele>31.39999961853</ele>
        <time>2015-12-14T21:10:57Z</time>
      </trkpt>
      <trkpt lat="48.86439" lon="2.30548">
        <ele>31.60000038147</ele>
        <time>2015-12-14T21:11:01Z</time>
      </trkpt>
      <trkpt lat="48.86439" lon="2.30556">
        <ele>31.60000038147</ele>
        <time>2015-12-14T21:11:02Z</time>
      </trkpt>
      <trkpt lat="48.8644" lon="2.30588">
        <ele>32.20000076294</ele>
        <time>2015-12-14T21:11:06Z</time>
      </trkpt>
      <trkpt lat="48.86442" lon="2.30621">
        <ele>33.400001525879</ele>
        <time>2015-12-14T21:11:10Z</time>
      </trkpt>
      <trkpt lat="48.86444" lon="2.30646">
        <ele>34.400001525879</ele>
        <time>2015-12-14T21:11:13Z</time>
      </trkpt>
      <trkpt lat="48.86449" lon="2.30678">
        <ele>34.79999923706</ele>
        <time>2015-12-14T21:11:17Z</time>
      </trkpt>
      <trkpt lat="48.8645" lon="2.30688">
        <ele>34.79999923706</ele>
        <time>2015-12-14T21:11:18Z</time>
      </trkpt>
      <trkpt lat="48.86452" lon="2.30718">
        <ele>34.400001525879</ele>
        <time>2015-12-14T21:11:21Z</time>
      </trkpt>
      <trkpt lat="48.86453" lon="2.30747">
        <ele>33.79999923706</ele>
        <time>2015-12-14T21:11:24Z</time>
      </trkpt>
      <trkpt lat="48.86454" lon="2.30782">
        <ele>33.599998474121</ele>
        <time>2015-12-14T21:11:28Z</time>
      </trkpt>
      <trkpt lat="48.86454" lon="2.30807">
        <ele>33.599998474121</ele>
        <time>2015-12-14T21:11:31Z</time>
      </trkpt>
      <trkpt lat="48.86453" lon="2.30823">
        <ele>33.400001525879</ele>
        <time>2015-12-14T21:11:33Z</time>
      </trkpt>
      <trkpt lat="48.86453" lon="2.30856">
        <ele>33.20000076294</ele>
        <time>2015-12-14T21:11:37Z</time>
      </trkpt>
      <trkpt lat="48.86454" lon="2.30864">
        <ele>33</ele>
        <time>2015-12-14T21:11:38Z</time>
      </trkpt>
      <trkpt lat="48.86456" lon="2.30897">
        <ele>32.599998474121</ele>
        <time>2015-12-14T21:11:42Z</time>
      </trkpt>
      <trkpt lat="48.86457" lon="2.30913">
        <ele>32.400001525879</ele>
        <time>2015-12-14T21:11:44Z</time>
      </trkpt>
      <trkpt lat="48.86459" lon="2.30935">
        <ele>32.599998474121</ele>
        <time>2015-12-14T21:11:47Z</time>
      </trkpt>
      <trkpt lat="48.86461" lon="2.30964">
        <ele>32.79999923706</ele>
        <time>2015-12-14T21:11:51Z</time>
      </trkpt>
      <trkpt lat="48.86463" lon="2.30989">
        <ele>33.20000076294</ele>
        <time>2015-12-14T21:11:55Z</time>
      </trkpt>
      <trkpt lat="48.86456" lon="2.31008">
        <ele>31.60000038147</ele>
        <time>2015-12-14T21:11:59Z</time>
      </trkpt>
      <trkpt lat="48.86444" lon="2.31028">
        <ele>29.39999961853</ele>
        <time>2015-12-14T21:12:38Z</time>
      </trkpt>
      <trkpt lat="48.86446" lon="2.31056">
        <ele>28.60000038147</ele>
        <time>2015-12-14T21:12:48Z</time>
      </trkpt>
      <trkpt lat="48.86452" lon="2.31084">
        <ele>28.39999961853</ele>
        <time>2015-12-14T21:12:56Z</time>
      </trkpt>
      <trkpt lat="48.86452" lon="2.31114">
        <ele>28.39999961853</ele>
        <time>2015-12-14T21:13:02Z</time>
      </trkpt>
      <trkpt lat="48.86452" lon="2.31142">
        <ele>28.39999961853</ele>
        <time>2015-12-14T21:13:07Z</time>
      </trkpt>
      <trkpt lat="48.86453" lon="2.31172">
        <ele>29.200000762939</ele>
        <time>2015-12-14T21:13:12Z</time>
      </trkpt>
      <trkpt lat="48.86455" lon="2.31202">
        <ele>32</ele>
        <time>2015-12-14T21:13:17Z</time>
      </trkpt>
      <trkpt lat="48.86457" lon="2.31232">
        <ele>35</ele>
        <time>2015-12-14T21:13:22Z</time>
      </trkpt>
      <trkpt lat="48.8646" lon="2.3126">
        <ele>36.79999923706</ele>
        <time>2015-12-14T21:13:27Z</time>
      </trkpt>
      <trkpt lat="48.86462" lon="2.3129">
        <ele>36.400001525879</ele>
        <time>2015-12-14T21:13:32Z</time>
      </trkpt>
      <trkpt lat="48.86463" lon="2.31319">
        <ele>35.599998474121</ele>
        <time>2015-12-14T21:13:37Z</time>
      </trkpt>
      <trkpt lat="48.86463" lon="2.31332">
        <ele>35</ele>
        <time>2015-12-14T21:13:43Z</time>
      </trkpt>
      <trkpt lat="48.86464" lon="2.31353">
        <ele>33.599998474121</ele>
        <time>2015-12-14T21:13:52Z</time>
      </trkpt>
      <trkpt lat="48.86464" lon="2.31384">
        <ele>32.79999923706</ele>
        <time>2015-12-14T21:13:59Z</time>
      </trkpt>
      <trkpt lat="48.86467" lon="2.31416">
        <ele>32.400001525879</ele>
        <time>2015-12-14T21:14:05Z</time>
      </trkpt>
      <trkpt lat="48.86466" lon="2.31445">
        <ele>34.400001525879</ele>
        <time>2015-12-14T21:14:10Z</time>
      </trkpt>
      <trkpt lat="48.86467" lon="2.31474">
        <ele>34.20000076294</ele>
        <time>2015-12-14T21:14:14Z</time>
      </trkpt>
      <trkpt lat="48.86467" lon="2.31509">
        <ele>32.79999923706</ele>
        <time>2015-12-14T21:14:18Z</time>
      </trkpt>
      <trkpt lat="48.86467" lon="2.31537">
        <ele>30.60000038147</ele>
        <time>2015-12-14T21:14:21Z</time>
      </trkpt>
      <trkpt lat="48.86469" lon="2.31566">
        <ele>29.799999237061</ele>
        <time>2015-12-14T21:14:24Z</time>
      </trkpt>
      <trkpt lat="48.8647" lon="2.31598">
        <ele>28</ele>
        <time>2015-12-14T21:14:27Z</time>
      </trkpt>
      <trkpt lat="48.86472" lon="2.31631">
        <ele>27.200000762939</ele>
        <time>2015-12-14T21:14:30Z</time>
      </trkpt>
      <trkpt lat="48.86473" lon="2.31663">
        <ele>27.200000762939</ele>
        <time>2015-12-14T21:14:33Z</time>
      </trkpt>
      <trkpt lat="48.86474" lon="2.31694">
        <ele>29</ele>
        <time>2015-12-14T21:14:36Z</time>
      </trkpt>
      <trkpt lat="48.86475" lon="2.31724">
        <ele>34</ele>
        <time>2015-12-14T21:14:39Z</time>
      </trkpt>
      <trkpt lat="48.86476" lon="2.31754">
        <ele>38</ele>
        <time>2015-12-14T21:14:42Z</time>
      </trkpt>
      <trkpt lat="48.86477" lon="2.31782">
        <ele>37.79999923706</ele>
        <time>2015-12-14T21:14:45Z</time>
      </trkpt>
      <trkpt lat="48.86479" lon="2.318">
        <ele>36.400001525879</ele>
        <time>2015-12-14T21:14:47Z</time>
      </trkpt>
      <trkpt lat="48.86475" lon="2.31835">
        <ele>33.20000076294</ele>
        <time>2015-12-14T21:14:51Z</time>
      </trkpt>
      <trkpt lat="48.86459" lon="2.31853">
        <ele>32.400001525879</ele>
        <time>2015-12-14T21:14:54Z</time>
      </trkpt>
      <trkpt lat="48.86448" lon="2.31868">
        <ele>30.799999237061</ele>
        <time>2015-12-14T21:14:58Z</time>
      </trkpt>
      <trkpt lat="48.86447" lon="2.3187">
        <ele>30.60000038147</ele>
        <time>2015-12-14T21:14:59Z</time>
      </trkpt>
      <trkpt lat="48.86445" lon="2.31878">
        <ele>29.799999237061</ele>
        <time>2015-12-14T21:15:03Z</time>
      </trkpt>
      <trkpt lat="48.86444" lon="2.31871">
        <ele>30.39999961853</ele>
        <time>2015-12-14T21:15:28Z</time>
      </trkpt>
      <trkpt lat="48.86449" lon="2.31862">
        <ele>31.200000762939</ele>
        <time>2015-12-14T21:15:32Z</time>
      </trkpt>
      <trkpt lat="48.86447" lon="2.31859">
        <ele>31.200000762939</ele>
        <time>2015-12-14T21:15:42Z</time>
      </trkpt>
      <trkpt lat="48.86443" lon="2.31861">
        <ele>31</ele>
        <time>2015-12-14T21:15:48Z</time>
      </trkpt>
      <trkpt lat="48.86435" lon="2.31887">
        <ele>29.60000038147</ele>
        <time>2015-12-14T21:15:56Z</time>
      </trkpt>
      <trkpt lat="48.86426" lon="2.31911">
        <ele>27.39999961853</ele>
        <time>2015-12-14T21:16:01Z</time>
      </trkpt>
      <trkpt lat="48.86416" lon="2.31938">
        <ele>27.60000038147</ele>
        <time>2015-12-14T21:16:06Z</time>
      </trkpt>
      <trkpt lat="48.86407" lon="2.31965">
        <ele>28.39999961853</ele>
        <time>2015-12-14T21:16:11Z</time>
      </trkpt>
      <trkpt lat="48.86397" lon="2.31992">
        <ele>28.799999237061</ele>
        <time>2015-12-14T21:16:16Z</time>
      </trkpt>
      <trkpt lat="48.86388" lon="2.32019">
        <ele>29.60000038147</ele>
        <time>2015-12-14T21:16:21Z</time>
      </trkpt>
      <trkpt lat="48.8638" lon="2.3205">
        <ele>29.39999961853</ele>
        <time>2015-12-14T21:16:27Z</time>
      </trkpt>
      <trkpt lat="48.8637" lon="2.32078">
        <ele>28.799999237061</ele>
        <time>2015-12-14T21:16:32Z</time>
      </trkpt>
      <trkpt lat="48.86361" lon="2.32106">
        <ele>28.799999237061</ele>
        <time>2015-12-14T21:16:37Z</time>
      </trkpt>
      <trkpt lat="48.86353" lon="2.3213">
        <ele>28.799999237061</ele>
        <time>2015-12-14T21:16:42Z</time>
      </trkpt>
      <trkpt lat="48.86343" lon="2.32158">
        <ele>29</ele>
        <time>2015-12-14T21:16:47Z</time>
      </trkpt>
      <trkpt lat="48.86334" lon="2.32186">
        <ele>29.60000038147</ele>
        <time>2015-12-14T21:16:52Z</time>
      </trkpt>
      <trkpt lat="48.86324" lon="2.32214">
        <ele>30.60000038147</ele>
        <time>2015-12-14T21:16:57Z</time>
      </trkpt>
      <trkpt lat="48.86316" lon="2.3224">
        <ele>30.799999237061</ele>
        <time>2015-12-14T21:17:02Z</time>
      </trkpt>
      <trkpt lat="48.86307" lon="2.32267">
        <ele>30.39999961853</ele>
        <time>2015-12-14T21:17:07Z</time>
      </trkpt>
      <trkpt lat="48.86296" lon="2.32297">
        <ele>29.799999237061</ele>
        <time>2015-12-14T21:17:12Z</time>
      </trkpt>
      <trkpt lat="48.86288" lon="2.32324">
        <ele>29.60000038147</ele>
        <time>2015-12-14T21:17:16Z</time>
      </trkpt>
      <trkpt lat="48.86282" lon="2.32342">
        <ele>29.200000762939</ele>
        <time>2015-12-14T21:17:19Z</time>
      </trkpt>
      <trkpt lat="48.86272" lon="2.32369">
        <ele>28</ele>
        <time>2015-12-14T21:17:24Z</time>
      </trkpt>
      <trkpt lat="48.86265" lon="2.32394">
        <ele>27.60000038147</ele>
        <time>2015-12-14T21:17:29Z</time>
      </trkpt>
      <trkpt lat="48.86256" lon="2.32423">
        <ele>27.200000762939</ele>
        <time>2015-12-14T21:17:35Z</time>
      </trkpt>
      <trkpt lat="48.86254" lon="2.32432">
        <ele>27.39999961853</ele>
        <time>2015-12-14T21:17:37Z</time>
      </trkpt>
      <trkpt lat="48.86248" lon="2.32453">
        <ele>28</ele>
        <time>2015-12-14T21:17:44Z</time>
      </trkpt>
      <trkpt lat="48.86242" lon="2.32461">
        <ele>28.200000762939</ele>
        <time>2015-12-14T21:19:12Z</time>
      </trkpt>
      <trkpt lat="48.86234" lon="2.32485">
        <ele>28.799999237061</ele>
        <time>2015-12-14T21:19:21Z</time>
      </trkpt>
      <trkpt lat="48.86231" lon="2.32495">
        <ele>29</ele>
        <time>2015-12-14T21:19:27Z</time>
      </trkpt>
      <trkpt lat="48.86219" lon="2.32498">
        <ele>29</ele>
        <time>2015-12-14T21:20:03Z</time>
      </trkpt>
      <trkpt lat="48.86202" lon="2.32486">
        <ele>28.799999237061</ele>
        <time>2015-12-14T21:20:32Z</time>
      </trkpt>
      <trkpt lat="48.86188" lon="2.32475">
        <ele>28.60000038147</ele>
        <time>2015-12-14T21:20:46Z</time>
      </trkpt>
      <trkpt lat="48.86182" lon="2.32461">
        <ele>29.200000762939</ele>
        <time>2015-12-14T21:20:57Z</time>
      </trkpt>
      <trkpt lat="48.86167" lon="2.3245">
        <ele>30.799999237061</ele>
        <time>2015-12-14T21:21:08Z</time>
      </trkpt>
      <trkpt lat="48.8615" lon="2.32442">
        <ele>33</ele>
        <time>2015-12-14T21:21:19Z</time>
      </trkpt>
      <trkpt lat="48.86131" lon="2.32431">
        <ele>35</ele>
        <time>2015-12-14T21:21:28Z</time>
      </trkpt>
      <trkpt lat="48.86124" lon="2.32425">
        <ele>36</ele>
        <time>2015-12-14T21:21:33Z</time>
      </trkpt>
      <trkpt lat="48.86121" lon="2.32421">
        <ele>36.20000076294</ele>
        <time>2015-12-14T21:21:37Z</time>
      </trkpt>
      <trkpt lat="48.86121" lon="2.3242">
        <ele>36.20000076294</ele>
        <time>2015-12-14T21:21:40Z</time>
      </trkpt>
      <trkpt lat="48.86117" lon="2.32437">
        <ele>36.400001525879</ele>
        <time>2015-12-14T21:22:38Z</time>
      </trkpt>
      <trkpt lat="48.86114" lon="2.32443">
        <ele>36.400001525879</ele>
        <time>2015-12-14T21:22:41Z</time>
      </trkpt>
      <trkpt lat="48.86105" lon="2.32442">
        <ele>37</ele>
        <time>2015-12-14T21:23:23Z</time>
      </trkpt>
      <trkpt lat="48.86102" lon="2.32446">
        <ele>37.20000076294</ele>
        <time>2015-12-14T21:23:25Z</time>
      </trkpt>
      <trkpt lat="48.86093" lon="2.32474">
        <ele>36.79999923706</ele>
        <time>2015-12-14T21:23:32Z</time>
      </trkpt>
      <trkpt lat="48.86084" lon="2.32498">
        <ele>36.20000076294</ele>
        <time>2015-12-14T21:23:37Z</time>
      </trkpt>
      <trkpt lat="48.86071" lon="2.32517">
        <ele>36.20000076294</ele>
        <time>2015-12-14T21:23:43Z</time>
      </trkpt>
      <trkpt lat="48.86056" lon="2.3251">
        <ele>37.400001525879</ele>
        <time>2015-12-14T21:24:00Z</time>
      </trkpt>
      <trkpt lat="48.86036" lon="2.32507">
        <ele>38.79999923706</ele>
        <time>2015-12-14T21:24:07Z</time>
      </trkpt>
      <trkpt lat="48.86013" lon="2.32505">
        <ele>41</ele>
        <time>2015-12-14T21:24:13Z</time>
      </trkpt>
      <trkpt lat="48.85993" lon="2.325">
        <ele>41</ele>
        <time>2015-12-14T21:24:19Z</time>
      </trkpt>
      <trkpt lat="48.85991" lon="2.325">
        <ele>41</ele>
        <time>2015-12-14T21:24:20Z</time>
      </trkpt>
      <trkpt lat="48.85989" lon="2.3251">
        <ele>41.79999923706</ele>
        <time>2015-12-14T21:24:24Z</time>
      </trkpt>
      <trkpt lat="48.8599" lon="2.3254">
        <ele>44.400001525879</ele>
        <time>2015-12-14T21:24:36Z</time>
      </trkpt>
      <trkpt lat="48.85978" lon="2.32567">
        <ele>44.599998474121</ele>
        <time>2015-12-14T21:24:43Z</time>
      </trkpt>
      <trkpt lat="48.85968" lon="2.32591">
        <ele>44.599998474121</ele>
        <time>2015-12-14T21:24:49Z</time>
      </trkpt>
      <trkpt lat="48.85961" lon="2.3262">
        <ele>45.20000076294</ele>
        <time>2015-12-14T21:24:55Z</time>
      </trkpt>
      <trkpt lat="48.85952" lon="2.32646">
        <ele>46.400001525879</ele>
        <time>2015-12-14T21:25:01Z</time>
      </trkpt>
      <trkpt lat="48.85947" lon="2.32675">
        <ele>46.400001525879</ele>
        <time>2015-12-14T21:25:09Z</time>
      </trkpt>
      <trkpt lat="48.85939" lon="2.32686">
        <ele>47.20000076294</ele>
        <time>2015-12-14T21:25:18Z</time>
      </trkpt>
      <trkpt lat="48.85938" lon="2.32681">
        <ele>47.20000076294</ele>
        <time>2015-12-14T21:25:22Z</time>
      </trkpt>
      <trkpt lat="48.8594" lon="2.32682">
        <ele>47.20000076294</ele>
        <time>2015-12-14T21:25:23Z</time>
      </trkpt>
      <trkpt lat="48.8593" lon="2.32678">
        <ele>47</ele>
        <time>2015-12-14T21:25:57Z</time>
      </trkpt>
      <trkpt lat="48.85924" lon="2.32712">
        <ele>47.20000076294</ele>
        <time>2015-12-14T21:26:03Z</time>
      </trkpt>
      <trkpt lat="48.85916" lon="2.32742">
        <ele>47.79999923706</ele>
        <time>2015-12-14T21:26:08Z</time>
      </trkpt>
      <trkpt lat="48.85908" lon="2.32771">
        <ele>47.79999923706</ele>
        <time>2015-12-14T21:26:13Z</time>
      </trkpt>
      <trkpt lat="48.85901" lon="2.32797">
        <ele>47.20000076294</ele>
        <time>2015-12-14T21:26:18Z</time>
      </trkpt>
      <trkpt lat="48.85888" lon="2.3282">
        <ele>46.20000076294</ele>
        <time>2015-12-14T21:26:23Z</time>
      </trkpt>
      <trkpt lat="48.85886" lon="2.32853">
        <ele>45</ele>
        <time>2015-12-14T21:26:28Z</time>
      </trkpt>
      <trkpt lat="48.85879" lon="2.32882">
        <ele>45</ele>
        <time>2015-12-14T21:26:34Z</time>
      </trkpt>
      <trkpt lat="48.85871" lon="2.32909">
        <ele>45.599998474121</ele>
        <time>2015-12-14T21:26:39Z</time>
      </trkpt>
      <trkpt lat="48.85866" lon="2.32942">
        <ele>45.599998474121</ele>
        <time>2015-12-14T21:26:44Z</time>
      </trkpt>
      <trkpt lat="48.8586" lon="2.32969">
        <ele>47</ele>
        <time>2015-12-14T21:26:49Z</time>
      </trkpt>
      <trkpt lat="48.85853" lon="2.32998">
        <ele>48</ele>
        <time>2015-12-14T21:26:54Z</time>
      </trkpt>
      <trkpt lat="48.85838" lon="2.33016">
        <ele>47.599998474121</ele>
        <time>2015-12-14T21:26:58Z</time>
      </trkpt>
      <trkpt lat="48.85827" lon="2.33047">
        <ele>47.400001525879</ele>
        <time>2015-12-14T21:27:03Z</time>
      </trkpt>
      <trkpt lat="48.85819" lon="2.33071">
        <ele>46.79999923706</ele>
        <time>2015-12-14T21:27:07Z</time>
      </trkpt>
      <trkpt lat="48.85812" lon="2.33097">
        <ele>45.599998474121</ele>
        <time>2015-12-14T21:27:11Z</time>
      </trkpt>
      <trkpt lat="48.85811" lon="2.33105">
        <ele>45.20000076294</ele>
        <time>2015-12-14T21:27:12Z</time>
      </trkpt>
      <trkpt lat="48.85804" lon="2.33137">
        <ele>45</ele>
        <time>2015-12-14T21:27:17Z</time>
      </trkpt>
      <trkpt lat="48.85796" lon="2.33165">
        <ele>45.400001525879</ele>
        <time>2015-12-14T21:27:21Z</time>
      </trkpt>
      <trkpt lat="48.85789" lon="2.33191">
        <ele>45.400001525879</ele>
        <time>2015-12-14T21:27:25Z</time>
      </trkpt>
      <trkpt lat="48.85782" lon="2.33217">
        <ele>46</ele>
        <time>2015-12-14T21:27:30Z</time>
      </trkpt>
      <trkpt lat="48.85782" lon="2.33222">
        <ele>46.20000076294</ele>
        <time>2015-12-14T21:27:31Z</time>
      </trkpt>
      <trkpt lat="48.85764" lon="2.33227">
        <ele>46.599998474121</ele>
        <time>2015-12-14T21:27:37Z</time>
      </trkpt>
      <trkpt lat="48.85742" lon="2.33226">
        <ele>46.400001525879</ele>
        <time>2015-12-14T21:27:42Z</time>
      </trkpt>
      <trkpt lat="48.85731" lon="2.3322">
        <ele>46.400001525879</ele>
        <time>2015-12-14T21:27:45Z</time>
      </trkpt>
      <trkpt lat="48.85708" lon="2.3321">
        <ele>46.20000076294</ele>
        <time>2015-12-14T21:27:50Z</time>
      </trkpt>
      <trkpt lat="48.85687" lon="2.33204">
        <ele>46.20000076294</ele>
        <time>2015-12-14T21:27:53Z</time>
      </trkpt>
      <trkpt lat="48.85666" lon="2.33195">
        <ele>47.400001525879</ele>
        <time>2015-12-14T21:27:57Z</time>
      </trkpt>
      <trkpt lat="48.85648" lon="2.33186">
        <ele>48.400001525879</ele>
        <time>2015-12-14T21:28:02Z</time>
      </trkpt>
      <trkpt lat="48.85642" lon="2.33183">
        <ele>49</ele>
        <time>2015-12-14T21:28:04Z</time>
      </trkpt>
      <trkpt lat="48.85637" lon="2.33181">
        <ele>49.20000076294</ele>
        <time>2015-12-14T21:28:07Z</time>
      </trkpt>
      <trkpt lat="48.85635" lon="2.3318">
        <ele>49.400001525879</ele>
        <time>2015-12-14T21:28:09Z</time>
      </trkpt>
      <trkpt lat="48.85626" lon="2.33186">
        <ele>50</ele>
        <time>2015-12-14T21:28:15Z</time>
      </trkpt>
      <trkpt lat="48.85614" lon="2.33209">
        <ele>49.20000076294</ele>
        <time>2015-12-14T21:28:26Z</time>
      </trkpt>
      <trkpt lat="48.85601" lon="2.33232">
        <ele>48.79999923706</ele>
        <time>2015-12-14T21:28:32Z</time>
      </trkpt>
      <trkpt lat="48.8559" lon="2.33257">
        <ele>48</ele>
        <time>2015-12-14T21:28:38Z</time>
      </trkpt>
      <trkpt lat="48.85582" lon="2.33285">
        <ele>47.20000076294</ele>
        <time>2015-12-14T21:28:43Z</time>
      </trkpt>
      <trkpt lat="48.85573" lon="2.33311">
        <ele>46.20000076294</ele>
        <time>2015-12-14T21:28:48Z</time>
      </trkpt>
      <trkpt lat="48.85563" lon="2.33338">
        <ele>45</ele>
        <time>2015-12-14T21:28:54Z</time>
      </trkpt>
      <trkpt lat="48.85556" lon="2.33364">
        <ele>45.400001525879</ele>
        <time>2015-12-14T21:28:59Z</time>
      </trkpt>
      <trkpt lat="48.85547" lon="2.33389">
        <ele>45.20000076294</ele>
        <time>2015-12-14T21:29:05Z</time>
      </trkpt>
      <trkpt lat="48.85537" lon="2.33413">
        <ele>45.20000076294</ele>
        <time>2015-12-14T21:29:10Z</time>
      </trkpt>
      <trkpt lat="48.85529" lon="2.33439">
        <ele>45.20000076294</ele>
        <time>2015-12-14T21:29:15Z</time>
      </trkpt>
      <trkpt lat="48.85522" lon="2.33466">
        <ele>45</ele>
        <time>2015-12-14T21:29:22Z</time>
      </trkpt>
      <trkpt lat="48.85514" lon="2.33494">
        <ele>45</ele>
        <time>2015-12-14T21:29:29Z</time>
      </trkpt>
      <trkpt lat="48.85504" lon="2.3352">
        <ele>45.400001525879</ele>
        <time>2015-12-14T21:29:35Z</time>
      </trkpt>
      <trkpt lat="48.85494" lon="2.33549">
        <ele>46</ele>
        <time>2015-12-14T21:29:41Z</time>
      </trkpt>
      <trkpt lat="48.85484" lon="2.33572">
        <ele>46</ele>
        <time>2015-12-14T21:29:46Z</time>
      </trkpt>
      <trkpt lat="48.85475" lon="2.33596">
        <ele>46.20000076294</ele>
        <time>2015-12-14T21:29:51Z</time>
      </trkpt>
      <trkpt lat="48.85469" lon="2.33628">
        <ele>47</ele>
        <time>2015-12-14T21:29:57Z</time>
      </trkpt>
      <trkpt lat="48.85465" lon="2.33657">
        <ele>48.20000076294</ele>
        <time>2015-12-14T21:30:03Z</time>
      </trkpt>
      <trkpt lat="48.85454" lon="2.33665">
        <ele>48.599998474121</ele>
        <time>2015-12-14T21:30:08Z</time>
      </trkpt>
      <trkpt lat="48.85436" lon="2.33673">
        <ele>49</ele>
        <time>2015-12-14T21:30:18Z</time>
      </trkpt>
      <trkpt lat="48.85419" lon="2.33682">
        <ele>49.20000076294</ele>
        <time>2015-12-14T21:30:23Z</time>
      </trkpt>
      <trkpt lat="48.85403" lon="2.33701">
        <ele>49.400001525879</ele>
        <time>2015-12-14T21:30:30Z</time>
      </trkpt>
      <trkpt lat="48.85385" lon="2.33703">
        <ele>49.79999923706</ele>
        <time>2015-12-14T21:30:40Z</time>
      </trkpt>
      <trkpt lat="48.85384" lon="2.33731">
        <ele>49.599998474121</ele>
        <time>2015-12-14T21:30:52Z</time>
      </trkpt>
      <trkpt lat="48.85376" lon="2.3376">
        <ele>49.599998474121</ele>
        <time>2015-12-14T21:30:56Z</time>
      </trkpt>
      <trkpt lat="48.85372" lon="2.3379">
        <ele>49.400001525879</ele>
        <time>2015-12-14T21:31:01Z</time>
      </trkpt>
      <trkpt lat="48.85371" lon="2.3382">
        <ele>49.20000076294</ele>
        <time>2015-12-14T21:31:07Z</time>
      </trkpt>
      <trkpt lat="48.85366" lon="2.33846">
        <ele>48.400001525879</ele>
        <time>2015-12-14T21:31:16Z</time>
      </trkpt>
      <trkpt lat="48.85361" lon="2.33873">
        <ele>47</ele>
        <time>2015-12-14T21:31:23Z</time>
      </trkpt>
      <trkpt lat="48.85353" lon="2.33899">
        <ele>45.599998474121</ele>
        <time>2015-12-14T21:31:29Z</time>
      </trkpt>
      <trkpt lat="48.85346" lon="2.33926">
        <ele>44.79999923706</ele>
        <time>2015-12-14T21:31:35Z</time>
      </trkpt>
      <trkpt lat="48.85341" lon="2.33952">
        <ele>44</ele>
        <time>2015-12-14T21:31:40Z</time>
      </trkpt>
      <trkpt lat="48.85339" lon="2.33981">
        <ele>43.400001525879</ele>
        <time>2015-12-14T21:31:45Z</time>
      </trkpt>
      <trkpt lat="48.85333" lon="2.34011">
        <ele>43.400001525879</ele>
        <time>2015-12-14T21:31:50Z</time>
      </trkpt>
      <trkpt lat="48.85333" lon="2.3404">
        <ele>43.79999923706</ele>
        <time>2015-12-14T21:31:55Z</time>
      </trkpt>
      <trkpt lat="48.85338" lon="2.34072">
        <ele>44</ele>
        <time>2015-12-14T21:32:02Z</time>
      </trkpt>
      <trkpt lat="48.85339" lon="2.34107">
        <ele>43.599998474121</ele>
        <time>2015-12-14T21:32:08Z</time>
      </trkpt>
      <trkpt lat="48.85345" lon="2.34135">
        <ele>43.400001525879</ele>
        <time>2015-12-14T21:32:16Z</time>
      </trkpt>
      <trkpt lat="48.85344" lon="2.34164">
        <ele>43.20000076294</ele>
        <time>2015-12-14T21:32:24Z</time>
      </trkpt>
      <trkpt lat="48.85342" lon="2.34193">
        <ele>44.79999923706</ele>
        <time>2015-12-14T21:32:29Z</time>
      </trkpt>
      <trkpt lat="48.8533" lon="2.34216">
        <ele>46.20000076294</ele>
        <time>2015-12-14T21:32:35Z</time>
      </trkpt>
      <trkpt lat="48.8533" lon="2.34244">
        <ele>47.79999923706</ele>
        <time>2015-12-14T21:32:41Z</time>
      </trkpt>
      <trkpt lat="48.85332" lon="2.34273">
        <ele>47.79999923706</ele>
        <time>2015-12-14T21:32:45Z</time>
      </trkpt>
      <trkpt lat="48.85331" lon="2.34279">
        <ele>47.79999923706</ele>
        <time>2015-12-14T21:32:48Z</time>
      </trkpt>
      <trkpt lat="48.85328" lon="2.34299">
        <ele>48</ele>
        <time>2015-12-14T21:32:54Z</time>
      </trkpt>
      <trkpt lat="48.85329" lon="2.34301">
        <ele>48</ele>
        <time>2015-12-14T21:32:57Z</time>
      </trkpt>
      <trkpt lat="48.85325" lon="2.34324">
        <ele>47.79999923706</ele>
        <time>2015-12-14T21:33:05Z</time>
      </trkpt>
      <trkpt lat="48.85328" lon="2.34339">
        <ele>47.400001525879</ele>
        <time>2015-12-14T21:33:13Z</time>
      </trkpt>
      <trkpt lat="48.85334" lon="2.34355">
        <ele>46.599998474121</ele>
        <time>2015-12-14T21:33:19Z</time>
      </trkpt>
      <trkpt lat="48.85338" lon="2.34362">
        <ele>46.20000076294</ele>
        <time>2015-12-14T21:33:24Z</time>
      </trkpt>
      <trkpt lat="48.8534" lon="2.34381">
        <ele>45.599998474121</ele>
        <time>2015-12-14T21:33:30Z</time>
      </trkpt>
      <trkpt lat="48.85342" lon="2.34391">
        <ele>45.20000076294</ele>
        <time>2015-12-14T21:33:35Z</time>
      </trkpt>
      <trkpt lat="48.85352" lon="2.34415">
        <ele>44.400001525879</ele>
        <time>2015-12-14T21:33:42Z</time>
      </trkpt>
      <trkpt lat="48.85367" lon="2.34432">
        <ele>43.599998474121</ele>
        <time>2015-12-14T21:33:51Z</time>
      </trkpt>
      <trkpt lat="48.85369" lon="2.34433">
        <ele>43.599998474121</ele>
        <time>2015-12-14T21:33:55Z</time>
      </trkpt>
      <trkpt lat="48.85375" lon="2.34439">
        <ele>43.400001525879</ele>
        <time>2015-12-14T21:34:13Z</time>
      </trkpt>
      <trkpt lat="48.8539" lon="2.34448">
        <ele>42.79999923706</ele>
        <time>2015-12-14T21:34:19Z</time>
      </trkpt>
      <trkpt lat="48.85408" lon="2.34465">
        <ele>42.20000076294</ele>
        <time>2015-12-14T21:34:25Z</time>
      </trkpt>
      <trkpt lat="48.85424" lon="2.34482">
        <ele>41.599998474121</ele>
        <time>2015-12-14T21:34:30Z</time>
      </trkpt>
      <trkpt lat="48.85441" lon="2.34496">
        <ele>41</ele>
        <time>2015-12-14T21:34:35Z</time>
      </trkpt>
      <trkpt lat="48.85456" lon="2.34512">
        <ele>42.20000076294</ele>
        <time>2015-12-14T21:34:40Z</time>
      </trkpt>
      <trkpt lat="48.85471" lon="2.34532">
        <ele>43.400001525879</ele>
        <time>2015-12-14T21:34:45Z</time>
      </trkpt>
      <trkpt lat="48.85489" lon="2.34546">
        <ele>44.599998474121</ele>
        <time>2015-12-14T21:34:50Z</time>
      </trkpt>
      <trkpt lat="48.85508" lon="2.34555">
        <ele>45.599998474121</ele>
        <time>2015-12-14T21:34:55Z</time>
      </trkpt>
      <trkpt lat="48.85526" lon="2.34566">
        <ele>46.400001525879</ele>
        <time>2015-12-14T21:34:59Z</time>
      </trkpt>
      <trkpt lat="48.85546" lon="2.34581">
        <ele>47.20000076294</ele>
        <time>2015-12-14T21:35:03Z</time>
      </trkpt>
      <trkpt lat="48.85565" lon="2.34596">
        <ele>47.599998474121</ele>
        <time>2015-12-14T21:35:07Z</time>
      </trkpt>
      <trkpt lat="48.85583" lon="2.34606">
        <ele>47.79999923706</ele>
        <time>2015-12-14T21:35:12Z</time>
      </trkpt>
      <trkpt lat="48.85597" lon="2.34608">
        <ele>47.79999923706</ele>
        <time>2015-12-14T21:35:15Z</time>
      </trkpt>
      <trkpt lat="48.85618" lon="2.3461">
        <ele>47</ele>
        <time>2015-12-14T21:35:19Z</time>
      </trkpt>
      <trkpt lat="48.8564" lon="2.34619">
        <ele>45.20000076294</ele>
        <time>2015-12-14T21:35:23Z</time>
      </trkpt>
      <trkpt lat="48.85658" lon="2.34633">
        <ele>43.599998474121</ele>
        <time>2015-12-14T21:35:27Z</time>
      </trkpt>
      <trkpt lat="48.85665" lon="2.34641">
        <ele>43</ele>
        <time>2015-12-14T21:35:29Z</time>
      </trkpt>
      <trkpt lat="48.85673" lon="2.34649">
        <ele>42.400001525879</ele>
        <time>2015-12-14T21:35:31Z</time>
      </trkpt>
      <trkpt lat="48.85689" lon="2.34664">
        <ele>41</ele>
        <time>2015-12-14T21:35:35Z</time>
      </trkpt>
      <trkpt lat="48.85708" lon="2.34676">
        <ele>40.599998474121</ele>
        <time>2015-12-14T21:35:39Z</time>
      </trkpt>
      <trkpt lat="48.85713" lon="2.3468">
        <ele>40.400001525879</ele>
        <time>2015-12-14T21:35:40Z</time>
      </trkpt>
      <trkpt lat="48.85729" lon="2.34685">
        <ele>39.79999923706</ele>
        <time>2015-12-14T21:35:44Z</time>
      </trkpt>
      <trkpt lat="48.85741" lon="2.34689">
        <ele>39.400001525879</ele>
        <time>2015-12-14T21:35:47Z</time>
      </trkpt>
      <trkpt lat="48.8576" lon="2.34699">
        <ele>38.79999923706</ele>
        <time>2015-12-14T21:35:52Z</time>
      </trkpt>
      <trkpt lat="48.8577" lon="2.34702">
        <ele>38.400001525879</ele>
        <time>2015-12-14T21:35:55Z</time>
      </trkpt>
      <trkpt lat="48.85779" lon="2.34706">
        <ele>39</ele>
        <time>2015-12-14T21:35:58Z</time>
      </trkpt>
      <trkpt lat="48.85793" lon="2.3471">
        <ele>40.400001525879</ele>
        <time>2015-12-14T21:36:02Z</time>
      </trkpt>
      <trkpt lat="48.85813" lon="2.34714">
        <ele>42.20000076294</ele>
        <time>2015-12-14T21:36:07Z</time>
      </trkpt>
      <trkpt lat="48.85831" lon="2.34719">
        <ele>44</ele>
        <time>2015-12-14T21:36:11Z</time>
      </trkpt>
      <trkpt lat="48.85839" lon="2.34721">
        <ele>45.20000076294</ele>
        <time>2015-12-14T21:36:13Z</time>
      </trkpt>
      <trkpt lat="48.85848" lon="2.34723">
        <ele>46.400001525879</ele>
        <time>2015-12-14T21:36:17Z</time>
      </trkpt>
      <trkpt lat="48.8585" lon="2.34724">
        <ele>46.79999923706</ele>
        <time>2015-12-14T21:36:19Z</time>
      </trkpt>
      <trkpt lat="48.8585" lon="2.34724">
        <ele>46.79999923706</ele>
        <time>2015-12-14T21:36:21Z</time>
      </trkpt>
      <trkpt lat="48.85868" lon="2.34719">
        <ele>47.20000076294</ele>
        <time>2015-12-14T21:36:56Z</time>
      </trkpt>
      <trkpt lat="48.85888" lon="2.34707">
        <ele>46.79999923706</ele>
        <time>2015-12-14T21:37:03Z</time>
      </trkpt>
      <trkpt lat="48.85905" lon="2.34694">
        <ele>46.79999923706</ele>
        <time>2015-12-14T21:37:08Z</time>
      </trkpt>
      <trkpt lat="48.85923" lon="2.34692">
        <ele>46.400001525879</ele>
        <time>2015-12-14T21:37:14Z</time>
      </trkpt>
      <trkpt lat="48.8594" lon="2.34699">
        <ele>45.79999923706</ele>
        <time>2015-12-14T21:37:23Z</time>
      </trkpt>
      <trkpt lat="48.85956" lon="2.34708">
        <ele>45.599998474121</ele>
        <time>2015-12-14T21:37:43Z</time>
      </trkpt>
      <trkpt lat="48.85965" lon="2.34712">
        <ele>45.599998474121</ele>
        <time>2015-12-14T21:38:07Z</time>
      </trkpt>
      <trkpt lat="48.85962" lon="2.34707">
        <ele>45.79999923706</ele>
        <time>2015-12-14T21:38:45Z</time>
      </trkpt>
      <trkpt lat="48.85958" lon="2.34711">
        <ele>45.599998474121</ele>
        <time>2015-12-14T21:39:12Z</time>
      </trkpt>
    </trkseg>
  </trk>
  <trk>
    <name><![CDATA[lundi 2015 12 07]]></name>
    <extensions>
      <line xmlns="http://www.topografix.com/GPX/gpx_style/0/2">
        <color>000000</color>
      </line>
    </extensions>
    <trkseg>
      <trkpt lat="48.85741" lon="2.34733">
        <ele>40.400001525879</ele>
        <time>2015-12-07T19:23:45Z</time>
      </trkpt>
      <trkpt lat="48.85742" lon="2.34719">
        <ele>40.400001525879</ele>
        <time>2015-12-07T19:23:58Z</time>
      </trkpt>
      <trkpt lat="48.85745" lon="2.34715">
        <ele>40.20000076294</ele>
        <time>2015-12-07T19:24:01Z</time>
      </trkpt>
      <trkpt lat="48.85753" lon="2.34717">
        <ele>39.79999923706</ele>
        <time>2015-12-07T19:24:05Z</time>
      </trkpt>
      <trkpt lat="48.85773" lon="2.34721">
        <ele>39</ele>
        <time>2015-12-07T19:24:14Z</time>
      </trkpt>
      <trkpt lat="48.85788" lon="2.34701">
        <ele>39.599998474121</ele>
        <time>2015-12-07T19:24:21Z</time>
      </trkpt>
      <trkpt lat="48.85797" lon="2.34677">
        <ele>40.20000076294</ele>
        <time>2015-12-07T19:24:28Z</time>
      </trkpt>
      <trkpt lat="48.85801" lon="2.3465">
        <ele>42.400001525879</ele>
        <time>2015-12-07T19:24:34Z</time>
      </trkpt>
      <trkpt lat="48.85809" lon="2.34624">
        <ele>46.20000076294</ele>
        <time>2015-12-07T19:24:40Z</time>
      </trkpt>
      <trkpt lat="48.85819" lon="2.346">
        <ele>47.79999923706</ele>
        <time>2015-12-07T19:24:45Z</time>
      </trkpt>
      <trkpt lat="48.85824" lon="2.34589">
        <ele>48.400001525879</ele>
        <time>2015-12-07T19:24:49Z</time>
      </trkpt>
      <trkpt lat="48.85843" lon="2.34592">
        <ele>49.79999923706</ele>
        <time>2015-12-07T19:24:57Z</time>
      </trkpt>
      <trkpt lat="48.85845" lon="2.34593">
        <ele>50</ele>
        <time>2015-12-07T19:24:58Z</time>
      </trkpt>
      <trkpt lat="48.85853" lon="2.34588">
        <ele>50.599998474121</ele>
        <time>2015-12-07T19:25:01Z</time>
      </trkpt>
      <trkpt lat="48.85867" lon="2.34565">
        <ele>50.400001525879</ele>
        <time>2015-12-07T19:25:08Z</time>
      </trkpt>
      <trkpt lat="48.85881" lon="2.34548">
        <ele>49.79999923706</ele>
        <time>2015-12-07T19:25:13Z</time>
      </trkpt>
      <trkpt lat="48.85885" lon="2.34521">
        <ele>49</ele>
        <time>2015-12-07T19:25:19Z</time>
      </trkpt>
      <trkpt lat="48.85896" lon="2.34498">
        <ele>49.400001525879</ele>
        <time>2015-12-07T19:25:25Z</time>
      </trkpt>
      <trkpt lat="48.8589" lon="2.34493">
        <ele>49.20000076294</ele>
        <time>2015-12-07T19:25:27Z</time>
      </trkpt>
      <trkpt lat="48.85864" lon="2.34486">
        <ele>48.20000076294</ele>
        <time>2015-12-07T19:25:34Z</time>
      </trkpt>
      <trkpt lat="48.85842" lon="2.34477">
        <ele>46.79999923706</ele>
        <time>2015-12-07T19:25:38Z</time>
      </trkpt>
      <trkpt lat="48.85831" lon="2.34473">
        <ele>45.79999923706</ele>
        <time>2015-12-07T19:25:40Z</time>
      </trkpt>
      <trkpt lat="48.85838" lon="2.3445">
        <ele>46.20000076294</ele>
        <time>2015-12-07T19:25:45Z</time>
      </trkpt>
      <trkpt lat="48.8585" lon="2.34428">
        <ele>46.79999923706</ele>
        <time>2015-12-07T19:25:49Z</time>
      </trkpt>
      <trkpt lat="48.8586" lon="2.34404">
        <ele>48</ele>
        <time>2015-12-07T19:25:53Z</time>
      </trkpt>
      <trkpt lat="48.85853" lon="2.34375">
        <ele>49.79999923706</ele>
        <time>2015-12-07T19:25:59Z</time>
      </trkpt>
      <trkpt lat="48.85835" lon="2.34368">
        <ele>48.20000076294</ele>
        <time>2015-12-07T19:26:04Z</time>
      </trkpt>
      <trkpt lat="48.85825" lon="2.34353">
        <ele>48</ele>
        <time>2015-12-07T19:26:10Z</time>
      </trkpt>
      <trkpt lat="48.8583" lon="2.34331">
        <ele>50.599998474121</ele>
        <time>2015-12-07T19:26:17Z</time>
      </trkpt>
      <trkpt lat="48.85836" lon="2.34305">
        <ele>52.599998474121</ele>
        <time>2015-12-07T19:26:24Z</time>
      </trkpt>
      <trkpt lat="48.85848" lon="2.34284">
        <ele>57</ele>
        <time>2015-12-07T19:26:30Z</time>
      </trkpt>
      <trkpt lat="48.85853" lon="2.34256">
        <ele>60.599998474121</ele>
        <time>2015-12-07T19:26:39Z</time>
      </trkpt>
      <trkpt lat="48.8586" lon="2.34238">
        <ele>61</ele>
        <time>2015-12-07T19:26:48Z</time>
      </trkpt>
      <trkpt lat="48.85862" lon="2.34233">
        <ele>60.599998474121</ele>
        <time>2015-12-07T19:26:51Z</time>
      </trkpt>
      <trkpt lat="48.85863" lon="2.34231">
        <ele>60.400001525879</ele>
        <time>2015-12-07T19:26:53Z</time>
      </trkpt>
      <trkpt lat="48.85872" lon="2.34206">
        <ele>58</ele>
        <time>2015-12-07T19:27:07Z</time>
      </trkpt>
      <trkpt lat="48.85876" lon="2.34201">
        <ele>57.400001525879</ele>
        <time>2015-12-07T19:27:10Z</time>
      </trkpt>
      <trkpt lat="48.85886" lon="2.34197">
        <ele>56</ele>
        <time>2015-12-07T19:27:15Z</time>
      </trkpt>
      <trkpt lat="48.85901" lon="2.34197">
        <ele>54.79999923706</ele>
        <time>2015-12-07T19:27:22Z</time>
      </trkpt>
      <trkpt lat="48.85907" lon="2.34203">
        <ele>54.599998474121</ele>
        <time>2015-12-07T19:27:27Z</time>
      </trkpt>
      <trkpt lat="48.85926" lon="2.34214">
        <ele>53.599998474121</ele>
        <time>2015-12-07T19:27:34Z</time>
      </trkpt>
      <trkpt lat="48.85944" lon="2.34215">
        <ele>52.20000076294</ele>
        <time>2015-12-07T19:27:39Z</time>
      </trkpt>
      <trkpt lat="48.85965" lon="2.34219">
        <ele>50.79999923706</ele>
        <time>2015-12-07T19:27:44Z</time>
      </trkpt>
      <trkpt lat="48.85984" lon="2.34226">
        <ele>49.79999923706</ele>
        <time>2015-12-07T19:27:49Z</time>
      </trkpt>
      <trkpt lat="48.86004" lon="2.3423">
        <ele>48.599998474121</ele>
        <time>2015-12-07T19:27:55Z</time>
      </trkpt>
      <trkpt lat="48.86016" lon="2.34224">
        <ele>48.20000076294</ele>
        <time>2015-12-07T19:28:01Z</time>
      </trkpt>
      <trkpt lat="48.86024" lon="2.34224">
        <ele>48</ele>
        <time>2015-12-07T19:28:12Z</time>
      </trkpt>
      <trkpt lat="48.8603" lon="2.34231">
        <ele>48</ele>
        <time>2015-12-07T19:28:17Z</time>
      </trkpt>
      <trkpt lat="48.86042" lon="2.34235">
        <ele>48.20000076294</ele>
        <time>2015-12-07T19:28:40Z</time>
      </trkpt>
      <trkpt lat="48.8605" lon="2.34233">
        <ele>48.400001525879</ele>
        <time>2015-12-07T19:28:46Z</time>
      </trkpt>
      <trkpt lat="48.86069" lon="2.3424">
        <ele>48.599998474121</ele>
        <time>2015-12-07T19:28:55Z</time>
      </trkpt>
      <trkpt lat="48.86087" lon="2.34242">
        <ele>48.79999923706</ele>
        <time>2015-12-07T19:29:00Z</time>
      </trkpt>
      <trkpt lat="48.86105" lon="2.34244">
        <ele>49</ele>
        <time>2015-12-07T19:29:06Z</time>
      </trkpt>
      <trkpt lat="48.86123" lon="2.34238">
        <ele>49</ele>
        <time>2015-12-07T19:29:13Z</time>
      </trkpt>
      <trkpt lat="48.86142" lon="2.34229">
        <ele>49.20000076294</ele>
        <time>2015-12-07T19:29:19Z</time>
      </trkpt>
      <trkpt lat="48.86162" lon="2.34232">
        <ele>49.400001525879</ele>
        <time>2015-12-07T19:29:27Z</time>
      </trkpt>
      <trkpt lat="48.86182" lon="2.34238">
        <ele>49.79999923706</ele>
        <time>2015-12-07T19:29:31Z</time>
      </trkpt>
      <trkpt lat="48.862" lon="2.34248">
        <ele>49.79999923706</ele>
        <time>2015-12-07T19:29:35Z</time>
      </trkpt>
      <trkpt lat="48.86217" lon="2.34239">
        <ele>49.599998474121</ele>
        <time>2015-12-07T19:29:40Z</time>
      </trkpt>
      <trkpt lat="48.86228" lon="2.34217">
        <ele>49.599998474121</ele>
        <time>2015-12-07T19:29:45Z</time>
      </trkpt>
      <trkpt lat="48.86238" lon="2.3419">
        <ele>49.599998474121</ele>
        <time>2015-12-07T19:29:51Z</time>
      </trkpt>
      <trkpt lat="48.86249" lon="2.34168">
        <ele>50</ele>
        <time>2015-12-07T19:29:56Z</time>
      </trkpt>
      <trkpt lat="48.86269" lon="2.34168">
        <ele>50</ele>
        <time>2015-12-07T19:30:03Z</time>
      </trkpt>
      <trkpt lat="48.86287" lon="2.34177">
        <ele>50</ele>
        <time>2015-12-07T19:30:08Z</time>
      </trkpt>
      <trkpt lat="48.86306" lon="2.34185">
        <ele>49.79999923706</ele>
        <time>2015-12-07T19:30:13Z</time>
      </trkpt>
      <trkpt lat="48.86322" lon="2.34203">
        <ele>49.79999923706</ele>
        <time>2015-12-07T19:30:21Z</time>
      </trkpt>
      <trkpt lat="48.86341" lon="2.34212">
        <ele>49.79999923706</ele>
        <time>2015-12-07T19:30:26Z</time>
      </trkpt>
      <trkpt lat="48.8636" lon="2.34218">
        <ele>49.599998474121</ele>
        <time>2015-12-07T19:30:32Z</time>
      </trkpt>
      <trkpt lat="48.86381" lon="2.34224">
        <ele>49.20000076294</ele>
        <time>2015-12-07T19:30:37Z</time>
      </trkpt>
      <trkpt lat="48.86403" lon="2.34231">
        <ele>48.599998474121</ele>
        <time>2015-12-07T19:30:41Z</time>
      </trkpt>
      <trkpt lat="48.86421" lon="2.34247">
        <ele>48.400001525879</ele>
        <time>2015-12-07T19:30:44Z</time>
      </trkpt>
      <trkpt lat="48.8644" lon="2.34256">
        <ele>48</ele>
        <time>2015-12-07T19:30:48Z</time>
      </trkpt>
      <trkpt lat="48.8646" lon="2.34264">
        <ele>47.599998474121</ele>
        <time>2015-12-07T19:30:53Z</time>
      </trkpt>
      <trkpt lat="48.86478" lon="2.34274">
        <ele>47.20000076294</ele>
        <time>2015-12-07T19:30:59Z</time>
      </trkpt>
      <trkpt lat="48.86493" lon="2.34285">
        <ele>47</ele>
        <time>2015-12-07T19:31:05Z</time>
      </trkpt>
      <trkpt lat="48.86511" lon="2.34292">
        <ele>46.599998474121</ele>
        <time>2015-12-07T19:31:11Z</time>
      </trkpt>
      <trkpt lat="48.86532" lon="2.34293">
        <ele>46.599998474121</ele>
        <time>2015-12-07T19:31:17Z</time>
      </trkpt>
      <trkpt lat="48.8655" lon="2.34305">
        <ele>46.599998474121</ele>
        <time>2015-12-07T19:31:22Z</time>
      </trkpt>
      <trkpt lat="48.86564" lon="2.34327">
        <ele>46.599998474121</ele>
        <time>2015-12-07T19:31:25Z</time>
      </trkpt>
      <trkpt lat="48.86584" lon="2.34339">
        <ele>46.79999923706</ele>
        <time>2015-12-07T19:31:30Z</time>
      </trkpt>
      <trkpt lat="48.86605" lon="2.34348">
        <ele>47.20000076294</ele>
        <time>2015-12-07T19:31:35Z</time>
      </trkpt>
      <trkpt lat="48.86626" lon="2.34351">
        <ele>48</ele>
        <time>2015-12-07T19:31:41Z</time>
      </trkpt>
      <trkpt lat="48.86644" lon="2.34366">
        <ele>48.79999923706</ele>
        <time>2015-12-07T19:31:46Z</time>
      </trkpt>
      <trkpt lat="48.86661" lon="2.34373">
        <ele>49.79999923706</ele>
        <time>2015-12-07T19:31:50Z</time>
      </trkpt>
      <trkpt lat="48.8668" lon="2.34375">
        <ele>51</ele>
        <time>2015-12-07T19:31:54Z</time>
      </trkpt>
      <trkpt lat="48.86698" lon="2.34376">
        <ele>51.20000076294</ele>
        <time>2015-12-07T19:31:58Z</time>
      </trkpt>
      <trkpt lat="48.86719" lon="2.34368">
        <ele>50.79999923706</ele>
        <time>2015-12-07T19:32:03Z</time>
      </trkpt>
      <trkpt lat="48.86727" lon="2.34365">
        <ele>50.599998474121</ele>
        <time>2015-12-07T19:32:05Z</time>
      </trkpt>
      <trkpt lat="48.86746" lon="2.34356">
        <ele>50.400001525879</ele>
        <time>2015-12-07T19:32:10Z</time>
      </trkpt>
      <trkpt lat="48.86764" lon="2.34351">
        <ele>50</ele>
        <time>2015-12-07T19:32:14Z</time>
      </trkpt>
      <trkpt lat="48.8677" lon="2.3435">
        <ele>49.79999923706</ele>
        <time>2015-12-07T19:32:15Z</time>
      </trkpt>
      <trkpt lat="48.86791" lon="2.34342">
        <ele>49.20000076294</ele>
        <time>2015-12-07T19:32:19Z</time>
      </trkpt>
      <trkpt lat="48.86811" lon="2.34332">
        <ele>49.400001525879</ele>
        <time>2015-12-07T19:32:23Z</time>
      </trkpt>
      <trkpt lat="48.86829" lon="2.34322">
        <ele>49.599998474121</ele>
        <time>2015-12-07T19:32:27Z</time>
      </trkpt>
      <trkpt lat="48.86848" lon="2.34313">
        <ele>49.20000076294</ele>
        <time>2015-12-07T19:32:31Z</time>
      </trkpt>
      <trkpt lat="48.86855" lon="2.34311">
        <ele>49</ele>
        <time>2015-12-07T19:32:33Z</time>
      </trkpt>
      <trkpt lat="48.86874" lon="2.343">
        <ele>48.79999923706</ele>
        <time>2015-12-07T19:32:38Z</time>
      </trkpt>
      <trkpt lat="48.86895" lon="2.34292">
        <ele>48.599998474121</ele>
        <time>2015-12-07T19:32:42Z</time>
      </trkpt>
      <trkpt lat="48.86914" lon="2.34288">
        <ele>48</ele>
        <time>2015-12-07T19:32:46Z</time>
      </trkpt>
      <trkpt lat="48.86933" lon="2.34278">
        <ele>47.599998474121</ele>
        <time>2015-12-07T19:32:50Z</time>
      </trkpt>
      <trkpt lat="48.86952" lon="2.34273">
        <ele>47.400001525879</ele>
        <time>2015-12-07T19:32:54Z</time>
      </trkpt>
      <trkpt lat="48.86971" lon="2.3427">
        <ele>47.20000076294</ele>
        <time>2015-12-07T19:32:58Z</time>
      </trkpt>
      <trkpt lat="48.86991" lon="2.34259">
        <ele>47.20000076294</ele>
        <time>2015-12-07T19:33:02Z</time>
      </trkpt>
      <trkpt lat="48.86997" lon="2.34257">
        <ele>47.20000076294</ele>
        <time>2015-12-07T19:33:03Z</time>
      </trkpt>
      <trkpt lat="48.87015" lon="2.34258">
        <ele>47.20000076294</ele>
        <time>2015-12-07T19:33:07Z</time>
      </trkpt>
      <trkpt lat="48.87022" lon="2.34259">
        <ele>47.20000076294</ele>
        <time>2015-12-07T19:33:09Z</time>
      </trkpt>
      <trkpt lat="48.87039" lon="2.34264">
        <ele>47.20000076294</ele>
        <time>2015-12-07T19:33:13Z</time>
      </trkpt>
      <trkpt lat="48.8706" lon="2.34275">
        <ele>47.400001525879</ele>
        <time>2015-12-07T19:33:18Z</time>
      </trkpt>
      <trkpt lat="48.87079" lon="2.34281">
        <ele>47.599998474121</ele>
        <time>2015-12-07T19:33:23Z</time>
      </trkpt>
      <trkpt lat="48.87099" lon="2.34286">
        <ele>48</ele>
        <time>2015-12-07T19:33:29Z</time>
      </trkpt>
      <trkpt lat="48.87102" lon="2.34288">
        <ele>48</ele>
        <time>2015-12-07T19:33:30Z</time>
      </trkpt>
      <trkpt lat="48.87123" lon="2.3429">
        <ele>47.79999923706</ele>
        <time>2015-12-07T19:33:34Z</time>
      </trkpt>
      <trkpt lat="48.87126" lon="2.34293">
        <ele>47.79999923706</ele>
        <time>2015-12-07T19:33:36Z</time>
      </trkpt>
      <trkpt lat="48.87141" lon="2.34298">
        <ele>47.599998474121</ele>
        <time>2015-12-07T19:33:42Z</time>
      </trkpt>
      <trkpt lat="48.87147" lon="2.34301">
        <ele>47.599998474121</ele>
        <time>2015-12-07T19:33:44Z</time>
      </trkpt>
      <trkpt lat="48.87168" lon="2.34307">
        <ele>47.400001525879</ele>
        <time>2015-12-07T19:33:49Z</time>
      </trkpt>
      <trkpt lat="48.87189" lon="2.34311">
        <ele>47.400001525879</ele>
        <time>2015-12-07T19:33:54Z</time>
      </trkpt>
      <trkpt lat="48.87207" lon="2.34312">
        <ele>47.20000076294</ele>
        <time>2015-12-07T19:33:58Z</time>
      </trkpt>
      <trkpt lat="48.87229" lon="2.34308">
        <ele>47</ele>
        <time>2015-12-07T19:34:03Z</time>
      </trkpt>
      <trkpt lat="48.87251" lon="2.34308">
        <ele>46.79999923706</ele>
        <time>2015-12-07T19:34:08Z</time>
      </trkpt>
      <trkpt lat="48.87269" lon="2.34304">
        <ele>46.599998474121</ele>
        <time>2015-12-07T19:34:15Z</time>
      </trkpt>
      <trkpt lat="48.87289" lon="2.34296">
        <ele>46.79999923706</ele>
        <time>2015-12-07T19:34:21Z</time>
      </trkpt>
      <trkpt lat="48.8731" lon="2.3429">
        <ele>47</ele>
        <time>2015-12-07T19:34:27Z</time>
      </trkpt>
      <trkpt lat="48.87329" lon="2.3428">
        <ele>47</ele>
        <time>2015-12-07T19:34:30Z</time>
      </trkpt>
      <trkpt lat="48.87349" lon="2.34267">
        <ele>46.79999923706</ele>
        <time>2015-12-07T19:34:33Z</time>
      </trkpt>
      <trkpt lat="48.87367" lon="2.34254">
        <ele>46.79999923706</ele>
        <time>2015-12-07T19:34:37Z</time>
      </trkpt>
      <trkpt lat="48.87391" lon="2.34242">
        <ele>46.20000076294</ele>
        <time>2015-12-07T19:34:41Z</time>
      </trkpt>
      <trkpt lat="48.87399" lon="2.34233">
        <ele>46</ele>
        <time>2015-12-07T19:34:44Z</time>
      </trkpt>
      <trkpt lat="48.87414" lon="2.34226">
        <ele>45.599998474121</ele>
        <time>2015-12-07T19:34:53Z</time>
      </trkpt>
      <trkpt lat="48.87418" lon="2.34233">
        <ele>45.599998474121</ele>
        <time>2015-12-07T19:34:56Z</time>
      </trkpt>
      <trkpt lat="48.87431" lon="2.34251">
        <ele>45.20000076294</ele>
        <time>2015-12-07T19:35:02Z</time>
      </trkpt>
      <trkpt lat="48.87448" lon="2.34262">
        <ele>44.79999923706</ele>
        <time>2015-12-07T19:35:06Z</time>
      </trkpt>
      <trkpt lat="48.87466" lon="2.34274">
        <ele>44.599998474121</ele>
        <time>2015-12-07T19:35:10Z</time>
      </trkpt>
      <trkpt lat="48.87483" lon="2.34294">
        <ele>44.400001525879</ele>
        <time>2015-12-07T19:35:15Z</time>
      </trkpt>
      <trkpt lat="48.87502" lon="2.34309">
        <ele>44.20000076294</ele>
        <time>2015-12-07T19:35:19Z</time>
      </trkpt>
      <trkpt lat="48.8752" lon="2.34327">
        <ele>44</ele>
        <time>2015-12-07T19:35:24Z</time>
      </trkpt>
      <trkpt lat="48.87539" lon="2.34342">
        <ele>44.400001525879</ele>
        <time>2015-12-07T19:35:30Z</time>
      </trkpt>
      <trkpt lat="48.87545" lon="2.3435">
        <ele>44.599998474121</ele>
        <time>2015-12-07T19:35:31Z</time>
      </trkpt>
      <trkpt lat="48.87563" lon="2.3436">
        <ele>45</ele>
        <time>2015-12-07T19:35:34Z</time>
      </trkpt>
      <trkpt lat="48.87567" lon="2.34365">
        <ele>45.20000076294</ele>
        <time>2015-12-07T19:35:35Z</time>
      </trkpt>
      <trkpt lat="48.87582" lon="2.34379">
        <ele>45.599998474121</ele>
        <time>2015-12-07T19:35:39Z</time>
      </trkpt>
      <trkpt lat="48.87586" lon="2.34395">
        <ele>45.599998474121</ele>
        <time>2015-12-07T19:35:43Z</time>
      </trkpt>
      <trkpt lat="48.87595" lon="2.34412">
        <ele>45.79999923706</ele>
        <time>2015-12-07T19:35:47Z</time>
      </trkpt>
      <trkpt lat="48.87614" lon="2.34421">
        <ele>46.400001525879</ele>
        <time>2015-12-07T19:35:52Z</time>
      </trkpt>
      <trkpt lat="48.87627" lon="2.34423">
        <ele>46.79999923706</ele>
        <time>2015-12-07T19:35:56Z</time>
      </trkpt>
      <trkpt lat="48.87629" lon="2.34423">
        <ele>46.79999923706</ele>
        <time>2015-12-07T19:35:57Z</time>
      </trkpt>
      <trkpt lat="48.87648" lon="2.34428">
        <ele>47.400001525879</ele>
        <time>2015-12-07T19:36:05Z</time>
      </trkpt>
      <trkpt lat="48.87669" lon="2.34434">
        <ele>48</ele>
        <time>2015-12-07T19:36:12Z</time>
      </trkpt>
      <trkpt lat="48.87691" lon="2.3444">
        <ele>48.599998474121</ele>
        <time>2015-12-07T19:36:17Z</time>
      </trkpt>
      <trkpt lat="48.87711" lon="2.34445">
        <ele>49.20000076294</ele>
        <time>2015-12-07T19:36:21Z</time>
      </trkpt>
      <trkpt lat="48.87731" lon="2.34449">
        <ele>50.20000076294</ele>
        <time>2015-12-07T19:36:24Z</time>
      </trkpt>
      <trkpt lat="48.87751" lon="2.3445">
        <ele>51.599998474121</ele>
        <time>2015-12-07T19:36:27Z</time>
      </trkpt>
      <trkpt lat="48.8777" lon="2.34456">
        <ele>52.79999923706</ele>
        <time>2015-12-07T19:36:31Z</time>
      </trkpt>
      <trkpt lat="48.87788" lon="2.34471">
        <ele>53.599998474121</ele>
        <time>2015-12-07T19:36:39Z</time>
      </trkpt>
      <trkpt lat="48.87804" lon="2.34484">
        <ele>54.20000076294</ele>
        <time>2015-12-07T19:36:47Z</time>
      </trkpt>
      <trkpt lat="48.87814" lon="2.34494">
        <ele>54.599998474121</ele>
        <time>2015-12-07T19:36:51Z</time>
      </trkpt>
      <trkpt lat="48.8782" lon="2.34499">
        <ele>54.79999923706</ele>
        <time>2015-12-07T19:36:55Z</time>
      </trkpt>
      <trkpt lat="48.87827" lon="2.34506">
        <ele>55.400001525879</ele>
        <time>2015-12-07T19:37:07Z</time>
      </trkpt>
      <trkpt lat="48.87828" lon="2.34506">
        <ele>55.400001525879</ele>
        <time>2015-12-07T19:37:22Z</time>
      </trkpt>
      <trkpt lat="48.87835" lon="2.34514">
        <ele>56.20000076294</ele>
        <time>2015-12-07T19:37:55Z</time>
      </trkpt>
      <trkpt lat="48.87841" lon="2.34521">
        <ele>56.599998474121</ele>
        <time>2015-12-07T19:38:02Z</time>
      </trkpt>
      <trkpt lat="48.87843" lon="2.34525">
        <ele>56.79999923706</ele>
        <time>2015-12-07T19:38:05Z</time>
      </trkpt>
      <trkpt lat="48.87861" lon="2.34519">
        <ele>57.79999923706</ele>
        <time>2015-12-07T19:38:12Z</time>
      </trkpt>
      <trkpt lat="48.87864" lon="2.3452">
        <ele>58</ele>
        <time>2015-12-07T19:38:13Z</time>
      </trkpt>
      <trkpt lat="48.8788" lon="2.34534">
        <ele>59</ele>
        <time>2015-12-07T19:38:22Z</time>
      </trkpt>
      <trkpt lat="48.87898" lon="2.34547">
        <ele>60.20000076294</ele>
        <time>2015-12-07T19:38:29Z</time>
      </trkpt>
      <trkpt lat="48.87921" lon="2.3456">
        <ele>61.599998474121</ele>
        <time>2015-12-07T19:38:35Z</time>
      </trkpt>
      <trkpt lat="48.87931" lon="2.34561">
        <ele>62.400001525879</ele>
        <time>2015-12-07T19:38:37Z</time>
      </trkpt>
      <trkpt lat="48.87947" lon="2.34553">
        <ele>63.400001525879</ele>
        <time>2015-12-07T19:38:41Z</time>
      </trkpt>
      <trkpt lat="48.87959" lon="2.34537">
        <ele>64.199996948242</ele>
        <time>2015-12-07T19:38:46Z</time>
      </trkpt>
      <trkpt lat="48.87977" lon="2.34523">
        <ele>65.199996948242</ele>
        <time>2015-12-07T19:38:51Z</time>
      </trkpt>
      <trkpt lat="48.87989" lon="2.34507">
        <ele>66</ele>
        <time>2015-12-07T19:38:56Z</time>
      </trkpt>
      <trkpt lat="48.87995" lon="2.34492">
        <ele>66.400001525879</ele>
        <time>2015-12-07T19:38:59Z</time>
      </trkpt>
      <trkpt lat="48.88009" lon="2.34468">
        <ele>67.400001525879</ele>
        <time>2015-12-07T19:39:04Z</time>
      </trkpt>
      <trkpt lat="48.88018" lon="2.34441">
        <ele>68.400001525879</ele>
        <time>2015-12-07T19:39:10Z</time>
      </trkpt>
      <trkpt lat="48.88025" lon="2.3441">
        <ele>69</ele>
        <time>2015-12-07T19:39:15Z</time>
      </trkpt>
      <trkpt lat="48.88018" lon="2.3438">
        <ele>68.400001525879</ele>
        <time>2015-12-07T19:39:20Z</time>
      </trkpt>
      <trkpt lat="48.8802" lon="2.34348">
        <ele>68</ele>
        <time>2015-12-07T19:39:25Z</time>
      </trkpt>
      <trkpt lat="48.88027" lon="2.34321">
        <ele>68</ele>
        <time>2015-12-07T19:39:29Z</time>
      </trkpt>
      <trkpt lat="48.88029" lon="2.34315">
        <ele>68</ele>
        <time>2015-12-07T19:39:30Z</time>
      </trkpt>
      <trkpt lat="48.88034" lon="2.34296">
        <ele>68.199996948242</ele>
        <time>2015-12-07T19:39:33Z</time>
      </trkpt>
      <trkpt lat="48.88037" lon="2.34264">
        <ele>67.800003051758</ele>
        <time>2015-12-07T19:39:38Z</time>
      </trkpt>
      <trkpt lat="48.88038" lon="2.34258">
        <ele>67.800003051758</ele>
        <time>2015-12-07T19:39:39Z</time>
      </trkpt>
      <trkpt lat="48.88041" lon="2.34232">
        <ele>68</ele>
        <time>2015-12-07T19:39:42Z</time>
      </trkpt>
      <trkpt lat="48.88045" lon="2.34202">
        <ele>69.199996948242</ele>
        <time>2015-12-07T19:39:46Z</time>
      </trkpt>
      <trkpt lat="48.88047" lon="2.34171">
        <ele>70.199996948242</ele>
        <time>2015-12-07T19:39:50Z</time>
      </trkpt>
      <trkpt lat="48.88053" lon="2.3414">
        <ele>70</ele>
        <time>2015-12-07T19:39:54Z</time>
      </trkpt>
      <trkpt lat="48.88058" lon="2.34107">
        <ele>70</ele>
        <time>2015-12-07T19:39:58Z</time>
      </trkpt>
      <trkpt lat="48.88051" lon="2.34077">
        <ele>70</ele>
        <time>2015-12-07T19:40:01Z</time>
      </trkpt>
      <trkpt lat="48.88052" lon="2.34045">
        <ele>69.199996948242</ele>
        <time>2015-12-07T19:40:05Z</time>
      </trkpt>
      <trkpt lat="48.88057" lon="2.34012">
        <ele>68.599998474121</ele>
        <time>2015-12-07T19:40:10Z</time>
      </trkpt>
      <trkpt lat="48.88063" lon="2.33985">
        <ele>68.199996948242</ele>
        <time>2015-12-07T19:40:14Z</time>
      </trkpt>
      <trkpt lat="48.88073" lon="2.33957">
        <ele>68.199996948242</ele>
        <time>2015-12-07T19:40:18Z</time>
      </trkpt>
      <trkpt lat="48.88081" lon="2.33933">
        <ele>67.800003051758</ele>
        <time>2015-12-07T19:40:22Z</time>
      </trkpt>
      <trkpt lat="48.88093" lon="2.33908">
        <ele>67.599998474121</ele>
        <time>2015-12-07T19:40:26Z</time>
      </trkpt>
      <trkpt lat="48.88106" lon="2.33883">
        <ele>68.400001525879</ele>
        <time>2015-12-07T19:40:30Z</time>
      </trkpt>
      <trkpt lat="48.88117" lon="2.33856">
        <ele>69</ele>
        <time>2015-12-07T19:40:35Z</time>
      </trkpt>
      <trkpt lat="48.88115" lon="2.3385">
        <ele>69</ele>
        <time>2015-12-07T19:40:36Z</time>
      </trkpt>
      <trkpt lat="48.88119" lon="2.33832">
        <ele>69</ele>
        <time>2015-12-07T19:40:39Z</time>
      </trkpt>
      <trkpt lat="48.88113" lon="2.33807">
        <ele>68.800003051758</ele>
        <time>2015-12-07T19:40:44Z</time>
      </trkpt>
      <trkpt lat="48.88098" lon="2.3379">
        <ele>68.199996948242</ele>
        <time>2015-12-07T19:40:47Z</time>
      </trkpt>
      <trkpt lat="48.88095" lon="2.3376">
        <ele>67.800003051758</ele>
        <time>2015-12-07T19:40:54Z</time>
      </trkpt>
      <trkpt lat="48.88097" lon="2.33755">
        <ele>67.800003051758</ele>
        <time>2015-12-07T19:40:55Z</time>
      </trkpt>
      <trkpt lat="48.88106" lon="2.33729">
        <ele>67.599998474121</ele>
        <time>2015-12-07T19:41:00Z</time>
      </trkpt>
      <trkpt lat="48.88115" lon="2.33706">
        <ele>67.199996948242</ele>
        <time>2015-12-07T19:41:04Z</time>
      </trkpt>
      <trkpt lat="48.88123" lon="2.3369">
        <ele>66.800003051758</ele>
        <time>2015-12-07T19:41:07Z</time>
      </trkpt>
      <trkpt lat="48.88127" lon="2.3367">
        <ele>66.400001525879</ele>
        <time>2015-12-07T19:41:12Z</time>
      </trkpt>
      <trkpt lat="48.88124" lon="2.3365">
        <ele>65.800003051758</ele>
        <time>2015-12-07T19:41:17Z</time>
      </trkpt>
      <trkpt lat="48.88128" lon="2.33622">
        <ele>65.199996948242</ele>
        <time>2015-12-07T19:41:22Z</time>
      </trkpt>
      <trkpt lat="48.88137" lon="2.33594">
        <ele>65.400001525879</ele>
        <time>2015-12-07T19:41:27Z</time>
      </trkpt>
      <trkpt lat="48.88146" lon="2.33564">
        <ele>66</ele>
        <time>2015-12-07T19:41:32Z</time>
      </trkpt>
      <trkpt lat="48.88158" lon="2.33536">
        <ele>66.400001525879</ele>
        <time>2015-12-07T19:41:36Z</time>
      </trkpt>
      <trkpt lat="48.88171" lon="2.33509">
        <ele>67.199996948242</ele>
        <time>2015-12-07T19:41:40Z</time>
      </trkpt>
      <trkpt lat="48.88178" lon="2.33488">
        <ele>67.400001525879</ele>
        <time>2015-12-07T19:41:43Z</time>
      </trkpt>
      <trkpt lat="48.88188" lon="2.33459">
        <ele>67</ele>
        <time>2015-12-07T19:41:47Z</time>
      </trkpt>
      <trkpt lat="48.88191" lon="2.33439">
        <ele>66.599998474121</ele>
        <time>2015-12-07T19:41:50Z</time>
      </trkpt>
      <trkpt lat="48.88193" lon="2.33423">
        <ele>66.400001525879</ele>
        <time>2015-12-07T19:41:53Z</time>
      </trkpt>
      <trkpt lat="48.88202" lon="2.33406">
        <ele>66.800003051758</ele>
        <time>2015-12-07T19:41:59Z</time>
      </trkpt>
      <trkpt lat="48.88204" lon="2.334">
        <ele>66.800003051758</ele>
        <time>2015-12-07T19:42:01Z</time>
      </trkpt>
      <trkpt lat="48.88201" lon="2.33381">
        <ele>66.599998474121</ele>
        <time>2015-12-07T19:42:04Z</time>
      </trkpt>
      <trkpt lat="48.88217" lon="2.33364">
        <ele>67.599998474121</ele>
        <time>2015-12-07T19:42:08Z</time>
      </trkpt>
      <trkpt lat="48.88233" lon="2.33351">
        <ele>68.400001525879</ele>
        <time>2015-12-07T19:42:11Z</time>
      </trkpt>
      <trkpt lat="48.88249" lon="2.33335">
        <ele>69</ele>
        <time>2015-12-07T19:42:14Z</time>
      </trkpt>
      <trkpt lat="48.88267" lon="2.33321">
        <ele>69.599998474121</ele>
        <time>2015-12-07T19:42:17Z</time>
      </trkpt>
      <trkpt lat="48.88287" lon="2.33308">
        <ele>70.400001525879</ele>
        <time>2015-12-07T19:42:20Z</time>
      </trkpt>
      <trkpt lat="48.88308" lon="2.33294">
        <ele>70.800003051758</ele>
        <time>2015-12-07T19:42:23Z</time>
      </trkpt>
      <trkpt lat="48.88327" lon="2.33281">
        <ele>71.199996948242</ele>
        <time>2015-12-07T19:42:26Z</time>
      </trkpt>
      <trkpt lat="48.88345" lon="2.3327">
        <ele>71.599998474121</ele>
        <time>2015-12-07T19:42:29Z</time>
      </trkpt>
      <trkpt lat="48.88359" lon="2.33255">
        <ele>72</ele>
        <time>2015-12-07T19:42:39Z</time>
      </trkpt>
      <trkpt lat="48.88373" lon="2.33265">
        <ele>72.199996948242</ele>
        <time>2015-12-07T19:43:09Z</time>
      </trkpt>
      <trkpt lat="48.88377" lon="2.33265">
        <ele>72.199996948242</ele>
        <time>2015-12-07T19:43:12Z</time>
      </trkpt>
      <trkpt lat="48.88388" lon="2.33246">
        <ele>71.599998474121</ele>
        <time>2015-12-07T19:43:25Z</time>
      </trkpt>
      <trkpt lat="48.88394" lon="2.3322">
        <ele>71.199996948242</ele>
        <time>2015-12-07T19:43:31Z</time>
      </trkpt>
      <trkpt lat="48.88401" lon="2.33191">
        <ele>71</ele>
        <time>2015-12-07T19:43:36Z</time>
      </trkpt>
      <trkpt lat="48.88406" lon="2.33163">
        <ele>71</ele>
        <time>2015-12-07T19:43:40Z</time>
      </trkpt>
      <trkpt lat="48.88412" lon="2.33136">
        <ele>71.400001525879</ele>
        <time>2015-12-07T19:43:44Z</time>
      </trkpt>
      <trkpt lat="48.88418" lon="2.33104">
        <ele>72.199996948242</ele>
        <time>2015-12-07T19:43:48Z</time>
      </trkpt>
      <trkpt lat="48.88425" lon="2.33073">
        <ele>72.800003051758</ele>
        <time>2015-12-07T19:43:52Z</time>
      </trkpt>
      <trkpt lat="48.88434" lon="2.33043">
        <ele>72.800003051758</ele>
        <time>2015-12-07T19:43:56Z</time>
      </trkpt>
      <trkpt lat="48.88443" lon="2.33023">
        <ele>73</ele>
        <time>2015-12-07T19:43:59Z</time>
      </trkpt>
      <trkpt lat="48.88452" lon="2.33001">
        <ele>73</ele>
        <time>2015-12-07T19:44:04Z</time>
      </trkpt>
      <trkpt lat="48.88454" lon="2.32995">
        <ele>72.800003051758</ele>
        <time>2015-12-07T19:44:06Z</time>
      </trkpt>
      <trkpt lat="48.8846" lon="2.32982">
        <ele>72.400001525879</ele>
        <time>2015-12-07T19:44:12Z</time>
      </trkpt>
      <trkpt lat="48.88461" lon="2.32979">
        <ele>72.400001525879</ele>
        <time>2015-12-07T19:44:13Z</time>
      </trkpt>
      <trkpt lat="48.88473" lon="2.32957">
        <ele>71.599998474121</ele>
        <time>2015-12-07T19:44:20Z</time>
      </trkpt>
      <trkpt lat="48.8849" lon="2.32941">
        <ele>72.199996948242</ele>
        <time>2015-12-07T19:44:26Z</time>
      </trkpt>
      <trkpt lat="48.88508" lon="2.32932">
        <ele>73</ele>
        <time>2015-12-07T19:44:32Z</time>
      </trkpt>
      <trkpt lat="48.88527" lon="2.32926">
        <ele>73.800003051758</ele>
        <time>2015-12-07T19:44:37Z</time>
      </trkpt>
      <trkpt lat="48.88546" lon="2.32914">
        <ele>74.599998474121</ele>
        <time>2015-12-07T19:44:41Z</time>
      </trkpt>
      <trkpt lat="48.88565" lon="2.329">
        <ele>74.599998474121</ele>
        <time>2015-12-07T19:44:45Z</time>
      </trkpt>
      <trkpt lat="48.88577" lon="2.32889">
        <ele>74.800003051758</ele>
        <time>2015-12-07T19:44:48Z</time>
      </trkpt>
      <trkpt lat="48.88591" lon="2.32878">
        <ele>75.400001525879</ele>
        <time>2015-12-07T19:44:53Z</time>
      </trkpt>
      <trkpt lat="48.88597" lon="2.32874">
        <ele>75.800003051758</ele>
        <time>2015-12-07T19:44:56Z</time>
      </trkpt>
      <trkpt lat="48.88601" lon="2.32869">
        <ele>76.199996948242</ele>
        <time>2015-12-07T19:45:00Z</time>
      </trkpt>
      <trkpt lat="48.88615" lon="2.32845">
        <ele>76.800003051758</ele>
        <time>2015-12-07T19:45:13Z</time>
      </trkpt>
      <trkpt lat="48.88631" lon="2.32827">
        <ele>77.199996948242</ele>
        <time>2015-12-07T19:45:18Z</time>
      </trkpt>
      <trkpt lat="48.88649" lon="2.32807">
        <ele>77</ele>
        <time>2015-12-07T19:45:23Z</time>
      </trkpt>
      <trkpt lat="48.88665" lon="2.32792">
        <ele>77.199996948242</ele>
        <time>2015-12-07T19:45:27Z</time>
      </trkpt>
      <trkpt lat="48.88679" lon="2.32777">
        <ele>77.599998474121</ele>
        <time>2015-12-07T19:45:35Z</time>
      </trkpt>
      <trkpt lat="48.88694" lon="2.32799">
        <ele>77.800003051758</ele>
        <time>2015-12-07T19:45:41Z</time>
      </trkpt>
      <trkpt lat="48.88705" lon="2.32822">
        <ele>77.199996948242</ele>
        <time>2015-12-07T19:45:46Z</time>
      </trkpt>
      <trkpt lat="48.88716" lon="2.32844">
        <ele>76</ele>
        <time>2015-12-07T19:45:50Z</time>
      </trkpt>
      <trkpt lat="48.8873" lon="2.32859">
        <ele>74.400001525879</ele>
        <time>2015-12-07T19:45:54Z</time>
      </trkpt>
      <trkpt lat="48.88751" lon="2.3285">
        <ele>73.800003051758</ele>
        <time>2015-12-07T19:45:58Z</time>
      </trkpt>
      <trkpt lat="48.88763" lon="2.32838">
        <ele>74</ele>
        <time>2015-12-07T19:46:02Z</time>
      </trkpt>
      <trkpt lat="48.8878" lon="2.32822">
        <ele>73.400001525879</ele>
        <time>2015-12-07T19:46:07Z</time>
      </trkpt>
      <trkpt lat="48.88784" lon="2.32809">
        <ele>73</ele>
        <time>2015-12-07T19:46:10Z</time>
      </trkpt>
      <trkpt lat="48.88801" lon="2.32794">
        <ele>71.400001525879</ele>
        <time>2015-12-07T19:46:16Z</time>
      </trkpt>
      <trkpt lat="48.88819" lon="2.32776">
        <ele>70.199996948242</ele>
        <time>2015-12-07T19:46:20Z</time>
      </trkpt>
      <trkpt lat="48.88838" lon="2.32759">
        <ele>69.199996948242</ele>
        <time>2015-12-07T19:46:25Z</time>
      </trkpt>
      <trkpt lat="48.88844" lon="2.32756">
        <ele>68.800003051758</ele>
        <time>2015-12-07T19:46:27Z</time>
      </trkpt>
      <trkpt lat="48.88861" lon="2.32774">
        <ele>67</ele>
        <time>2015-12-07T19:46:32Z</time>
      </trkpt>
      <trkpt lat="48.88869" lon="2.3278">
        <ele>66.599998474121</ele>
        <time>2015-12-07T19:46:34Z</time>
      </trkpt>
      <trkpt lat="48.88878" lon="2.32792">
        <ele>65.800003051758</ele>
        <time>2015-12-07T19:46:38Z</time>
      </trkpt>
      <trkpt lat="48.88891" lon="2.32804">
        <ele>65.199996948242</ele>
        <time>2015-12-07T19:47:12Z</time>
      </trkpt>
      <trkpt lat="48.88908" lon="2.3282">
        <ele>64.199996948242</ele>
        <time>2015-12-07T19:47:17Z</time>
      </trkpt>
      <trkpt lat="48.88927" lon="2.32837">
        <ele>63.20000076294</ele>
        <time>2015-12-07T19:47:21Z</time>
      </trkpt>
      <trkpt lat="48.88948" lon="2.32854">
        <ele>62.79999923706</ele>
        <time>2015-12-07T19:47:25Z</time>
      </trkpt>
      <trkpt lat="48.8897" lon="2.32869">
        <ele>62.79999923706</ele>
        <time>2015-12-07T19:47:29Z</time>
      </trkpt>
      <trkpt lat="48.88974" lon="2.32874">
        <ele>62.79999923706</ele>
        <time>2015-12-07T19:47:30Z</time>
      </trkpt>
      <trkpt lat="48.88987" lon="2.32895">
        <ele>62.79999923706</ele>
        <time>2015-12-07T19:47:34Z</time>
      </trkpt>
      <trkpt lat="48.89" lon="2.32916">
        <ele>62.79999923706</ele>
        <time>2015-12-07T19:47:40Z</time>
      </trkpt>
      <trkpt lat="48.89002" lon="2.32919">
        <ele>62.79999923706</ele>
        <time>2015-12-07T19:47:42Z</time>
      </trkpt>
      <trkpt lat="48.89012" lon="2.32918">
        <ele>62.79999923706</ele>
        <time>2015-12-07T19:49:00Z</time>
      </trkpt>
      <trkpt lat="48.89015" lon="2.32921">
        <ele>62.79999923706</ele>
        <time>2015-12-07T19:49:46Z</time>
      </trkpt>
      <trkpt lat="48.89018" lon="2.32933">
        <ele>63</ele>
        <time>2015-12-07T19:50:30Z</time>
      </trkpt>
      <trkpt lat="48.8902" lon="2.3294">
        <ele>63</ele>
        <time>2015-12-07T19:50:33Z</time>
      </trkpt>
      <trkpt lat="48.89026" lon="2.32969">
        <ele>63</ele>
        <time>2015-12-07T19:50:40Z</time>
      </trkpt>
      <trkpt lat="48.89036" lon="2.32998">
        <ele>63.400001525879</ele>
        <time>2015-12-07T19:50:45Z</time>
      </trkpt>
      <trkpt lat="48.89038" lon="2.33004">
        <ele>63.599998474121</ele>
        <time>2015-12-07T19:50:46Z</time>
      </trkpt>
      <trkpt lat="48.89049" lon="2.33028">
        <ele>64</ele>
        <time>2015-12-07T19:50:50Z</time>
      </trkpt>
      <trkpt lat="48.89058" lon="2.33056">
        <ele>64.800003051758</ele>
        <time>2015-12-07T19:50:54Z</time>
      </trkpt>
      <trkpt lat="48.89068" lon="2.3308">
        <ele>65.599998474121</ele>
        <time>2015-12-07T19:50:58Z</time>
      </trkpt>
      <trkpt lat="48.89075" lon="2.33107">
        <ele>66.599998474121</ele>
        <time>2015-12-07T19:51:02Z</time>
      </trkpt>
      <trkpt lat="48.89086" lon="2.33135">
        <ele>67.800003051758</ele>
        <time>2015-12-07T19:51:07Z</time>
      </trkpt>
      <trkpt lat="48.89094" lon="2.33151">
        <ele>68.400001525879</ele>
        <time>2015-12-07T19:51:10Z</time>
      </trkpt>
      <trkpt lat="48.89106" lon="2.33172">
        <ele>69.199996948242</ele>
        <time>2015-12-07T19:51:14Z</time>
      </trkpt>
      <trkpt lat="48.8912" lon="2.33193">
        <ele>69.599998474121</ele>
        <time>2015-12-07T19:51:18Z</time>
      </trkpt>
      <trkpt lat="48.89132" lon="2.33216">
        <ele>70.199996948242</ele>
        <time>2015-12-07T19:51:22Z</time>
      </trkpt>
      <trkpt lat="48.89134" lon="2.33221">
        <ele>70.400001525879</ele>
        <time>2015-12-07T19:51:23Z</time>
      </trkpt>
      <trkpt lat="48.89139" lon="2.33234">
        <ele>70.599998474121</ele>
        <time>2015-12-07T19:51:25Z</time>
      </trkpt>
      <trkpt lat="48.8915" lon="2.33259">
        <ele>71.199996948242</ele>
        <time>2015-12-07T19:51:29Z</time>
      </trkpt>
      <trkpt lat="48.89159" lon="2.33278">
        <ele>71.800003051758</ele>
        <time>2015-12-07T19:51:32Z</time>
      </trkpt>
      <trkpt lat="48.89171" lon="2.33302">
        <ele>72.400001525879</ele>
        <time>2015-12-07T19:51:36Z</time>
      </trkpt>
      <trkpt lat="48.89182" lon="2.33325">
        <ele>72.800003051758</ele>
        <time>2015-12-07T19:51:40Z</time>
      </trkpt>
      <trkpt lat="48.89183" lon="2.33331">
        <ele>73</ele>
        <time>2015-12-07T19:51:41Z</time>
      </trkpt>
      <trkpt lat="48.89188" lon="2.33341">
        <ele>73.199996948242</ele>
        <time>2015-12-07T19:51:43Z</time>
      </trkpt>
      <trkpt lat="48.89203" lon="2.33355">
        <ele>73.199996948242</ele>
        <time>2015-12-07T19:51:49Z</time>
      </trkpt>
      <trkpt lat="48.89206" lon="2.33356">
        <ele>73.199996948242</ele>
        <time>2015-12-07T19:51:50Z</time>
      </trkpt>
      <trkpt lat="48.89221" lon="2.33356">
        <ele>72.800003051758</ele>
        <time>2015-12-07T19:51:54Z</time>
      </trkpt>
      <trkpt lat="48.89234" lon="2.33359">
        <ele>72.599998474121</ele>
        <time>2015-12-07T19:51:58Z</time>
      </trkpt>
      <trkpt lat="48.89256" lon="2.33366">
        <ele>72.199996948242</ele>
        <time>2015-12-07T19:52:03Z</time>
      </trkpt>
      <trkpt lat="48.89274" lon="2.33366">
        <ele>71.800003051758</ele>
        <time>2015-12-07T19:52:07Z</time>
      </trkpt>
      <trkpt lat="48.89288" lon="2.33367">
        <ele>71.199996948242</ele>
        <time>2015-12-07T19:52:11Z</time>
      </trkpt>
      <trkpt lat="48.89305" lon="2.33347">
        <ele>70.199996948242</ele>
        <time>2015-12-07T19:52:16Z</time>
      </trkpt>
      <trkpt lat="48.89321" lon="2.33325">
        <ele>69.800003051758</ele>
        <time>2015-12-07T19:52:21Z</time>
      </trkpt>
      <trkpt lat="48.89336" lon="2.33308">
        <ele>69.199996948242</ele>
        <time>2015-12-07T19:52:26Z</time>
      </trkpt>
      <trkpt lat="48.89343" lon="2.33301">
        <ele>68.599998474121</ele>
        <time>2015-12-07T19:52:28Z</time>
      </trkpt>
      <trkpt lat="48.8936" lon="2.33282">
        <ele>67.199996948242</ele>
        <time>2015-12-07T19:52:33Z</time>
      </trkpt>
      <trkpt lat="48.89376" lon="2.33266">
        <ele>66.800003051758</ele>
        <time>2015-12-07T19:52:38Z</time>
      </trkpt>
      <trkpt lat="48.89385" lon="2.33261">
        <ele>66.400001525879</ele>
        <time>2015-12-07T19:52:41Z</time>
      </trkpt>
      <trkpt lat="48.89405" lon="2.3327">
        <ele>66.400001525879</ele>
        <time>2015-12-07T19:52:45Z</time>
      </trkpt>
      <trkpt lat="48.89422" lon="2.33289">
        <ele>67.400001525879</ele>
        <time>2015-12-07T19:52:50Z</time>
      </trkpt>
      <trkpt lat="48.89429" lon="2.33307">
        <ele>68.599998474121</ele>
        <time>2015-12-07T19:52:53Z</time>
      </trkpt>
      <trkpt lat="48.89433" lon="2.33319">
        <ele>69.400001525879</ele>
        <time>2015-12-07T19:52:55Z</time>
      </trkpt>
      <trkpt lat="48.89441" lon="2.33346">
        <ele>69.800003051758</ele>
        <time>2015-12-07T19:52:59Z</time>
      </trkpt>
      <trkpt lat="48.89446" lon="2.33373">
        <ele>69</ele>
        <time>2015-12-07T19:53:03Z</time>
      </trkpt>
      <trkpt lat="48.89452" lon="2.33406">
        <ele>68.199996948242</ele>
        <time>2015-12-07T19:53:08Z</time>
      </trkpt>
      <trkpt lat="48.89458" lon="2.33435">
        <ele>67</ele>
        <time>2015-12-07T19:53:12Z</time>
      </trkpt>
      <trkpt lat="48.89459" lon="2.33443">
        <ele>66.800003051758</ele>
        <time>2015-12-07T19:53:13Z</time>
      </trkpt>
      <trkpt lat="48.89462" lon="2.33476">
        <ele>66.199996948242</ele>
        <time>2015-12-07T19:53:17Z</time>
      </trkpt>
      <trkpt lat="48.89468" lon="2.33509">
        <ele>65.599998474121</ele>
        <time>2015-12-07T19:53:21Z</time>
      </trkpt>
      <trkpt lat="48.89475" lon="2.33536">
        <ele>65.400001525879</ele>
        <time>2015-12-07T19:53:25Z</time>
      </trkpt>
      <trkpt lat="48.89476" lon="2.33541">
        <ele>65.400001525879</ele>
        <time>2015-12-07T19:53:26Z</time>
      </trkpt>
      <trkpt lat="48.89483" lon="2.33569">
        <ele>65</ele>
        <time>2015-12-07T19:53:32Z</time>
      </trkpt>
      <trkpt lat="48.89486" lon="2.33596">
        <ele>64.800003051758</ele>
        <time>2015-12-07T19:53:38Z</time>
      </trkpt>
      <trkpt lat="48.89487" lon="2.33601">
        <ele>64.800003051758</ele>
        <time>2015-12-07T19:53:39Z</time>
      </trkpt>
      <trkpt lat="48.8949" lon="2.33632">
        <ele>65</ele>
        <time>2015-12-07T19:53:44Z</time>
      </trkpt>
      <trkpt lat="48.89492" lon="2.33645">
        <ele>64.800003051758</ele>
        <time>2015-12-07T19:53:46Z</time>
      </trkpt>
      <trkpt lat="48.89494" lon="2.33652">
        <ele>64.800003051758</ele>
        <time>2015-12-07T19:53:47Z</time>
      </trkpt>
      <trkpt lat="48.895" lon="2.33673">
        <ele>64.400001525879</ele>
        <time>2015-12-07T19:53:50Z</time>
      </trkpt>
      <trkpt lat="48.89508" lon="2.337">
        <ele>63.79999923706</ele>
        <time>2015-12-07T19:53:54Z</time>
      </trkpt>
      <trkpt lat="48.89513" lon="2.33712">
        <ele>63.599998474121</ele>
        <time>2015-12-07T19:53:56Z</time>
      </trkpt>
      <trkpt lat="48.89514" lon="2.33741">
        <ele>63.400001525879</ele>
        <time>2015-12-07T19:54:02Z</time>
      </trkpt>
      <trkpt lat="48.8952" lon="2.33754">
        <ele>62.79999923706</ele>
        <time>2015-12-07T19:54:10Z</time>
      </trkpt>
      <trkpt lat="48.89528" lon="2.33778">
        <ele>62</ele>
        <time>2015-12-07T19:54:17Z</time>
      </trkpt>
      <trkpt lat="48.89538" lon="2.33807">
        <ele>61.20000076294</ele>
        <time>2015-12-07T19:54:23Z</time>
      </trkpt>
      <trkpt lat="48.89544" lon="2.33839">
        <ele>60</ele>
        <time>2015-12-07T19:54:28Z</time>
      </trkpt>
      <trkpt lat="48.89552" lon="2.33864">
        <ele>59.400001525879</ele>
        <time>2015-12-07T19:54:32Z</time>
      </trkpt>
      <trkpt lat="48.89557" lon="2.33891">
        <ele>59.20000076294</ele>
        <time>2015-12-07T19:54:36Z</time>
      </trkpt>
      <trkpt lat="48.89563" lon="2.33918">
        <ele>59</ele>
        <time>2015-12-07T19:54:40Z</time>
      </trkpt>
      <trkpt lat="48.89568" lon="2.33944">
        <ele>59</ele>
        <time>2015-12-07T19:54:44Z</time>
      </trkpt>
      <trkpt lat="48.89567" lon="2.33971">
        <ele>59.20000076294</ele>
        <time>2015-12-07T19:54:48Z</time>
      </trkpt>
      <trkpt lat="48.89569" lon="2.34002">
        <ele>59.79999923706</ele>
        <time>2015-12-07T19:54:52Z</time>
      </trkpt>
      <trkpt lat="48.8957" lon="2.34032">
        <ele>59.400001525879</ele>
        <time>2015-12-07T19:54:56Z</time>
      </trkpt>
      <trkpt lat="48.89571" lon="2.34046">
        <ele>59.20000076294</ele>
        <time>2015-12-07T19:54:58Z</time>
      </trkpt>
      <trkpt lat="48.89572" lon="2.34074">
        <ele>59</ele>
        <time>2015-12-07T19:55:02Z</time>
      </trkpt>
      <trkpt lat="48.89575" lon="2.34102">
        <ele>59.400001525879</ele>
        <time>2015-12-07T19:55:06Z</time>
      </trkpt>
      <trkpt lat="48.89577" lon="2.34135">
        <ele>60</ele>
        <time>2015-12-07T19:55:11Z</time>
      </trkpt>
      <trkpt lat="48.89578" lon="2.34141">
        <ele>60</ele>
        <time>2015-12-07T19:55:12Z</time>
      </trkpt>
      <trkpt lat="48.8958" lon="2.34171">
        <ele>60</ele>
        <time>2015-12-07T19:55:17Z</time>
      </trkpt>
      <trkpt lat="48.89581" lon="2.34199">
        <ele>60</ele>
        <time>2015-12-07T19:55:21Z</time>
      </trkpt>
      <trkpt lat="48.89581" lon="2.34228">
        <ele>59.79999923706</ele>
        <time>2015-12-07T19:55:25Z</time>
      </trkpt>
      <trkpt lat="48.8958" lon="2.34261">
        <ele>59.400001525879</ele>
        <time>2015-12-07T19:55:29Z</time>
      </trkpt>
      <trkpt lat="48.8958" lon="2.34277">
        <ele>59.20000076294</ele>
        <time>2015-12-07T19:55:31Z</time>
      </trkpt>
      <trkpt lat="48.89579" lon="2.34305">
        <ele>59</ele>
        <time>2015-12-07T19:55:35Z</time>
      </trkpt>
      <trkpt lat="48.8958" lon="2.34317">
        <ele>58.79999923706</ele>
        <time>2015-12-07T19:55:37Z</time>
      </trkpt>
      <trkpt lat="48.8958" lon="2.34346">
        <ele>58.79999923706</ele>
        <time>2015-12-07T19:55:42Z</time>
      </trkpt>
      <trkpt lat="48.8958" lon="2.34374">
        <ele>59.20000076294</ele>
        <time>2015-12-07T19:55:46Z</time>
      </trkpt>
      <trkpt lat="48.89579" lon="2.34394">
        <ele>59.400001525879</ele>
        <time>2015-12-07T19:55:49Z</time>
      </trkpt>
      <trkpt lat="48.89579" lon="2.34424">
        <ele>59.599998474121</ele>
        <time>2015-12-07T19:55:53Z</time>
      </trkpt>
      <trkpt lat="48.89579" lon="2.34457">
        <ele>59.599998474121</ele>
        <time>2015-12-07T19:55:57Z</time>
      </trkpt>
      <trkpt lat="48.89578" lon="2.3449">
        <ele>59.599998474121</ele>
        <time>2015-12-07T19:56:01Z</time>
      </trkpt>
      <trkpt lat="48.89579" lon="2.34521">
        <ele>59.400001525879</ele>
        <time>2015-12-07T19:56:05Z</time>
      </trkpt>
      <trkpt lat="48.89578" lon="2.34528">
        <ele>59.400001525879</ele>
        <time>2015-12-07T19:56:06Z</time>
      </trkpt>
      <trkpt lat="48.89578" lon="2.3456">
        <ele>58.79999923706</ele>
        <time>2015-12-07T19:56:11Z</time>
      </trkpt>
      <trkpt lat="48.89573" lon="2.34587">
        <ele>57.79999923706</ele>
        <time>2015-12-07T19:56:18Z</time>
      </trkpt>
      <trkpt lat="48.89569" lon="2.34605">
        <ele>57.400001525879</ele>
        <time>2015-12-07T19:56:25Z</time>
      </trkpt>
      <trkpt lat="48.89569" lon="2.34611">
        <ele>57.20000076294</ele>
        <time>2015-12-07T19:56:27Z</time>
      </trkpt>
      <trkpt lat="48.89573" lon="2.34624">
        <ele>57</ele>
        <time>2015-12-07T19:56:31Z</time>
      </trkpt>
      <trkpt lat="48.89576" lon="2.34627">
        <ele>56.79999923706</ele>
        <time>2015-12-07T19:56:32Z</time>
      </trkpt>
      <trkpt lat="48.89586" lon="2.34642">
        <ele>56.599998474121</ele>
        <time>2015-12-07T19:56:37Z</time>
      </trkpt>
      <trkpt lat="48.89605" lon="2.34637">
        <ele>56.599998474121</ele>
        <time>2015-12-07T19:56:44Z</time>
      </trkpt>
      <trkpt lat="48.89625" lon="2.34636">
        <ele>56.20000076294</ele>
        <time>2015-12-07T19:56:50Z</time>
      </trkpt>
      <trkpt lat="48.89645" lon="2.34648">
        <ele>55.400001525879</ele>
        <time>2015-12-07T19:56:58Z</time>
      </trkpt>
      <trkpt lat="48.89664" lon="2.34658">
        <ele>54.79999923706</ele>
        <time>2015-12-07T19:57:03Z</time>
      </trkpt>
      <trkpt lat="48.89683" lon="2.34667">
        <ele>54.20000076294</ele>
        <time>2015-12-07T19:57:08Z</time>
      </trkpt>
      <trkpt lat="48.89703" lon="2.34678">
        <ele>53.599998474121</ele>
        <time>2015-12-07T19:57:12Z</time>
      </trkpt>
      <trkpt lat="48.89721" lon="2.34687">
        <ele>53.20000076294</ele>
        <time>2015-12-07T19:57:17Z</time>
      </trkpt>
      <trkpt lat="48.8974" lon="2.34696">
        <ele>52.79999923706</ele>
        <time>2015-12-07T19:57:22Z</time>
      </trkpt>
      <trkpt lat="48.8976" lon="2.34704">
        <ele>52.400001525879</ele>
        <time>2015-12-07T19:57:28Z</time>
      </trkpt>
      <trkpt lat="48.89775" lon="2.34729">
        <ele>52</ele>
        <time>2015-12-07T19:57:31Z</time>
      </trkpt>
      <trkpt lat="48.89781" lon="2.34759">
        <ele>51.400001525879</ele>
        <time>2015-12-07T19:57:34Z</time>
      </trkpt>
      <trkpt lat="48.89787" lon="2.34795">
        <ele>50.20000076294</ele>
        <time>2015-12-07T19:57:38Z</time>
      </trkpt>
      <trkpt lat="48.89789" lon="2.34829">
        <ele>49.20000076294</ele>
        <time>2015-12-07T19:57:41Z</time>
      </trkpt>
      <trkpt lat="48.89792" lon="2.34865">
        <ele>49.20000076294</ele>
        <time>2015-12-07T19:57:44Z</time>
      </trkpt>
      <trkpt lat="48.89792" lon="2.34905">
        <ele>48.20000076294</ele>
        <time>2015-12-07T19:57:47Z</time>
      </trkpt>
      <trkpt lat="48.89792" lon="2.34933">
        <ele>47.599998474121</ele>
        <time>2015-12-07T19:57:49Z</time>
      </trkpt>
      <trkpt lat="48.89793" lon="2.3496">
        <ele>47.79999923706</ele>
        <time>2015-12-07T19:57:51Z</time>
      </trkpt>
      <trkpt lat="48.89791" lon="2.34988">
        <ele>48.20000076294</ele>
        <time>2015-12-07T19:57:53Z</time>
      </trkpt>
      <trkpt lat="48.89792" lon="2.35001">
        <ele>48.20000076294</ele>
        <time>2015-12-07T19:57:54Z</time>
      </trkpt>
      <trkpt lat="48.89792" lon="2.35029">
        <ele>48</ele>
        <time>2015-12-07T19:57:56Z</time>
      </trkpt>
      <trkpt lat="48.89792" lon="2.35057">
        <ele>47.599998474121</ele>
        <time>2015-12-07T19:57:58Z</time>
      </trkpt>
      <trkpt lat="48.89792" lon="2.35085">
        <ele>47.400001525879</ele>
        <time>2015-12-07T19:58:00Z</time>
      </trkpt>
      <trkpt lat="48.89793" lon="2.35112">
        <ele>48.20000076294</ele>
        <time>2015-12-07T19:58:02Z</time>
      </trkpt>
      <trkpt lat="48.89793" lon="2.3514">
        <ele>49.400001525879</ele>
        <time>2015-12-07T19:58:04Z</time>
      </trkpt>
      <trkpt lat="48.89793" lon="2.35177">
        <ele>50.20000076294</ele>
        <time>2015-12-07T19:58:07Z</time>
      </trkpt>
      <trkpt lat="48.89794" lon="2.35213">
        <ele>49.599998474121</ele>
        <time>2015-12-07T19:58:11Z</time>
      </trkpt>
      <trkpt lat="48.89797" lon="2.35245">
        <ele>49</ele>
        <time>2015-12-07T19:58:16Z</time>
      </trkpt>
      <trkpt lat="48.89797" lon="2.3525">
        <ele>49</ele>
        <time>2015-12-07T19:58:18Z</time>
      </trkpt>
      <trkpt lat="48.89802" lon="2.35252">
        <ele>48.599998474121</ele>
        <time>2015-12-07T19:59:02Z</time>
      </trkpt>
      <trkpt lat="48.89819" lon="2.3526">
        <ele>47.20000076294</ele>
        <time>2015-12-07T19:59:12Z</time>
      </trkpt>
      <trkpt lat="48.89837" lon="2.35258">
        <ele>45.599998474121</ele>
        <time>2015-12-07T19:59:37Z</time>
      </trkpt>
      <trkpt lat="48.89856" lon="2.35253">
        <ele>44</ele>
        <time>2015-12-07T19:59:44Z</time>
      </trkpt>
      <trkpt lat="48.89875" lon="2.35249">
        <ele>44.20000076294</ele>
        <time>2015-12-07T19:59:49Z</time>
      </trkpt>
      <trkpt lat="48.89894" lon="2.35247">
        <ele>44.400001525879</ele>
        <time>2015-12-07T19:59:53Z</time>
      </trkpt>
      <trkpt lat="48.89915" lon="2.35245">
        <ele>44.79999923706</ele>
        <time>2015-12-07T19:59:57Z</time>
      </trkpt>
      <trkpt lat="48.89937" lon="2.35238">
        <ele>45.20000076294</ele>
        <time>2015-12-07T20:00:01Z</time>
      </trkpt>
      <trkpt lat="48.89958" lon="2.35231">
        <ele>45.79999923706</ele>
        <time>2015-12-07T20:00:05Z</time>
      </trkpt>
      <trkpt lat="48.89968" lon="2.35227">
        <ele>46.20000076294</ele>
        <time>2015-12-07T20:00:07Z</time>
      </trkpt>
      <trkpt lat="48.89989" lon="2.35225">
        <ele>46.79999923706</ele>
        <time>2015-12-07T20:00:11Z</time>
      </trkpt>
      <trkpt lat="48.90004" lon="2.35223">
        <ele>47.20000076294</ele>
        <time>2015-12-07T20:00:14Z</time>
      </trkpt>
      <trkpt lat="48.90023" lon="2.35218">
        <ele>48.400001525879</ele>
        <time>2015-12-07T20:00:18Z</time>
      </trkpt>
      <trkpt lat="48.90045" lon="2.35213">
        <ele>48.20000076294</ele>
        <time>2015-12-07T20:00:22Z</time>
      </trkpt>
      <trkpt lat="48.90066" lon="2.35201">
        <ele>48.20000076294</ele>
        <time>2015-12-07T20:00:26Z</time>
      </trkpt>
      <trkpt lat="48.90087" lon="2.35194">
        <ele>47.599998474121</ele>
        <time>2015-12-07T20:00:30Z</time>
      </trkpt>
      <trkpt lat="48.90106" lon="2.35179">
        <ele>47.400001525879</ele>
        <time>2015-12-07T20:00:35Z</time>
      </trkpt>
      <trkpt lat="48.90114" lon="2.35184">
        <ele>47</ele>
        <time>2015-12-07T20:00:36Z</time>
      </trkpt>
      <trkpt lat="48.90134" lon="2.35181">
        <ele>46.20000076294</ele>
        <time>2015-12-07T20:00:40Z</time>
      </trkpt>
      <trkpt lat="48.90153" lon="2.35177">
        <ele>45.20000076294</ele>
        <time>2015-12-07T20:00:44Z</time>
      </trkpt>
      <trkpt lat="48.90168" lon="2.35176">
        <ele>44.599998474121</ele>
        <time>2015-12-07T20:00:48Z</time>
      </trkpt>
      <trkpt lat="48.90181" lon="2.35177">
        <ele>44</ele>
        <time>2015-12-07T20:00:51Z</time>
      </trkpt>
      <trkpt lat="48.902" lon="2.35175">
        <ele>43.79999923706</ele>
        <time>2015-12-07T20:00:55Z</time>
      </trkpt>
      <trkpt lat="48.90218" lon="2.35171">
        <ele>42.79999923706</ele>
        <time>2015-12-07T20:00:59Z</time>
      </trkpt>
      <trkpt lat="48.90226" lon="2.3517">
        <ele>42.400001525879</ele>
        <time>2015-12-07T20:01:01Z</time>
      </trkpt>
      <trkpt lat="48.90241" lon="2.35177">
        <ele>41.79999923706</ele>
        <time>2015-12-07T20:01:05Z</time>
      </trkpt>
      <trkpt lat="48.90258" lon="2.3518">
        <ele>41.20000076294</ele>
        <time>2015-12-07T20:01:10Z</time>
      </trkpt>
      <trkpt lat="48.90262" lon="2.35179">
        <ele>41</ele>
        <time>2015-12-07T20:01:11Z</time>
      </trkpt>
      <trkpt lat="48.90274" lon="2.35177">
        <ele>40.400001525879</ele>
        <time>2015-12-07T20:01:14Z</time>
      </trkpt>
      <trkpt lat="48.90282" lon="2.35175">
        <ele>40.20000076294</ele>
        <time>2015-12-07T20:01:16Z</time>
      </trkpt>
      <trkpt lat="48.903" lon="2.35165">
        <ele>39.79999923706</ele>
        <time>2015-12-07T20:01:21Z</time>
      </trkpt>
      <trkpt lat="48.90301" lon="2.35163">
        <ele>39.599998474121</ele>
        <time>2015-12-07T20:01:22Z</time>
      </trkpt>
      <trkpt lat="48.90309" lon="2.3515">
        <ele>40</ele>
        <time>2015-12-07T20:01:27Z</time>
      </trkpt>
      <trkpt lat="48.90316" lon="2.35119">
        <ele>40.599998474121</ele>
        <time>2015-12-07T20:01:33Z</time>
      </trkpt>
      <trkpt lat="48.90319" lon="2.35092">
        <ele>40.79999923706</ele>
        <time>2015-12-07T20:01:38Z</time>
      </trkpt>
      <trkpt lat="48.9032" lon="2.35062">
        <ele>41.20000076294</ele>
        <time>2015-12-07T20:01:43Z</time>
      </trkpt>
      <trkpt lat="48.90322" lon="2.35032">
        <ele>41.400001525879</ele>
        <time>2015-12-07T20:01:47Z</time>
      </trkpt>
      <trkpt lat="48.90328" lon="2.34996">
        <ele>41.79999923706</ele>
        <time>2015-12-07T20:01:51Z</time>
      </trkpt>
      <trkpt lat="48.9033" lon="2.34962">
        <ele>42.400001525879</ele>
        <time>2015-12-07T20:01:55Z</time>
      </trkpt>
      <trkpt lat="48.90331" lon="2.34954">
        <ele>42.599998474121</ele>
        <time>2015-12-07T20:01:56Z</time>
      </trkpt>
      <trkpt lat="48.90335" lon="2.34938">
        <ele>43</ele>
        <time>2015-12-07T20:01:58Z</time>
      </trkpt>
      <trkpt lat="48.9034" lon="2.34908">
        <ele>43.599998474121</ele>
        <time>2015-12-07T20:02:02Z</time>
      </trkpt>
      <trkpt lat="48.90341" lon="2.34888">
        <ele>44</ele>
        <time>2015-12-07T20:02:05Z</time>
      </trkpt>
      <trkpt lat="48.90343" lon="2.34875">
        <ele>44.20000076294</ele>
        <time>2015-12-07T20:02:08Z</time>
      </trkpt>
      <trkpt lat="48.90346" lon="2.3487">
        <ele>44.400001525879</ele>
        <time>2015-12-07T20:02:15Z</time>
      </trkpt>
      <trkpt lat="48.90345" lon="2.3487">
        <ele>44.400001525879</ele>
        <time>2015-12-07T20:02:16Z</time>
      </trkpt>
      <trkpt lat="48.90358" lon="2.34876">
        <ele>43.79999923706</ele>
        <time>2015-12-07T20:02:30Z</time>
      </trkpt>
      <trkpt lat="48.90379" lon="2.34889">
        <ele>43.400001525879</ele>
        <time>2015-12-07T20:02:35Z</time>
      </trkpt>
      <trkpt lat="48.90399" lon="2.34903">
        <ele>42.79999923706</ele>
        <time>2015-12-07T20:02:40Z</time>
      </trkpt>
      <trkpt lat="48.90417" lon="2.34913">
        <ele>42.400001525879</ele>
        <time>2015-12-07T20:02:44Z</time>
      </trkpt>
      <trkpt lat="48.90434" lon="2.34924">
        <ele>41.79999923706</ele>
        <time>2015-12-07T20:02:48Z</time>
      </trkpt>
      <trkpt lat="48.90448" lon="2.34927">
        <ele>41.20000076294</ele>
        <time>2015-12-07T20:02:51Z</time>
      </trkpt>
      <trkpt lat="48.90468" lon="2.34911">
        <ele>41.400001525879</ele>
        <time>2015-12-07T20:02:56Z</time>
      </trkpt>
      <trkpt lat="48.90476" lon="2.34896">
        <ele>41.400001525879</ele>
        <time>2015-12-07T20:02:58Z</time>
      </trkpt>
      <trkpt lat="48.90487" lon="2.3487">
        <ele>41.400001525879</ele>
        <time>2015-12-07T20:03:01Z</time>
      </trkpt>
      <trkpt lat="48.90498" lon="2.34846">
        <ele>41.400001525879</ele>
        <time>2015-12-07T20:03:04Z</time>
      </trkpt>
      <trkpt lat="48.90508" lon="2.34822">
        <ele>41.20000076294</ele>
        <time>2015-12-07T20:03:07Z</time>
      </trkpt>
      <trkpt lat="48.90519" lon="2.34797">
        <ele>40.599998474121</ele>
        <time>2015-12-07T20:03:10Z</time>
      </trkpt>
      <trkpt lat="48.90532" lon="2.3477">
        <ele>40</ele>
        <time>2015-12-07T20:03:13Z</time>
      </trkpt>
      <trkpt lat="48.90543" lon="2.34743">
        <ele>39.79999923706</ele>
        <time>2015-12-07T20:03:16Z</time>
      </trkpt>
      <trkpt lat="48.9055" lon="2.34728">
        <ele>39.599998474121</ele>
        <time>2015-12-07T20:03:19Z</time>
      </trkpt>
      <trkpt lat="48.90558" lon="2.34732">
        <ele>39.599998474121</ele>
        <time>2015-12-07T20:03:24Z</time>
      </trkpt>
      <trkpt lat="48.9056" lon="2.34734">
        <ele>39.599998474121</ele>
        <time>2015-12-07T20:03:25Z</time>
      </trkpt>
      <trkpt lat="48.90579" lon="2.34748">
        <ele>39.400001525879</ele>
        <time>2015-12-07T20:03:31Z</time>
      </trkpt>
      <trkpt lat="48.90583" lon="2.34749">
        <ele>39.20000076294</ele>
        <time>2015-12-07T20:03:32Z</time>
      </trkpt>
      <trkpt lat="48.90596" lon="2.34733">
        <ele>39.20000076294</ele>
        <time>2015-12-07T20:03:36Z</time>
      </trkpt>
      <trkpt lat="48.90603" lon="2.34716">
        <ele>39</ele>
        <time>2015-12-07T20:03:39Z</time>
      </trkpt>
      <trkpt lat="48.90607" lon="2.34705">
        <ele>39</ele>
        <time>2015-12-07T20:03:41Z</time>
      </trkpt>
      <trkpt lat="48.90616" lon="2.34678">
        <ele>38.79999923706</ele>
        <time>2015-12-07T20:03:46Z</time>
      </trkpt>
      <trkpt lat="48.90622" lon="2.3466">
        <ele>38.79999923706</ele>
        <time>2015-12-07T20:03:49Z</time>
      </trkpt>
      <trkpt lat="48.90612" lon="2.34637">
        <ele>39</ele>
        <time>2015-12-07T20:03:54Z</time>
      </trkpt>
      <trkpt lat="48.90608" lon="2.34633">
        <ele>39</ele>
        <time>2015-12-07T20:03:55Z</time>
      </trkpt>
      <trkpt lat="48.90604" lon="2.34631">
        <ele>39</ele>
        <time>2015-12-07T20:03:56Z</time>
      </trkpt>
      <trkpt lat="48.90595" lon="2.34622">
        <ele>38.79999923706</ele>
        <time>2015-12-07T20:03:59Z</time>
      </trkpt>
      <trkpt lat="48.906" lon="2.34603">
        <ele>39</ele>
        <time>2015-12-07T20:04:04Z</time>
      </trkpt>
      <trkpt lat="48.90611" lon="2.34578">
        <ele>39</ele>
        <time>2015-12-07T20:04:08Z</time>
      </trkpt>
      <trkpt lat="48.90622" lon="2.34555">
        <ele>38.599998474121</ele>
        <time>2015-12-07T20:04:12Z</time>
      </trkpt>
      <trkpt lat="48.90631" lon="2.34533">
        <ele>38.20000076294</ele>
        <time>2015-12-07T20:04:16Z</time>
      </trkpt>
      <trkpt lat="48.90636" lon="2.34521">
        <ele>38</ele>
        <time>2015-12-07T20:04:18Z</time>
      </trkpt>
      <trkpt lat="48.90645" lon="2.3449">
        <ele>37.599998474121</ele>
        <time>2015-12-07T20:04:22Z</time>
      </trkpt>
      <trkpt lat="48.90654" lon="2.34465">
        <ele>37.79999923706</ele>
        <time>2015-12-07T20:04:26Z</time>
      </trkpt>
      <trkpt lat="48.90658" lon="2.34455">
        <ele>38</ele>
        <time>2015-12-07T20:04:28Z</time>
      </trkpt>
      <trkpt lat="48.90661" lon="2.34438">
        <ele>38.400001525879</ele>
        <time>2015-12-07T20:04:32Z</time>
      </trkpt>
      <trkpt lat="48.90675" lon="2.34423">
        <ele>38.79999923706</ele>
        <time>2015-12-07T20:04:55Z</time>
      </trkpt>
      <trkpt lat="48.90693" lon="2.34416">
        <ele>39</ele>
        <time>2015-12-07T20:05:00Z</time>
      </trkpt>
      <trkpt lat="48.90714" lon="2.34413">
        <ele>39</ele>
        <time>2015-12-07T20:05:05Z</time>
      </trkpt>
      <trkpt lat="48.90735" lon="2.34411">
        <ele>39</ele>
        <time>2015-12-07T20:05:10Z</time>
      </trkpt>
      <trkpt lat="48.90754" lon="2.3441">
        <ele>39</ele>
        <time>2015-12-07T20:05:13Z</time>
      </trkpt>
      <trkpt lat="48.90766" lon="2.34411">
        <ele>39</ele>
        <time>2015-12-07T20:05:15Z</time>
      </trkpt>
      <trkpt lat="48.90786" lon="2.34413">
        <ele>38.79999923706</ele>
        <time>2015-12-07T20:05:18Z</time>
      </trkpt>
      <trkpt lat="48.90807" lon="2.34417">
        <ele>38.20000076294</ele>
        <time>2015-12-07T20:05:21Z</time>
      </trkpt>
      <trkpt lat="48.90813" lon="2.34416">
        <ele>38</ele>
        <time>2015-12-07T20:05:22Z</time>
      </trkpt>
      <trkpt lat="48.90831" lon="2.34417">
        <ele>37.599998474121</ele>
        <time>2015-12-07T20:05:25Z</time>
      </trkpt>
      <trkpt lat="48.90857" lon="2.34416">
        <ele>37</ele>
        <time>2015-12-07T20:05:29Z</time>
      </trkpt>
      <trkpt lat="48.90875" lon="2.34415">
        <ele>36.79999923706</ele>
        <time>2015-12-07T20:05:32Z</time>
      </trkpt>
      <trkpt lat="48.90899" lon="2.34415">
        <ele>36.400001525879</ele>
        <time>2015-12-07T20:05:36Z</time>
      </trkpt>
      <trkpt lat="48.90918" lon="2.34412">
        <ele>36.20000076294</ele>
        <time>2015-12-07T20:05:39Z</time>
      </trkpt>
      <trkpt lat="48.90942" lon="2.34409">
        <ele>36</ele>
        <time>2015-12-07T20:05:43Z</time>
      </trkpt>
      <trkpt lat="48.90966" lon="2.34404">
        <ele>36.20000076294</ele>
        <time>2015-12-07T20:05:47Z</time>
      </trkpt>
      <trkpt lat="48.90986" lon="2.344">
        <ele>36.400001525879</ele>
        <time>2015-12-07T20:05:50Z</time>
      </trkpt>
      <trkpt lat="48.91008" lon="2.34396">
        <ele>36.599998474121</ele>
        <time>2015-12-07T20:05:54Z</time>
      </trkpt>
      <trkpt lat="48.91028" lon="2.34392">
        <ele>37.599998474121</ele>
        <time>2015-12-07T20:05:58Z</time>
      </trkpt>
      <trkpt lat="48.91046" lon="2.3439">
        <ele>38.20000076294</ele>
        <time>2015-12-07T20:06:01Z</time>
      </trkpt>
      <trkpt lat="48.91068" lon="2.3439">
        <ele>38.599998474121</ele>
        <time>2015-12-07T20:06:05Z</time>
      </trkpt>
      <trkpt lat="48.91074" lon="2.3439">
        <ele>38.79999923706</ele>
        <time>2015-12-07T20:06:06Z</time>
      </trkpt>
      <trkpt lat="48.91095" lon="2.34389">
        <ele>38.599998474121</ele>
        <time>2015-12-07T20:06:10Z</time>
      </trkpt>
      <trkpt lat="48.91115" lon="2.34387">
        <ele>38.20000076294</ele>
        <time>2015-12-07T20:06:14Z</time>
      </trkpt>
      <trkpt lat="48.9113" lon="2.34388">
        <ele>37.79999923706</ele>
        <time>2015-12-07T20:06:17Z</time>
      </trkpt>
      <trkpt lat="48.91151" lon="2.34388">
        <ele>37.400001525879</ele>
        <time>2015-12-07T20:06:21Z</time>
      </trkpt>
      <trkpt lat="48.91163" lon="2.34389">
        <ele>37</ele>
        <time>2015-12-07T20:06:23Z</time>
      </trkpt>
      <trkpt lat="48.91182" lon="2.34389">
        <ele>36.599998474121</ele>
        <time>2015-12-07T20:06:26Z</time>
      </trkpt>
      <trkpt lat="48.91201" lon="2.34392">
        <ele>36.400001525879</ele>
        <time>2015-12-07T20:06:29Z</time>
      </trkpt>
      <trkpt lat="48.91223" lon="2.34394">
        <ele>36.599998474121</ele>
        <time>2015-12-07T20:06:32Z</time>
      </trkpt>
      <trkpt lat="48.91244" lon="2.34399">
        <ele>36.599998474121</ele>
        <time>2015-12-07T20:06:35Z</time>
      </trkpt>
      <trkpt lat="48.91266" lon="2.34406">
        <ele>36.79999923706</ele>
        <time>2015-12-07T20:06:38Z</time>
      </trkpt>
      <trkpt lat="48.91288" lon="2.34406">
        <ele>37.599998474121</ele>
        <time>2015-12-07T20:06:41Z</time>
      </trkpt>
      <trkpt lat="48.91308" lon="2.34408">
        <ele>38.599998474121</ele>
        <time>2015-12-07T20:06:44Z</time>
      </trkpt>
      <trkpt lat="48.91326" lon="2.3441">
        <ele>39.400001525879</ele>
        <time>2015-12-07T20:06:47Z</time>
      </trkpt>
      <trkpt lat="48.9135" lon="2.3441">
        <ele>40.599998474121</ele>
        <time>2015-12-07T20:06:51Z</time>
      </trkpt>
      <trkpt lat="48.9137" lon="2.34408">
        <ele>40.400001525879</ele>
        <time>2015-12-07T20:06:55Z</time>
      </trkpt>
      <trkpt lat="48.91387" lon="2.34408">
        <ele>39.79999923706</ele>
        <time>2015-12-07T20:06:59Z</time>
      </trkpt>
      <trkpt lat="48.91407" lon="2.34411">
        <ele>39.20000076294</ele>
        <time>2015-12-07T20:07:09Z</time>
      </trkpt>
      <trkpt lat="48.91414" lon="2.34411">
        <ele>38.79999923706</ele>
        <time>2015-12-07T20:07:12Z</time>
      </trkpt>
      <trkpt lat="48.91418" lon="2.3441">
        <ele>38.79999923706</ele>
        <time>2015-12-07T20:07:15Z</time>
      </trkpt>
      <trkpt lat="48.91403" lon="2.34425">
        <ele>39</ele>
        <time>2015-12-07T20:07:23Z</time>
      </trkpt>
      <trkpt lat="48.91402" lon="2.34454">
        <ele>38.400001525879</ele>
        <time>2015-12-07T20:07:27Z</time>
      </trkpt>
      <trkpt lat="48.91402" lon="2.34462">
        <ele>38.20000076294</ele>
        <time>2015-12-07T20:07:28Z</time>
      </trkpt>
      <trkpt lat="48.91403" lon="2.34491">
        <ele>36.400001525879</ele>
        <time>2015-12-07T20:07:31Z</time>
      </trkpt>
      <trkpt lat="48.91405" lon="2.34519">
        <ele>35.79999923706</ele>
        <time>2015-12-07T20:07:34Z</time>
      </trkpt>
      <trkpt lat="48.91408" lon="2.34548">
        <ele>35.400001525879</ele>
        <time>2015-12-07T20:07:37Z</time>
      </trkpt>
      <trkpt lat="48.91413" lon="2.34578">
        <ele>35.400001525879</ele>
        <time>2015-12-07T20:07:40Z</time>
      </trkpt>
      <trkpt lat="48.91416" lon="2.34587">
        <ele>35.20000076294</ele>
        <time>2015-12-07T20:07:41Z</time>
      </trkpt>
      <trkpt lat="48.91421" lon="2.34617">
        <ele>34.79999923706</ele>
        <time>2015-12-07T20:07:44Z</time>
      </trkpt>
      <trkpt lat="48.91427" lon="2.34645">
        <ele>34.400001525879</ele>
        <time>2015-12-07T20:07:47Z</time>
      </trkpt>
      <trkpt lat="48.91435" lon="2.34679">
        <ele>34.400001525879</ele>
        <time>2015-12-07T20:07:51Z</time>
      </trkpt>
      <trkpt lat="48.91442" lon="2.34708">
        <ele>34.599998474121</ele>
        <time>2015-12-07T20:07:55Z</time>
      </trkpt>
      <trkpt lat="48.9145" lon="2.34736">
        <ele>34.79999923706</ele>
        <time>2015-12-07T20:07:59Z</time>
      </trkpt>
      <trkpt lat="48.91454" lon="2.3475">
        <ele>34.79999923706</ele>
        <time>2015-12-07T20:08:01Z</time>
      </trkpt>
      <trkpt lat="48.91461" lon="2.3478">
        <ele>35.79999923706</ele>
        <time>2015-12-07T20:08:05Z</time>
      </trkpt>
      <trkpt lat="48.91467" lon="2.34803">
        <ele>36.79999923706</ele>
        <time>2015-12-07T20:08:08Z</time>
      </trkpt>
      <trkpt lat="48.91473" lon="2.34834">
        <ele>37.79999923706</ele>
        <time>2015-12-07T20:08:12Z</time>
      </trkpt>
      <trkpt lat="48.9148" lon="2.34866">
        <ele>38</ele>
        <time>2015-12-07T20:08:16Z</time>
      </trkpt>
      <trkpt lat="48.91483" lon="2.34888">
        <ele>38.400001525879</ele>
        <time>2015-12-07T20:08:19Z</time>
      </trkpt>
      <trkpt lat="48.9149" lon="2.34919">
        <ele>38.599998474121</ele>
        <time>2015-12-07T20:08:24Z</time>
      </trkpt>
      <trkpt lat="48.91496" lon="2.34946">
        <ele>38.79999923706</ele>
        <time>2015-12-07T20:08:28Z</time>
      </trkpt>
      <trkpt lat="48.91504" lon="2.34976">
        <ele>38.599998474121</ele>
        <time>2015-12-07T20:08:32Z</time>
      </trkpt>
      <trkpt lat="48.91506" lon="2.34983">
        <ele>38.599998474121</ele>
        <time>2015-12-07T20:08:33Z</time>
      </trkpt>
      <trkpt lat="48.91517" lon="2.35013">
        <ele>38.400001525879</ele>
        <time>2015-12-07T20:08:37Z</time>
      </trkpt>
      <trkpt lat="48.91525" lon="2.35039">
        <ele>38.400001525879</ele>
        <time>2015-12-07T20:08:40Z</time>
      </trkpt>
      <trkpt lat="48.91532" lon="2.35065">
        <ele>38.400001525879</ele>
        <time>2015-12-07T20:08:43Z</time>
      </trkpt>
      <trkpt lat="48.91538" lon="2.35095">
        <ele>38.599998474121</ele>
        <time>2015-12-07T20:08:46Z</time>
      </trkpt>
      <trkpt lat="48.91544" lon="2.35103">
        <ele>38.599998474121</ele>
        <time>2015-12-07T20:08:47Z</time>
      </trkpt>
      <trkpt lat="48.91541" lon="2.35139">
        <ele>38.599998474121</ele>
        <time>2015-12-07T20:08:50Z</time>
      </trkpt>
      <trkpt lat="48.91542" lon="2.3516">
        <ele>38.599998474121</ele>
        <time>2015-12-07T20:08:52Z</time>
      </trkpt>
      <trkpt lat="48.91542" lon="2.35189">
        <ele>39.599998474121</ele>
        <time>2015-12-07T20:08:55Z</time>
      </trkpt>
      <trkpt lat="48.91539" lon="2.35221">
        <ele>39.599998474121</ele>
        <time>2015-12-07T20:08:59Z</time>
      </trkpt>
      <trkpt lat="48.91537" lon="2.35242">
        <ele>39.400001525879</ele>
        <time>2015-12-07T20:09:03Z</time>
      </trkpt>
      <trkpt lat="48.91536" lon="2.35256">
        <ele>39.400001525879</ele>
        <time>2015-12-07T20:09:07Z</time>
      </trkpt>
      <trkpt lat="48.91534" lon="2.35268">
        <ele>39</ele>
        <time>2015-12-07T20:09:12Z</time>
      </trkpt>
      <trkpt lat="48.91532" lon="2.35272">
        <ele>38.79999923706</ele>
        <time>2015-12-07T20:09:16Z</time>
      </trkpt>
      <trkpt lat="48.91531" lon="2.35279">
        <ele>38.599998474121</ele>
        <time>2015-12-07T20:09:58Z</time>
      </trkpt>
      <trkpt lat="48.91532" lon="2.35307">
        <ele>38</ele>
        <time>2015-12-07T20:10:05Z</time>
      </trkpt>
      <trkpt lat="48.91533" lon="2.35337">
        <ele>37.20000076294</ele>
        <time>2015-12-07T20:10:11Z</time>
      </trkpt>
      <trkpt lat="48.91535" lon="2.35369">
        <ele>37.20000076294</ele>
        <time>2015-12-07T20:10:17Z</time>
      </trkpt>
      <trkpt lat="48.91536" lon="2.35398">
        <ele>37.20000076294</ele>
        <time>2015-12-07T20:10:22Z</time>
      </trkpt>
      <trkpt lat="48.91538" lon="2.35432">
        <ele>37.20000076294</ele>
        <time>2015-12-07T20:10:27Z</time>
      </trkpt>
      <trkpt lat="48.91539" lon="2.35461">
        <ele>37.599998474121</ele>
        <time>2015-12-07T20:10:31Z</time>
      </trkpt>
      <trkpt lat="48.91537" lon="2.3549">
        <ele>38</ele>
        <time>2015-12-07T20:10:35Z</time>
      </trkpt>
      <trkpt lat="48.91536" lon="2.35519">
        <ele>38.400001525879</ele>
        <time>2015-12-07T20:10:39Z</time>
      </trkpt>
      <trkpt lat="48.91537" lon="2.3555">
        <ele>38.79999923706</ele>
        <time>2015-12-07T20:10:43Z</time>
      </trkpt>
      <trkpt lat="48.91539" lon="2.35582">
        <ele>39.20000076294</ele>
        <time>2015-12-07T20:10:47Z</time>
      </trkpt>
      <trkpt lat="48.91541" lon="2.35589">
        <ele>39.20000076294</ele>
        <time>2015-12-07T20:10:48Z</time>
      </trkpt>
      <trkpt lat="48.91542" lon="2.35621">
        <ele>39.79999923706</ele>
        <time>2015-12-07T20:10:52Z</time>
      </trkpt>
      <trkpt lat="48.91542" lon="2.35629">
        <ele>40</ele>
        <time>2015-12-07T20:10:53Z</time>
      </trkpt>
      <trkpt lat="48.91543" lon="2.35637">
        <ele>40.20000076294</ele>
        <time>2015-12-07T20:10:54Z</time>
      </trkpt>
      <trkpt lat="48.91545" lon="2.3567">
        <ele>40.79999923706</ele>
        <time>2015-12-07T20:10:58Z</time>
      </trkpt>
      <trkpt lat="48.91545" lon="2.35701">
        <ele>40.79999923706</ele>
        <time>2015-12-07T20:11:02Z</time>
      </trkpt>
      <trkpt lat="48.91548" lon="2.35729">
        <ele>40.79999923706</ele>
        <time>2015-12-07T20:11:06Z</time>
      </trkpt>
      <trkpt lat="48.91548" lon="2.35742">
        <ele>40.79999923706</ele>
        <time>2015-12-07T20:11:08Z</time>
      </trkpt>
      <trkpt lat="48.91548" lon="2.35765">
        <ele>41</ele>
        <time>2015-12-07T20:11:14Z</time>
      </trkpt>
      <trkpt lat="48.91546" lon="2.35774">
        <ele>41</ele>
        <time>2015-12-07T20:11:18Z</time>
      </trkpt>
      <trkpt lat="48.91548" lon="2.35787">
        <ele>41</ele>
        <time>2015-12-07T20:11:22Z</time>
      </trkpt>
      <trkpt lat="48.91551" lon="2.35815">
        <ele>41</ele>
        <time>2015-12-07T20:11:26Z</time>
      </trkpt>
      <trkpt lat="48.91552" lon="2.35844">
        <ele>40.599998474121</ele>
        <time>2015-12-07T20:11:30Z</time>
      </trkpt>
      <trkpt lat="48.91553" lon="2.35875">
        <ele>39.79999923706</ele>
        <time>2015-12-07T20:11:34Z</time>
      </trkpt>
      <trkpt lat="48.91555" lon="2.35909">
        <ele>38.599998474121</ele>
        <time>2015-12-07T20:11:38Z</time>
      </trkpt>
      <trkpt lat="48.91554" lon="2.35937">
        <ele>37.79999923706</ele>
        <time>2015-12-07T20:11:41Z</time>
      </trkpt>
      <trkpt lat="48.91554" lon="2.35967">
        <ele>36.79999923706</ele>
        <time>2015-12-07T20:11:44Z</time>
      </trkpt>
      <trkpt lat="48.91555" lon="2.36">
        <ele>35.79999923706</ele>
        <time>2015-12-07T20:11:47Z</time>
      </trkpt>
      <trkpt lat="48.91555" lon="2.36034">
        <ele>35.79999923706</ele>
        <time>2015-12-07T20:11:50Z</time>
      </trkpt>
      <trkpt lat="48.91552" lon="2.36071">
        <ele>35.20000076294</ele>
        <time>2015-12-07T20:11:53Z</time>
      </trkpt>
      <trkpt lat="48.91552" lon="2.36105">
        <ele>35.599998474121</ele>
        <time>2015-12-07T20:11:56Z</time>
      </trkpt>
      <trkpt lat="48.91551" lon="2.36136">
        <ele>36.400001525879</ele>
        <time>2015-12-07T20:11:59Z</time>
      </trkpt>
      <trkpt lat="48.91549" lon="2.36167">
        <ele>37</ele>
        <time>2015-12-07T20:12:03Z</time>
      </trkpt>
      <trkpt lat="48.91548" lon="2.36172">
        <ele>36.79999923706</ele>
        <time>2015-12-07T20:12:04Z</time>
      </trkpt>
      <trkpt lat="48.91548" lon="2.36202">
        <ele>37</ele>
        <time>2015-12-07T20:12:09Z</time>
      </trkpt>
      <trkpt lat="48.91548" lon="2.36208">
        <ele>37.20000076294</ele>
        <time>2015-12-07T20:12:10Z</time>
      </trkpt>
      <trkpt lat="48.91549" lon="2.36231">
        <ele>37.400001525879</ele>
        <time>2015-12-07T20:12:14Z</time>
      </trkpt>
      <trkpt lat="48.9155" lon="2.36259">
        <ele>37.20000076294</ele>
        <time>2015-12-07T20:12:18Z</time>
      </trkpt>
      <trkpt lat="48.91549" lon="2.36293">
        <ele>36.400001525879</ele>
        <time>2015-12-07T20:12:22Z</time>
      </trkpt>
      <trkpt lat="48.91548" lon="2.36313">
        <ele>36.20000076294</ele>
        <time>2015-12-07T20:12:24Z</time>
      </trkpt>
      <trkpt lat="48.91549" lon="2.36347">
        <ele>36</ele>
        <time>2015-12-07T20:12:27Z</time>
      </trkpt>
      <trkpt lat="48.9155" lon="2.36383">
        <ele>36.400001525879</ele>
        <time>2015-12-07T20:12:30Z</time>
      </trkpt>
      <trkpt lat="48.9155" lon="2.36422">
        <ele>36.79999923706</ele>
        <time>2015-12-07T20:12:33Z</time>
      </trkpt>
      <trkpt lat="48.91549" lon="2.3645">
        <ele>37.400001525879</ele>
        <time>2015-12-07T20:12:35Z</time>
      </trkpt>
      <trkpt lat="48.91549" lon="2.36478">
        <ele>37.400001525879</ele>
        <time>2015-12-07T20:12:37Z</time>
      </trkpt>
      <trkpt lat="48.91548" lon="2.36505">
        <ele>37.20000076294</ele>
        <time>2015-12-07T20:12:39Z</time>
      </trkpt>
      <trkpt lat="48.91546" lon="2.36533">
        <ele>37</ele>
        <time>2015-12-07T20:12:41Z</time>
      </trkpt>
      <trkpt lat="48.91545" lon="2.3657">
        <ele>37</ele>
        <time>2015-12-07T20:12:44Z</time>
      </trkpt>
      <trkpt lat="48.91545" lon="2.36605">
        <ele>36.79999923706</ele>
        <time>2015-12-07T20:12:47Z</time>
      </trkpt>
      <trkpt lat="48.91545" lon="2.36637">
        <ele>36.79999923706</ele>
        <time>2015-12-07T20:12:50Z</time>
      </trkpt>
      <trkpt lat="48.91544" lon="2.36667">
        <ele>36.599998474121</ele>
        <time>2015-12-07T20:12:53Z</time>
      </trkpt>
      <trkpt lat="48.91543" lon="2.36695">
        <ele>36</ele>
        <time>2015-12-07T20:12:56Z</time>
      </trkpt>
      <trkpt lat="48.91543" lon="2.36713">
        <ele>35.599998474121</ele>
        <time>2015-12-07T20:12:58Z</time>
      </trkpt>
      <trkpt lat="48.91542" lon="2.36746">
        <ele>34.79999923706</ele>
        <time>2015-12-07T20:13:02Z</time>
      </trkpt>
      <trkpt lat="48.91541" lon="2.36776">
        <ele>35.20000076294</ele>
        <time>2015-12-07T20:13:06Z</time>
      </trkpt>
      <trkpt lat="48.9154" lon="2.36803">
        <ele>35.20000076294</ele>
        <time>2015-12-07T20:13:10Z</time>
      </trkpt>
      <trkpt lat="48.91539" lon="2.36835">
        <ele>35.20000076294</ele>
        <time>2015-12-07T20:13:15Z</time>
      </trkpt>
      <trkpt lat="48.91539" lon="2.36865">
        <ele>35</ele>
        <time>2015-12-07T20:13:20Z</time>
      </trkpt>
      <trkpt lat="48.91539" lon="2.36877">
        <ele>34.79999923706</ele>
        <time>2015-12-07T20:13:22Z</time>
      </trkpt>
      <trkpt lat="48.91539" lon="2.36903">
        <ele>34.400001525879</ele>
        <time>2015-12-07T20:13:26Z</time>
      </trkpt>
      <trkpt lat="48.91538" lon="2.36928">
        <ele>34.599998474121</ele>
        <time>2015-12-07T20:13:29Z</time>
      </trkpt>
      <trkpt lat="48.91537" lon="2.36958">
        <ele>35</ele>
        <time>2015-12-07T20:13:32Z</time>
      </trkpt>
      <trkpt lat="48.91536" lon="2.3699">
        <ele>35.400001525879</ele>
        <time>2015-12-07T20:13:35Z</time>
      </trkpt>
      <trkpt lat="48.91536" lon="2.3702">
        <ele>35.20000076294</ele>
        <time>2015-12-07T20:13:38Z</time>
      </trkpt>
      <trkpt lat="48.91535" lon="2.37049">
        <ele>35.20000076294</ele>
        <time>2015-12-07T20:13:41Z</time>
      </trkpt>
      <trkpt lat="48.91533" lon="2.37077">
        <ele>35.20000076294</ele>
        <time>2015-12-07T20:13:44Z</time>
      </trkpt>
      <trkpt lat="48.91533" lon="2.37108">
        <ele>35.79999923706</ele>
        <time>2015-12-07T20:13:48Z</time>
      </trkpt>
      <trkpt lat="48.91532" lon="2.37119">
        <ele>36.20000076294</ele>
        <time>2015-12-07T20:13:50Z</time>
      </trkpt>
      <trkpt lat="48.91523" lon="2.37122">
        <ele>36.400001525879</ele>
        <time>2015-12-07T20:15:01Z</time>
      </trkpt>
      <trkpt lat="48.91525" lon="2.37138">
        <ele>37</ele>
        <time>2015-12-07T20:16:15Z</time>
      </trkpt>
      <trkpt lat="48.91526" lon="2.37166">
        <ele>38</ele>
        <time>2015-12-07T20:16:24Z</time>
      </trkpt>
      <trkpt lat="48.91527" lon="2.37194">
        <ele>38</ele>
        <time>2015-12-07T20:16:31Z</time>
      </trkpt>
      <trkpt lat="48.91526" lon="2.37225">
        <ele>38</ele>
        <time>2015-12-07T20:16:38Z</time>
      </trkpt>
      <trkpt lat="48.91525" lon="2.37257">
        <ele>38</ele>
        <time>2015-12-07T20:16:44Z</time>
      </trkpt>
      <trkpt lat="48.91525" lon="2.3729">
        <ele>37.599998474121</ele>
        <time>2015-12-07T20:16:49Z</time>
      </trkpt>
      <trkpt lat="48.91525" lon="2.37319">
        <ele>37.20000076294</ele>
        <time>2015-12-07T20:16:54Z</time>
      </trkpt>
      <trkpt lat="48.91526" lon="2.3735">
        <ele>37</ele>
        <time>2015-12-07T20:17:00Z</time>
      </trkpt>
      <trkpt lat="48.91526" lon="2.37381">
        <ele>37</ele>
        <time>2015-12-07T20:17:06Z</time>
      </trkpt>
      <trkpt lat="48.91526" lon="2.37411">
        <ele>37</ele>
        <time>2015-12-07T20:17:14Z</time>
      </trkpt>
      <trkpt lat="48.91525" lon="2.37439">
        <ele>37.20000076294</ele>
        <time>2015-12-07T20:17:20Z</time>
      </trkpt>
      <trkpt lat="48.91526" lon="2.37467">
        <ele>37.599998474121</ele>
        <time>2015-12-07T20:17:24Z</time>
      </trkpt>
      <trkpt lat="48.91526" lon="2.37484">
        <ele>37.79999923706</ele>
        <time>2015-12-07T20:17:26Z</time>
      </trkpt>
      <trkpt lat="48.91527" lon="2.37515">
        <ele>38</ele>
        <time>2015-12-07T20:17:30Z</time>
      </trkpt>
      <trkpt lat="48.91526" lon="2.37522">
        <ele>38</ele>
        <time>2015-12-07T20:17:31Z</time>
      </trkpt>
      <trkpt lat="48.91525" lon="2.37554">
        <ele>38</ele>
        <time>2015-12-07T20:17:35Z</time>
      </trkpt>
      <trkpt lat="48.91525" lon="2.37591">
        <ele>37.79999923706</ele>
        <time>2015-12-07T20:17:39Z</time>
      </trkpt>
      <trkpt lat="48.91525" lon="2.37608">
        <ele>37.400001525879</ele>
        <time>2015-12-07T20:17:41Z</time>
      </trkpt>
      <trkpt lat="48.91522" lon="2.37623">
        <ele>37</ele>
        <time>2015-12-07T20:17:43Z</time>
      </trkpt>
      <trkpt lat="48.91519" lon="2.37652">
        <ele>36.20000076294</ele>
        <time>2015-12-07T20:17:47Z</time>
      </trkpt>
      <trkpt lat="48.91519" lon="2.37665">
        <ele>36</ele>
        <time>2015-12-07T20:17:49Z</time>
      </trkpt>
      <trkpt lat="48.91526" lon="2.37687">
        <ele>36</ele>
        <time>2015-12-07T20:17:55Z</time>
      </trkpt>
      <trkpt lat="48.91528" lon="2.37689">
        <ele>36</ele>
        <time>2015-12-07T20:17:56Z</time>
      </trkpt>
      <trkpt lat="48.91543" lon="2.37701">
        <ele>36</ele>
        <time>2015-12-07T20:18:04Z</time>
      </trkpt>
      <trkpt lat="48.91546" lon="2.377">
        <ele>36</ele>
        <time>2015-12-07T20:18:05Z</time>
      </trkpt>
      <trkpt lat="48.91552" lon="2.37699">
        <ele>36</ele>
        <time>2015-12-07T20:18:10Z</time>
      </trkpt>
      <trkpt lat="48.91547" lon="2.37718">
        <ele>36</ele>
        <time>2015-12-07T20:18:36Z</time>
      </trkpt>
      <trkpt lat="48.91545" lon="2.37745">
        <ele>36</ele>
        <time>2015-12-07T20:18:42Z</time>
      </trkpt>
      <trkpt lat="48.91541" lon="2.37773">
        <ele>35.79999923706</ele>
        <time>2015-12-07T20:18:47Z</time>
      </trkpt>
      <trkpt lat="48.91537" lon="2.37804">
        <ele>35.79999923706</ele>
        <time>2015-12-07T20:18:52Z</time>
      </trkpt>
      <trkpt lat="48.91534" lon="2.37836">
        <ele>35.79999923706</ele>
        <time>2015-12-07T20:18:57Z</time>
      </trkpt>
      <trkpt lat="48.91525" lon="2.37864">
        <ele>36.400001525879</ele>
        <time>2015-12-07T20:19:02Z</time>
      </trkpt>
      <trkpt lat="48.9152" lon="2.37895">
        <ele>36.79999923706</ele>
        <time>2015-12-07T20:19:08Z</time>
      </trkpt>
      <trkpt lat="48.91514" lon="2.37926">
        <ele>37</ele>
        <time>2015-12-07T20:19:13Z</time>
      </trkpt>
      <trkpt lat="48.91508" lon="2.37954">
        <ele>37</ele>
        <time>2015-12-07T20:19:17Z</time>
      </trkpt>
      <trkpt lat="48.91501" lon="2.3798">
        <ele>37.20000076294</ele>
        <time>2015-12-07T20:19:21Z</time>
      </trkpt>
      <trkpt lat="48.91495" lon="2.38006">
        <ele>37.599998474121</ele>
        <time>2015-12-07T20:19:25Z</time>
      </trkpt>
      <trkpt lat="48.91492" lon="2.38032">
        <ele>37.79999923706</ele>
        <time>2015-12-07T20:19:29Z</time>
      </trkpt>
      <trkpt lat="48.91489" lon="2.38052">
        <ele>37.79999923706</ele>
        <time>2015-12-07T20:19:33Z</time>
      </trkpt>
      <trkpt lat="48.91484" lon="2.38077">
        <ele>38</ele>
        <time>2015-12-07T20:19:40Z</time>
      </trkpt>
      <trkpt lat="48.91481" lon="2.38098">
        <ele>38.599998474121</ele>
        <time>2015-12-07T20:19:46Z</time>
      </trkpt>
      <trkpt lat="48.91478" lon="2.38104">
        <ele>39</ele>
        <time>2015-12-07T20:19:50Z</time>
      </trkpt>
      <trkpt lat="48.91467" lon="2.38132">
        <ele>39.400001525879</ele>
        <time>2015-12-07T20:20:05Z</time>
      </trkpt>
      <trkpt lat="48.9145" lon="2.38153">
        <ele>39.20000076294</ele>
        <time>2015-12-07T20:20:10Z</time>
      </trkpt>
      <trkpt lat="48.91431" lon="2.3817">
        <ele>39.400001525879</ele>
        <time>2015-12-07T20:20:15Z</time>
      </trkpt>
      <trkpt lat="48.91414" lon="2.38184">
        <ele>40.400001525879</ele>
        <time>2015-12-07T20:20:19Z</time>
      </trkpt>
      <trkpt lat="48.91399" lon="2.38201">
        <ele>41.400001525879</ele>
        <time>2015-12-07T20:20:24Z</time>
      </trkpt>
      <trkpt lat="48.91392" lon="2.38225">
        <ele>41.599998474121</ele>
        <time>2015-12-07T20:20:29Z</time>
      </trkpt>
      <trkpt lat="48.91388" lon="2.38256">
        <ele>41.599998474121</ele>
        <time>2015-12-07T20:20:34Z</time>
      </trkpt>
      <trkpt lat="48.91384" lon="2.38287">
        <ele>41.599998474121</ele>
        <time>2015-12-07T20:20:39Z</time>
      </trkpt>
      <trkpt lat="48.91376" lon="2.38313">
        <ele>41.79999923706</ele>
        <time>2015-12-07T20:20:44Z</time>
      </trkpt>
      <trkpt lat="48.91369" lon="2.38346">
        <ele>41.599998474121</ele>
        <time>2015-12-07T20:20:49Z</time>
      </trkpt>
      <trkpt lat="48.91368" lon="2.38379">
        <ele>41.20000076294</ele>
        <time>2015-12-07T20:20:53Z</time>
      </trkpt>
      <trkpt lat="48.91372" lon="2.38414">
        <ele>40.79999923706</ele>
        <time>2015-12-07T20:20:57Z</time>
      </trkpt>
      <trkpt lat="48.91374" lon="2.38442">
        <ele>40.20000076294</ele>
        <time>2015-12-07T20:21:00Z</time>
      </trkpt>
      <trkpt lat="48.91374" lon="2.38458">
        <ele>40</ele>
        <time>2015-12-07T20:21:02Z</time>
      </trkpt>
      <trkpt lat="48.91372" lon="2.38492">
        <ele>39.79999923706</ele>
        <time>2015-12-07T20:21:06Z</time>
      </trkpt>
      <trkpt lat="48.9137" lon="2.38523">
        <ele>39.79999923706</ele>
        <time>2015-12-07T20:21:10Z</time>
      </trkpt>
      <trkpt lat="48.91369" lon="2.38541">
        <ele>39.400001525879</ele>
        <time>2015-12-07T20:21:13Z</time>
      </trkpt>
      <trkpt lat="48.91365" lon="2.38564">
        <ele>39.20000076294</ele>
        <time>2015-12-07T20:21:18Z</time>
      </trkpt>
      <trkpt lat="48.91357" lon="2.38593">
        <ele>38.79999923706</ele>
        <time>2015-12-07T20:21:23Z</time>
      </trkpt>
      <trkpt lat="48.91356" lon="2.386">
        <ele>38.79999923706</ele>
        <time>2015-12-07T20:21:24Z</time>
      </trkpt>
      <trkpt lat="48.91352" lon="2.3862">
        <ele>38.599998474121</ele>
        <time>2015-12-07T20:21:27Z</time>
      </trkpt>
      <trkpt lat="48.91348" lon="2.3864">
        <ele>38.20000076294</ele>
        <time>2015-12-07T20:21:30Z</time>
      </trkpt>
      <trkpt lat="48.9134" lon="2.38665">
        <ele>38.20000076294</ele>
        <time>2015-12-07T20:21:34Z</time>
      </trkpt>
      <trkpt lat="48.91337" lon="2.38681">
        <ele>38.20000076294</ele>
        <time>2015-12-07T20:21:36Z</time>
      </trkpt>
      <trkpt lat="48.91331" lon="2.38712">
        <ele>38.400001525879</ele>
        <time>2015-12-07T20:21:40Z</time>
      </trkpt>
      <trkpt lat="48.91326" lon="2.38742">
        <ele>38.400001525879</ele>
        <time>2015-12-07T20:21:44Z</time>
      </trkpt>
      <trkpt lat="48.91324" lon="2.38771">
        <ele>38.400001525879</ele>
        <time>2015-12-07T20:21:48Z</time>
      </trkpt>
      <trkpt lat="48.91324" lon="2.38791">
        <ele>38.400001525879</ele>
        <time>2015-12-07T20:21:51Z</time>
      </trkpt>
      <trkpt lat="48.91323" lon="2.38817">
        <ele>38.400001525879</ele>
        <time>2015-12-07T20:21:55Z</time>
      </trkpt>
      <trkpt lat="48.9132" lon="2.38847">
        <ele>38.79999923706</ele>
        <time>2015-12-07T20:22:00Z</time>
      </trkpt>
      <trkpt lat="48.91319" lon="2.38857">
        <ele>39</ele>
        <time>2015-12-07T20:22:02Z</time>
      </trkpt>
      <trkpt lat="48.91304" lon="2.3887">
        <ele>39.400001525879</ele>
        <time>2015-12-07T20:22:08Z</time>
      </trkpt>
      <trkpt lat="48.913" lon="2.38869">
        <ele>39.400001525879</ele>
        <time>2015-12-07T20:22:09Z</time>
      </trkpt>
      <trkpt lat="48.91291" lon="2.38869">
        <ele>39.20000076294</ele>
        <time>2015-12-07T20:22:11Z</time>
      </trkpt>
      <trkpt lat="48.91276" lon="2.38868">
        <ele>39</ele>
        <time>2015-12-07T20:22:14Z</time>
      </trkpt>
      <trkpt lat="48.91257" lon="2.38864">
        <ele>39.20000076294</ele>
        <time>2015-12-07T20:22:17Z</time>
      </trkpt>
      <trkpt lat="48.91236" lon="2.38859">
        <ele>39.400001525879</ele>
        <time>2015-12-07T20:22:20Z</time>
      </trkpt>
      <trkpt lat="48.91218" lon="2.38854">
        <ele>39.599998474121</ele>
        <time>2015-12-07T20:22:23Z</time>
      </trkpt>
      <trkpt lat="48.91199" lon="2.38848">
        <ele>39.79999923706</ele>
        <time>2015-12-07T20:22:26Z</time>
      </trkpt>
      <trkpt lat="48.91178" lon="2.38844">
        <ele>40</ele>
        <time>2015-12-07T20:22:29Z</time>
      </trkpt>
      <trkpt lat="48.91157" lon="2.38839">
        <ele>40</ele>
        <time>2015-12-07T20:22:32Z</time>
      </trkpt>
      <trkpt lat="48.91138" lon="2.38835">
        <ele>40</ele>
        <time>2015-12-07T20:22:35Z</time>
      </trkpt>
      <trkpt lat="48.91121" lon="2.38833">
        <ele>40</ele>
        <time>2015-12-07T20:22:38Z</time>
      </trkpt>
      <trkpt lat="48.91103" lon="2.38829">
        <ele>40</ele>
        <time>2015-12-07T20:22:42Z</time>
      </trkpt>
      <trkpt lat="48.91092" lon="2.38824">
        <ele>40.20000076294</ele>
        <time>2015-12-07T20:22:45Z</time>
      </trkpt>
      <trkpt lat="48.91074" lon="2.38816">
        <ele>40.400001525879</ele>
        <time>2015-12-07T20:22:50Z</time>
      </trkpt>
      <trkpt lat="48.91061" lon="2.38812">
        <ele>40.599998474121</ele>
        <time>2015-12-07T20:22:54Z</time>
      </trkpt>
      <trkpt lat="48.91046" lon="2.38811">
        <ele>41</ele>
        <time>2015-12-07T20:22:58Z</time>
      </trkpt>
      <trkpt lat="48.91038" lon="2.38811">
        <ele>41.20000076294</ele>
        <time>2015-12-07T20:23:00Z</time>
      </trkpt>
      <trkpt lat="48.91018" lon="2.38806">
        <ele>41.400001525879</ele>
        <time>2015-12-07T20:23:05Z</time>
      </trkpt>
      <trkpt lat="48.91001" lon="2.38806">
        <ele>41.599998474121</ele>
        <time>2015-12-07T20:23:09Z</time>
      </trkpt>
      <trkpt lat="48.90983" lon="2.38808">
        <ele>42</ele>
        <time>2015-12-07T20:23:13Z</time>
      </trkpt>
      <trkpt lat="48.90978" lon="2.38808">
        <ele>42</ele>
        <time>2015-12-07T20:23:14Z</time>
      </trkpt>
      <trkpt lat="48.90959" lon="2.3881">
        <ele>42.20000076294</ele>
        <time>2015-12-07T20:23:18Z</time>
      </trkpt>
      <trkpt lat="48.90941" lon="2.38812">
        <ele>42.599998474121</ele>
        <time>2015-12-07T20:23:24Z</time>
      </trkpt>
      <trkpt lat="48.90922" lon="2.38813">
        <ele>42.79999923706</ele>
        <time>2015-12-07T20:23:43Z</time>
      </trkpt>
      <trkpt lat="48.90901" lon="2.38812">
        <ele>43</ele>
        <time>2015-12-07T20:23:47Z</time>
      </trkpt>
      <trkpt lat="48.90878" lon="2.38812">
        <ele>43.20000076294</ele>
        <time>2015-12-07T20:23:51Z</time>
      </trkpt>
      <trkpt lat="48.90855" lon="2.3881">
        <ele>43.400001525879</ele>
        <time>2015-12-07T20:23:55Z</time>
      </trkpt>
      <trkpt lat="48.90834" lon="2.38809">
        <ele>43.20000076294</ele>
        <time>2015-12-07T20:23:59Z</time>
      </trkpt>
      <trkpt lat="48.90816" lon="2.38803">
        <ele>43</ele>
        <time>2015-12-07T20:24:04Z</time>
      </trkpt>
      <trkpt lat="48.90813" lon="2.38802">
        <ele>43</ele>
        <time>2015-12-07T20:24:05Z</time>
      </trkpt>
      <trkpt lat="48.90799" lon="2.38787">
        <ele>42.400001525879</ele>
        <time>2015-12-07T20:24:22Z</time>
      </trkpt>
      <trkpt lat="48.90782" lon="2.38794">
        <ele>42.599998474121</ele>
        <time>2015-12-07T20:24:32Z</time>
      </trkpt>
      <trkpt lat="48.90762" lon="2.38783">
        <ele>42.400001525879</ele>
        <time>2015-12-07T20:24:39Z</time>
      </trkpt>
      <trkpt lat="48.90742" lon="2.38782">
        <ele>42.599998474121</ele>
        <time>2015-12-07T20:24:44Z</time>
      </trkpt>
      <trkpt lat="48.90723" lon="2.3878">
        <ele>42.79999923706</ele>
        <time>2015-12-07T20:24:48Z</time>
      </trkpt>
      <trkpt lat="48.90702" lon="2.38774">
        <ele>42.20000076294</ele>
        <time>2015-12-07T20:24:53Z</time>
      </trkpt>
      <trkpt lat="48.90683" lon="2.38767">
        <ele>42.20000076294</ele>
        <time>2015-12-07T20:24:58Z</time>
      </trkpt>
      <trkpt lat="48.90663" lon="2.3876">
        <ele>43</ele>
        <time>2015-12-07T20:25:05Z</time>
      </trkpt>
      <trkpt lat="48.90643" lon="2.38755">
        <ele>43.79999923706</ele>
        <time>2015-12-07T20:25:11Z</time>
      </trkpt>
      <trkpt lat="48.90623" lon="2.38751">
        <ele>44.400001525879</ele>
        <time>2015-12-07T20:25:15Z</time>
      </trkpt>
      <trkpt lat="48.90604" lon="2.38746">
        <ele>45</ele>
        <time>2015-12-07T20:25:19Z</time>
      </trkpt>
      <trkpt lat="48.90583" lon="2.38744">
        <ele>44.599998474121</ele>
        <time>2015-12-07T20:25:23Z</time>
      </trkpt>
      <trkpt lat="48.90568" lon="2.38744">
        <ele>44.400001525879</ele>
        <time>2015-12-07T20:25:27Z</time>
      </trkpt>
      <trkpt lat="48.90552" lon="2.38738">
        <ele>44</ele>
        <time>2015-12-07T20:25:32Z</time>
      </trkpt>
      <trkpt lat="48.90533" lon="2.38728">
        <ele>43.599998474121</ele>
        <time>2015-12-07T20:25:35Z</time>
      </trkpt>
      <trkpt lat="48.90527" lon="2.38727">
        <ele>43.599998474121</ele>
        <time>2015-12-07T20:25:36Z</time>
      </trkpt>
      <trkpt lat="48.90514" lon="2.38725">
        <ele>43.599998474121</ele>
        <time>2015-12-07T20:25:39Z</time>
      </trkpt>
      <trkpt lat="48.90493" lon="2.3872">
        <ele>43.599998474121</ele>
        <time>2015-12-07T20:25:44Z</time>
      </trkpt>
      <trkpt lat="48.90484" lon="2.38717">
        <ele>43.79999923706</ele>
        <time>2015-12-07T20:25:46Z</time>
      </trkpt>
      <trkpt lat="48.90466" lon="2.38709">
        <ele>43.79999923706</ele>
        <time>2015-12-07T20:25:50Z</time>
      </trkpt>
      <trkpt lat="48.9045" lon="2.38704">
        <ele>43.79999923706</ele>
        <time>2015-12-07T20:25:54Z</time>
      </trkpt>
      <trkpt lat="48.90429" lon="2.38695">
        <ele>44.400001525879</ele>
        <time>2015-12-07T20:25:59Z</time>
      </trkpt>
      <trkpt lat="48.90409" lon="2.38688">
        <ele>45.400001525879</ele>
        <time>2015-12-07T20:26:04Z</time>
      </trkpt>
      <trkpt lat="48.90391" lon="2.38681">
        <ele>46.400001525879</ele>
        <time>2015-12-07T20:26:09Z</time>
      </trkpt>
      <trkpt lat="48.90385" lon="2.38677">
        <ele>46.599998474121</ele>
        <time>2015-12-07T20:26:11Z</time>
      </trkpt>
      <trkpt lat="48.90366" lon="2.38664">
        <ele>47.400001525879</ele>
        <time>2015-12-07T20:26:17Z</time>
      </trkpt>
      <trkpt lat="48.90362" lon="2.38659">
        <ele>47.400001525879</ele>
        <time>2015-12-07T20:26:20Z</time>
      </trkpt>
      <trkpt lat="48.90344" lon="2.3865">
        <ele>47.79999923706</ele>
        <time>2015-12-07T20:26:28Z</time>
      </trkpt>
      <trkpt lat="48.90327" lon="2.38638">
        <ele>48.20000076294</ele>
        <time>2015-12-07T20:26:32Z</time>
      </trkpt>
      <trkpt lat="48.90309" lon="2.38625">
        <ele>48.599998474121</ele>
        <time>2015-12-07T20:26:38Z</time>
      </trkpt>
      <trkpt lat="48.90291" lon="2.38614">
        <ele>49.400001525879</ele>
        <time>2015-12-07T20:26:43Z</time>
      </trkpt>
      <trkpt lat="48.90273" lon="2.38604">
        <ele>50.20000076294</ele>
        <time>2015-12-07T20:26:48Z</time>
      </trkpt>
      <trkpt lat="48.90254" lon="2.38591">
        <ele>49.20000076294</ele>
        <time>2015-12-07T20:26:55Z</time>
      </trkpt>
      <trkpt lat="48.90235" lon="2.3858">
        <ele>48.400001525879</ele>
        <time>2015-12-07T20:27:01Z</time>
      </trkpt>
      <trkpt lat="48.90216" lon="2.38579">
        <ele>48.599998474121</ele>
        <time>2015-12-07T20:27:07Z</time>
      </trkpt>
      <trkpt lat="48.90198" lon="2.3857">
        <ele>48.400001525879</ele>
        <time>2015-12-07T20:27:10Z</time>
      </trkpt>
      <trkpt lat="48.90182" lon="2.38556">
        <ele>48.20000076294</ele>
        <time>2015-12-07T20:27:13Z</time>
      </trkpt>
      <trkpt lat="48.90175" lon="2.3855">
        <ele>48.20000076294</ele>
        <time>2015-12-07T20:27:17Z</time>
      </trkpt>
      <trkpt lat="48.90169" lon="2.38546">
        <ele>48.20000076294</ele>
        <time>2015-12-07T20:27:25Z</time>
      </trkpt>
      <trkpt lat="48.90166" lon="2.38549">
        <ele>48.599998474121</ele>
        <time>2015-12-07T20:27:29Z</time>
      </trkpt>
      <trkpt lat="48.90173" lon="2.3853">
        <ele>47.400001525879</ele>
        <time>2015-12-07T20:28:03Z</time>
      </trkpt>
      <trkpt lat="48.90175" lon="2.38525">
        <ele>47</ele>
        <time>2015-12-07T20:28:06Z</time>
      </trkpt>
      <trkpt lat="48.90191" lon="2.38507">
        <ele>45.400001525879</ele>
        <time>2015-12-07T20:28:20Z</time>
      </trkpt>
      <trkpt lat="48.90207" lon="2.3849">
        <ele>45.400001525879</ele>
        <time>2015-12-07T20:28:28Z</time>
      </trkpt>
      <trkpt lat="48.90225" lon="2.38471">
        <ele>45.599998474121</ele>
        <time>2015-12-07T20:28:37Z</time>
      </trkpt>
      <trkpt lat="48.90241" lon="2.3845">
        <ele>45.400001525879</ele>
        <time>2015-12-07T20:28:43Z</time>
      </trkpt>
      <trkpt lat="48.90244" lon="2.38445">
        <ele>45.400001525879</ele>
        <time>2015-12-07T20:28:44Z</time>
      </trkpt>
      <trkpt lat="48.9026" lon="2.38427">
        <ele>45.20000076294</ele>
        <time>2015-12-07T20:28:48Z</time>
      </trkpt>
      <trkpt lat="48.90275" lon="2.38411">
        <ele>45</ele>
        <time>2015-12-07T20:28:51Z</time>
      </trkpt>
      <trkpt lat="48.90289" lon="2.38394">
        <ele>45</ele>
        <time>2015-12-07T20:28:54Z</time>
      </trkpt>
      <trkpt lat="48.90298" lon="2.38383">
        <ele>45.20000076294</ele>
        <time>2015-12-07T20:28:56Z</time>
      </trkpt>
      <trkpt lat="48.90312" lon="2.38362">
        <ele>45</ele>
        <time>2015-12-07T20:29:00Z</time>
      </trkpt>
      <trkpt lat="48.90328" lon="2.38342">
        <ele>44.599998474121</ele>
        <time>2015-12-07T20:29:04Z</time>
      </trkpt>
      <trkpt lat="48.90333" lon="2.38338">
        <ele>44.599998474121</ele>
        <time>2015-12-07T20:29:05Z</time>
      </trkpt>
      <trkpt lat="48.9035" lon="2.38321">
        <ele>44.599998474121</ele>
        <time>2015-12-07T20:29:09Z</time>
      </trkpt>
      <trkpt lat="48.90359" lon="2.38312">
        <ele>44.400001525879</ele>
        <time>2015-12-07T20:29:11Z</time>
      </trkpt>
      <trkpt lat="48.90377" lon="2.38291">
        <ele>43.599998474121</ele>
        <time>2015-12-07T20:29:15Z</time>
      </trkpt>
      <trkpt lat="48.90396" lon="2.38271">
        <ele>42.79999923706</ele>
        <time>2015-12-07T20:29:19Z</time>
      </trkpt>
      <trkpt lat="48.9041" lon="2.38257">
        <ele>42.400001525879</ele>
        <time>2015-12-07T20:29:22Z</time>
      </trkpt>
      <trkpt lat="48.90429" lon="2.38239">
        <ele>42.20000076294</ele>
        <time>2015-12-07T20:29:26Z</time>
      </trkpt>
      <trkpt lat="48.90446" lon="2.38221">
        <ele>42.400001525879</ele>
        <time>2015-12-07T20:29:30Z</time>
      </trkpt>
      <trkpt lat="48.90465" lon="2.38202">
        <ele>42.79999923706</ele>
        <time>2015-12-07T20:29:34Z</time>
      </trkpt>
      <trkpt lat="48.90469" lon="2.38197">
        <ele>43</ele>
        <time>2015-12-07T20:29:35Z</time>
      </trkpt>
      <trkpt lat="48.90486" lon="2.38178">
        <ele>43</ele>
        <time>2015-12-07T20:29:39Z</time>
      </trkpt>
      <trkpt lat="48.90503" lon="2.38159">
        <ele>43</ele>
        <time>2015-12-07T20:29:43Z</time>
      </trkpt>
      <trkpt lat="48.90512" lon="2.38151">
        <ele>42.79999923706</ele>
        <time>2015-12-07T20:29:45Z</time>
      </trkpt>
      <trkpt lat="48.9053" lon="2.38131">
        <ele>43.599998474121</ele>
        <time>2015-12-07T20:29:49Z</time>
      </trkpt>
      <trkpt lat="48.90547" lon="2.38115">
        <ele>44.400001525879</ele>
        <time>2015-12-07T20:29:52Z</time>
      </trkpt>
      <trkpt lat="48.90565" lon="2.38097">
        <ele>44.599998474121</ele>
        <time>2015-12-07T20:29:55Z</time>
      </trkpt>
      <trkpt lat="48.90583" lon="2.38076">
        <ele>44.599998474121</ele>
        <time>2015-12-07T20:29:58Z</time>
      </trkpt>
      <trkpt lat="48.90595" lon="2.38062">
        <ele>44.79999923706</ele>
        <time>2015-12-07T20:30:00Z</time>
      </trkpt>
      <trkpt lat="48.90608" lon="2.3805">
        <ele>45</ele>
        <time>2015-12-07T20:30:02Z</time>
      </trkpt>
      <trkpt lat="48.90621" lon="2.38038">
        <ele>45</ele>
        <time>2015-12-07T20:30:04Z</time>
      </trkpt>
      <trkpt lat="48.9064" lon="2.3802">
        <ele>44.79999923706</ele>
        <time>2015-12-07T20:30:07Z</time>
      </trkpt>
      <trkpt lat="48.90654" lon="2.38007">
        <ele>44.599998474121</ele>
        <time>2015-12-07T20:30:09Z</time>
      </trkpt>
      <trkpt lat="48.90674" lon="2.37988">
        <ele>44</ele>
        <time>2015-12-07T20:30:12Z</time>
      </trkpt>
      <trkpt lat="48.90694" lon="2.37968">
        <ele>44</ele>
        <time>2015-12-07T20:30:15Z</time>
      </trkpt>
      <trkpt lat="48.90713" lon="2.37949">
        <ele>44.20000076294</ele>
        <time>2015-12-07T20:30:18Z</time>
      </trkpt>
      <trkpt lat="48.90732" lon="2.37929">
        <ele>44.400001525879</ele>
        <time>2015-12-07T20:30:21Z</time>
      </trkpt>
      <trkpt lat="48.9075" lon="2.3791">
        <ele>44.599998474121</ele>
        <time>2015-12-07T20:30:24Z</time>
      </trkpt>
      <trkpt lat="48.90768" lon="2.37892">
        <ele>44.599998474121</ele>
        <time>2015-12-07T20:30:27Z</time>
      </trkpt>
      <trkpt lat="48.90784" lon="2.37876">
        <ele>44.400001525879</ele>
        <time>2015-12-07T20:30:30Z</time>
      </trkpt>
      <trkpt lat="48.90802" lon="2.37856">
        <ele>43.79999923706</ele>
        <time>2015-12-07T20:30:34Z</time>
      </trkpt>
      <trkpt lat="48.9082" lon="2.37838">
        <ele>44</ele>
        <time>2015-12-07T20:30:38Z</time>
      </trkpt>
      <trkpt lat="48.90835" lon="2.37823">
        <ele>43.79999923706</ele>
        <time>2015-12-07T20:30:42Z</time>
      </trkpt>
      <trkpt lat="48.90839" lon="2.3782">
        <ele>43.79999923706</ele>
        <time>2015-12-07T20:30:43Z</time>
      </trkpt>
      <trkpt lat="48.90847" lon="2.37816">
        <ele>43.79999923706</ele>
        <time>2015-12-07T20:30:45Z</time>
      </trkpt>
      <trkpt lat="48.90863" lon="2.37817">
        <ele>44</ele>
        <time>2015-12-07T20:30:49Z</time>
      </trkpt>
      <trkpt lat="48.90873" lon="2.37822">
        <ele>44</ele>
        <time>2015-12-07T20:30:52Z</time>
      </trkpt>
      <trkpt lat="48.90881" lon="2.37809">
        <ele>44</ele>
        <time>2015-12-07T20:31:26Z</time>
      </trkpt>
      <trkpt lat="48.90886" lon="2.37782">
        <ele>43.79999923706</ele>
        <time>2015-12-07T20:31:33Z</time>
      </trkpt>
      <trkpt lat="48.9089" lon="2.37775">
        <ele>43.599998474121</ele>
        <time>2015-12-07T20:31:35Z</time>
      </trkpt>
      <trkpt lat="48.90905" lon="2.3776">
        <ele>42.400001525879</ele>
        <time>2015-12-07T20:31:40Z</time>
      </trkpt>
      <trkpt lat="48.90925" lon="2.37743">
        <ele>41.400001525879</ele>
        <time>2015-12-07T20:31:45Z</time>
      </trkpt>
      <trkpt lat="48.90942" lon="2.37725">
        <ele>40.79999923706</ele>
        <time>2015-12-07T20:31:49Z</time>
      </trkpt>
      <trkpt lat="48.90961" lon="2.37703">
        <ele>41</ele>
        <time>2015-12-07T20:31:53Z</time>
      </trkpt>
      <trkpt lat="48.9098" lon="2.37683">
        <ele>40.599998474121</ele>
        <time>2015-12-07T20:31:56Z</time>
      </trkpt>
      <trkpt lat="48.91002" lon="2.37664">
        <ele>40</ele>
        <time>2015-12-07T20:31:59Z</time>
      </trkpt>
      <trkpt lat="48.91024" lon="2.37642">
        <ele>39.400001525879</ele>
        <time>2015-12-07T20:32:02Z</time>
      </trkpt>
      <trkpt lat="48.91047" lon="2.37621">
        <ele>39.20000076294</ele>
        <time>2015-12-07T20:32:05Z</time>
      </trkpt>
      <trkpt lat="48.91064" lon="2.37608">
        <ele>39.20000076294</ele>
        <time>2015-12-07T20:32:07Z</time>
      </trkpt>
      <trkpt lat="48.91081" lon="2.37594">
        <ele>39.599998474121</ele>
        <time>2015-12-07T20:32:09Z</time>
      </trkpt>
      <trkpt lat="48.91097" lon="2.37579">
        <ele>39.79999923706</ele>
        <time>2015-12-07T20:32:11Z</time>
      </trkpt>
      <trkpt lat="48.9112" lon="2.37557">
        <ele>39.599998474121</ele>
        <time>2015-12-07T20:32:14Z</time>
      </trkpt>
      <trkpt lat="48.91144" lon="2.37537">
        <ele>39.400001525879</ele>
        <time>2015-12-07T20:32:17Z</time>
      </trkpt>
      <trkpt lat="48.91168" lon="2.3752">
        <ele>40.20000076294</ele>
        <time>2015-12-07T20:32:20Z</time>
      </trkpt>
      <trkpt lat="48.91189" lon="2.37502">
        <ele>41</ele>
        <time>2015-12-07T20:32:23Z</time>
      </trkpt>
      <trkpt lat="48.91213" lon="2.37485">
        <ele>40.400001525879</ele>
        <time>2015-12-07T20:32:26Z</time>
      </trkpt>
      <trkpt lat="48.9123" lon="2.37474">
        <ele>39.79999923706</ele>
        <time>2015-12-07T20:32:28Z</time>
      </trkpt>
      <trkpt lat="48.91246" lon="2.37464">
        <ele>39.400001525879</ele>
        <time>2015-12-07T20:32:30Z</time>
      </trkpt>
      <trkpt lat="48.91266" lon="2.37451">
        <ele>38.79999923706</ele>
        <time>2015-12-07T20:32:33Z</time>
      </trkpt>
      <trkpt lat="48.91271" lon="2.37447">
        <ele>38.79999923706</ele>
        <time>2015-12-07T20:32:34Z</time>
      </trkpt>
      <trkpt lat="48.91291" lon="2.37431">
        <ele>38.599998474121</ele>
        <time>2015-12-07T20:32:38Z</time>
      </trkpt>
      <trkpt lat="48.91312" lon="2.37417">
        <ele>38.599998474121</ele>
        <time>2015-12-07T20:32:42Z</time>
      </trkpt>
      <trkpt lat="48.91331" lon="2.37403">
        <ele>38.400001525879</ele>
        <time>2015-12-07T20:32:46Z</time>
      </trkpt>
      <trkpt lat="48.91349" lon="2.37391">
        <ele>38.20000076294</ele>
        <time>2015-12-07T20:32:50Z</time>
      </trkpt>
      <trkpt lat="48.91369" lon="2.37379">
        <ele>38.20000076294</ele>
        <time>2015-12-07T20:32:55Z</time>
      </trkpt>
      <trkpt lat="48.91377" lon="2.37376">
        <ele>38.20000076294</ele>
        <time>2015-12-07T20:32:57Z</time>
      </trkpt>
      <trkpt lat="48.91387" lon="2.37373">
        <ele>38.400001525879</ele>
        <time>2015-12-07T20:33:00Z</time>
      </trkpt>
      <trkpt lat="48.91405" lon="2.37377">
        <ele>38.599998474121</ele>
        <time>2015-12-07T20:33:05Z</time>
      </trkpt>
      <trkpt lat="48.91426" lon="2.3738">
        <ele>38.79999923706</ele>
        <time>2015-12-07T20:33:10Z</time>
      </trkpt>
      <trkpt lat="48.91434" lon="2.37382">
        <ele>39</ele>
        <time>2015-12-07T20:33:12Z</time>
      </trkpt>
      <trkpt lat="48.91443" lon="2.37383">
        <ele>39</ele>
        <time>2015-12-07T20:33:14Z</time>
      </trkpt>
      <trkpt lat="48.91458" lon="2.37384">
        <ele>38.599998474121</ele>
        <time>2015-12-07T20:33:17Z</time>
      </trkpt>
      <trkpt lat="48.91477" lon="2.37387">
        <ele>38.20000076294</ele>
        <time>2015-12-07T20:33:21Z</time>
      </trkpt>
      <trkpt lat="48.91495" lon="2.3739">
        <ele>37.599998474121</ele>
        <time>2015-12-07T20:33:25Z</time>
      </trkpt>
      <trkpt lat="48.91514" lon="2.37398">
        <ele>37.20000076294</ele>
        <time>2015-12-07T20:33:31Z</time>
      </trkpt>
      <trkpt lat="48.91528" lon="2.37412">
        <ele>37</ele>
        <time>2015-12-07T20:34:12Z</time>
      </trkpt>
      <trkpt lat="48.91546" lon="2.37416">
        <ele>37</ele>
        <time>2015-12-07T20:34:18Z</time>
      </trkpt>
      <trkpt lat="48.91566" lon="2.37422">
        <ele>37</ele>
        <time>2015-12-07T20:34:24Z</time>
      </trkpt>
      <trkpt lat="48.91583" lon="2.37434">
        <ele>37</ele>
        <time>2015-12-07T20:34:29Z</time>
      </trkpt>
      <trkpt lat="48.916" lon="2.37449">
        <ele>37</ele>
        <time>2015-12-07T20:34:34Z</time>
      </trkpt>
      <trkpt lat="48.91616" lon="2.37465">
        <ele>37</ele>
        <time>2015-12-07T20:34:38Z</time>
      </trkpt>
      <trkpt lat="48.91631" lon="2.37486">
        <ele>37</ele>
        <time>2015-12-07T20:34:43Z</time>
      </trkpt>
      <trkpt lat="48.91649" lon="2.37496">
        <ele>37</ele>
        <time>2015-12-07T20:34:49Z</time>
      </trkpt>
      <trkpt lat="48.91668" lon="2.37495">
        <ele>37</ele>
        <time>2015-12-07T20:34:54Z</time>
      </trkpt>
      <trkpt lat="48.91688" lon="2.37494">
        <ele>37</ele>
        <time>2015-12-07T20:34:59Z</time>
      </trkpt>
      <trkpt lat="48.91708" lon="2.37492">
        <ele>37</ele>
        <time>2015-12-07T20:35:04Z</time>
      </trkpt>
      <trkpt lat="48.91729" lon="2.37485">
        <ele>37</ele>
        <time>2015-12-07T20:35:08Z</time>
      </trkpt>
      <trkpt lat="48.9175" lon="2.37481">
        <ele>37</ele>
        <time>2015-12-07T20:35:12Z</time>
      </trkpt>
      <trkpt lat="48.91757" lon="2.37479">
        <ele>37</ele>
        <time>2015-12-07T20:35:14Z</time>
      </trkpt>
      <trkpt lat="48.91777" lon="2.37476">
        <ele>36.400001525879</ele>
        <time>2015-12-07T20:35:19Z</time>
      </trkpt>
      <trkpt lat="48.91782" lon="2.37474">
        <ele>36.400001525879</ele>
        <time>2015-12-07T20:35:21Z</time>
      </trkpt>
      <trkpt lat="48.91792" lon="2.37471">
        <ele>36.400001525879</ele>
        <time>2015-12-07T20:35:24Z</time>
      </trkpt>
      <trkpt lat="48.91804" lon="2.37466">
        <ele>36.20000076294</ele>
        <time>2015-12-07T20:35:28Z</time>
      </trkpt>
      <trkpt lat="48.91821" lon="2.37458">
        <ele>36</ele>
        <time>2015-12-07T20:35:33Z</time>
      </trkpt>
      <trkpt lat="48.9184" lon="2.37454">
        <ele>36.20000076294</ele>
        <time>2015-12-07T20:35:38Z</time>
      </trkpt>
      <trkpt lat="48.91859" lon="2.37449">
        <ele>36.400001525879</ele>
        <time>2015-12-07T20:35:43Z</time>
      </trkpt>
      <trkpt lat="48.91877" lon="2.37442">
        <ele>36</ele>
        <time>2015-12-07T20:35:48Z</time>
      </trkpt>
      <trkpt lat="48.91895" lon="2.37424">
        <ele>35.599998474121</ele>
        <time>2015-12-07T20:35:54Z</time>
      </trkpt>
      <trkpt lat="48.91911" lon="2.37401">
        <ele>35.400001525879</ele>
        <time>2015-12-07T20:35:59Z</time>
      </trkpt>
      <trkpt lat="48.91926" lon="2.37381">
        <ele>35.400001525879</ele>
        <time>2015-12-07T20:36:04Z</time>
      </trkpt>
      <trkpt lat="48.91943" lon="2.37358">
        <ele>35.599998474121</ele>
        <time>2015-12-07T20:36:09Z</time>
      </trkpt>
      <trkpt lat="48.91959" lon="2.37335">
        <ele>35.79999923706</ele>
        <time>2015-12-07T20:36:14Z</time>
      </trkpt>
      <trkpt lat="48.91973" lon="2.37314">
        <ele>35.599998474121</ele>
        <time>2015-12-07T20:36:18Z</time>
      </trkpt>
      <trkpt lat="48.91976" lon="2.37309">
        <ele>35.599998474121</ele>
        <time>2015-12-07T20:36:19Z</time>
      </trkpt>
      <trkpt lat="48.9199" lon="2.37283">
        <ele>35.20000076294</ele>
        <time>2015-12-07T20:36:23Z</time>
      </trkpt>
      <trkpt lat="48.92003" lon="2.37258">
        <ele>34.599998474121</ele>
        <time>2015-12-07T20:36:27Z</time>
      </trkpt>
      <trkpt lat="48.92013" lon="2.3724">
        <ele>34.400001525879</ele>
        <time>2015-12-07T20:36:30Z</time>
      </trkpt>
      <trkpt lat="48.9203" lon="2.37231">
        <ele>34.400001525879</ele>
        <time>2015-12-07T20:36:34Z</time>
      </trkpt>
      <trkpt lat="48.92042" lon="2.3725">
        <ele>34.79999923706</ele>
        <time>2015-12-07T20:36:38Z</time>
      </trkpt>
      <trkpt lat="48.92049" lon="2.37265">
        <ele>34.79999923706</ele>
        <time>2015-12-07T20:36:41Z</time>
      </trkpt>
      <trkpt lat="48.92067" lon="2.37268">
        <ele>35.599998474121</ele>
        <time>2015-12-07T20:36:47Z</time>
      </trkpt>
      <trkpt lat="48.92069" lon="2.37265">
        <ele>35.79999923706</ele>
        <time>2015-12-07T20:36:48Z</time>
      </trkpt>
      <trkpt lat="48.92071" lon="2.37262">
        <ele>36</ele>
        <time>2015-12-07T20:36:49Z</time>
      </trkpt>
      <trkpt lat="48.92071" lon="2.37239">
        <ele>36.400001525879</ele>
        <time>2015-12-07T20:36:54Z</time>
      </trkpt>
      <trkpt lat="48.92059" lon="2.37225">
        <ele>36</ele>
        <time>2015-12-07T20:37:01Z</time>
      </trkpt>
      <trkpt lat="48.92048" lon="2.37237">
        <ele>35.400001525879</ele>
        <time>2015-12-07T20:37:10Z</time>
      </trkpt>
      <trkpt lat="48.92049" lon="2.37257">
        <ele>35</ele>
        <time>2015-12-07T20:37:17Z</time>
      </trkpt>
      <trkpt lat="48.92063" lon="2.37272">
        <ele>35.400001525879</ele>
        <time>2015-12-07T20:37:28Z</time>
      </trkpt>
      <trkpt lat="48.92067" lon="2.37272">
        <ele>35.400001525879</ele>
        <time>2015-12-07T20:37:33Z</time>
      </trkpt>
      <trkpt lat="48.92062" lon="2.37298">
        <ele>35</ele>
        <time>2015-12-07T20:38:43Z</time>
      </trkpt>
      <trkpt lat="48.92066" lon="2.37327">
        <ele>35.400001525879</ele>
        <time>2015-12-07T20:38:49Z</time>
      </trkpt>
      <trkpt lat="48.92068" lon="2.3736">
        <ele>36.20000076294</ele>
        <time>2015-12-07T20:38:55Z</time>
      </trkpt>
      <trkpt lat="48.92074" lon="2.37387">
        <ele>36.79999923706</ele>
        <time>2015-12-07T20:38:59Z</time>
      </trkpt>
      <trkpt lat="48.92081" lon="2.37417">
        <ele>36.79999923706</ele>
        <time>2015-12-07T20:39:04Z</time>
      </trkpt>
      <trkpt lat="48.92087" lon="2.37445">
        <ele>37</ele>
        <time>2015-12-07T20:39:09Z</time>
      </trkpt>
      <trkpt lat="48.92092" lon="2.37474">
        <ele>37.20000076294</ele>
        <time>2015-12-07T20:39:14Z</time>
      </trkpt>
      <trkpt lat="48.92097" lon="2.37501">
        <ele>37.79999923706</ele>
        <time>2015-12-07T20:39:19Z</time>
      </trkpt>
      <trkpt lat="48.92104" lon="2.37527">
        <ele>37.599998474121</ele>
        <time>2015-12-07T20:39:24Z</time>
      </trkpt>
      <trkpt lat="48.92115" lon="2.3755">
        <ele>37.599998474121</ele>
        <time>2015-12-07T20:39:32Z</time>
      </trkpt>
      <trkpt lat="48.92119" lon="2.37577">
        <ele>37.400001525879</ele>
        <time>2015-12-07T20:39:43Z</time>
      </trkpt>
      <trkpt lat="48.92126" lon="2.37604">
        <ele>37.20000076294</ele>
        <time>2015-12-07T20:39:52Z</time>
      </trkpt>
      <trkpt lat="48.92128" lon="2.37633">
        <ele>36.599998474121</ele>
        <time>2015-12-07T20:39:58Z</time>
      </trkpt>
      <trkpt lat="48.92126" lon="2.37663">
        <ele>35.79999923706</ele>
        <time>2015-12-07T20:40:03Z</time>
      </trkpt>
      <trkpt lat="48.92113" lon="2.3769">
        <ele>35</ele>
        <time>2015-12-07T20:40:08Z</time>
      </trkpt>
      <trkpt lat="48.921" lon="2.37709">
        <ele>34.599998474121</ele>
        <time>2015-12-07T20:40:12Z</time>
      </trkpt>
      <trkpt lat="48.92084" lon="2.37725">
        <ele>34.599998474121</ele>
        <time>2015-12-07T20:40:16Z</time>
      </trkpt>
      <trkpt lat="48.92066" lon="2.37737">
        <ele>34.599998474121</ele>
        <time>2015-12-07T20:40:20Z</time>
      </trkpt>
      <trkpt lat="48.92048" lon="2.37749">
        <ele>34.79999923706</ele>
        <time>2015-12-07T20:40:24Z</time>
      </trkpt>
      <trkpt lat="48.9203" lon="2.37759">
        <ele>35</ele>
        <time>2015-12-07T20:40:28Z</time>
      </trkpt>
      <trkpt lat="48.92012" lon="2.37771">
        <ele>34.79999923706</ele>
        <time>2015-12-07T20:40:32Z</time>
      </trkpt>
      <trkpt lat="48.91994" lon="2.37785">
        <ele>34.599998474121</ele>
        <time>2015-12-07T20:40:36Z</time>
      </trkpt>
      <trkpt lat="48.91974" lon="2.37799">
        <ele>35</ele>
        <time>2015-12-07T20:40:40Z</time>
      </trkpt>
      <trkpt lat="48.91958" lon="2.37814">
        <ele>36</ele>
        <time>2015-12-07T20:40:44Z</time>
      </trkpt>
      <trkpt lat="48.9194" lon="2.37829">
        <ele>37</ele>
        <time>2015-12-07T20:40:48Z</time>
      </trkpt>
      <trkpt lat="48.9192" lon="2.37843">
        <ele>36.599998474121</ele>
        <time>2015-12-07T20:40:52Z</time>
      </trkpt>
      <trkpt lat="48.91899" lon="2.37856">
        <ele>36.20000076294</ele>
        <time>2015-12-07T20:40:56Z</time>
      </trkpt>
      <trkpt lat="48.91879" lon="2.37871">
        <ele>36</ele>
        <time>2015-12-07T20:41:00Z</time>
      </trkpt>
      <trkpt lat="48.9186" lon="2.37885">
        <ele>36</ele>
        <time>2015-12-07T20:41:04Z</time>
      </trkpt>
      <trkpt lat="48.91849" lon="2.37892">
        <ele>36</ele>
        <time>2015-12-07T20:41:06Z</time>
      </trkpt>
      <trkpt lat="48.91828" lon="2.37906">
        <ele>36</ele>
        <time>2015-12-07T20:41:10Z</time>
      </trkpt>
      <trkpt lat="48.91822" lon="2.3791">
        <ele>36</ele>
        <time>2015-12-07T20:41:11Z</time>
      </trkpt>
      <trkpt lat="48.91805" lon="2.3792">
        <ele>36</ele>
        <time>2015-12-07T20:41:14Z</time>
      </trkpt>
      <trkpt lat="48.91787" lon="2.37931">
        <ele>36</ele>
        <time>2015-12-07T20:41:17Z</time>
      </trkpt>
      <trkpt lat="48.91768" lon="2.37943">
        <ele>35.79999923706</ele>
        <time>2015-12-07T20:41:20Z</time>
      </trkpt>
      <trkpt lat="48.9175" lon="2.37954">
        <ele>35.400001525879</ele>
        <time>2015-12-07T20:41:23Z</time>
      </trkpt>
      <trkpt lat="48.91731" lon="2.37966">
        <ele>35.20000076294</ele>
        <time>2015-12-07T20:41:26Z</time>
      </trkpt>
      <trkpt lat="48.91713" lon="2.37978">
        <ele>35</ele>
        <time>2015-12-07T20:41:29Z</time>
      </trkpt>
      <trkpt lat="48.91701" lon="2.37986">
        <ele>35</ele>
        <time>2015-12-07T20:41:31Z</time>
      </trkpt>
      <trkpt lat="48.91684" lon="2.38">
        <ele>35</ele>
        <time>2015-12-07T20:41:34Z</time>
      </trkpt>
      <trkpt lat="48.91664" lon="2.38011">
        <ele>35.400001525879</ele>
        <time>2015-12-07T20:41:37Z</time>
      </trkpt>
      <trkpt lat="48.91646" lon="2.38023">
        <ele>35.79999923706</ele>
        <time>2015-12-07T20:41:40Z</time>
      </trkpt>
      <trkpt lat="48.91627" lon="2.38036">
        <ele>36</ele>
        <time>2015-12-07T20:41:43Z</time>
      </trkpt>
      <trkpt lat="48.91609" lon="2.38054">
        <ele>36</ele>
        <time>2015-12-07T20:41:46Z</time>
      </trkpt>
      <trkpt lat="48.91591" lon="2.38068">
        <ele>36.20000076294</ele>
        <time>2015-12-07T20:41:49Z</time>
      </trkpt>
      <trkpt lat="48.91567" lon="2.38081">
        <ele>36.400001525879</ele>
        <time>2015-12-07T20:41:52Z</time>
      </trkpt>
      <trkpt lat="48.91546" lon="2.38096">
        <ele>37</ele>
        <time>2015-12-07T20:41:55Z</time>
      </trkpt>
      <trkpt lat="48.91539" lon="2.381">
        <ele>37</ele>
        <time>2015-12-07T20:41:56Z</time>
      </trkpt>
      <trkpt lat="48.91522" lon="2.3811">
        <ele>38</ele>
        <time>2015-12-07T20:41:59Z</time>
      </trkpt>
      <trkpt lat="48.915" lon="2.38117">
        <ele>38.79999923706</ele>
        <time>2015-12-07T20:42:03Z</time>
      </trkpt>
      <trkpt lat="48.91487" lon="2.38124">
        <ele>39.400001525879</ele>
        <time>2015-12-07T20:42:06Z</time>
      </trkpt>
      <trkpt lat="48.91481" lon="2.38128">
        <ele>39.400001525879</ele>
        <time>2015-12-07T20:42:08Z</time>
      </trkpt>
      <trkpt lat="48.9147" lon="2.38143">
        <ele>39.400001525879</ele>
        <time>2015-12-07T20:42:15Z</time>
      </trkpt>
      <trkpt lat="48.91467" lon="2.38152">
        <ele>39.400001525879</ele>
        <time>2015-12-07T20:42:19Z</time>
      </trkpt>
      <trkpt lat="48.91454" lon="2.38168">
        <ele>39.20000076294</ele>
        <time>2015-12-07T20:42:27Z</time>
      </trkpt>
      <trkpt lat="48.91438" lon="2.38186">
        <ele>39.599998474121</ele>
        <time>2015-12-07T20:42:33Z</time>
      </trkpt>
      <trkpt lat="48.91421" lon="2.38201">
        <ele>40.599998474121</ele>
        <time>2015-12-07T20:42:39Z</time>
      </trkpt>
      <trkpt lat="48.91405" lon="2.38216">
        <ele>41.400001525879</ele>
        <time>2015-12-07T20:42:44Z</time>
      </trkpt>
      <trkpt lat="48.91389" lon="2.38231">
        <ele>41.599998474121</ele>
        <time>2015-12-07T20:42:49Z</time>
      </trkpt>
      <trkpt lat="48.91374" lon="2.38251">
        <ele>41.79999923706</ele>
        <time>2015-12-07T20:42:54Z</time>
      </trkpt>
      <trkpt lat="48.91358" lon="2.38271">
        <ele>42</ele>
        <time>2015-12-07T20:43:00Z</time>
      </trkpt>
      <trkpt lat="48.91339" lon="2.3829">
        <ele>42.400001525879</ele>
        <time>2015-12-07T20:43:05Z</time>
      </trkpt>
      <trkpt lat="48.91319" lon="2.38307">
        <ele>42.599998474121</ele>
        <time>2015-12-07T20:43:09Z</time>
      </trkpt>
      <trkpt lat="48.91298" lon="2.38316">
        <ele>42.400001525879</ele>
        <time>2015-12-07T20:43:12Z</time>
      </trkpt>
      <trkpt lat="48.91281" lon="2.38331">
        <ele>42</ele>
        <time>2015-12-07T20:43:16Z</time>
      </trkpt>
      <trkpt lat="48.91271" lon="2.38338">
        <ele>42</ele>
        <time>2015-12-07T20:43:20Z</time>
      </trkpt>
      <trkpt lat="48.9126" lon="2.38343">
        <ele>41.79999923706</ele>
        <time>2015-12-07T20:43:24Z</time>
      </trkpt>
      <trkpt lat="48.91244" lon="2.38356">
        <ele>41.79999923706</ele>
        <time>2015-12-07T20:43:29Z</time>
      </trkpt>
      <trkpt lat="48.91241" lon="2.3836">
        <ele>41.599998474121</ele>
        <time>2015-12-07T20:43:30Z</time>
      </trkpt>
      <trkpt lat="48.91226" lon="2.38376">
        <ele>41.400001525879</ele>
        <time>2015-12-07T20:43:34Z</time>
      </trkpt>
      <trkpt lat="48.91208" lon="2.38394">
        <ele>41.20000076294</ele>
        <time>2015-12-07T20:43:38Z</time>
      </trkpt>
      <trkpt lat="48.91192" lon="2.38412">
        <ele>41</ele>
        <time>2015-12-07T20:43:42Z</time>
      </trkpt>
      <trkpt lat="48.91173" lon="2.38431">
        <ele>41</ele>
        <time>2015-12-07T20:43:46Z</time>
      </trkpt>
      <trkpt lat="48.91154" lon="2.3845">
        <ele>41</ele>
        <time>2015-12-07T20:43:50Z</time>
      </trkpt>
      <trkpt lat="48.91137" lon="2.38469">
        <ele>41</ele>
        <time>2015-12-07T20:43:54Z</time>
      </trkpt>
      <trkpt lat="48.9112" lon="2.38487">
        <ele>41</ele>
        <time>2015-12-07T20:43:58Z</time>
      </trkpt>
      <trkpt lat="48.91103" lon="2.38505">
        <ele>41.400001525879</ele>
        <time>2015-12-07T20:44:03Z</time>
      </trkpt>
      <trkpt lat="48.91097" lon="2.38511">
        <ele>41.599998474121</ele>
        <time>2015-12-07T20:44:05Z</time>
      </trkpt>
      <trkpt lat="48.9108" lon="2.38522">
        <ele>42.599998474121</ele>
        <time>2015-12-07T20:44:12Z</time>
      </trkpt>
      <trkpt lat="48.91062" lon="2.38522">
        <ele>43</ele>
        <time>2015-12-07T20:44:38Z</time>
      </trkpt>
      <trkpt lat="48.9105" lon="2.38532">
        <ele>43.20000076294</ele>
        <time>2015-12-07T20:44:56Z</time>
      </trkpt>
      <trkpt lat="48.91034" lon="2.38553">
        <ele>42.599998474121</ele>
        <time>2015-12-07T20:45:03Z</time>
      </trkpt>
      <trkpt lat="48.9102" lon="2.3857">
        <ele>42</ele>
        <time>2015-12-07T20:45:08Z</time>
      </trkpt>
      <trkpt lat="48.91002" lon="2.38589">
        <ele>42</ele>
        <time>2015-12-07T20:45:13Z</time>
      </trkpt>
      <trkpt lat="48.90987" lon="2.38604">
        <ele>41.79999923706</ele>
        <time>2015-12-07T20:45:17Z</time>
      </trkpt>
      <trkpt lat="48.9097" lon="2.38622">
        <ele>41.599998474121</ele>
        <time>2015-12-07T20:45:21Z</time>
      </trkpt>
      <trkpt lat="48.90953" lon="2.38639">
        <ele>41.79999923706</ele>
        <time>2015-12-07T20:45:25Z</time>
      </trkpt>
      <trkpt lat="48.90937" lon="2.38655">
        <ele>42.400001525879</ele>
        <time>2015-12-07T20:45:29Z</time>
      </trkpt>
      <trkpt lat="48.90922" lon="2.38673">
        <ele>42.599998474121</ele>
        <time>2015-12-07T20:45:33Z</time>
      </trkpt>
      <trkpt lat="48.90905" lon="2.38691">
        <ele>43</ele>
        <time>2015-12-07T20:45:37Z</time>
      </trkpt>
      <trkpt lat="48.90885" lon="2.3871">
        <ele>43</ele>
        <time>2015-12-07T20:45:41Z</time>
      </trkpt>
      <trkpt lat="48.90867" lon="2.38727">
        <ele>42.599998474121</ele>
        <time>2015-12-07T20:45:45Z</time>
      </trkpt>
      <trkpt lat="48.90863" lon="2.38732">
        <ele>42.599998474121</ele>
        <time>2015-12-07T20:45:46Z</time>
      </trkpt>
      <trkpt lat="48.90854" lon="2.38741">
        <ele>42</ele>
        <time>2015-12-07T20:45:48Z</time>
      </trkpt>
      <trkpt lat="48.90842" lon="2.3875">
        <ele>41.79999923706</ele>
        <time>2015-12-07T20:45:51Z</time>
      </trkpt>
      <trkpt lat="48.90827" lon="2.38767">
        <ele>42</ele>
        <time>2015-12-07T20:45:55Z</time>
      </trkpt>
      <trkpt lat="48.9081" lon="2.38783">
        <ele>42.20000076294</ele>
        <time>2015-12-07T20:45:59Z</time>
      </trkpt>
      <trkpt lat="48.90795" lon="2.38798">
        <ele>42.79999923706</ele>
        <time>2015-12-07T20:46:03Z</time>
      </trkpt>
      <trkpt lat="48.9078" lon="2.38814">
        <ele>43.400001525879</ele>
        <time>2015-12-07T20:46:07Z</time>
      </trkpt>
      <trkpt lat="48.90762" lon="2.38826">
        <ele>43.79999923706</ele>
        <time>2015-12-07T20:46:12Z</time>
      </trkpt>
      <trkpt lat="48.9076" lon="2.38828">
        <ele>43.599998474121</ele>
        <time>2015-12-07T20:46:13Z</time>
      </trkpt>
      <trkpt lat="48.90746" lon="2.38846">
        <ele>43.599998474121</ele>
        <time>2015-12-07T20:46:18Z</time>
      </trkpt>
      <trkpt lat="48.90742" lon="2.3885">
        <ele>43.599998474121</ele>
        <time>2015-12-07T20:46:19Z</time>
      </trkpt>
      <trkpt lat="48.90732" lon="2.38857">
        <ele>43.599998474121</ele>
        <time>2015-12-07T20:46:21Z</time>
      </trkpt>
      <trkpt lat="48.90717" lon="2.38879">
        <ele>43.79999923706</ele>
        <time>2015-12-07T20:46:25Z</time>
      </trkpt>
      <trkpt lat="48.90712" lon="2.38883">
        <ele>43.79999923706</ele>
        <time>2015-12-07T20:46:26Z</time>
      </trkpt>
      <trkpt lat="48.90694" lon="2.389">
        <ele>43.79999923706</ele>
        <time>2015-12-07T20:46:30Z</time>
      </trkpt>
      <trkpt lat="48.90676" lon="2.38918">
        <ele>44</ele>
        <time>2015-12-07T20:46:34Z</time>
      </trkpt>
      <trkpt lat="48.90662" lon="2.38935">
        <ele>44.20000076294</ele>
        <time>2015-12-07T20:46:38Z</time>
      </trkpt>
      <trkpt lat="48.90645" lon="2.38954">
        <ele>44.400001525879</ele>
        <time>2015-12-07T20:46:43Z</time>
      </trkpt>
      <trkpt lat="48.9063" lon="2.38966">
        <ele>44.20000076294</ele>
        <time>2015-12-07T20:46:47Z</time>
      </trkpt>
      <trkpt lat="48.90611" lon="2.38981">
        <ele>44</ele>
        <time>2015-12-07T20:46:52Z</time>
      </trkpt>
      <trkpt lat="48.90597" lon="2.38992">
        <ele>44.400001525879</ele>
        <time>2015-12-07T20:46:55Z</time>
      </trkpt>
      <trkpt lat="48.90581" lon="2.39007">
        <ele>45</ele>
        <time>2015-12-07T20:46:59Z</time>
      </trkpt>
      <trkpt lat="48.90568" lon="2.39019">
        <ele>45.599998474121</ele>
        <time>2015-12-07T20:47:02Z</time>
      </trkpt>
      <trkpt lat="48.90552" lon="2.39034">
        <ele>46.20000076294</ele>
        <time>2015-12-07T20:47:06Z</time>
      </trkpt>
      <trkpt lat="48.90537" lon="2.39046">
        <ele>45.79999923706</ele>
        <time>2015-12-07T20:47:10Z</time>
      </trkpt>
      <trkpt lat="48.90523" lon="2.3906">
        <ele>45.599998474121</ele>
        <time>2015-12-07T20:47:14Z</time>
      </trkpt>
      <trkpt lat="48.90519" lon="2.39063">
        <ele>45.400001525879</ele>
        <time>2015-12-07T20:47:15Z</time>
      </trkpt>
      <trkpt lat="48.90504" lon="2.39078">
        <ele>45.599998474121</ele>
        <time>2015-12-07T20:47:20Z</time>
      </trkpt>
      <trkpt lat="48.90501" lon="2.39081">
        <ele>45.599998474121</ele>
        <time>2015-12-07T20:47:21Z</time>
      </trkpt>
      <trkpt lat="48.90493" lon="2.39088">
        <ele>45.79999923706</ele>
        <time>2015-12-07T20:47:23Z</time>
      </trkpt>
      <trkpt lat="48.90477" lon="2.39102">
        <ele>46.400001525879</ele>
        <time>2015-12-07T20:47:27Z</time>
      </trkpt>
      <trkpt lat="48.90463" lon="2.39116">
        <ele>46.79999923706</ele>
        <time>2015-12-07T20:47:31Z</time>
      </trkpt>
      <trkpt lat="48.90446" lon="2.39133">
        <ele>47</ele>
        <time>2015-12-07T20:47:35Z</time>
      </trkpt>
      <trkpt lat="48.90442" lon="2.39137">
        <ele>47</ele>
        <time>2015-12-07T20:47:36Z</time>
      </trkpt>
      <trkpt lat="48.90424" lon="2.39153">
        <ele>46.79999923706</ele>
        <time>2015-12-07T20:47:40Z</time>
      </trkpt>
      <trkpt lat="48.90408" lon="2.39167">
        <ele>46.20000076294</ele>
        <time>2015-12-07T20:47:44Z</time>
      </trkpt>
      <trkpt lat="48.90392" lon="2.39184">
        <ele>45.79999923706</ele>
        <time>2015-12-07T20:47:49Z</time>
      </trkpt>
      <trkpt lat="48.90388" lon="2.39186">
        <ele>45.79999923706</ele>
        <time>2015-12-07T20:47:50Z</time>
      </trkpt>
      <trkpt lat="48.90384" lon="2.39192">
        <ele>45.599998474121</ele>
        <time>2015-12-07T20:47:52Z</time>
      </trkpt>
      <trkpt lat="48.90375" lon="2.39191">
        <ele>45.79999923706</ele>
        <time>2015-12-07T20:47:56Z</time>
      </trkpt>
      <trkpt lat="48.90368" lon="2.39195">
        <ele>46</ele>
        <time>2015-12-07T20:48:00Z</time>
      </trkpt>
      <trkpt lat="48.90367" lon="2.39197">
        <ele>46</ele>
        <time>2015-12-07T20:48:01Z</time>
      </trkpt>
      <trkpt lat="48.90364" lon="2.39201">
        <ele>46.20000076294</ele>
        <time>2015-12-07T20:48:03Z</time>
      </trkpt>
      <trkpt lat="48.90355" lon="2.3919">
        <ele>46</ele>
        <time>2015-12-07T20:48:42Z</time>
      </trkpt>
      <trkpt lat="48.90339" lon="2.39174">
        <ele>45.599998474121</ele>
        <time>2015-12-07T20:48:47Z</time>
      </trkpt>
      <trkpt lat="48.90335" lon="2.39171">
        <ele>45.400001525879</ele>
        <time>2015-12-07T20:48:48Z</time>
      </trkpt>
      <trkpt lat="48.9032" lon="2.39154">
        <ele>45.400001525879</ele>
        <time>2015-12-07T20:48:52Z</time>
      </trkpt>
      <trkpt lat="48.903" lon="2.39138">
        <ele>45.599998474121</ele>
        <time>2015-12-07T20:48:57Z</time>
      </trkpt>
      <trkpt lat="48.90283" lon="2.39124">
        <ele>45.79999923706</ele>
        <time>2015-12-07T20:49:03Z</time>
      </trkpt>
      <trkpt lat="48.90265" lon="2.39109">
        <ele>46</ele>
        <time>2015-12-07T20:49:10Z</time>
      </trkpt>
      <trkpt lat="48.90248" lon="2.39095">
        <ele>46.400001525879</ele>
        <time>2015-12-07T20:49:16Z</time>
      </trkpt>
      <trkpt lat="48.90231" lon="2.39075">
        <ele>46.599998474121</ele>
        <time>2015-12-07T20:49:22Z</time>
      </trkpt>
      <trkpt lat="48.90215" lon="2.39058">
        <ele>46.599998474121</ele>
        <time>2015-12-07T20:49:27Z</time>
      </trkpt>
      <trkpt lat="48.902" lon="2.39041">
        <ele>46.79999923706</ele>
        <time>2015-12-07T20:49:32Z</time>
      </trkpt>
      <trkpt lat="48.90184" lon="2.39027">
        <ele>47.20000076294</ele>
        <time>2015-12-07T20:49:37Z</time>
      </trkpt>
      <trkpt lat="48.90167" lon="2.3901">
        <ele>47.79999923706</ele>
        <time>2015-12-07T20:49:42Z</time>
      </trkpt>
      <trkpt lat="48.90149" lon="2.38992">
        <ele>48.400001525879</ele>
        <time>2015-12-07T20:49:47Z</time>
      </trkpt>
      <trkpt lat="48.90133" lon="2.38976">
        <ele>49</ele>
        <time>2015-12-07T20:49:52Z</time>
      </trkpt>
      <trkpt lat="48.90115" lon="2.3896">
        <ele>49.79999923706</ele>
        <time>2015-12-07T20:49:58Z</time>
      </trkpt>
      <trkpt lat="48.90106" lon="2.38933">
        <ele>50</ele>
        <time>2015-12-07T20:50:04Z</time>
      </trkpt>
      <trkpt lat="48.901" lon="2.38901">
        <ele>49.599998474121</ele>
        <time>2015-12-07T20:50:10Z</time>
      </trkpt>
      <trkpt lat="48.90094" lon="2.38873">
        <ele>49.20000076294</ele>
        <time>2015-12-07T20:50:16Z</time>
      </trkpt>
      <trkpt lat="48.90095" lon="2.38843">
        <ele>49.400001525879</ele>
        <time>2015-12-07T20:50:22Z</time>
      </trkpt>
      <trkpt lat="48.90104" lon="2.38816">
        <ele>49.79999923706</ele>
        <time>2015-12-07T20:50:30Z</time>
      </trkpt>
      <trkpt lat="48.90111" lon="2.388">
        <ele>50</ele>
        <time>2015-12-07T20:50:38Z</time>
      </trkpt>
      <trkpt lat="48.9011" lon="2.38792">
        <ele>50</ele>
        <time>2015-12-07T20:51:16Z</time>
      </trkpt>
      <trkpt lat="48.90106" lon="2.38764">
        <ele>50</ele>
        <time>2015-12-07T20:51:21Z</time>
      </trkpt>
      <trkpt lat="48.90098" lon="2.38735">
        <ele>49.20000076294</ele>
        <time>2015-12-07T20:51:26Z</time>
      </trkpt>
      <trkpt lat="48.90096" lon="2.3873">
        <ele>48.79999923706</ele>
        <time>2015-12-07T20:51:27Z</time>
      </trkpt>
      <trkpt lat="48.90084" lon="2.3871">
        <ele>47.599998474121</ele>
        <time>2015-12-07T20:51:32Z</time>
      </trkpt>
      <trkpt lat="48.90081" lon="2.38708">
        <ele>47.400001525879</ele>
        <time>2015-12-07T20:51:33Z</time>
      </trkpt>
      <trkpt lat="48.90068" lon="2.38705">
        <ele>46.599998474121</ele>
        <time>2015-12-07T20:51:39Z</time>
      </trkpt>
      <trkpt lat="48.90049" lon="2.38699">
        <ele>45.20000076294</ele>
        <time>2015-12-07T20:51:46Z</time>
      </trkpt>
      <trkpt lat="48.90038" lon="2.38694">
        <ele>44.400001525879</ele>
        <time>2015-12-07T20:51:50Z</time>
      </trkpt>
      <trkpt lat="48.90025" lon="2.38677">
        <ele>43.20000076294</ele>
        <time>2015-12-07T20:51:59Z</time>
      </trkpt>
      <trkpt lat="48.90026" lon="2.3869">
        <ele>43.400001525879</ele>
        <time>2015-12-07T20:52:05Z</time>
      </trkpt>
      <trkpt lat="48.90013" lon="2.38705">
        <ele>43.599998474121</ele>
        <time>2015-12-07T20:52:19Z</time>
      </trkpt>
      <trkpt lat="48.90007" lon="2.3872">
        <ele>43.79999923706</ele>
        <time>2015-12-07T20:52:24Z</time>
      </trkpt>
      <trkpt lat="48.89995" lon="2.38744">
        <ele>44.79999923706</ele>
        <time>2015-12-07T20:52:32Z</time>
      </trkpt>
      <trkpt lat="48.89983" lon="2.38756">
        <ele>45.599998474121</ele>
        <time>2015-12-07T20:52:40Z</time>
      </trkpt>
      <trkpt lat="48.89972" lon="2.38756">
        <ele>46</ele>
        <time>2015-12-07T20:53:28Z</time>
      </trkpt>
      <trkpt lat="48.89956" lon="2.38741">
        <ele>46.20000076294</ele>
        <time>2015-12-07T20:53:40Z</time>
      </trkpt>
      <trkpt lat="48.89939" lon="2.38727">
        <ele>46.20000076294</ele>
        <time>2015-12-07T20:53:52Z</time>
      </trkpt>
      <trkpt lat="48.89922" lon="2.38712">
        <ele>46.599998474121</ele>
        <time>2015-12-07T20:54:00Z</time>
      </trkpt>
      <trkpt lat="48.89906" lon="2.38697">
        <ele>46.79999923706</ele>
        <time>2015-12-07T20:54:07Z</time>
      </trkpt>
      <trkpt lat="48.89889" lon="2.38684">
        <ele>47.20000076294</ele>
        <time>2015-12-07T20:54:14Z</time>
      </trkpt>
      <trkpt lat="48.89872" lon="2.38667">
        <ele>47.400001525879</ele>
        <time>2015-12-07T20:54:21Z</time>
      </trkpt>
      <trkpt lat="48.89856" lon="2.3865">
        <ele>48.20000076294</ele>
        <time>2015-12-07T20:54:27Z</time>
      </trkpt>
      <trkpt lat="48.89841" lon="2.3863">
        <ele>48.79999923706</ele>
        <time>2015-12-07T20:54:33Z</time>
      </trkpt>
      <trkpt lat="48.89823" lon="2.38613">
        <ele>49.400001525879</ele>
        <time>2015-12-07T20:54:40Z</time>
      </trkpt>
      <trkpt lat="48.89808" lon="2.38595">
        <ele>50</ele>
        <time>2015-12-07T20:54:46Z</time>
      </trkpt>
      <trkpt lat="48.89793" lon="2.38572">
        <ele>50.79999923706</ele>
        <time>2015-12-07T20:54:53Z</time>
      </trkpt>
      <trkpt lat="48.89778" lon="2.38559">
        <ele>51.400001525879</ele>
        <time>2015-12-07T20:54:58Z</time>
      </trkpt>
      <trkpt lat="48.89755" lon="2.38548">
        <ele>52.20000076294</ele>
        <time>2015-12-07T20:55:02Z</time>
      </trkpt>
      <trkpt lat="48.89738" lon="2.38534">
        <ele>53</ele>
        <time>2015-12-07T20:55:08Z</time>
      </trkpt>
      <trkpt lat="48.89734" lon="2.38529">
        <ele>53.20000076294</ele>
        <time>2015-12-07T20:55:10Z</time>
      </trkpt>
      <trkpt lat="48.89723" lon="2.38519">
        <ele>53.599998474121</ele>
        <time>2015-12-07T20:55:14Z</time>
      </trkpt>
      <trkpt lat="48.89706" lon="2.38505">
        <ele>54.400001525879</ele>
        <time>2015-12-07T20:55:19Z</time>
      </trkpt>
      <trkpt lat="48.89688" lon="2.38487">
        <ele>54.400001525879</ele>
        <time>2015-12-07T20:55:24Z</time>
      </trkpt>
      <trkpt lat="48.89672" lon="2.38469">
        <ele>53</ele>
        <time>2015-12-07T20:55:28Z</time>
      </trkpt>
      <trkpt lat="48.89656" lon="2.38453">
        <ele>51.599998474121</ele>
        <time>2015-12-07T20:55:32Z</time>
      </trkpt>
      <trkpt lat="48.89642" lon="2.38435">
        <ele>50.20000076294</ele>
        <time>2015-12-07T20:55:36Z</time>
      </trkpt>
      <trkpt lat="48.89637" lon="2.38414">
        <ele>49</ele>
        <time>2015-12-07T20:55:40Z</time>
      </trkpt>
      <trkpt lat="48.89625" lon="2.38402">
        <ele>49</ele>
        <time>2015-12-07T20:55:45Z</time>
      </trkpt>
      <trkpt lat="48.8961" lon="2.38382">
        <ele>49</ele>
        <time>2015-12-07T20:55:53Z</time>
      </trkpt>
      <trkpt lat="48.89595" lon="2.38366">
        <ele>49.20000076294</ele>
        <time>2015-12-07T20:56:03Z</time>
      </trkpt>
      <trkpt lat="48.89581" lon="2.38357">
        <ele>49.400001525879</ele>
        <time>2015-12-07T20:56:14Z</time>
      </trkpt>
      <trkpt lat="48.89572" lon="2.38374">
        <ele>49</ele>
        <time>2015-12-07T20:56:33Z</time>
      </trkpt>
      <trkpt lat="48.89554" lon="2.38387">
        <ele>48.400001525879</ele>
        <time>2015-12-07T20:56:38Z</time>
      </trkpt>
      <trkpt lat="48.89537" lon="2.38397">
        <ele>47.79999923706</ele>
        <time>2015-12-07T20:56:42Z</time>
      </trkpt>
      <trkpt lat="48.89519" lon="2.38409">
        <ele>47.400001525879</ele>
        <time>2015-12-07T20:56:46Z</time>
      </trkpt>
      <trkpt lat="48.895" lon="2.38422">
        <ele>48.20000076294</ele>
        <time>2015-12-07T20:56:50Z</time>
      </trkpt>
      <trkpt lat="48.8948" lon="2.38433">
        <ele>49</ele>
        <time>2015-12-07T20:56:54Z</time>
      </trkpt>
      <trkpt lat="48.89458" lon="2.38447">
        <ele>49.20000076294</ele>
        <time>2015-12-07T20:56:58Z</time>
      </trkpt>
      <trkpt lat="48.89441" lon="2.38457">
        <ele>48.400001525879</ele>
        <time>2015-12-07T20:57:01Z</time>
      </trkpt>
      <trkpt lat="48.8942" lon="2.38468">
        <ele>49</ele>
        <time>2015-12-07T20:57:05Z</time>
      </trkpt>
      <trkpt lat="48.894" lon="2.38478">
        <ele>50.20000076294</ele>
        <time>2015-12-07T20:57:09Z</time>
      </trkpt>
      <trkpt lat="48.89381" lon="2.38489">
        <ele>51.79999923706</ele>
        <time>2015-12-07T20:57:13Z</time>
      </trkpt>
      <trkpt lat="48.89362" lon="2.385">
        <ele>53.599998474121</ele>
        <time>2015-12-07T20:57:17Z</time>
      </trkpt>
      <trkpt lat="48.89357" lon="2.38502">
        <ele>53.79999923706</ele>
        <time>2015-12-07T20:57:18Z</time>
      </trkpt>
      <trkpt lat="48.89338" lon="2.38512">
        <ele>54</ele>
        <time>2015-12-07T20:57:22Z</time>
      </trkpt>
      <trkpt lat="48.89333" lon="2.38515">
        <ele>54</ele>
        <time>2015-12-07T20:57:23Z</time>
      </trkpt>
      <trkpt lat="48.89313" lon="2.38527">
        <ele>54</ele>
        <time>2015-12-07T20:57:27Z</time>
      </trkpt>
      <trkpt lat="48.89292" lon="2.3854">
        <ele>54.599998474121</ele>
        <time>2015-12-07T20:57:31Z</time>
      </trkpt>
      <trkpt lat="48.89287" lon="2.38543">
        <ele>54.79999923706</ele>
        <time>2015-12-07T20:57:32Z</time>
      </trkpt>
      <trkpt lat="48.89269" lon="2.38555">
        <ele>55.20000076294</ele>
        <time>2015-12-07T20:57:36Z</time>
      </trkpt>
      <trkpt lat="48.89259" lon="2.38559">
        <ele>55</ele>
        <time>2015-12-07T20:57:38Z</time>
      </trkpt>
      <trkpt lat="48.89239" lon="2.3855">
        <ele>55</ele>
        <time>2015-12-07T20:57:42Z</time>
      </trkpt>
      <trkpt lat="48.89219" lon="2.38537">
        <ele>55.20000076294</ele>
        <time>2015-12-07T20:57:46Z</time>
      </trkpt>
      <trkpt lat="48.89204" lon="2.38532">
        <ele>55.20000076294</ele>
        <time>2015-12-07T20:57:49Z</time>
      </trkpt>
      <trkpt lat="48.89185" lon="2.38532">
        <ele>55.400001525879</ele>
        <time>2015-12-07T20:57:53Z</time>
      </trkpt>
      <trkpt lat="48.89173" lon="2.38537">
        <ele>55.599998474121</ele>
        <time>2015-12-07T20:57:56Z</time>
      </trkpt>
      <trkpt lat="48.89156" lon="2.38527">
        <ele>55.79999923706</ele>
        <time>2015-12-07T20:58:01Z</time>
      </trkpt>
      <trkpt lat="48.89153" lon="2.38523">
        <ele>55.79999923706</ele>
        <time>2015-12-07T20:58:02Z</time>
      </trkpt>
      <trkpt lat="48.89146" lon="2.38509">
        <ele>55.599998474121</ele>
        <time>2015-12-07T20:58:05Z</time>
      </trkpt>
      <trkpt lat="48.89133" lon="2.38488">
        <ele>55.599998474121</ele>
        <time>2015-12-07T20:58:10Z</time>
      </trkpt>
      <trkpt lat="48.89126" lon="2.38476">
        <ele>55.400001525879</ele>
        <time>2015-12-07T20:58:13Z</time>
      </trkpt>
      <trkpt lat="48.89118" lon="2.38455">
        <ele>55.400001525879</ele>
        <time>2015-12-07T20:58:17Z</time>
      </trkpt>
      <trkpt lat="48.89105" lon="2.38431">
        <ele>55.20000076294</ele>
        <time>2015-12-07T20:58:23Z</time>
      </trkpt>
      <trkpt lat="48.89097" lon="2.38424">
        <ele>55.400001525879</ele>
        <time>2015-12-07T20:58:26Z</time>
      </trkpt>
      <trkpt lat="48.89082" lon="2.38409">
        <ele>55.599998474121</ele>
        <time>2015-12-07T20:58:32Z</time>
      </trkpt>
      <trkpt lat="48.89078" lon="2.38406">
        <ele>55.79999923706</ele>
        <time>2015-12-07T20:58:35Z</time>
      </trkpt>
      <trkpt lat="48.89089" lon="2.38405">
        <ele>55.599998474121</ele>
        <time>2015-12-07T20:58:50Z</time>
      </trkpt>
      <trkpt lat="48.89104" lon="2.38424">
        <ele>55.20000076294</ele>
        <time>2015-12-07T20:58:56Z</time>
      </trkpt>
      <trkpt lat="48.89116" lon="2.38445">
        <ele>55.20000076294</ele>
        <time>2015-12-07T20:59:01Z</time>
      </trkpt>
      <trkpt lat="48.89131" lon="2.38468">
        <ele>55.400001525879</ele>
        <time>2015-12-07T20:59:08Z</time>
      </trkpt>
      <trkpt lat="48.89137" lon="2.38484">
        <ele>55.400001525879</ele>
        <time>2015-12-07T20:59:12Z</time>
      </trkpt>
      <trkpt lat="48.89133" lon="2.38482">
        <ele>55.400001525879</ele>
        <time>2015-12-07T20:59:16Z</time>
      </trkpt>
      <trkpt lat="48.89128" lon="2.38481">
        <ele>55.599998474121</ele>
        <time>2015-12-07T20:59:20Z</time>
      </trkpt>
      <trkpt lat="48.89114" lon="2.38483">
        <ele>55.79999923706</ele>
        <time>2015-12-07T20:59:41Z</time>
      </trkpt>
      <trkpt lat="48.89095" lon="2.38487">
        <ele>56.20000076294</ele>
        <time>2015-12-07T20:59:52Z</time>
      </trkpt>
      <trkpt lat="48.89091" lon="2.38487">
        <ele>56.20000076294</ele>
        <time>2015-12-07T20:59:55Z</time>
      </trkpt>
      <trkpt lat="48.89092" lon="2.385">
        <ele>56.400001525879</ele>
        <time>2015-12-07T21:00:43Z</time>
      </trkpt>
      <trkpt lat="48.89081" lon="2.38488">
        <ele>56.400001525879</ele>
        <time>2015-12-07T21:01:02Z</time>
      </trkpt>
      <trkpt lat="48.89069" lon="2.38465">
        <ele>56.599998474121</ele>
        <time>2015-12-07T21:01:09Z</time>
      </trkpt>
      <trkpt lat="48.89059" lon="2.38451">
        <ele>56.599998474121</ele>
        <time>2015-12-07T21:01:12Z</time>
      </trkpt>
      <trkpt lat="48.89045" lon="2.38426">
        <ele>56.599998474121</ele>
        <time>2015-12-07T21:01:17Z</time>
      </trkpt>
      <trkpt lat="48.89031" lon="2.38402">
        <ele>57</ele>
        <time>2015-12-07T21:01:22Z</time>
      </trkpt>
      <trkpt lat="48.89019" lon="2.38376">
        <ele>57.79999923706</ele>
        <time>2015-12-07T21:01:27Z</time>
      </trkpt>
      <trkpt lat="48.8901" lon="2.38352">
        <ele>58.599998474121</ele>
        <time>2015-12-07T21:01:31Z</time>
      </trkpt>
      <trkpt lat="48.88996" lon="2.38328">
        <ele>59.599998474121</ele>
        <time>2015-12-07T21:01:36Z</time>
      </trkpt>
      <trkpt lat="48.88983" lon="2.38304">
        <ele>60</ele>
        <time>2015-12-07T21:01:41Z</time>
      </trkpt>
      <trkpt lat="48.88974" lon="2.38289">
        <ele>60.400001525879</ele>
        <time>2015-12-07T21:01:44Z</time>
      </trkpt>
      <trkpt lat="48.8896" lon="2.38263">
        <ele>61</ele>
        <time>2015-12-07T21:01:49Z</time>
      </trkpt>
      <trkpt lat="48.8895" lon="2.38246">
        <ele>61.400001525879</ele>
        <time>2015-12-07T21:01:52Z</time>
      </trkpt>
      <trkpt lat="48.88936" lon="2.38224">
        <ele>61.400001525879</ele>
        <time>2015-12-07T21:01:56Z</time>
      </trkpt>
      <trkpt lat="48.88933" lon="2.38217">
        <ele>61.400001525879</ele>
        <time>2015-12-07T21:01:57Z</time>
      </trkpt>
      <trkpt lat="48.88922" lon="2.38188">
        <ele>60.79999923706</ele>
        <time>2015-12-07T21:02:01Z</time>
      </trkpt>
      <trkpt lat="48.88912" lon="2.38161">
        <ele>60.20000076294</ele>
        <time>2015-12-07T21:02:05Z</time>
      </trkpt>
      <trkpt lat="48.88903" lon="2.38137">
        <ele>59.79999923706</ele>
        <time>2015-12-07T21:02:09Z</time>
      </trkpt>
      <trkpt lat="48.88891" lon="2.38113">
        <ele>59.20000076294</ele>
        <time>2015-12-07T21:02:13Z</time>
      </trkpt>
      <trkpt lat="48.88882" lon="2.38096">
        <ele>58.79999923706</ele>
        <time>2015-12-07T21:02:16Z</time>
      </trkpt>
      <trkpt lat="48.88865" lon="2.38069">
        <ele>58</ele>
        <time>2015-12-07T21:02:20Z</time>
      </trkpt>
      <trkpt lat="48.88862" lon="2.38063">
        <ele>57.79999923706</ele>
        <time>2015-12-07T21:02:21Z</time>
      </trkpt>
      <trkpt lat="48.88851" lon="2.38036">
        <ele>56.599998474121</ele>
        <time>2015-12-07T21:02:25Z</time>
      </trkpt>
      <trkpt lat="48.88841" lon="2.38013">
        <ele>55.599998474121</ele>
        <time>2015-12-07T21:02:30Z</time>
      </trkpt>
      <trkpt lat="48.88835" lon="2.38001">
        <ele>55.20000076294</ele>
        <time>2015-12-07T21:02:33Z</time>
      </trkpt>
      <trkpt lat="48.88825" lon="2.37975">
        <ele>55</ele>
        <time>2015-12-07T21:02:40Z</time>
      </trkpt>
      <trkpt lat="48.88822" lon="2.37963">
        <ele>54.79999923706</ele>
        <time>2015-12-07T21:03:29Z</time>
      </trkpt>
      <trkpt lat="48.88808" lon="2.37984">
        <ele>56</ele>
        <time>2015-12-07T21:03:37Z</time>
      </trkpt>
      <trkpt lat="48.88795" lon="2.37983">
        <ele>56.599998474121</ele>
        <time>2015-12-07T21:03:42Z</time>
      </trkpt>
      <trkpt lat="48.8878" lon="2.37962">
        <ele>56.79999923706</ele>
        <time>2015-12-07T21:03:48Z</time>
      </trkpt>
      <trkpt lat="48.88765" lon="2.37936">
        <ele>56.599998474121</ele>
        <time>2015-12-07T21:03:53Z</time>
      </trkpt>
      <trkpt lat="48.88752" lon="2.37913">
        <ele>56.20000076294</ele>
        <time>2015-12-07T21:03:57Z</time>
      </trkpt>
      <trkpt lat="48.88739" lon="2.37892">
        <ele>56.400001525879</ele>
        <time>2015-12-07T21:04:01Z</time>
      </trkpt>
      <trkpt lat="48.88725" lon="2.37866">
        <ele>56.599998474121</ele>
        <time>2015-12-07T21:04:06Z</time>
      </trkpt>
      <trkpt lat="48.8871" lon="2.37841">
        <ele>56.599998474121</ele>
        <time>2015-12-07T21:04:11Z</time>
      </trkpt>
      <trkpt lat="48.88698" lon="2.37821">
        <ele>57</ele>
        <time>2015-12-07T21:04:15Z</time>
      </trkpt>
      <trkpt lat="48.88689" lon="2.37799">
        <ele>57.79999923706</ele>
        <time>2015-12-07T21:04:19Z</time>
      </trkpt>
      <trkpt lat="48.88673" lon="2.37778">
        <ele>59.599998474121</ele>
        <time>2015-12-07T21:04:23Z</time>
      </trkpt>
      <trkpt lat="48.88671" lon="2.37773">
        <ele>60</ele>
        <time>2015-12-07T21:04:24Z</time>
      </trkpt>
      <trkpt lat="48.88665" lon="2.37763">
        <ele>60.79999923706</ele>
        <time>2015-12-07T21:04:26Z</time>
      </trkpt>
      <trkpt lat="48.88655" lon="2.37734">
        <ele>60.599998474121</ele>
        <time>2015-12-07T21:04:31Z</time>
      </trkpt>
      <trkpt lat="48.88645" lon="2.37715">
        <ele>59.599998474121</ele>
        <time>2015-12-07T21:04:35Z</time>
      </trkpt>
      <trkpt lat="48.88635" lon="2.37698">
        <ele>58.79999923706</ele>
        <time>2015-12-07T21:04:39Z</time>
      </trkpt>
      <trkpt lat="48.88629" lon="2.3769">
        <ele>58.599998474121</ele>
        <time>2015-12-07T21:04:41Z</time>
      </trkpt>
      <trkpt lat="48.88615" lon="2.37666">
        <ele>58</ele>
        <time>2015-12-07T21:04:46Z</time>
      </trkpt>
      <trkpt lat="48.88613" lon="2.3766">
        <ele>57.79999923706</ele>
        <time>2015-12-07T21:04:47Z</time>
      </trkpt>
      <trkpt lat="48.88603" lon="2.37636">
        <ele>57.20000076294</ele>
        <time>2015-12-07T21:04:51Z</time>
      </trkpt>
      <trkpt lat="48.88596" lon="2.37618">
        <ele>56.79999923706</ele>
        <time>2015-12-07T21:04:54Z</time>
      </trkpt>
      <trkpt lat="48.88584" lon="2.37593">
        <ele>56.400001525879</ele>
        <time>2015-12-07T21:04:58Z</time>
      </trkpt>
      <trkpt lat="48.88571" lon="2.37568">
        <ele>56.400001525879</ele>
        <time>2015-12-07T21:05:02Z</time>
      </trkpt>
      <trkpt lat="48.88556" lon="2.37546">
        <ele>56.599998474121</ele>
        <time>2015-12-07T21:05:05Z</time>
      </trkpt>
      <trkpt lat="48.8854" lon="2.37523">
        <ele>56.79999923706</ele>
        <time>2015-12-07T21:05:09Z</time>
      </trkpt>
      <trkpt lat="48.88532" lon="2.37511">
        <ele>56.79999923706</ele>
        <time>2015-12-07T21:05:11Z</time>
      </trkpt>
      <trkpt lat="48.88517" lon="2.37487">
        <ele>57</ele>
        <time>2015-12-07T21:05:15Z</time>
      </trkpt>
      <trkpt lat="48.88506" lon="2.37467">
        <ele>57</ele>
        <time>2015-12-07T21:05:18Z</time>
      </trkpt>
      <trkpt lat="48.88498" lon="2.37451">
        <ele>57</ele>
        <time>2015-12-07T21:05:20Z</time>
      </trkpt>
      <trkpt lat="48.88486" lon="2.37431">
        <ele>57.20000076294</ele>
        <time>2015-12-07T21:05:23Z</time>
      </trkpt>
      <trkpt lat="48.88471" lon="2.37403">
        <ele>57.20000076294</ele>
        <time>2015-12-07T21:05:27Z</time>
      </trkpt>
      <trkpt lat="48.8846" lon="2.3738">
        <ele>57.20000076294</ele>
        <time>2015-12-07T21:05:30Z</time>
      </trkpt>
      <trkpt lat="48.88451" lon="2.37358">
        <ele>57.20000076294</ele>
        <time>2015-12-07T21:05:33Z</time>
      </trkpt>
      <trkpt lat="48.88436" lon="2.37334">
        <ele>57.20000076294</ele>
        <time>2015-12-07T21:05:37Z</time>
      </trkpt>
      <trkpt lat="48.88421" lon="2.37308">
        <ele>57.599998474121</ele>
        <time>2015-12-07T21:05:41Z</time>
      </trkpt>
      <trkpt lat="48.88411" lon="2.37283">
        <ele>57.599998474121</ele>
        <time>2015-12-07T21:05:44Z</time>
      </trkpt>
      <trkpt lat="48.884" lon="2.37259">
        <ele>57.599998474121</ele>
        <time>2015-12-07T21:05:47Z</time>
      </trkpt>
      <trkpt lat="48.8839" lon="2.37235">
        <ele>57.599998474121</ele>
        <time>2015-12-07T21:05:50Z</time>
      </trkpt>
      <trkpt lat="48.88379" lon="2.37214">
        <ele>57.79999923706</ele>
        <time>2015-12-07T21:05:53Z</time>
      </trkpt>
      <trkpt lat="48.88373" lon="2.37201">
        <ele>58</ele>
        <time>2015-12-07T21:05:55Z</time>
      </trkpt>
      <trkpt lat="48.8836" lon="2.37176">
        <ele>58</ele>
        <time>2015-12-07T21:05:59Z</time>
      </trkpt>
      <trkpt lat="48.88346" lon="2.37157">
        <ele>58.400001525879</ele>
        <time>2015-12-07T21:06:03Z</time>
      </trkpt>
      <trkpt lat="48.88339" lon="2.37149">
        <ele>58.400001525879</ele>
        <time>2015-12-07T21:06:05Z</time>
      </trkpt>
      <trkpt lat="48.88325" lon="2.37126">
        <ele>58.400001525879</ele>
        <time>2015-12-07T21:06:09Z</time>
      </trkpt>
      <trkpt lat="48.8831" lon="2.37105">
        <ele>58.400001525879</ele>
        <time>2015-12-07T21:06:13Z</time>
      </trkpt>
      <trkpt lat="48.88303" lon="2.37095">
        <ele>58.599998474121</ele>
        <time>2015-12-07T21:06:15Z</time>
      </trkpt>
      <trkpt lat="48.88295" lon="2.37069">
        <ele>57.79999923706</ele>
        <time>2015-12-07T21:06:19Z</time>
      </trkpt>
      <trkpt lat="48.883" lon="2.37047">
        <ele>56.400001525879</ele>
        <time>2015-12-07T21:06:23Z</time>
      </trkpt>
      <trkpt lat="48.88295" lon="2.37042">
        <ele>56.400001525879</ele>
        <time>2015-12-07T21:06:27Z</time>
      </trkpt>
      <trkpt lat="48.88293" lon="2.37042">
        <ele>56.79999923706</ele>
        <time>2015-12-07T21:06:30Z</time>
      </trkpt>
      <trkpt lat="48.88295" lon="2.3703">
        <ele>56</ele>
        <time>2015-12-07T21:07:48Z</time>
      </trkpt>
      <trkpt lat="48.88291" lon="2.37017">
        <ele>55.599998474121</ele>
        <time>2015-12-07T21:07:53Z</time>
      </trkpt>
      <trkpt lat="48.88281" lon="2.36992">
        <ele>55.599998474121</ele>
        <time>2015-12-07T21:08:01Z</time>
      </trkpt>
      <trkpt lat="48.88266" lon="2.36976">
        <ele>56.20000076294</ele>
        <time>2015-12-07T21:08:07Z</time>
      </trkpt>
      <trkpt lat="48.88257" lon="2.3695">
        <ele>56.400001525879</ele>
        <time>2015-12-07T21:08:12Z</time>
      </trkpt>
      <trkpt lat="48.8825" lon="2.36919">
        <ele>56.599998474121</ele>
        <time>2015-12-07T21:08:17Z</time>
      </trkpt>
      <trkpt lat="48.88244" lon="2.36891">
        <ele>56.400001525879</ele>
        <time>2015-12-07T21:08:21Z</time>
      </trkpt>
      <trkpt lat="48.88239" lon="2.36862">
        <ele>57.20000076294</ele>
        <time>2015-12-07T21:08:25Z</time>
      </trkpt>
      <trkpt lat="48.88233" lon="2.36833">
        <ele>58.599998474121</ele>
        <time>2015-12-07T21:08:29Z</time>
      </trkpt>
      <trkpt lat="48.88225" lon="2.36802">
        <ele>58.20000076294</ele>
        <time>2015-12-07T21:08:34Z</time>
      </trkpt>
      <trkpt lat="48.88219" lon="2.36774">
        <ele>58</ele>
        <time>2015-12-07T21:08:39Z</time>
      </trkpt>
      <trkpt lat="48.88214" lon="2.36757">
        <ele>57.400001525879</ele>
        <time>2015-12-07T21:08:43Z</time>
      </trkpt>
      <trkpt lat="48.88211" lon="2.36746">
        <ele>57</ele>
        <time>2015-12-07T21:08:46Z</time>
      </trkpt>
      <trkpt lat="48.88202" lon="2.36721">
        <ele>57.599998474121</ele>
        <time>2015-12-07T21:08:53Z</time>
      </trkpt>
      <trkpt lat="48.8819" lon="2.36698">
        <ele>57.79999923706</ele>
        <time>2015-12-07T21:09:02Z</time>
      </trkpt>
      <trkpt lat="48.88185" lon="2.36669">
        <ele>58.79999923706</ele>
        <time>2015-12-07T21:09:11Z</time>
      </trkpt>
      <trkpt lat="48.88183" lon="2.36659">
        <ele>59</ele>
        <time>2015-12-07T21:09:15Z</time>
      </trkpt>
      <trkpt lat="48.88179" lon="2.36644">
        <ele>58.79999923706</ele>
        <time>2015-12-07T21:09:24Z</time>
      </trkpt>
      <trkpt lat="48.88173" lon="2.36617">
        <ele>58.599998474121</ele>
        <time>2015-12-07T21:09:45Z</time>
      </trkpt>
      <trkpt lat="48.88165" lon="2.36588">
        <ele>58.400001525879</ele>
        <time>2015-12-07T21:09:55Z</time>
      </trkpt>
      <trkpt lat="48.8815" lon="2.36569">
        <ele>58.400001525879</ele>
        <time>2015-12-07T21:10:02Z</time>
      </trkpt>
      <trkpt lat="48.88135" lon="2.36553">
        <ele>58.599998474121</ele>
        <time>2015-12-07T21:10:08Z</time>
      </trkpt>
      <trkpt lat="48.88123" lon="2.36537">
        <ele>58.79999923706</ele>
        <time>2015-12-07T21:10:15Z</time>
      </trkpt>
      <trkpt lat="48.88105" lon="2.3652">
        <ele>59</ele>
        <time>2015-12-07T21:10:36Z</time>
      </trkpt>
      <trkpt lat="48.88087" lon="2.36503">
        <ele>58.599998474121</ele>
        <time>2015-12-07T21:10:41Z</time>
      </trkpt>
      <trkpt lat="48.88073" lon="2.36486">
        <ele>58</ele>
        <time>2015-12-07T21:10:45Z</time>
      </trkpt>
      <trkpt lat="48.88056" lon="2.36472">
        <ele>57.20000076294</ele>
        <time>2015-12-07T21:10:49Z</time>
      </trkpt>
      <trkpt lat="48.8804" lon="2.36453">
        <ele>56.400001525879</ele>
        <time>2015-12-07T21:10:53Z</time>
      </trkpt>
      <trkpt lat="48.88022" lon="2.36437">
        <ele>55.599998474121</ele>
        <time>2015-12-07T21:10:57Z</time>
      </trkpt>
      <trkpt lat="48.88003" lon="2.3642">
        <ele>55.400001525879</ele>
        <time>2015-12-07T21:11:01Z</time>
      </trkpt>
      <trkpt lat="48.87985" lon="2.36404">
        <ele>55.79999923706</ele>
        <time>2015-12-07T21:11:04Z</time>
      </trkpt>
      <trkpt lat="48.8798" lon="2.36399">
        <ele>55.79999923706</ele>
        <time>2015-12-07T21:11:05Z</time>
      </trkpt>
      <trkpt lat="48.87961" lon="2.36378">
        <ele>56.599998474121</ele>
        <time>2015-12-07T21:11:09Z</time>
      </trkpt>
      <trkpt lat="48.87944" lon="2.36356">
        <ele>57.400001525879</ele>
        <time>2015-12-07T21:11:13Z</time>
      </trkpt>
      <trkpt lat="48.87928" lon="2.36336">
        <ele>57.400001525879</ele>
        <time>2015-12-07T21:11:17Z</time>
      </trkpt>
      <trkpt lat="48.87911" lon="2.36315">
        <ele>56.599998474121</ele>
        <time>2015-12-07T21:11:21Z</time>
      </trkpt>
      <trkpt lat="48.87893" lon="2.36298">
        <ele>55.599998474121</ele>
        <time>2015-12-07T21:11:25Z</time>
      </trkpt>
      <trkpt lat="48.87886" lon="2.36287">
        <ele>55</ele>
        <time>2015-12-07T21:11:27Z</time>
      </trkpt>
      <trkpt lat="48.87878" lon="2.36263">
        <ele>54.400001525879</ele>
        <time>2015-12-07T21:11:31Z</time>
      </trkpt>
      <trkpt lat="48.87874" lon="2.36252">
        <ele>54</ele>
        <time>2015-12-07T21:11:33Z</time>
      </trkpt>
      <trkpt lat="48.87866" lon="2.36241">
        <ele>53.20000076294</ele>
        <time>2015-12-07T21:11:36Z</time>
      </trkpt>
      <trkpt lat="48.87851" lon="2.36225">
        <ele>51.79999923706</ele>
        <time>2015-12-07T21:11:41Z</time>
      </trkpt>
      <trkpt lat="48.87847" lon="2.36222">
        <ele>51.79999923706</ele>
        <time>2015-12-07T21:11:42Z</time>
      </trkpt>
      <trkpt lat="48.87831" lon="2.36209">
        <ele>52</ele>
        <time>2015-12-07T21:11:46Z</time>
      </trkpt>
      <trkpt lat="48.87812" lon="2.36197">
        <ele>52</ele>
        <time>2015-12-07T21:11:50Z</time>
      </trkpt>
      <trkpt lat="48.87792" lon="2.36181">
        <ele>52.20000076294</ele>
        <time>2015-12-07T21:11:54Z</time>
      </trkpt>
      <trkpt lat="48.87776" lon="2.36169">
        <ele>52</ele>
        <time>2015-12-07T21:11:57Z</time>
      </trkpt>
      <trkpt lat="48.87759" lon="2.36156">
        <ele>52.79999923706</ele>
        <time>2015-12-07T21:12:00Z</time>
      </trkpt>
      <trkpt lat="48.87738" lon="2.36143">
        <ele>54</ele>
        <time>2015-12-07T21:12:04Z</time>
      </trkpt>
      <trkpt lat="48.87732" lon="2.36139">
        <ele>54.20000076294</ele>
        <time>2015-12-07T21:12:05Z</time>
      </trkpt>
      <trkpt lat="48.87714" lon="2.36126">
        <ele>55</ele>
        <time>2015-12-07T21:12:08Z</time>
      </trkpt>
      <trkpt lat="48.87696" lon="2.36116">
        <ele>56.20000076294</ele>
        <time>2015-12-07T21:12:11Z</time>
      </trkpt>
      <trkpt lat="48.87678" lon="2.36107">
        <ele>55.79999923706</ele>
        <time>2015-12-07T21:12:14Z</time>
      </trkpt>
      <trkpt lat="48.87658" lon="2.36095">
        <ele>54.599998474121</ele>
        <time>2015-12-07T21:12:17Z</time>
      </trkpt>
      <trkpt lat="48.87638" lon="2.36085">
        <ele>53.400001525879</ele>
        <time>2015-12-07T21:12:20Z</time>
      </trkpt>
      <trkpt lat="48.87617" lon="2.36072">
        <ele>52.400001525879</ele>
        <time>2015-12-07T21:12:23Z</time>
      </trkpt>
      <trkpt lat="48.87606" lon="2.36061">
        <ele>52</ele>
        <time>2015-12-07T21:12:25Z</time>
      </trkpt>
      <trkpt lat="48.87591" lon="2.36034">
        <ele>50.79999923706</ele>
        <time>2015-12-07T21:12:29Z</time>
      </trkpt>
      <trkpt lat="48.87589" lon="2.36028">
        <ele>50.599998474121</ele>
        <time>2015-12-07T21:12:30Z</time>
      </trkpt>
      <trkpt lat="48.87588" lon="2.36003">
        <ele>50.400001525879</ele>
        <time>2015-12-07T21:12:34Z</time>
      </trkpt>
      <trkpt lat="48.87589" lon="2.36">
        <ele>50.599998474121</ele>
        <time>2015-12-07T21:12:35Z</time>
      </trkpt>
      <trkpt lat="48.8757" lon="2.35997">
        <ele>49</ele>
        <time>2015-12-07T21:12:45Z</time>
      </trkpt>
      <trkpt lat="48.87567" lon="2.35995">
        <ele>48.599998474121</ele>
        <time>2015-12-07T21:12:46Z</time>
      </trkpt>
      <trkpt lat="48.8756" lon="2.35991">
        <ele>48.20000076294</ele>
        <time>2015-12-07T21:12:48Z</time>
      </trkpt>
      <trkpt lat="48.87546" lon="2.35971">
        <ele>47.20000076294</ele>
        <time>2015-12-07T21:12:53Z</time>
      </trkpt>
      <trkpt lat="48.87542" lon="2.35962">
        <ele>47</ele>
        <time>2015-12-07T21:12:55Z</time>
      </trkpt>
      <trkpt lat="48.87534" lon="2.35942">
        <ele>46.599998474121</ele>
        <time>2015-12-07T21:12:59Z</time>
      </trkpt>
      <trkpt lat="48.87528" lon="2.35934">
        <ele>46.20000076294</ele>
        <time>2015-12-07T21:13:01Z</time>
      </trkpt>
      <trkpt lat="48.8751" lon="2.35917">
        <ele>46.20000076294</ele>
        <time>2015-12-07T21:13:06Z</time>
      </trkpt>
      <trkpt lat="48.87505" lon="2.35914">
        <ele>46.20000076294</ele>
        <time>2015-12-07T21:13:07Z</time>
      </trkpt>
      <trkpt lat="48.87486" lon="2.35904">
        <ele>46.79999923706</ele>
        <time>2015-12-07T21:13:11Z</time>
      </trkpt>
      <trkpt lat="48.87472" lon="2.35895">
        <ele>47.400001525879</ele>
        <time>2015-12-07T21:13:14Z</time>
      </trkpt>
      <trkpt lat="48.87451" lon="2.35881">
        <ele>48</ele>
        <time>2015-12-07T21:13:18Z</time>
      </trkpt>
      <trkpt lat="48.87447" lon="2.35877">
        <ele>48.20000076294</ele>
        <time>2015-12-07T21:13:19Z</time>
      </trkpt>
      <trkpt lat="48.87427" lon="2.35866">
        <ele>48.400001525879</ele>
        <time>2015-12-07T21:13:23Z</time>
      </trkpt>
      <trkpt lat="48.87409" lon="2.35859">
        <ele>48.20000076294</ele>
        <time>2015-12-07T21:13:27Z</time>
      </trkpt>
      <trkpt lat="48.87403" lon="2.35857">
        <ele>48.20000076294</ele>
        <time>2015-12-07T21:13:30Z</time>
      </trkpt>
      <trkpt lat="48.87402" lon="2.35856">
        <ele>48.20000076294</ele>
        <time>2015-12-07T21:13:32Z</time>
      </trkpt>
      <trkpt lat="48.87383" lon="2.35855">
        <ele>47.79999923706</ele>
        <time>2015-12-07T21:13:54Z</time>
      </trkpt>
      <trkpt lat="48.87377" lon="2.35858">
        <ele>47.79999923706</ele>
        <time>2015-12-07T21:13:57Z</time>
      </trkpt>
      <trkpt lat="48.87359" lon="2.35843">
        <ele>48</ele>
        <time>2015-12-07T21:14:09Z</time>
      </trkpt>
      <trkpt lat="48.87355" lon="2.35842">
        <ele>48</ele>
        <time>2015-12-07T21:14:10Z</time>
      </trkpt>
      <trkpt lat="48.87336" lon="2.35833">
        <ele>46.79999923706</ele>
        <time>2015-12-07T21:14:15Z</time>
      </trkpt>
      <trkpt lat="48.87319" lon="2.35832">
        <ele>45.79999923706</ele>
        <time>2015-12-07T21:14:19Z</time>
      </trkpt>
      <trkpt lat="48.87301" lon="2.35824">
        <ele>45</ele>
        <time>2015-12-07T21:14:23Z</time>
      </trkpt>
      <trkpt lat="48.87283" lon="2.35817">
        <ele>44.400001525879</ele>
        <time>2015-12-07T21:14:27Z</time>
      </trkpt>
      <trkpt lat="48.87265" lon="2.35806">
        <ele>44.599998474121</ele>
        <time>2015-12-07T21:14:31Z</time>
      </trkpt>
      <trkpt lat="48.87245" lon="2.35793">
        <ele>46</ele>
        <time>2015-12-07T21:14:35Z</time>
      </trkpt>
      <trkpt lat="48.87229" lon="2.35776">
        <ele>47.400001525879</ele>
        <time>2015-12-07T21:14:39Z</time>
      </trkpt>
      <trkpt lat="48.8721" lon="2.35761">
        <ele>48.79999923706</ele>
        <time>2015-12-07T21:14:43Z</time>
      </trkpt>
      <trkpt lat="48.87191" lon="2.35752">
        <ele>49.599998474121</ele>
        <time>2015-12-07T21:14:47Z</time>
      </trkpt>
      <trkpt lat="48.87173" lon="2.3574">
        <ele>49.20000076294</ele>
        <time>2015-12-07T21:14:52Z</time>
      </trkpt>
      <trkpt lat="48.87168" lon="2.35737">
        <ele>49.20000076294</ele>
        <time>2015-12-07T21:14:53Z</time>
      </trkpt>
      <trkpt lat="48.87151" lon="2.35726">
        <ele>48.400001525879</ele>
        <time>2015-12-07T21:14:58Z</time>
      </trkpt>
      <trkpt lat="48.87133" lon="2.35714">
        <ele>47.79999923706</ele>
        <time>2015-12-07T21:15:03Z</time>
      </trkpt>
      <trkpt lat="48.87126" lon="2.3571">
        <ele>47.400001525879</ele>
        <time>2015-12-07T21:15:05Z</time>
      </trkpt>
      <trkpt lat="48.87111" lon="2.35698">
        <ele>46.79999923706</ele>
        <time>2015-12-07T21:15:09Z</time>
      </trkpt>
      <trkpt lat="48.87091" lon="2.35687">
        <ele>47</ele>
        <time>2015-12-07T21:15:14Z</time>
      </trkpt>
      <trkpt lat="48.87071" lon="2.35685">
        <ele>47.599998474121</ele>
        <time>2015-12-07T21:15:18Z</time>
      </trkpt>
      <trkpt lat="48.87052" lon="2.35677">
        <ele>48.20000076294</ele>
        <time>2015-12-07T21:15:23Z</time>
      </trkpt>
      <trkpt lat="48.87034" lon="2.35663">
        <ele>48.79999923706</ele>
        <time>2015-12-07T21:15:28Z</time>
      </trkpt>
      <trkpt lat="48.87019" lon="2.35651">
        <ele>49</ele>
        <time>2015-12-07T21:15:32Z</time>
      </trkpt>
      <trkpt lat="48.87011" lon="2.35646">
        <ele>49</ele>
        <time>2015-12-07T21:15:34Z</time>
      </trkpt>
      <trkpt lat="48.86991" lon="2.35633">
        <ele>49</ele>
        <time>2015-12-07T21:15:39Z</time>
      </trkpt>
      <trkpt lat="48.86972" lon="2.35618">
        <ele>49</ele>
        <time>2015-12-07T21:15:44Z</time>
      </trkpt>
      <trkpt lat="48.86962" lon="2.3561">
        <ele>49</ele>
        <time>2015-12-07T21:15:47Z</time>
      </trkpt>
      <trkpt lat="48.86942" lon="2.35608">
        <ele>49</ele>
        <time>2015-12-07T21:15:50Z</time>
      </trkpt>
      <trkpt lat="48.86933" lon="2.356">
        <ele>48.79999923706</ele>
        <time>2015-12-07T21:15:53Z</time>
      </trkpt>
      <trkpt lat="48.86922" lon="2.35585">
        <ele>48.599998474121</ele>
        <time>2015-12-07T21:16:00Z</time>
      </trkpt>
      <trkpt lat="48.86919" lon="2.35584">
        <ele>48.599998474121</ele>
        <time>2015-12-07T21:16:02Z</time>
      </trkpt>
      <trkpt lat="48.86906" lon="2.35555">
        <ele>48.400001525879</ele>
        <time>2015-12-07T21:16:26Z</time>
      </trkpt>
      <trkpt lat="48.86891" lon="2.35551">
        <ele>48.20000076294</ele>
        <time>2015-12-07T21:16:41Z</time>
      </trkpt>
      <trkpt lat="48.86882" lon="2.35548">
        <ele>48</ele>
        <time>2015-12-07T21:16:45Z</time>
      </trkpt>
      <trkpt lat="48.86862" lon="2.35543">
        <ele>47.599998474121</ele>
        <time>2015-12-07T21:16:50Z</time>
      </trkpt>
      <trkpt lat="48.86843" lon="2.35536">
        <ele>46.20000076294</ele>
        <time>2015-12-07T21:16:54Z</time>
      </trkpt>
      <trkpt lat="48.86824" lon="2.35531">
        <ele>44.599998474121</ele>
        <time>2015-12-07T21:16:59Z</time>
      </trkpt>
      <trkpt lat="48.86806" lon="2.35522">
        <ele>43</ele>
        <time>2015-12-07T21:17:03Z</time>
      </trkpt>
      <trkpt lat="48.86788" lon="2.35512">
        <ele>41.400001525879</ele>
        <time>2015-12-07T21:17:07Z</time>
      </trkpt>
      <trkpt lat="48.86768" lon="2.35498">
        <ele>39.79999923706</ele>
        <time>2015-12-07T21:17:11Z</time>
      </trkpt>
      <trkpt lat="48.86751" lon="2.35487">
        <ele>40.599998474121</ele>
        <time>2015-12-07T21:17:14Z</time>
      </trkpt>
      <trkpt lat="48.86744" lon="2.35485">
        <ele>40.400001525879</ele>
        <time>2015-12-07T21:17:15Z</time>
      </trkpt>
      <trkpt lat="48.86723" lon="2.35478">
        <ele>40.599998474121</ele>
        <time>2015-12-07T21:17:18Z</time>
      </trkpt>
      <trkpt lat="48.86706" lon="2.35467">
        <ele>41.400001525879</ele>
        <time>2015-12-07T21:17:21Z</time>
      </trkpt>
      <trkpt lat="48.86688" lon="2.3545">
        <ele>42.599998474121</ele>
        <time>2015-12-07T21:17:25Z</time>
      </trkpt>
      <trkpt lat="48.86682" lon="2.35445">
        <ele>43.20000076294</ele>
        <time>2015-12-07T21:17:27Z</time>
      </trkpt>
      <trkpt lat="48.86676" lon="2.35443">
        <ele>43.599998474121</ele>
        <time>2015-12-07T21:17:29Z</time>
      </trkpt>
      <trkpt lat="48.86657" lon="2.3543">
        <ele>45.20000076294</ele>
        <time>2015-12-07T21:17:34Z</time>
      </trkpt>
      <trkpt lat="48.86642" lon="2.3542">
        <ele>46.599998474121</ele>
        <time>2015-12-07T21:17:38Z</time>
      </trkpt>
      <trkpt lat="48.86624" lon="2.35405">
        <ele>47.599998474121</ele>
        <time>2015-12-07T21:17:43Z</time>
      </trkpt>
      <trkpt lat="48.8662" lon="2.35402">
        <ele>47.599998474121</ele>
        <time>2015-12-07T21:17:44Z</time>
      </trkpt>
      <trkpt lat="48.86608" lon="2.35393">
        <ele>48</ele>
        <time>2015-12-07T21:17:49Z</time>
      </trkpt>
      <trkpt lat="48.86591" lon="2.35379">
        <ele>47.400001525879</ele>
        <time>2015-12-07T21:18:29Z</time>
      </trkpt>
      <trkpt lat="48.86571" lon="2.35373">
        <ele>46.79999923706</ele>
        <time>2015-12-07T21:18:37Z</time>
      </trkpt>
      <trkpt lat="48.8655" lon="2.35368">
        <ele>46.400001525879</ele>
        <time>2015-12-07T21:18:43Z</time>
      </trkpt>
      <trkpt lat="48.86533" lon="2.3536">
        <ele>46.20000076294</ele>
        <time>2015-12-07T21:18:48Z</time>
      </trkpt>
      <trkpt lat="48.86515" lon="2.35351">
        <ele>46</ele>
        <time>2015-12-07T21:18:53Z</time>
      </trkpt>
      <trkpt lat="48.86498" lon="2.3534">
        <ele>45.400001525879</ele>
        <time>2015-12-07T21:18:58Z</time>
      </trkpt>
      <trkpt lat="48.8648" lon="2.35331">
        <ele>45</ele>
        <time>2015-12-07T21:19:04Z</time>
      </trkpt>
      <trkpt lat="48.86459" lon="2.35323">
        <ele>45.20000076294</ele>
        <time>2015-12-07T21:19:11Z</time>
      </trkpt>
      <trkpt lat="48.86441" lon="2.3532">
        <ele>45.20000076294</ele>
        <time>2015-12-07T21:19:17Z</time>
      </trkpt>
      <trkpt lat="48.86422" lon="2.35314">
        <ele>45.20000076294</ele>
        <time>2015-12-07T21:19:23Z</time>
      </trkpt>
      <trkpt lat="48.86404" lon="2.35309">
        <ele>45.20000076294</ele>
        <time>2015-12-07T21:19:28Z</time>
      </trkpt>
      <trkpt lat="48.86386" lon="2.35302">
        <ele>45</ele>
        <time>2015-12-07T21:19:33Z</time>
      </trkpt>
      <trkpt lat="48.86365" lon="2.35303">
        <ele>44.79999923706</ele>
        <time>2015-12-07T21:19:39Z</time>
      </trkpt>
      <trkpt lat="48.86347" lon="2.35289">
        <ele>45.20000076294</ele>
        <time>2015-12-07T21:19:44Z</time>
      </trkpt>
      <trkpt lat="48.8633" lon="2.35268">
        <ele>46.20000076294</ele>
        <time>2015-12-07T21:19:48Z</time>
      </trkpt>
      <trkpt lat="48.86318" lon="2.35256">
        <ele>46.79999923706</ele>
        <time>2015-12-07T21:19:51Z</time>
      </trkpt>
      <trkpt lat="48.86316" lon="2.35243">
        <ele>47</ele>
        <time>2015-12-07T21:20:04Z</time>
      </trkpt>
      <trkpt lat="48.86309" lon="2.35235">
        <ele>47.400001525879</ele>
        <time>2015-12-07T21:20:08Z</time>
      </trkpt>
      <trkpt lat="48.86291" lon="2.35231">
        <ele>48</ele>
        <time>2015-12-07T21:20:14Z</time>
      </trkpt>
      <trkpt lat="48.86269" lon="2.35225">
        <ele>48.400001525879</ele>
        <time>2015-12-07T21:20:20Z</time>
      </trkpt>
      <trkpt lat="48.8625" lon="2.35211">
        <ele>47.79999923706</ele>
        <time>2015-12-07T21:20:26Z</time>
      </trkpt>
      <trkpt lat="48.86231" lon="2.35204">
        <ele>47</ele>
        <time>2015-12-07T21:20:31Z</time>
      </trkpt>
      <trkpt lat="48.86213" lon="2.35203">
        <ele>46.400001525879</ele>
        <time>2015-12-07T21:20:37Z</time>
      </trkpt>
      <trkpt lat="48.86196" lon="2.35195">
        <ele>45.79999923706</ele>
        <time>2015-12-07T21:20:42Z</time>
      </trkpt>
      <trkpt lat="48.86174" lon="2.35189">
        <ele>45.79999923706</ele>
        <time>2015-12-07T21:20:48Z</time>
      </trkpt>
      <trkpt lat="48.86156" lon="2.35184">
        <ele>46.20000076294</ele>
        <time>2015-12-07T21:20:53Z</time>
      </trkpt>
      <trkpt lat="48.86139" lon="2.35173">
        <ele>46.599998474121</ele>
        <time>2015-12-07T21:20:57Z</time>
      </trkpt>
      <trkpt lat="48.8612" lon="2.35164">
        <ele>46.79999923706</ele>
        <time>2015-12-07T21:21:02Z</time>
      </trkpt>
      <trkpt lat="48.86099" lon="2.35158">
        <ele>46.79999923706</ele>
        <time>2015-12-07T21:21:08Z</time>
      </trkpt>
      <trkpt lat="48.86078" lon="2.35159">
        <ele>47</ele>
        <time>2015-12-07T21:21:14Z</time>
      </trkpt>
      <trkpt lat="48.86059" lon="2.35156">
        <ele>47.20000076294</ele>
        <time>2015-12-07T21:21:19Z</time>
      </trkpt>
      <trkpt lat="48.86038" lon="2.35157">
        <ele>47.400001525879</ele>
        <time>2015-12-07T21:21:25Z</time>
      </trkpt>
      <trkpt lat="48.86027" lon="2.35134">
        <ele>46.599998474121</ele>
        <time>2015-12-07T21:21:29Z</time>
      </trkpt>
      <trkpt lat="48.86024" lon="2.35107">
        <ele>45.20000076294</ele>
        <time>2015-12-07T21:21:37Z</time>
      </trkpt>
      <trkpt lat="48.8603" lon="2.35078">
        <ele>44.20000076294</ele>
        <time>2015-12-07T21:21:42Z</time>
      </trkpt>
      <trkpt lat="48.86034" lon="2.35046">
        <ele>45.599998474121</ele>
        <time>2015-12-07T21:21:48Z</time>
      </trkpt>
      <trkpt lat="48.86042" lon="2.3502">
        <ele>47</ele>
        <time>2015-12-07T21:21:54Z</time>
      </trkpt>
      <trkpt lat="48.86052" lon="2.34994">
        <ele>47.400001525879</ele>
        <time>2015-12-07T21:22:02Z</time>
      </trkpt>
      <trkpt lat="48.86052" lon="2.34979">
        <ele>47.599998474121</ele>
        <time>2015-12-07T21:22:08Z</time>
      </trkpt>
      <trkpt lat="48.86053" lon="2.34975">
        <ele>47.599998474121</ele>
        <time>2015-12-07T21:22:10Z</time>
      </trkpt>
      <trkpt lat="48.86052" lon="2.34955">
        <ele>47.79999923706</ele>
        <time>2015-12-07T21:22:22Z</time>
      </trkpt>
      <trkpt lat="48.86051" lon="2.3494">
        <ele>48</ele>
        <time>2015-12-07T21:22:39Z</time>
      </trkpt>
      <trkpt lat="48.86053" lon="2.34934">
        <ele>48</ele>
        <time>2015-12-07T21:22:45Z</time>
      </trkpt>
      <trkpt lat="48.86064" lon="2.34909">
        <ele>48</ele>
        <time>2015-12-07T21:22:57Z</time>
      </trkpt>
      <trkpt lat="48.86072" lon="2.34883">
        <ele>47.400001525879</ele>
        <time>2015-12-07T21:23:05Z</time>
      </trkpt>
      <trkpt lat="48.86072" lon="2.34871">
        <ele>47.20000076294</ele>
        <time>2015-12-07T21:23:09Z</time>
      </trkpt>
      <trkpt lat="48.86055" lon="2.34856">
        <ele>47.400001525879</ele>
        <time>2015-12-07T21:23:16Z</time>
      </trkpt>
      <trkpt lat="48.86038" lon="2.34845">
        <ele>47.79999923706</ele>
        <time>2015-12-07T21:23:23Z</time>
      </trkpt>
      <trkpt lat="48.86016" lon="2.34839">
        <ele>48</ele>
        <time>2015-12-07T21:23:32Z</time>
      </trkpt>
      <trkpt lat="48.85998" lon="2.34833">
        <ele>48</ele>
        <time>2015-12-07T21:23:38Z</time>
      </trkpt>
      <trkpt lat="48.85981" lon="2.34816">
        <ele>47.20000076294</ele>
        <time>2015-12-07T21:23:43Z</time>
      </trkpt>
      <trkpt lat="48.85965" lon="2.34803">
        <ele>46.599998474121</ele>
        <time>2015-12-07T21:23:51Z</time>
      </trkpt>
      <trkpt lat="48.85959" lon="2.34801">
        <ele>46.599998474121</ele>
        <time>2015-12-07T21:23:56Z</time>
      </trkpt>
      <trkpt lat="48.85963" lon="2.34792">
        <ele>46.20000076294</ele>
        <time>2015-12-07T21:24:02Z</time>
      </trkpt>
      <trkpt lat="48.85968" lon="2.34774">
        <ele>45.20000076294</ele>
        <time>2015-12-07T21:24:07Z</time>
      </trkpt>
      <trkpt lat="48.85966" lon="2.34745">
        <ele>44.400001525879</ele>
        <time>2015-12-07T21:24:20Z</time>
      </trkpt>
      <trkpt lat="48.85962" lon="2.34732">
        <ele>44.79999923706</ele>
        <time>2015-12-07T21:24:34Z</time>
      </trkpt>
    </trkseg>
  </trk>
</gpx>